<?xml version='1.0' encoding='UTF-8'?><gpx version="1.1" creator="JPX - https://github.com/jenetics/jpx" xmlns="http://www.topografix.com/GPX/1/1"><trk><trkseg><trkpt lat="44.81936789266682" lon="9.5022218769806"><ele>205.0</ele><time>2026-03-27T13:07:09Z</time></trkpt><trkpt lat="44.81944230143773" lon="9.502172658600653"><ele>205.0</ele><time>2026-03-27T13:07:11Z</time></trkpt><trkpt lat="44.81950751699972" lon="9.502122266525475"><ele>205.0</ele><time>2026-03-27T13:07:13Z</time></trkpt><trkpt lat="44.81959449896829" lon="9.502004228065246"><ele>205.0</ele><time>2026-03-27T13:07:15Z</time></trkpt><trkpt lat="44.81967563173225" lon="9.50186604440033"><ele>205.0</ele><time>2026-03-27T13:07:17Z</time></trkpt><trkpt lat="44.819720426008985" lon="9.501777874580696"><ele>205.16666666666666</ele><time>2026-03-27T13:07:18Z</time></trkpt><trkpt lat="44.81977430920808" lon="9.501686622788464"><ele>205.33333333333331</ele><time>2026-03-27T13:07:19Z</time></trkpt><trkpt lat="44.8198512756442" lon="9.5016201051201"><ele>205.5</ele><time>2026-03-27T13:07:20Z</time></trkpt><trkpt lat="44.81991880040889" lon="9.50153196783949"><ele>205.66666666666669</ele><time>2026-03-27T13:07:21Z</time></trkpt><trkpt lat="44.819964414272576" lon="9.501421818672492"><ele>205.83333333333334</ele><time>2026-03-27T13:07:22Z</time></trkpt><trkpt lat="44.820020335417155" lon="9.501323096333055"><ele>206.0</ele><time>2026-03-27T13:07:23Z</time></trkpt><trkpt lat="44.820061660270525" lon="9.501203599395756"><ele>207.16666666666669</ele><time>2026-03-27T13:07:24Z</time></trkpt><trkpt lat="44.82009438548958" lon="9.501080514932296"><ele>208.33333333333334</ele><time>2026-03-27T13:07:25Z</time></trkpt><trkpt lat="44.820106965615565" lon="9.500970094627291"><ele>209.5</ele><time>2026-03-27T13:07:26Z</time></trkpt><trkpt lat="44.820099117856564" lon="9.50087421249631"><ele>210.66666666666669</ele><time>2026-03-27T13:07:30Z</time></trkpt><trkpt lat="44.82010882443977" lon="9.50077166684058"><ele>211.83333333333334</ele><time>2026-03-27T13:07:38Z</time></trkpt><trkpt lat="44.820115045996126" lon="9.50060916634842"><ele>213.0</ele><time>2026-03-27T13:07:40Z</time></trkpt><trkpt lat="44.82012484164048" lon="9.500429917428354"><ele>214.2</ele><time>2026-03-27T13:07:42Z</time></trkpt><trkpt lat="44.82013080650448" lon="9.500309433091434"><ele>215.4</ele><time>2026-03-27T13:07:43Z</time></trkpt><trkpt lat="44.82013887264174" lon="9.500174085623787"><ele>216.59999999999997</ele><time>2026-03-27T13:07:44Z</time></trkpt><trkpt lat="44.82015249306079" lon="9.500031737244322"><ele>217.79999999999998</ele><time>2026-03-27T13:07:45Z</time></trkpt><trkpt lat="44.82015893904412" lon="9.499893438267943"><ele>219.0</ele><time>2026-03-27T13:07:46Z</time></trkpt><trkpt lat="44.82016683413214" lon="9.499749231130076"><ele>218.25</ele><time>2026-03-27T13:07:47Z</time></trkpt><trkpt lat="44.82017056398206" lon="9.499593272035428"><ele>217.5</ele><time>2026-03-27T13:07:48Z</time></trkpt><trkpt lat="44.82016895515307" lon="9.499421879783142"><ele>216.75</ele><time>2026-03-27T13:07:49Z</time></trkpt><trkpt lat="44.820148976632495" lon="9.499246243714875"><ele>216.0</ele><time>2026-03-27T13:07:50Z</time></trkpt><trkpt lat="44.82012407330944" lon="9.49906347990928"><ele>216.0</ele><time>2026-03-27T13:07:51Z</time></trkpt><trkpt lat="44.82009349643987" lon="9.498890719430724"><ele>216.0</ele><time>2026-03-27T13:07:52Z</time></trkpt><trkpt lat="44.820056941069005" lon="9.4987260244958"><ele>216.0</ele><time>2026-03-27T13:07:53Z</time></trkpt><trkpt lat="44.82001419204787" lon="9.498582455945785"><ele>216.0</ele><time>2026-03-27T13:07:54Z</time></trkpt><trkpt lat="44.81996037551779" lon="9.49846750385117"><ele>215.4</ele><time>2026-03-27T13:07:55Z</time></trkpt><trkpt lat="44.81989722295462" lon="9.49836899644393"><ele>214.8</ele><time>2026-03-27T13:07:56Z</time></trkpt><trkpt lat="44.81983222884049" lon="9.498291159462363"><ele>214.20000000000002</ele><time>2026-03-27T13:07:57Z</time></trkpt><trkpt lat="44.81973983972828" lon="9.498248782907465"><ele>213.60000000000002</ele><time>2026-03-27T13:07:58Z</time></trkpt><trkpt lat="44.819638655499126" lon="9.498190522515952"><ele>213.0</ele><time>2026-03-27T13:07:59Z</time></trkpt><trkpt lat="44.819562304627446" lon="9.498091546331928"><ele>213.0</ele><time>2026-03-27T13:08:00Z</time></trkpt><trkpt lat="44.8195029965029" lon="9.497963224588338"><ele>213.0</ele><time>2026-03-27T13:08:01Z</time></trkpt><trkpt lat="44.81946410291098" lon="9.497815939463406"><ele>213.0</ele><time>2026-03-27T13:08:02Z</time></trkpt><trkpt lat="44.8194581965435" lon="9.497665670601277"><ele>213.0</ele><time>2026-03-27T13:08:03Z</time></trkpt><trkpt lat="44.81947018775845" lon="9.497511109868803"><ele>213.0</ele><time>2026-03-27T13:08:04Z</time></trkpt><trkpt lat="44.819487560010394" lon="9.497360869524519"><ele>210.75</ele><time>2026-03-27T13:08:05Z</time></trkpt><trkpt lat="44.81950910122535" lon="9.497205560690137"><ele>208.5</ele><time>2026-03-27T13:08:06Z</time></trkpt><trkpt lat="44.819488615844136" lon="9.497046517714013"><ele>206.25</ele><time>2026-03-27T13:08:07Z</time></trkpt><trkpt lat="44.81943586851839" lon="9.4968939381997"><ele>204.0</ele><time>2026-03-27T13:08:08Z</time></trkpt><trkpt lat="44.81936536174536" lon="9.496744371583357"><ele>207.5</ele><time>2026-03-27T13:08:09Z</time></trkpt><trkpt lat="44.819290917683205" lon="9.496588113759445"><ele>211.0</ele><time>2026-03-27T13:08:10Z</time></trkpt><trkpt lat="44.81922077662457" lon="9.496433455131534"><ele>214.5</ele><time>2026-03-27T13:08:11Z</time></trkpt><trkpt lat="44.81915472753636" lon="9.49628260166133"><ele>218.0</ele><time>2026-03-27T13:08:12Z</time></trkpt><trkpt lat="44.819084377732985" lon="9.496114523058786"><ele>218.0</ele><time>2026-03-27T13:08:13Z</time></trkpt><trkpt lat="44.81901310513457" lon="9.495947468252476"><ele>218.0</ele><time>2026-03-27T13:08:14Z</time></trkpt><trkpt lat="44.81894665099692" lon="9.495780115654114"><ele>218.0</ele><time>2026-03-27T13:08:15Z</time></trkpt><trkpt lat="44.81887927785074" lon="9.49562281733603"><ele>218.0</ele><time>2026-03-27T13:08:16Z</time></trkpt><trkpt lat="44.818807861854054" lon="9.495476592019939"><ele>215.75</ele><time>2026-03-27T13:08:17Z</time></trkpt><trkpt lat="44.818711280868236" lon="9.495357992924289"><ele>213.5</ele><time>2026-03-27T13:08:18Z</time></trkpt><trkpt lat="44.81859627645303" lon="9.495251404098575"><ele>211.25</ele><time>2026-03-27T13:08:19Z</time></trkpt><trkpt lat="44.81848208548821" lon="9.495151615516772"><ele>209.0</ele><time>2026-03-27T13:08:20Z</time></trkpt><trkpt lat="44.81839276829874" lon="9.495023123890007"><ele>212.5</ele><time>2026-03-27T13:08:21Z</time></trkpt><trkpt lat="44.81832829764518" lon="9.49489621191227"><ele>216.0</ele><time>2026-03-27T13:08:22Z</time></trkpt><trkpt lat="44.818276328931475" lon="9.494757664631518"><ele>219.5</ele><time>2026-03-27T13:08:23Z</time></trkpt><trkpt lat="44.818290591219856" lon="9.494591931018013"><ele>223.0</ele><time>2026-03-27T13:08:24Z</time></trkpt><trkpt lat="44.81827946331837" lon="9.494422653831947"><ele>223.0</ele><time>2026-03-27T13:08:25Z</time></trkpt><trkpt lat="44.818294699753764" lon="9.49424328361041"><ele>223.0</ele><time>2026-03-27T13:08:26Z</time></trkpt><trkpt lat="44.81829501971202" lon="9.49406636971437"><ele>223.0</ele><time>2026-03-27T13:08:27Z</time></trkpt><trkpt lat="44.81827391793241" lon="9.493906863819397"><ele>223.0</ele><time>2026-03-27T13:08:28Z</time></trkpt><trkpt lat="44.818232620004345" lon="9.493769636635795"><ele>221.8</ele><time>2026-03-27T13:08:29Z</time></trkpt><trkpt lat="44.818164947636184" lon="9.49364624055828"><ele>220.60000000000002</ele><time>2026-03-27T13:08:30Z</time></trkpt><trkpt lat="44.818079190447406" lon="9.49354229134723"><ele>219.39999999999998</ele><time>2026-03-27T13:08:31Z</time></trkpt><trkpt lat="44.81798785829851" lon="9.493468373531037"><ele>218.2</ele><time>2026-03-27T13:08:32Z</time></trkpt><trkpt lat="44.81789069848988" lon="9.493444210876085"><ele>217.0</ele><time>2026-03-27T13:08:33Z</time></trkpt><trkpt lat="44.817785116727975" lon="9.49345077662213"><ele>217.0</ele><time>2026-03-27T13:08:34Z</time></trkpt><trkpt lat="44.817675037901694" lon="9.493480145807295"><ele>217.0</ele><time>2026-03-27T13:08:35Z</time></trkpt><trkpt lat="44.81756906890588" lon="9.493498518536638"><ele>217.0</ele><time>2026-03-27T13:08:36Z</time></trkpt><trkpt lat="44.8174631614165" lon="9.493490511932064"><ele>217.0</ele><time>2026-03-27T13:08:37Z</time></trkpt><trkpt lat="44.81735795175132" lon="9.493459970140833"><ele>217.0</ele><time>2026-03-27T13:08:38Z</time></trkpt><trkpt lat="44.81725748111816" lon="9.493416799367035"><ele>219.2</ele><time>2026-03-27T13:08:39Z</time></trkpt><trkpt lat="44.81716545361344" lon="9.493341894448411"><ele>221.39999999999998</ele><time>2026-03-27T13:08:40Z</time></trkpt><trkpt lat="44.817062528259626" lon="9.493307856238943"><ele>223.60000000000002</ele><time>2026-03-27T13:08:41Z</time></trkpt><trkpt lat="44.816971327751986" lon="9.493240530919733"><ele>225.8</ele><time>2026-03-27T13:08:42Z</time></trkpt><trkpt lat="44.816892519548915" lon="9.493163461594"><ele>228.0</ele><time>2026-03-27T13:08:43Z</time></trkpt><trkpt lat="44.81683400522332" lon="9.493068893307772"><ele>227.33333333333334</ele><time>2026-03-27T13:08:44Z</time></trkpt><trkpt lat="44.816792312366914" lon="9.492951126773557"><ele>226.66666666666669</ele><time>2026-03-27T13:08:45Z</time></trkpt><trkpt lat="44.816789516466315" lon="9.49281671710531"><ele>226.0</ele><time>2026-03-27T13:08:46Z</time></trkpt><trkpt lat="44.816799383175294" lon="9.492697293535118"><ele>225.33333333333334</ele><time>2026-03-27T13:08:47Z</time></trkpt><trkpt lat="44.816819828473896" lon="9.492589653208933"><ele>224.66666666666669</ele><time>2026-03-27T13:08:48Z</time></trkpt><trkpt lat="44.81685552392824" lon="9.492513868744503"><ele>224.0</ele><time>2026-03-27T13:08:48.999Z</time></trkpt><trkpt lat="44.81676950820239" lon="9.49240821832506"><ele>226.39999999999998</ele><time>2026-03-27T13:08:52.999Z</time></trkpt><trkpt lat="44.81665621213842" lon="9.492469849084657"><ele>228.79999999999998</ele><time>2026-03-27T13:08:54.999Z</time></trkpt><trkpt lat="44.816584007025995" lon="9.492526958940957"><ele>231.20000000000002</ele><time>2026-03-27T13:08:55.999Z</time></trkpt><trkpt lat="44.816505965691874" lon="9.492589916053495"><ele>233.60000000000002</ele><time>2026-03-27T13:08:56.999Z</time></trkpt><trkpt lat="44.81642124901482" lon="9.492660304378454"><ele>236.0</ele><time>2026-03-27T13:08:57.999Z</time></trkpt><trkpt lat="44.816336414541844" lon="9.492722589873594"><ele>236.00000000000003</ele><time>2026-03-27T13:08:58.999Z</time></trkpt><trkpt lat="44.816253607123905" lon="9.492776988847496"><ele>236.0</ele><time>2026-03-27T13:08:59.999Z</time></trkpt><trkpt lat="44.81617183033004" lon="9.492828967514917"><ele>236.0</ele><time>2026-03-27T13:09:00.999Z</time></trkpt><trkpt lat="44.816102814246634" lon="9.492888303169012"><ele>236.0</ele><time>2026-03-27T13:09:01.999Z</time></trkpt><trkpt lat="44.81603233885562" lon="9.49294116728164"><ele>236.00000000000003</ele><time>2026-03-27T13:09:02.999Z</time></trkpt><trkpt lat="44.815977708296195" lon="9.493015278958818"><ele>236.0</ele><time>2026-03-27T13:09:03.999Z</time></trkpt><trkpt lat="44.8159284890377" lon="9.4930812724995"><ele>238.66666666666669</ele><time>2026-03-27T13:09:04.999Z</time></trkpt><trkpt lat="44.81584603772559" lon="9.493191823847535"><ele>241.33333333333334</ele><time>2026-03-27T13:09:06.999Z</time></trkpt><trkpt lat="44.81578335161761" lon="9.49326118859977"><ele>244.0</ele><time>2026-03-27T13:09:08.999Z</time></trkpt><trkpt lat="44.81575553090964" lon="9.493135715560278"><ele>246.66666666666669</ele><time>2026-03-27T13:09:13.999Z</time></trkpt><trkpt lat="44.81578919668008" lon="9.49305218957974"><ele>249.33333333333334</ele><time>2026-03-27T13:09:14.999Z</time></trkpt><trkpt lat="44.815818191924755" lon="9.492971448710996"><ele>252.0</ele><time>2026-03-27T13:09:15.999Z</time></trkpt><trkpt lat="44.81585362560525" lon="9.492894602732031"><ele>252.8</ele><time>2026-03-27T13:09:16.999Z</time></trkpt><trkpt lat="44.81594884035323" lon="9.492750869038224"><ele>253.6</ele><time>2026-03-27T13:09:18.999Z</time></trkpt><trkpt lat="44.81601082650071" lon="9.492657243715795"><ele>254.40000000000003</ele><time>2026-03-27T13:09:19.999Z</time></trkpt><trkpt lat="44.816068343756356" lon="9.492564505024253"><ele>255.20000000000002</ele><time>2026-03-27T13:09:20.999Z</time></trkpt><trkpt lat="44.81611338350391" lon="9.492471982238818"><ele>256.0</ele><time>2026-03-27T13:09:21.999Z</time></trkpt><trkpt lat="44.816147909477685" lon="9.492371572248707"><ele>253.33333333333331</ele><time>2026-03-27T13:09:22.999Z</time></trkpt><trkpt lat="44.81617089275307" lon="9.49225721155676"><ele>250.66666666666666</ele><time>2026-03-27T13:09:23.999Z</time></trkpt><trkpt lat="44.816186100400245" lon="9.492148820747554"><ele>248.0</ele><time>2026-03-27T13:09:24.999Z</time></trkpt><trkpt lat="44.816191084679936" lon="9.49205172382692"><ele>245.33333333333331</ele><time>2026-03-27T13:09:25.999Z</time></trkpt><trkpt lat="44.81613728798647" lon="9.491905810992503"><ele>242.66666666666666</ele><time>2026-03-27T13:09:27.999Z</time></trkpt><trkpt lat="44.81607303689032" lon="9.491872623254816"><ele>240.0</ele><time>2026-03-27T13:09:28.999Z</time></trkpt><trkpt lat="44.81599043247261" lon="9.491924444203743"><ele>242.0</ele><time>2026-03-27T13:09:29.999Z</time></trkpt><trkpt lat="44.815918853334075" lon="9.491965012958005"><ele>244.0</ele><time>2026-03-27T13:09:30.999Z</time></trkpt><trkpt lat="44.81585658525042" lon="9.492035667379687"><ele>246.0</ele><time>2026-03-27T13:09:31.999Z</time></trkpt><trkpt lat="44.815800158087704" lon="9.492129009281307"><ele>248.0</ele><time>2026-03-27T13:09:32.999Z</time></trkpt><trkpt lat="44.8157511423687" lon="9.492211997794632"><ele>250.0</ele><time>2026-03-27T13:09:33.999Z</time></trkpt><trkpt lat="44.815686650161624" lon="9.492264773956194"><ele>252.0</ele><time>2026-03-27T13:09:34.999Z</time></trkpt><trkpt lat="44.81558364569247" lon="9.492354478039683"><ele>252.66666666666666</ele><time>2026-03-27T13:09:36.999Z</time></trkpt><trkpt lat="44.81552619943862" lon="9.492396525274263"><ele>253.33333333333331</ele><time>2026-03-27T13:09:38.999Z</time></trkpt><trkpt lat="44.815462701190974" lon="9.49255124236761"><ele>254.0</ele><time>2026-03-27T13:09:40.999Z</time></trkpt><trkpt lat="44.815390917614266" lon="9.492569964398387"><ele>254.66666666666666</ele><time>2026-03-27T13:09:41.999Z</time></trkpt><trkpt lat="44.81532249953128" lon="9.492562404387794"><ele>255.33333333333331</ele><time>2026-03-27T13:09:42.999Z</time></trkpt><trkpt lat="44.815236348472425" lon="9.492531310401862"><ele>256.0</ele><time>2026-03-27T13:09:44.999Z</time></trkpt><trkpt lat="44.815172081967305" lon="9.492504935039392"><ele>258.8333333333333</ele><time>2026-03-27T13:09:49.999Z</time></trkpt><trkpt lat="44.815102574891995" lon="9.492504443780991"><ele>261.66666666666663</ele><time>2026-03-27T13:09:52.999Z</time></trkpt><trkpt lat="44.815037537575314" lon="9.492515296664116"><ele>264.5</ele><time>2026-03-27T13:09:54.999Z</time></trkpt><trkpt lat="44.814968012615594" lon="9.492527844487897"><ele>267.3333333333333</ele><time>2026-03-27T13:09:57.999Z</time></trkpt><trkpt lat="44.81487868662059" lon="9.492577221333375"><ele>270.1666666666667</ele><time>2026-03-27T13:10:00.999Z</time></trkpt><trkpt lat="44.814792969994016" lon="9.492656489853918"><ele>273.0</ele><time>2026-03-27T13:10:02.999Z</time></trkpt><trkpt lat="44.814697385807676" lon="9.492695455151582"><ele>273.0</ele><time>2026-03-27T13:10:04.999Z</time></trkpt><trkpt lat="44.814612961833475" lon="9.492754834256719"><ele>273.0</ele><time>2026-03-27T13:10:06.999Z</time></trkpt><trkpt lat="44.81452935387826" lon="9.492805821480713"><ele>273.0</ele><time>2026-03-27T13:10:08.999Z</time></trkpt><trkpt lat="44.81443851473923" lon="9.492841361144258"><ele>273.0</ele><time>2026-03-27T13:10:10.999Z</time></trkpt><trkpt lat="44.81435144034715" lon="9.492906090575419"><ele>273.0</ele><time>2026-03-27T13:10:12.999Z</time></trkpt><trkpt lat="44.81427250052335" lon="9.492951236887958"><ele>275.6666666666667</ele><time>2026-03-27T13:10:14.999Z</time></trkpt><trkpt lat="44.814218181851565" lon="9.493030717884661"><ele>278.3333333333333</ele><time>2026-03-27T13:10:16.999Z</time></trkpt><trkpt lat="44.814154405218254" lon="9.493094847912642"><ele>281.0</ele><time>2026-03-27T13:10:18.999Z</time></trkpt><trkpt lat="44.81408318659802" lon="9.49312334546677"><ele>283.66666666666663</ele><time>2026-03-27T13:10:20.999Z</time></trkpt><trkpt lat="44.8139896139444" lon="9.49309421742275"><ele>286.3333333333333</ele><time>2026-03-27T13:10:23.999Z</time></trkpt><trkpt lat="44.81389650403511" lon="9.493095512941318"><ele>289.0</ele><time>2026-03-27T13:10:25.999Z</time></trkpt><trkpt lat="44.81382796826301" lon="9.493099332007098"><ele>289.0</ele><time>2026-03-27T13:10:27.999Z</time></trkpt><trkpt lat="44.81372744058762" lon="9.493061373030688"><ele>289.0</ele><time>2026-03-27T13:10:29.999Z</time></trkpt><trkpt lat="44.81364593604996" lon="9.493041845172202"><ele>289.0</ele><time>2026-03-27T13:10:31.999Z</time></trkpt><trkpt lat="44.81356428077179" lon="9.49300457261902"><ele>289.0</ele><time>2026-03-27T13:10:33.999Z</time></trkpt><trkpt lat="44.81345767376664" lon="9.493020366943677"><ele>289.0</ele><time>2026-03-27T13:10:35.999Z</time></trkpt><trkpt lat="44.81336593818299" lon="9.493036492827228"><ele>293.4</ele><time>2026-03-27T13:10:37.999Z</time></trkpt><trkpt lat="44.813268801587235" lon="9.493056697735113"><ele>297.79999999999995</ele><time>2026-03-27T13:10:39.999Z</time></trkpt><trkpt lat="44.813180756947276" lon="9.493047364908662"><ele>302.20000000000005</ele><time>2026-03-27T13:10:41.999Z</time></trkpt><trkpt lat="44.81309096551783" lon="9.49304788434819"><ele>306.6</ele><time>2026-03-27T13:10:43.999Z</time></trkpt><trkpt lat="44.813000337208" lon="9.493098476866551"><ele>311.0</ele><time>2026-03-27T13:10:45.999Z</time></trkpt><trkpt lat="44.81290133916414" lon="9.493154851282203"><ele>311.0</ele><time>2026-03-27T13:10:47.999Z</time></trkpt><trkpt lat="44.812812463910134" lon="9.49319491752919"><ele>311.0</ele><time>2026-03-27T13:10:49.999Z</time></trkpt><trkpt lat="44.812722074123265" lon="9.493234085904222"><ele>311.0</ele><time>2026-03-27T13:10:51.999Z</time></trkpt><trkpt lat="44.812655387475075" lon="9.493292066714957"><ele>311.0</ele><time>2026-03-27T13:10:53.999Z</time></trkpt><trkpt lat="44.812578006804685" lon="9.493372129434368"><ele>311.0</ele><time>2026-03-27T13:10:55.999Z</time></trkpt><trkpt lat="44.812503104875375" lon="9.493455472446202"><ele>313.20000000000005</ele><time>2026-03-27T13:10:57.999Z</time></trkpt><trkpt lat="44.81241714927407" lon="9.49354181232559"><ele>315.40000000000003</ele><time>2026-03-27T13:10:59.999Z</time></trkpt><trkpt lat="44.812325503766914" lon="9.49361687527566"><ele>317.6</ele><time>2026-03-27T13:11:01.999Z</time></trkpt><trkpt lat="44.81222438990955" lon="9.49369484741824"><ele>319.8</ele><time>2026-03-27T13:11:03.999Z</time></trkpt><trkpt lat="44.81217147277477" lon="9.493743868114239"><ele>322.0</ele><time>2026-03-27T13:11:04.999Z</time></trkpt><trkpt lat="44.81211583138341" lon="9.493792949658626"><ele>322.0</ele><time>2026-03-27T13:11:05.999Z</time></trkpt><trkpt lat="44.812065196099034" lon="9.493845680556946"><ele>322.0</ele><time>2026-03-27T13:11:06.999Z</time></trkpt><trkpt lat="44.81200789935816" lon="9.49390262420407"><ele>322.0</ele><time>2026-03-27T13:11:07.999Z</time></trkpt><trkpt lat="44.81195233622406" lon="9.493955991424034"><ele>322.0</ele><time>2026-03-27T13:11:08.999Z</time></trkpt><trkpt lat="44.81189566004183" lon="9.49400878864339"><ele>322.0</ele><time>2026-03-27T13:11:09.999Z</time></trkpt><trkpt lat="44.81184090381706" lon="9.494065513053744"><ele>322.0</ele><time>2026-03-27T13:11:10.999Z</time></trkpt><trkpt lat="44.81178665090558" lon="9.494113404770967"><ele>322.0</ele><time>2026-03-27T13:11:11.999Z</time></trkpt><trkpt lat="44.81172467984342" lon="9.494160771351472"><ele>324.0</ele><time>2026-03-27T13:11:12.999Z</time></trkpt><trkpt lat="44.81166854268079" lon="9.494219280151599"><ele>326.0</ele><time>2026-03-27T13:11:13.999Z</time></trkpt><trkpt lat="44.81161043664982" lon="9.494263619531774"><ele>328.0</ele><time>2026-03-27T13:11:14.999Z</time></trkpt><trkpt lat="44.81154522611158" lon="9.4943086659778"><ele>330.0</ele><time>2026-03-27T13:11:15.999Z</time></trkpt><trkpt lat="44.811485427994135" lon="9.494355761985158"><ele>332.0</ele><time>2026-03-27T13:11:16.999Z</time></trkpt><trkpt lat="44.81138618755779" lon="9.494421477658676"><ele>334.0</ele><time>2026-03-27T13:11:18.999Z</time></trkpt><trkpt lat="44.811292018269015" lon="9.494462341464095"><ele>334.0</ele><time>2026-03-27T13:11:20.999Z</time></trkpt><trkpt lat="44.811192333256365" lon="9.494577272867934"><ele>334.0</ele><time>2026-03-27T13:11:22.999Z</time></trkpt><trkpt lat="44.81114283704266" lon="9.494647372203998"><ele>334.0</ele><time>2026-03-27T13:11:23.999Z</time></trkpt><trkpt lat="44.811095326145924" lon="9.494714506964135"><ele>334.0</ele><time>2026-03-27T13:11:24.999Z</time></trkpt><trkpt lat="44.81104821028161" lon="9.494774531810858"><ele>334.0</ele><time>2026-03-27T13:11:25.999Z</time></trkpt><trkpt lat="44.81095461521276" lon="9.494858607315635"><ele>334.0</ele><time>2026-03-27T13:11:27.999Z</time></trkpt><trkpt lat="44.810869414371446" lon="9.494905366765169"><ele>335.0</ele><time>2026-03-27T13:11:29.999Z</time></trkpt><trkpt lat="44.81077995225174" lon="9.494883485313315"><ele>336.0</ele><time>2026-03-27T13:11:31.999Z</time></trkpt><trkpt lat="44.81072031971388" lon="9.494853239529775"><ele>337.0</ele><time>2026-03-27T13:11:32.999Z</time></trkpt><trkpt lat="44.81062630813445" lon="9.494771661010661"><ele>338.0</ele><time>2026-03-27T13:11:34.999Z</time></trkpt><trkpt lat="44.81052423119334" lon="9.49471287728336"><ele>339.0</ele><time>2026-03-27T13:11:36.999Z</time></trkpt><trkpt lat="44.81041921693663" lon="9.494656429899027"><ele>339.0</ele><time>2026-03-27T13:11:38.999Z</time></trkpt><trkpt lat="44.81030553977157" lon="9.494597942044555"><ele>339.0</ele><time>2026-03-27T13:11:40.999Z</time></trkpt><trkpt lat="44.81019010458412" lon="9.494569444922952"><ele>339.0</ele><time>2026-03-27T13:11:42.999Z</time></trkpt><trkpt lat="44.810078111287886" lon="9.494543883346717"><ele>339.0</ele><time>2026-03-27T13:11:44.999Z</time></trkpt><trkpt lat="44.810015869682594" lon="9.494529497494371"><ele>339.0</ele><time>2026-03-27T13:11:45.999Z</time></trkpt><trkpt lat="44.80995324432186" lon="9.494507813732527"><ele>341.2</ele><time>2026-03-27T13:11:46.999Z</time></trkpt><trkpt lat="44.80985200278231" lon="9.494458006300961"><ele>343.4</ele><time>2026-03-27T13:11:48.999Z</time></trkpt><trkpt lat="44.809750443354254" lon="9.49439320503638"><ele>345.6</ele><time>2026-03-27T13:11:50.999Z</time></trkpt><trkpt lat="44.80964601793037" lon="9.494333199339232"><ele>347.8</ele><time>2026-03-27T13:11:52.999Z</time></trkpt><trkpt lat="44.80953617226427" lon="9.494314015849584"><ele>350.0</ele><time>2026-03-27T13:11:54.999Z</time></trkpt><trkpt lat="44.80942622930685" lon="9.494351948234556"><ele>351.75</ele><time>2026-03-27T13:11:56.999Z</time></trkpt><trkpt lat="44.80930854067377" lon="9.494405901027474"><ele>353.5</ele><time>2026-03-27T13:11:58.999Z</time></trkpt><trkpt lat="44.80919984034951" lon="9.49443042955081"><ele>355.25</ele><time>2026-03-27T13:12:00.999Z</time></trkpt><trkpt lat="44.809090940005945" lon="9.494423809722283"><ele>357.0</ele><time>2026-03-27T13:12:02.999Z</time></trkpt><trkpt lat="44.80897837529475" lon="9.49437932771541"><ele>357.0</ele><time>2026-03-27T13:12:04.999Z</time></trkpt><trkpt lat="44.80886024422127" lon="9.494345242242618"><ele>357.0</ele><time>2026-03-27T13:12:06.999Z</time></trkpt><trkpt lat="44.80879593522063" lon="9.494330488740287"><ele>357.0</ele><time>2026-03-27T13:12:07.999Z</time></trkpt><trkpt lat="44.80873288977339" lon="9.494320181797255"><ele>357.0</ele><time>2026-03-27T13:12:08.999Z</time></trkpt><trkpt lat="44.80866814533818" lon="9.494310981206894"><ele>357.0</ele><time>2026-03-27T13:12:09.999Z</time></trkpt><trkpt lat="44.808603834954" lon="9.494303135389167"><ele>357.0</ele><time>2026-03-27T13:12:10.999Z</time></trkpt><trkpt lat="44.80853722375511" lon="9.494296964865914"><ele>357.0</ele><time>2026-03-27T13:12:11.999Z</time></trkpt><trkpt lat="44.8084164839421" lon="9.494293550576046"><ele>358.8333333333333</ele><time>2026-03-27T13:12:13.999Z</time></trkpt><trkpt lat="44.80828955008649" lon="9.494283996653346"><ele>360.6666666666667</ele><time>2026-03-27T13:12:15.999Z</time></trkpt><trkpt lat="44.808223081245366" lon="9.494270727799051"><ele>362.5</ele><time>2026-03-27T13:12:16.999Z</time></trkpt><trkpt lat="44.80815961147185" lon="9.494256973585598"><ele>364.33333333333337</ele><time>2026-03-27T13:12:17.999Z</time></trkpt><trkpt lat="44.80809442609717" lon="9.494247918042483"><ele>366.1666666666667</ele><time>2026-03-27T13:12:18.999Z</time></trkpt><trkpt lat="44.807971287629535" lon="9.494236149936102"><ele>368.0</ele><time>2026-03-27T13:12:20.999Z</time></trkpt><trkpt lat="44.80786618171346" lon="9.494227063598567"><ele>368.0</ele><time>2026-03-27T13:12:22.999Z</time></trkpt><trkpt lat="44.807793191986406" lon="9.494206857077902"><ele>368.0</ele><time>2026-03-27T13:12:24.999Z</time></trkpt><trkpt lat="44.807683726082786" lon="9.49416963708349"><ele>368.0</ele><time>2026-03-27T13:12:26.999Z</time></trkpt><trkpt lat="44.807573240474305" lon="9.494137203095814"><ele>368.0</ele><time>2026-03-27T13:12:28.999Z</time></trkpt><trkpt lat="44.80746886051293" lon="9.494097941180687"><ele>368.0</ele><time>2026-03-27T13:12:30.999Z</time></trkpt><trkpt lat="44.80738374343364" lon="9.49403874106635"><ele>368.5</ele><time>2026-03-27T13:12:33.999Z</time></trkpt><trkpt lat="44.80730726536756" lon="9.494005522655184"><ele>369.0</ele><time>2026-03-27T13:12:35.999Z</time></trkpt><trkpt lat="44.80723200910102" lon="9.493956676178074"><ele>369.5</ele><time>2026-03-27T13:12:37.999Z</time></trkpt><trkpt lat="44.807148835048636" lon="9.493903527303699"><ele>370.0</ele><time>2026-03-27T13:12:39.999Z</time></trkpt><trkpt lat="44.8070580728988" lon="9.493826267720708"><ele>370.5</ele><time>2026-03-27T13:12:41.999Z</time></trkpt><trkpt lat="44.80697676522589" lon="9.493787531039485"><ele>371.0</ele><time>2026-03-27T13:12:43.999Z</time></trkpt><trkpt lat="44.80690536642123" lon="9.493706419775355"><ele>371.0</ele><time>2026-03-27T13:12:45.999Z</time></trkpt><trkpt lat="44.80685401553675" lon="9.493625724640294"><ele>371.0</ele><time>2026-03-27T13:12:47.999Z</time></trkpt><trkpt lat="44.80679371925623" lon="9.49353550099619"><ele>371.0</ele><time>2026-03-27T13:12:49.999Z</time></trkpt><trkpt lat="44.80671031291705" lon="9.49343680174829"><ele>371.0</ele><time>2026-03-27T13:12:51.999Z</time></trkpt><trkpt lat="44.806632237455425" lon="9.493376010650957"><ele>371.0</ele><time>2026-03-27T13:12:53.999Z</time></trkpt><trkpt lat="44.806521852428595" lon="9.49334082474196"><ele>373.8</ele><time>2026-03-27T13:12:55.999Z</time></trkpt><trkpt lat="44.806413003893766" lon="9.493299606143557"><ele>376.6</ele><time>2026-03-27T13:12:57.999Z</time></trkpt><trkpt lat="44.80630408647185" lon="9.493259862281185"><ele>379.4</ele><time>2026-03-27T13:12:59.999Z</time></trkpt><trkpt lat="44.80619913021218" lon="9.493200423353251"><ele>382.2</ele><time>2026-03-27T13:13:01.999Z</time></trkpt><trkpt lat="44.80612509226873" lon="9.493108628636254"><ele>385.0</ele><time>2026-03-27T13:13:03.999Z</time></trkpt><trkpt lat="44.806034180908604" lon="9.493017644726429"><ele>385.1666666666667</ele><time>2026-03-27T13:13:05.999Z</time></trkpt><trkpt lat="44.80596357580541" lon="9.492925263526478"><ele>385.33333333333337</ele><time>2026-03-27T13:13:07.999Z</time></trkpt><trkpt lat="44.80590385513228" lon="9.492834763428762"><ele>385.5</ele><time>2026-03-27T13:13:09.999Z</time></trkpt><trkpt lat="44.80584087949456" lon="9.492766725473485"><ele>385.66666666666663</ele><time>2026-03-27T13:13:12.999Z</time></trkpt><trkpt lat="44.80576667045438" lon="9.492719564494458"><ele>385.8333333333333</ele><time>2026-03-27T13:13:15.999Z</time></trkpt><trkpt lat="44.805699523237884" lon="9.4926581547386"><ele>386.0</ele><time>2026-03-27T13:13:17.999Z</time></trkpt><trkpt lat="44.80564447920989" lon="9.492577684072362"><ele>385.99999999999994</ele><time>2026-03-27T13:13:19.999Z</time></trkpt><trkpt lat="44.805607761272796" lon="9.492486761308445"><ele>386.0</ele><time>2026-03-27T13:13:21.999Z</time></trkpt><trkpt lat="44.80554716405882" lon="9.492420066273821"><ele>386.0</ele><time>2026-03-27T13:13:23.999Z</time></trkpt><trkpt lat="44.805465552072945" lon="9.492352821041568"><ele>386.0</ele><time>2026-03-27T13:13:25.999Z</time></trkpt><trkpt lat="44.80539079362202" lon="9.492313148071043"><ele>385.99999999999994</ele><time>2026-03-27T13:13:27.999Z</time></trkpt><trkpt lat="44.805323700005246" lon="9.492279540578206"><ele>386.0</ele><time>2026-03-27T13:13:29.999Z</time></trkpt><trkpt lat="44.80525719124739" lon="9.492252169908507"><ele>385.99999999999994</ele><time>2026-03-27T13:13:31.999Z</time></trkpt><trkpt lat="44.8051780407837" lon="9.492205001817831"><ele>386.0</ele><time>2026-03-27T13:13:34.999Z</time></trkpt><trkpt lat="44.805092480740505" lon="9.492177677162099"><ele>386.0</ele><time>2026-03-27T13:13:37.999Z</time></trkpt><trkpt lat="44.805023616200025" lon="9.492132128586604"><ele>386.0</ele><time>2026-03-27T13:13:39.999Z</time></trkpt><trkpt lat="44.80494843482739" lon="9.492111786414778"><ele>385.99999999999994</ele><time>2026-03-27T13:13:41.999Z</time></trkpt><trkpt lat="44.80488050442372" lon="9.492063005581732"><ele>386.0</ele><time>2026-03-27T13:13:43.999Z</time></trkpt><trkpt lat="44.804849293831424" lon="9.491952219146796"><ele>386.8333333333333</ele><time>2026-03-27T13:13:45.999Z</time></trkpt><trkpt lat="44.80484235927416" lon="9.491848954515776"><ele>387.66666666666663</ele><time>2026-03-27T13:13:47.999Z</time></trkpt><trkpt lat="44.80483439898" lon="9.491756634788256"><ele>388.5</ele><time>2026-03-27T13:13:49.999Z</time></trkpt><trkpt lat="44.80480864830469" lon="9.491671249329338"><ele>389.33333333333337</ele><time>2026-03-27T13:13:51.999Z</time></trkpt><trkpt lat="44.804854191807934" lon="9.491589077407953"><ele>390.1666666666667</ele><time>2026-03-27T13:13:53.999Z</time></trkpt><trkpt lat="44.80492979857392" lon="9.49155744838043"><ele>391.0</ele><time>2026-03-27T13:13:55.999Z</time></trkpt><trkpt lat="44.805026767843415" lon="9.491470684674457"><ele>390.99999999999994</ele><time>2026-03-27T13:14:39Z</time></trkpt><trkpt lat="44.80508707734961" lon="9.491436424966928"><ele>391.0</ele><time>2026-03-27T13:14:40Z</time></trkpt><trkpt lat="44.80516576882439" lon="9.491407410879"><ele>391.0</ele><time>2026-03-27T13:14:42Z</time></trkpt><trkpt lat="44.805234394294494" lon="9.491375565681166"><ele>391.0</ele><time>2026-03-27T13:14:45Z</time></trkpt><trkpt lat="44.805301983319296" lon="9.491353537869038"><ele>391.0</ele><time>2026-03-27T13:14:48Z</time></trkpt><trkpt lat="44.805373374289" lon="9.491350923858043"><ele>390.99999999999994</ele><time>2026-03-27T13:14:51Z</time></trkpt><trkpt lat="44.80544482240576" lon="9.491380455095275"><ele>391.0</ele><time>2026-03-27T13:14:54Z</time></trkpt><trkpt lat="44.80551704328925" lon="9.491413900876902"><ele>389.57142857142856</ele><time>2026-03-27T13:15:11.999Z</time></trkpt><trkpt lat="44.80558656443714" lon="9.491469496509753"><ele>388.1428571428571</ele><time>2026-03-27T13:15:14.999Z</time></trkpt><trkpt lat="44.80564342600294" lon="9.491525346053464"><ele>386.71428571428567</ele><time>2026-03-27T13:15:17.999Z</time></trkpt><trkpt lat="44.805696380201574" lon="9.491577520240265"><ele>385.2857142857143</ele><time>2026-03-27T13:15:20.999Z</time></trkpt><trkpt lat="44.80575778674985" lon="9.49163014351798"><ele>383.8571428571429</ele><time>2026-03-27T13:15:24.999Z</time></trkpt><trkpt lat="44.80582163717963" lon="9.491675774246074"><ele>382.4285714285714</ele><time>2026-03-27T13:15:27.999Z</time></trkpt><trkpt lat="44.805891254308534" lon="9.491704555429678"><ele>381.0</ele><time>2026-03-27T13:15:30.999Z</time></trkpt><trkpt lat="44.80596186177244" lon="9.491683153540254"><ele>379.3333333333333</ele><time>2026-03-27T13:15:34.999Z</time></trkpt><trkpt lat="44.80604910059591" lon="9.491639765827983"><ele>377.6666666666667</ele><time>2026-03-27T13:15:39.999Z</time></trkpt><trkpt lat="44.80610713034073" lon="9.491583636982076"><ele>376.0</ele><time>2026-03-27T13:15:41.999Z</time></trkpt><trkpt lat="44.806162714895564" lon="9.491516410468083"><ele>374.33333333333337</ele><time>2026-03-27T13:15:43.999Z</time></trkpt><trkpt lat="44.80621127758708" lon="9.491454355973971"><ele>372.6666666666667</ele><time>2026-03-27T13:15:45.999Z</time></trkpt><trkpt lat="44.806256683348956" lon="9.491369820950075"><ele>371.0</ele><time>2026-03-27T13:15:47.999Z</time></trkpt><trkpt lat="44.80630486303776" lon="9.491275909286244"><ele>373.0</ele><time>2026-03-27T13:15:49.999Z</time></trkpt><trkpt lat="44.80634299298852" lon="9.491186109972094"><ele>375.0</ele><time>2026-03-27T13:15:50.999Z</time></trkpt><trkpt lat="44.80640793525893" lon="9.491126832487954"><ele>377.0</ele><time>2026-03-27T13:15:52.999Z</time></trkpt><trkpt lat="44.80651040569001" lon="9.490978160517578"><ele>379.0</ele><time>2026-03-27T13:15:55.999Z</time></trkpt><trkpt lat="44.80657419642396" lon="9.490860826578274"><ele>381.0</ele><time>2026-03-27T13:15:57.999Z</time></trkpt><trkpt lat="44.80661688412161" lon="9.490744868100252"><ele>381.0</ele><time>2026-03-27T13:15:59.999Z</time></trkpt><trkpt lat="44.80666672367713" lon="9.490638384444951"><ele>381.0</ele><time>2026-03-27T13:16:01.999Z</time></trkpt><trkpt lat="44.80671284521737" lon="9.490521698636728"><ele>381.0</ele><time>2026-03-27T13:16:03.999Z</time></trkpt><trkpt lat="44.80676018601683" lon="9.490414807164512"><ele>381.0</ele><time>2026-03-27T13:16:05.999Z</time></trkpt><trkpt lat="44.80681488538668" lon="9.490305597428193"><ele>381.0</ele><time>2026-03-27T13:16:07.999Z</time></trkpt><trkpt lat="44.80685436543774" lon="9.490194696207514"><ele>380.5</ele><time>2026-03-27T13:16:09.999Z</time></trkpt><trkpt lat="44.806896738466854" lon="9.490110367256532"><ele>380.0</ele><time>2026-03-27T13:16:11.999Z</time></trkpt><trkpt lat="44.806966303412345" lon="9.490037382558398"><ele>379.5</ele><time>2026-03-27T13:16:13.999Z</time></trkpt><trkpt lat="44.80704677303924" lon="9.48999989394889"><ele>379.0</ele><time>2026-03-27T13:16:15.999Z</time></trkpt><trkpt lat="44.80714163326335" lon="9.489968982956128"><ele>378.5</ele><time>2026-03-27T13:16:17.999Z</time></trkpt><trkpt lat="44.80724389986648" lon="9.4899322961008"><ele>378.0</ele><time>2026-03-27T13:16:19.999Z</time></trkpt><trkpt lat="44.80734591285116" lon="9.489901950180498"><ele>378.0</ele><time>2026-03-27T13:16:21.999Z</time></trkpt><trkpt lat="44.80745094839688" lon="9.48985882479155"><ele>378.0</ele><time>2026-03-27T13:16:23.999Z</time></trkpt><trkpt lat="44.807551052406076" lon="9.489818542356085"><ele>378.0</ele><time>2026-03-27T13:16:25.999Z</time></trkpt><trkpt lat="44.80763120665133" lon="9.489766291274531"><ele>378.0</ele><time>2026-03-27T13:16:27.999Z</time></trkpt><trkpt lat="44.807701838865015" lon="9.489711829659822"><ele>378.0</ele><time>2026-03-27T13:16:29.999Z</time></trkpt><trkpt lat="44.80776481544631" lon="9.489655809983997"><ele>376.6666666666667</ele><time>2026-03-27T13:16:31.999Z</time></trkpt><trkpt lat="44.80783869182753" lon="9.489574715158293"><ele>375.3333333333333</ele><time>2026-03-27T13:16:34.999Z</time></trkpt><trkpt lat="44.8078727398479" lon="9.48948301060843"><ele>374.0</ele><time>2026-03-27T13:16:36.999Z</time></trkpt><trkpt lat="44.80785896382923" lon="9.489383800614249"><ele>372.66666666666663</ele><time>2026-03-27T13:16:39Z</time></trkpt><trkpt lat="44.8078361171527" lon="9.489278897209939"><ele>371.3333333333333</ele><time>2026-03-27T13:16:42Z</time></trkpt><trkpt lat="44.80783407482588" lon="9.489180906073834"><ele>370.0</ele><time>2026-03-27T13:16:45Z</time></trkpt><trkpt lat="44.80786511238237" lon="9.489073231623882"><ele>370.0</ele><time>2026-03-27T13:16:48Z</time></trkpt><trkpt lat="44.80790583002613" lon="9.48900297570302"><ele>370.0</ele><time>2026-03-27T13:16:56Z</time></trkpt><trkpt lat="44.80797972393572" lon="9.48902267771722"><ele>370.0</ele><time>2026-03-27T13:17:00Z</time></trkpt><trkpt lat="44.80802461312001" lon="9.488943928044666"><ele>370.0</ele><time>2026-03-27T13:17:04Z</time></trkpt><trkpt lat="44.80794938857032" lon="9.489003151909158"><ele>370.0</ele><time>2026-03-27T13:18:11.999Z</time></trkpt><trkpt lat="44.80787087260259" lon="9.488999866904194"><ele>370.0</ele><time>2026-03-27T13:18:13.999Z</time></trkpt><trkpt lat="44.80779918213634" lon="9.488932849517843"><ele>370.0</ele><time>2026-03-27T13:18:15.999Z</time></trkpt><trkpt lat="44.8077441343399" lon="9.488886041194611"><ele>370.0</ele><time>2026-03-27T13:18:17.999Z</time></trkpt><trkpt lat="44.807683956136984" lon="9.488801793180855"><ele>370.0</ele><time>2026-03-27T13:18:19.999Z</time></trkpt><trkpt lat="44.80762723915236" lon="9.488715619398674"><ele>370.0</ele><time>2026-03-27T13:18:21.999Z</time></trkpt><trkpt lat="44.80759922777542" lon="9.48859403768491"><ele>370.0</ele><time>2026-03-27T13:18:23.999Z</time></trkpt><trkpt lat="44.807565470702855" lon="9.488491236691695"><ele>370.0</ele><time>2026-03-27T13:18:25.999Z</time></trkpt><trkpt lat="44.80752571038985" lon="9.488357662763287"><ele>371.4</ele><time>2026-03-27T13:18:27.999Z</time></trkpt><trkpt lat="44.80743693549662" lon="9.488282998839722"><ele>372.8</ele><time>2026-03-27T13:18:29.999Z</time></trkpt><trkpt lat="44.80736410323671" lon="9.488190261752953"><ele>374.20000000000005</ele><time>2026-03-27T13:18:31.999Z</time></trkpt><trkpt lat="44.807273701148404" lon="9.488119912070397"><ele>375.6</ele><time>2026-03-27T13:18:33.999Z</time></trkpt><trkpt lat="44.80716460689623" lon="9.488065732053618"><ele>377.0</ele><time>2026-03-27T13:18:35.999Z</time></trkpt><trkpt lat="44.80709587160983" lon="9.488067715340772"><ele>377.0</ele><time>2026-03-27T13:18:36.999Z</time></trkpt><trkpt lat="44.80703117935492" lon="9.488055040587348"><ele>377.0</ele><time>2026-03-27T13:18:37.999Z</time></trkpt><trkpt lat="44.80696781693218" lon="9.488046145153321"><ele>377.0</ele><time>2026-03-27T13:18:38.999Z</time></trkpt><trkpt lat="44.80685337215804" lon="9.488013834090495"><ele>377.0</ele><time>2026-03-27T13:18:40.999Z</time></trkpt><trkpt lat="44.80673478740953" lon="9.488017363937969"><ele>377.0</ele><time>2026-03-27T13:18:42.999Z</time></trkpt><trkpt lat="44.80668780104486" lon="9.488078776850692"><ele>377.0</ele><time>2026-03-27T13:18:44Z</time></trkpt><trkpt lat="44.806573396121244" lon="9.488106069234998"><ele>379.20000000000005</ele><time>2026-03-27T13:18:46Z</time></trkpt><trkpt lat="44.80648348647114" lon="9.488129953397433"><ele>381.4</ele><time>2026-03-27T13:18:48Z</time></trkpt><trkpt lat="44.8063836393043" lon="9.48814870822248"><ele>383.6</ele><time>2026-03-27T13:18:50Z</time></trkpt><trkpt lat="44.806282629368916" lon="9.488151533067409"><ele>385.79999999999995</ele><time>2026-03-27T13:18:52Z</time></trkpt><trkpt lat="44.80619245088552" lon="9.488093888762696"><ele>388.0</ele><time>2026-03-27T13:18:54Z</time></trkpt><trkpt lat="44.80608862373724" lon="9.488031737326741"><ele>389.1666666666667</ele><time>2026-03-27T13:18:56Z</time></trkpt><trkpt lat="44.80596697646269" lon="9.48798421737654"><ele>390.33333333333337</ele><time>2026-03-27T13:18:58Z</time></trkpt><trkpt lat="44.80591327108725" lon="9.487929938606008"><ele>391.5</ele><time>2026-03-27T13:18:59Z</time></trkpt><trkpt lat="44.805801611247155" lon="9.487875870422549"><ele>392.66666666666663</ele><time>2026-03-27T13:19:01Z</time></trkpt><trkpt lat="44.805735751911996" lon="9.487869999293528"><ele>393.8333333333333</ele><time>2026-03-27T13:19:02Z</time></trkpt><trkpt lat="44.805676667368864" lon="9.487821588242136"><ele>395.0</ele><time>2026-03-27T13:19:03Z</time></trkpt><trkpt lat="44.805609071768465" lon="9.48780555559871"><ele>394.99999999999994</ele><time>2026-03-27T13:19:04Z</time></trkpt><trkpt lat="44.80553698729935" lon="9.487816253668544"><ele>395.0</ele><time>2026-03-27T13:19:05Z</time></trkpt><trkpt lat="44.80547312953043" lon="9.487850464781786"><ele>395.0</ele><time>2026-03-27T13:19:06Z</time></trkpt><trkpt lat="44.805408440659605" lon="9.487862970086939"><ele>395.0</ele><time>2026-03-27T13:19:07Z</time></trkpt><trkpt lat="44.80528576576442" lon="9.487874105874225"><ele>394.99999999999994</ele><time>2026-03-27T13:19:09Z</time></trkpt><trkpt lat="44.80517335754608" lon="9.4878880458886"><ele>395.0</ele><time>2026-03-27T13:19:11Z</time></trkpt><trkpt lat="44.80507253419641" lon="9.487812022036664"><ele>397.4</ele><time>2026-03-27T13:19:13Z</time></trkpt><trkpt lat="44.80497443327628" lon="9.487791617589302"><ele>399.8</ele><time>2026-03-27T13:19:15Z</time></trkpt><trkpt lat="44.80491144318762" lon="9.48780421141146"><ele>402.20000000000005</ele><time>2026-03-27T13:19:16Z</time></trkpt><trkpt lat="44.80480158059887" lon="9.487844400630813"><ele>404.6</ele><time>2026-03-27T13:19:18Z</time></trkpt><trkpt lat="44.80471081139941" lon="9.487899975828357"><ele>407.0</ele><time>2026-03-27T13:19:20Z</time></trkpt><trkpt lat="44.80459882066674" lon="9.487932174641594"><ele>407.8</ele><time>2026-03-27T13:19:22Z</time></trkpt><trkpt lat="44.80450628424275" lon="9.48798848914693"><ele>408.6</ele><time>2026-03-27T13:19:24Z</time></trkpt><trkpt lat="44.804424550682135" lon="9.488046468312282"><ele>409.40000000000003</ele><time>2026-03-27T13:19:26Z</time></trkpt><trkpt lat="44.80433480701408" lon="9.488112605035326"><ele>410.20000000000005</ele><time>2026-03-27T13:19:28Z</time></trkpt><trkpt lat="44.80424523942268" lon="9.488181608089771"><ele>411.0</ele><time>2026-03-27T13:19:30Z</time></trkpt><trkpt lat="44.80415411134799" lon="9.488253315690224"><ele>413.6</ele><time>2026-03-27T13:19:32Z</time></trkpt><trkpt lat="44.804063567323254" lon="9.488325247914672"><ele>416.20000000000005</ele><time>2026-03-27T13:19:34Z</time></trkpt><trkpt lat="44.80396540755525" lon="9.48840724547206"><ele>418.79999999999995</ele><time>2026-03-27T13:19:36Z</time></trkpt><trkpt lat="44.80388194427755" lon="9.488514126327575"><ele>421.4</ele><time>2026-03-27T13:19:38Z</time></trkpt><trkpt lat="44.803834108240636" lon="9.488662515489333"><ele>424.0</ele><time>2026-03-27T13:19:40Z</time></trkpt><trkpt lat="44.803793627433734" lon="9.488815349899664"><ele>424.6</ele><time>2026-03-27T13:19:42Z</time></trkpt><trkpt lat="44.80375161415666" lon="9.488958015760167"><ele>425.2</ele><time>2026-03-27T13:19:44Z</time></trkpt><trkpt lat="44.80369894497264" lon="9.489088058247638"><ele>425.80000000000007</ele><time>2026-03-27T13:19:46Z</time></trkpt><trkpt lat="44.80362486319455" lon="9.489176783191215"><ele>426.40000000000003</ele><time>2026-03-27T13:19:47.999Z</time></trkpt><trkpt lat="44.80352374723078" lon="9.489207745064508"><ele>427.0</ele><time>2026-03-27T13:19:49.999Z</time></trkpt><trkpt lat="44.8034130863311" lon="9.48925857665982"><ele>428.40000000000003</ele><time>2026-03-27T13:19:51.999Z</time></trkpt><trkpt lat="44.8032875509774" lon="9.489321957890288"><ele>429.80000000000007</ele><time>2026-03-27T13:19:53.999Z</time></trkpt><trkpt lat="44.803224831503094" lon="9.48935362437947"><ele>431.2</ele><time>2026-03-27T13:19:54.999Z</time></trkpt><trkpt lat="44.80311695242592" lon="9.489375413912816"><ele>432.6</ele><time>2026-03-27T13:19:56.999Z</time></trkpt><trkpt lat="44.80300648881041" lon="9.48938802219462"><ele>434.0</ele><time>2026-03-27T13:19:58.999Z</time></trkpt><trkpt lat="44.80289994057654" lon="9.489391717693591"><ele>433.99999999999994</ele><time>2026-03-27T13:20:00.999Z</time></trkpt><trkpt lat="44.80282859369275" lon="9.489358176684362"><ele>434.0</ele><time>2026-03-27T13:20:02.999Z</time></trkpt><trkpt lat="44.80275909792379" lon="9.489292498083104"><ele>434.0</ele><time>2026-03-27T13:20:04.999Z</time></trkpt><trkpt lat="44.802692457830354" lon="9.489219184764632"><ele>434.0</ele><time>2026-03-27T13:20:20.999Z</time></trkpt><trkpt lat="44.80263448023562" lon="9.48914870564378"><ele>433.99999999999994</ele><time>2026-03-27T13:20:22.999Z</time></trkpt><trkpt lat="44.80257231806091" lon="9.489075345042021"><ele>434.0</ele><time>2026-03-27T13:20:24.999Z</time></trkpt><trkpt lat="44.802492181628" lon="9.489008894152988"><ele>434.99999999999994</ele><time>2026-03-27T13:20:27.999Z</time></trkpt><trkpt lat="44.802433076792276" lon="9.488954875446824"><ele>436.0</ele><time>2026-03-27T13:20:29.999Z</time></trkpt><trkpt lat="44.80237411554352" lon="9.488899227683051"><ele>437.0</ele><time>2026-03-27T13:20:31.999Z</time></trkpt><trkpt lat="44.80230309839798" lon="9.488832201587147"><ele>438.0</ele><time>2026-03-27T13:20:33.999Z</time></trkpt><trkpt lat="44.8022344713132" lon="9.488765914106432"><ele>438.99999999999994</ele><time>2026-03-27T13:20:35.999Z</time></trkpt><trkpt lat="44.80216053158407" lon="9.4886978174751"><ele>440.0</ele><time>2026-03-27T13:20:37.999Z</time></trkpt><trkpt lat="44.802078617581934" lon="9.48865632127523"><ele>439.99999999999994</ele><time>2026-03-27T13:20:39.999Z</time></trkpt><trkpt lat="44.80199879784707" lon="9.488638878870157"><ele>440.0</ele><time>2026-03-27T13:20:41.999Z</time></trkpt><trkpt lat="44.801920628145155" lon="9.48864262472629"><ele>440.0</ele><time>2026-03-27T13:20:43.999Z</time></trkpt><trkpt lat="44.80184219932284" lon="9.488664785314462"><ele>440.0</ele><time>2026-03-27T13:20:45.999Z</time></trkpt><trkpt lat="44.80176662793197" lon="9.488695016821207"><ele>439.99999999999994</ele><time>2026-03-27T13:20:47.999Z</time></trkpt><trkpt lat="44.80168506924849" lon="9.488721858090136"><ele>440.0</ele><time>2026-03-27T13:20:50Z</time></trkpt><trkpt lat="44.80160575352478" lon="9.48873861719163"><ele>441.16666666666663</ele><time>2026-03-27T13:20:52Z</time></trkpt><trkpt lat="44.801519457097044" lon="9.488758479536408"><ele>442.3333333333333</ele><time>2026-03-27T13:20:54Z</time></trkpt><trkpt lat="44.80145001331255" lon="9.488776227206925"><ele>443.5</ele><time>2026-03-27T13:20:56Z</time></trkpt><trkpt lat="44.80138069930444" lon="9.488787386886873"><ele>444.66666666666663</ele><time>2026-03-27T13:20:58Z</time></trkpt><trkpt lat="44.80129846893254" lon="9.488801565498147"><ele>445.8333333333333</ele><time>2026-03-27T13:21:00Z</time></trkpt><trkpt lat="44.80122513195265" lon="9.488867481492871"><ele>447.0</ele><time>2026-03-27T13:21:02Z</time></trkpt><trkpt lat="44.801141490604074" lon="9.488898471916588"><ele>447.8333333333333</ele><time>2026-03-27T13:21:04Z</time></trkpt><trkpt lat="44.80106374075836" lon="9.488948966732925"><ele>448.66666666666663</ele><time>2026-03-27T13:21:06Z</time></trkpt><trkpt lat="44.80099770803784" lon="9.489024055708976"><ele>449.5</ele><time>2026-03-27T13:21:08Z</time></trkpt><trkpt lat="44.80093463753621" lon="9.48910327656651"><ele>450.3333333333333</ele><time>2026-03-27T13:21:10Z</time></trkpt><trkpt lat="44.80087043449208" lon="9.489189880772464"><ele>451.16666666666663</ele><time>2026-03-27T13:21:12Z</time></trkpt><trkpt lat="44.800808641412345" lon="9.489256696086592"><ele>452.0</ele><time>2026-03-27T13:21:14Z</time></trkpt><trkpt lat="44.800746808929674" lon="9.48934661871358"><ele>453.16666666666663</ele><time>2026-03-27T13:21:16Z</time></trkpt><trkpt lat="44.80068260549599" lon="9.489431083109062"><ele>454.3333333333333</ele><time>2026-03-27T13:21:18Z</time></trkpt><trkpt lat="44.80061723092815" lon="9.489500908659865"><ele>455.5</ele><time>2026-03-27T13:21:20Z</time></trkpt><trkpt lat="44.80054488578287" lon="9.489544422504219"><ele>456.66666666666663</ele><time>2026-03-27T13:21:22Z</time></trkpt><trkpt lat="44.80046315148472" lon="9.48957495416191"><ele>457.8333333333333</ele><time>2026-03-27T13:21:24Z</time></trkpt><trkpt lat="44.80037924517191" lon="9.489579528324578"><ele>459.0</ele><time>2026-03-27T13:21:26Z</time></trkpt><trkpt lat="44.800294465087866" lon="9.489564007705544"><ele>459.0</ele><time>2026-03-27T13:21:28Z</time></trkpt><trkpt lat="44.800223350013546" lon="9.489521390762675"><ele>459.0</ele><time>2026-03-27T13:21:30Z</time></trkpt><trkpt lat="44.80016725776975" lon="9.489447867434345"><ele>459.0</ele><time>2026-03-27T13:21:32Z</time></trkpt><trkpt lat="44.800107471592376" lon="9.489376853958406"><ele>459.0</ele><time>2026-03-27T13:21:34Z</time></trkpt><trkpt lat="44.800046834503696" lon="9.489308827874666"><ele>459.0</ele><time>2026-03-27T13:21:36Z</time></trkpt><trkpt lat="44.79996202288501" lon="9.489268868990402"><ele>459.0</ele><time>2026-03-27T13:21:38Z</time></trkpt><trkpt lat="44.799867333576266" lon="9.489247280082298"><ele>460.6</ele><time>2026-03-27T13:21:40Z</time></trkpt><trkpt lat="44.799784966139036" lon="9.489220320758287"><ele>462.2</ele><time>2026-03-27T13:21:42Z</time></trkpt><trkpt lat="44.79971092290917" lon="9.489175623032853"><ele>463.80000000000007</ele><time>2026-03-27T13:21:44Z</time></trkpt><trkpt lat="44.799629576711105" lon="9.489132640624362"><ele>465.40000000000003</ele><time>2026-03-27T13:21:46Z</time></trkpt><trkpt lat="44.799519363519984" lon="9.489105842992219"><ele>467.0</ele><time>2026-03-27T13:21:48Z</time></trkpt><trkpt lat="44.799395269138" lon="9.489112871245663"><ele>468.20000000000005</ele><time>2026-03-27T13:21:50Z</time></trkpt><trkpt lat="44.79928099873239" lon="9.489129509834306"><ele>469.40000000000003</ele><time>2026-03-27T13:21:52Z</time></trkpt><trkpt lat="44.799194685615184" lon="9.489114971473855"><ele>470.59999999999997</ele><time>2026-03-27T13:21:54.999Z</time></trkpt><trkpt lat="44.79911117566374" lon="9.489103697066847"><ele>471.79999999999995</ele><time>2026-03-27T13:21:56.999Z</time></trkpt><trkpt lat="44.79902552426949" lon="9.489102251122965"><ele>473.0</ele><time>2026-03-27T13:21:58.999Z</time></trkpt><trkpt lat="44.79894827926375" lon="9.48905412127221"><ele>472.99999999999994</ele><time>2026-03-27T13:22:00.999Z</time></trkpt><trkpt lat="44.798891338069076" lon="9.488988664152169"><ele>473.0</ele><time>2026-03-27T13:22:02.999Z</time></trkpt><trkpt lat="44.79884069952404" lon="9.488898698921869"><ele>473.0</ele><time>2026-03-27T13:22:04.999Z</time></trkpt><trkpt lat="44.79879926915579" lon="9.488801704793952"><ele>473.0</ele><time>2026-03-27T13:22:06.999Z</time></trkpt><trkpt lat="44.798749411118855" lon="9.488688938873162"><ele>472.99999999999994</ele><time>2026-03-27T13:22:08.999Z</time></trkpt><trkpt lat="44.79868294254614" lon="9.488599039166544"><ele>473.0</ele><time>2026-03-27T13:22:10.999Z</time></trkpt><trkpt lat="44.798597113334424" lon="9.488549449422909"><ele>474.0</ele><time>2026-03-27T13:22:12.999Z</time></trkpt><trkpt lat="44.798508059458456" lon="9.48848961721643"><ele>474.99999999999994</ele><time>2026-03-27T13:22:14.999Z</time></trkpt><trkpt lat="44.79844798663552" lon="9.488409206645569"><ele>475.99999999999994</ele><time>2026-03-27T13:22:16.999Z</time></trkpt><trkpt lat="44.798444142364566" lon="9.488286211658936"><ele>477.0</ele><time>2026-03-27T13:22:18.999Z</time></trkpt><trkpt lat="44.79848977778716" lon="9.488176014722207"><ele>478.0</ele><time>2026-03-27T13:22:20.999Z</time></trkpt><trkpt lat="44.79854458596647" lon="9.488072347171224"><ele>478.00000000000006</ele><time>2026-03-27T13:22:22.999Z</time></trkpt><trkpt lat="44.798614333061266" lon="9.487999885439512"><ele>478.0</ele><time>2026-03-27T13:22:24.999Z</time></trkpt><trkpt lat="44.79868674804476" lon="9.487942896363581"><ele>478.0</ele><time>2026-03-27T13:22:26.999Z</time></trkpt><trkpt lat="44.79875679282005" lon="9.4878686565397"><ele>478.0</ele><time>2026-03-27T13:22:28.999Z</time></trkpt><trkpt lat="44.798793194073006" lon="9.487784900855546"><ele>478.00000000000006</ele><time>2026-03-27T13:22:30.999Z</time></trkpt><trkpt lat="44.798776725613905" lon="9.487686203044202"><ele>478.0</ele><time>2026-03-27T13:22:32.999Z</time></trkpt><trkpt lat="44.79871899301196" lon="9.487625750534713"><ele>478.83333333333337</ele><time>2026-03-27T13:22:34.999Z</time></trkpt><trkpt lat="44.798641997383264" lon="9.487624771898291"><ele>479.6666666666667</ele><time>2026-03-27T13:22:36.999Z</time></trkpt><trkpt lat="44.79857385721436" lon="9.487698827098443"><ele>480.5</ele><time>2026-03-27T13:22:38.999Z</time></trkpt><trkpt lat="44.798512871217504" lon="9.487777765843946"><ele>481.33333333333337</ele><time>2026-03-27T13:22:40.999Z</time></trkpt><trkpt lat="44.79843762688355" lon="9.487804547261533"><ele>482.1666666666667</ele><time>2026-03-27T13:22:42.999Z</time></trkpt><trkpt lat="44.798350909743725" lon="9.487809332716473"><ele>483.0</ele><time>2026-03-27T13:22:44.999Z</time></trkpt><trkpt lat="44.7982650130831" lon="9.48780882545047"><ele>483.0</ele><time>2026-03-27T13:22:46.999Z</time></trkpt><trkpt lat="44.79818849528683" lon="9.487783405139282"><ele>483.0</ele><time>2026-03-27T13:22:48.999Z</time></trkpt><trkpt lat="44.798121576534456" lon="9.487724587124301"><ele>483.0</ele><time>2026-03-27T13:22:50.999Z</time></trkpt><trkpt lat="44.79805926159096" lon="9.487649427065604"><ele>483.0</ele><time>2026-03-27T13:22:52.999Z</time></trkpt><trkpt lat="44.798006670233804" lon="9.487595489932731"><ele>483.0</ele><time>2026-03-27T13:22:56Z</time></trkpt><trkpt lat="44.7979500331576" lon="9.487516299533683"><ele>483.0</ele><time>2026-03-27T13:23:30Z</time></trkpt><trkpt lat="44.797883915094445" lon="9.48744932107456"><ele>483.0</ele><time>2026-03-27T13:23:32Z</time></trkpt><trkpt lat="44.79780542150017" lon="9.487386641579636"><ele>483.0</ele><time>2026-03-27T13:23:34Z</time></trkpt><trkpt lat="44.79773128842247" lon="9.487328511102405"><ele>483.0</ele><time>2026-03-27T13:23:36Z</time></trkpt><trkpt lat="44.79766514405785" lon="9.4872696787679"><ele>483.0</ele><time>2026-03-27T13:23:38Z</time></trkpt><trkpt lat="44.79759045939386" lon="9.487214318378589"><ele>483.0</ele><time>2026-03-27T13:23:40Z</time></trkpt><trkpt lat="44.79752278589412" lon="9.487166193055351"><ele>483.0</ele><time>2026-03-27T13:23:42Z</time></trkpt><trkpt lat="44.79747060405175" lon="9.487113863115148"><ele>483.0</ele><time>2026-03-27T13:23:44Z</time></trkpt><trkpt lat="44.797551239901246" lon="9.487196023684664"><ele>482.99999999999994</ele><time>2026-03-27T13:24:06.999Z</time></trkpt><trkpt lat="44.79764272592428" lon="9.48725892599026"><ele>482.99999999999994</ele><time>2026-03-27T13:24:08.999Z</time></trkpt><trkpt lat="44.797728937147355" lon="9.487325945858169"><ele>483.0</ele><time>2026-03-27T13:24:10.999Z</time></trkpt><trkpt lat="44.79780803999689" lon="9.487386009691198"><ele>483.0</ele><time>2026-03-27T13:24:12.999Z</time></trkpt><trkpt lat="44.797880142647905" lon="9.487437953583857"><ele>483.0</ele><time>2026-03-27T13:24:14.999Z</time></trkpt><trkpt lat="44.797921006906776" lon="9.487598636744753"><ele>482.99999999999994</ele><time>2026-03-27T13:24:16.999Z</time></trkpt><trkpt lat="44.79796037855241" lon="9.487519208820641"><ele>482.99999999999994</ele><time>2026-03-27T13:24:17.999Z</time></trkpt><trkpt lat="44.79795961246962" lon="9.487611614063482"><ele>483.0</ele><time>2026-03-27T13:24:20.999Z</time></trkpt><trkpt lat="44.79785592432688" lon="9.48765727442701"><ele>483.0</ele><time>2026-03-27T13:24:25.999Z</time></trkpt><trkpt lat="44.79777008157963" lon="9.48768544207184"><ele>483.0</ele><time>2026-03-27T13:24:27.999Z</time></trkpt><trkpt lat="44.79769274833749" lon="9.487692418125116"><ele>483.0</ele><time>2026-03-27T13:24:29.999Z</time></trkpt><trkpt lat="44.79762249687936" lon="9.48767521622895"><ele>483.0</ele><time>2026-03-27T13:24:31.999Z</time></trkpt><trkpt lat="44.79755305268657" lon="9.487651697930307"><ele>483.0</ele><time>2026-03-27T13:24:33.999Z</time></trkpt><trkpt lat="44.79748769332363" lon="9.487638276651198"><ele>483.0</ele><time>2026-03-27T13:24:35.999Z</time></trkpt><trkpt lat="44.797409939903" lon="9.487670103874171"><ele>483.0</ele><time>2026-03-27T13:24:38.999Z</time></trkpt><trkpt lat="44.797339136270004" lon="9.487751747830242"><ele>483.79999999999995</ele><time>2026-03-27T13:24:41.999Z</time></trkpt><trkpt lat="44.79727342367558" lon="9.487847101946603"><ele>484.59999999999997</ele><time>2026-03-27T13:24:44.999Z</time></trkpt><trkpt lat="44.79720203792231" lon="9.487922624399326"><ele>485.40000000000003</ele><time>2026-03-27T13:24:47.999Z</time></trkpt><trkpt lat="44.79714057074924" lon="9.487987653594951"><ele>486.20000000000005</ele><time>2026-03-27T13:24:49.999Z</time></trkpt><trkpt lat="44.7971973383875" lon="9.488096533511138"><ele>487.0</ele><time>2026-03-27T13:24:50.999Z</time></trkpt><trkpt lat="44.79697881024718" lon="9.4879119744988"><ele>488.40000000000003</ele><time>2026-03-27T13:24:54.999Z</time></trkpt><trkpt lat="44.796899355462266" lon="9.48784035674212"><ele>489.80000000000007</ele><time>2026-03-27T13:24:56.999Z</time></trkpt><trkpt lat="44.796813817476306" lon="9.487786774368177"><ele>491.2</ele><time>2026-03-27T13:24:58.999Z</time></trkpt><trkpt lat="44.79673020248652" lon="9.487745265799148"><ele>492.6</ele><time>2026-03-27T13:25:00.999Z</time></trkpt><trkpt lat="44.79664721542106" lon="9.487710108942332"><ele>494.0</ele><time>2026-03-27T13:25:03Z</time></trkpt><trkpt lat="44.796558294200366" lon="9.487685787399554"><ele>495.99999999999994</ele><time>2026-03-27T13:25:05Z</time></trkpt><trkpt lat="44.79648153768513" lon="9.487669813056606"><ele>498.0</ele><time>2026-03-27T13:25:07Z</time></trkpt><trkpt lat="44.79641434972682" lon="9.487580587364452"><ele>500.0</ele><time>2026-03-27T13:25:10Z</time></trkpt><trkpt lat="44.79641206004368" lon="9.487473502043546"><ele>502.0</ele><time>2026-03-27T13:25:12Z</time></trkpt><trkpt lat="44.796415102986685" lon="9.487348971755964"><ele>503.99999999999994</ele><time>2026-03-27T13:25:14Z</time></trkpt><trkpt lat="44.79643316371361" lon="9.487226147198513"><ele>506.0</ele><time>2026-03-27T13:25:16Z</time></trkpt><trkpt lat="44.79645544845666" lon="9.487106867399476"><ele>505.8333333333333</ele><time>2026-03-27T13:25:18Z</time></trkpt><trkpt lat="44.79645594751179" lon="9.486986629569085"><ele>505.66666666666663</ele><time>2026-03-27T13:25:20Z</time></trkpt><trkpt lat="44.79642911131466" lon="9.48688398374497"><ele>505.5</ele><time>2026-03-27T13:25:22Z</time></trkpt><trkpt lat="44.79636977728413" lon="9.486805178506225"><ele>505.33333333333337</ele><time>2026-03-27T13:25:24Z</time></trkpt><trkpt lat="44.796294204532195" lon="9.48672986765302"><ele>505.1666666666667</ele><time>2026-03-27T13:25:27Z</time></trkpt><trkpt lat="44.796224005492775" lon="9.486711038955079"><ele>505.0</ele><time>2026-03-27T13:25:29Z</time></trkpt><trkpt lat="44.79616112996884" lon="9.486643525826617"><ele>505.0</ele><time>2026-03-27T13:25:31Z</time></trkpt><trkpt lat="44.7961192464398" lon="9.486539119729793"><ele>504.99999999999994</ele><time>2026-03-27T13:25:33Z</time></trkpt><trkpt lat="44.796060020389206" lon="9.486496301075343"><ele>505.0</ele><time>2026-03-27T13:25:35Z</time></trkpt><trkpt lat="44.79599473947298" lon="9.486474441150722"><ele>505.0</ele><time>2026-03-27T13:25:37Z</time></trkpt><trkpt lat="44.7959358043877" lon="9.486506924341503"><ele>504.99999999999994</ele><time>2026-03-27T13:25:39Z</time></trkpt><trkpt lat="44.79589263161854" lon="9.486583983605787"><ele>505.0</ele><time>2026-03-27T13:25:41Z</time></trkpt><trkpt lat="44.79587806267784" lon="9.486677937045942"><ele>505.0</ele><time>2026-03-27T13:25:43Z</time></trkpt><trkpt lat="44.79585175311194" lon="9.48677594101199"><ele>509.2</ele><time>2026-03-27T13:25:45Z</time></trkpt><trkpt lat="44.795799191061" lon="9.486885584511223"><ele>513.4</ele><time>2026-03-27T13:25:47Z</time></trkpt><trkpt lat="44.795752208050445" lon="9.48700089380407"><ele>517.6</ele><time>2026-03-27T13:25:49Z</time></trkpt><trkpt lat="44.79571060459999" lon="9.487110831582868"><ele>521.8</ele><time>2026-03-27T13:25:51Z</time></trkpt><trkpt lat="44.79566871987673" lon="9.487232848716042"><ele>526.0</ele><time>2026-03-27T13:25:53Z</time></trkpt><trkpt lat="44.79562610274767" lon="9.487376383996786"><ele>526.0</ele><time>2026-03-27T13:25:55Z</time></trkpt><trkpt lat="44.795577339149794" lon="9.487509420179611"><ele>526.0</ele><time>2026-03-27T13:25:57Z</time></trkpt><trkpt lat="44.79549000525952" lon="9.487499272314734"><ele>526.0</ele><time>2026-03-27T13:26:00Z</time></trkpt><trkpt lat="44.79545328295874" lon="9.487377518909721"><ele>526.0</ele><time>2026-03-27T13:26:02Z</time></trkpt><trkpt lat="44.79544674814651" lon="9.487283322068121"><ele>526.0</ele><time>2026-03-27T13:26:03Z</time></trkpt><trkpt lat="44.79545723994102" lon="9.48718605384133"><ele>526.0</ele><time>2026-03-27T13:26:04Z</time></trkpt><trkpt lat="44.79546879516513" lon="9.487012995502925"><ele>526.0</ele><time>2026-03-27T13:26:06Z</time></trkpt><trkpt lat="44.7954452100191" lon="9.486925387693406"><ele>526.0</ele><time>2026-03-27T13:26:07Z</time></trkpt><trkpt lat="44.79539965518304" lon="9.48684311366086"><ele>526.0</ele><time>2026-03-27T13:26:08Z</time></trkpt><trkpt lat="44.795347840979794" lon="9.486764781611793"><ele>526.0</ele><time>2026-03-27T13:26:09Z</time></trkpt><trkpt lat="44.79531403224731" lon="9.48667308040698"><ele>526.0</ele><time>2026-03-27T13:26:09.999Z</time></trkpt><trkpt lat="44.795257764656995" lon="9.486533899427144"><ele>526.0</ele><time>2026-03-27T13:26:11.999Z</time></trkpt><trkpt lat="44.79514483518878" lon="9.48644445420281"><ele>528.6</ele><time>2026-03-27T13:26:13.999Z</time></trkpt><trkpt lat="44.795064877649736" lon="9.486427702386472"><ele>531.2</ele><time>2026-03-27T13:26:14.999Z</time></trkpt><trkpt lat="44.794976286709286" lon="9.486414575334623"><ele>533.8</ele><time>2026-03-27T13:26:15.999Z</time></trkpt><trkpt lat="44.79488741093704" lon="9.486394423862295"><ele>536.4</ele><time>2026-03-27T13:26:16.999Z</time></trkpt><trkpt lat="44.7947721950936" lon="9.486265712567382"><ele>539.0</ele><time>2026-03-27T13:26:18.999Z</time></trkpt><trkpt lat="44.794655830002554" lon="9.486228653444178"><ele>539.0</ele><time>2026-03-27T13:26:20.999Z</time></trkpt><trkpt lat="44.79457129962269" lon="9.486153935913194"><ele>539.0</ele><time>2026-03-27T13:26:22.999Z</time></trkpt><trkpt lat="44.79453128310585" lon="9.486042736468683"><ele>539.0</ele><time>2026-03-27T13:26:24.999Z</time></trkpt><trkpt lat="44.794508882824395" lon="9.485935883415827"><ele>539.0</ele><time>2026-03-27T13:26:26.999Z</time></trkpt><trkpt lat="44.794508370216604" lon="9.485846701016301"><ele>539.0</ele><time>2026-03-27T13:26:28.999Z</time></trkpt><trkpt lat="44.794505992333896" lon="9.485738203356766"><ele>539.0</ele><time>2026-03-27T13:26:30.999Z</time></trkpt><trkpt lat="44.79455984475671" lon="9.48560664200249"><ele>539.0</ele><time>2026-03-27T13:26:32.999Z</time></trkpt><trkpt lat="44.79461259936517" lon="9.4855418601012"><ele>539.0</ele><time>2026-03-27T13:26:33.999Z</time></trkpt><trkpt lat="44.79467068221143" lon="9.485463117576844"><ele>539.0</ele><time>2026-03-27T13:26:34.999Z</time></trkpt><trkpt lat="44.79472948709123" lon="9.485379838396005"><ele>539.0</ele><time>2026-03-27T13:26:35.999Z</time></trkpt><trkpt lat="44.79479003658529" lon="9.485308207064724"><ele>539.0</ele><time>2026-03-27T13:26:36.999Z</time></trkpt><trkpt lat="44.79483954665018" lon="9.485230224407696"><ele>539.0</ele><time>2026-03-27T13:26:37.999Z</time></trkpt><trkpt lat="44.79488777911305" lon="9.485161735649337"><ele>539.0</ele><time>2026-03-27T13:26:38.999Z</time></trkpt><trkpt lat="44.794927149187544" lon="9.485079922200935"><ele>539.0</ele><time>2026-03-27T13:26:39.999Z</time></trkpt><trkpt lat="44.794970446881415" lon="9.4849957948087"><ele>539.0</ele><time>2026-03-27T13:26:40.999Z</time></trkpt><trkpt lat="44.794984424565115" lon="9.48488851067603"><ele>539.0</ele><time>2026-03-27T13:26:41.999Z</time></trkpt><trkpt lat="44.795004334921316" lon="9.484727462368545"><ele>539.0</ele><time>2026-03-27T13:26:43.999Z</time></trkpt><trkpt lat="44.79502350677574" lon="9.484559663115647"><ele>538.0</ele><time>2026-03-27T13:26:45.999Z</time></trkpt><trkpt lat="44.79503152004093" lon="9.484470276503924"><ele>537.0</ele><time>2026-03-27T13:26:46.999Z</time></trkpt><trkpt lat="44.79503081913283" lon="9.48437092423903"><ele>536.0</ele><time>2026-03-27T13:26:47.999Z</time></trkpt><trkpt lat="44.79502324364694" lon="9.484269310788711"><ele>535.0</ele><time>2026-03-27T13:26:48.999Z</time></trkpt><trkpt lat="44.79500897786042" lon="9.484174747999973"><ele>534.0</ele><time>2026-03-27T13:26:49.999Z</time></trkpt><trkpt lat="44.795027264498174" lon="9.484028671482102"><ele>533.0</ele><time>2026-03-27T13:26:51.999Z</time></trkpt><trkpt lat="44.79506644372355" lon="9.483924430444471"><ele>533.0</ele><time>2026-03-27T13:26:53.999Z</time></trkpt><trkpt lat="44.795103469539406" lon="9.483843452212529"><ele>533.0</ele><time>2026-03-27T13:26:55.999Z</time></trkpt><trkpt lat="44.795145926500965" lon="9.483766666188695"><ele>533.0</ele><time>2026-03-27T13:26:58.999Z</time></trkpt><trkpt lat="44.795226060134056" lon="9.483681462638367"><ele>533.0</ele><time>2026-03-27T13:27:01.999Z</time></trkpt><trkpt lat="44.79535443167165" lon="9.48366865371427"><ele>533.0</ele><time>2026-03-27T13:27:03.999Z</time></trkpt><trkpt lat="44.79542340455388" lon="9.483662838859548"><ele>533.0</ele><time>2026-03-27T13:27:04.999Z</time></trkpt><trkpt lat="44.79555004901319" lon="9.483620430141844"><ele>534.1666666666666</ele><time>2026-03-27T13:27:06.999Z</time></trkpt><trkpt lat="44.79561644380963" lon="9.483588893361038"><ele>535.3333333333333</ele><time>2026-03-27T13:27:08Z</time></trkpt><trkpt lat="44.79567658746761" lon="9.483550136682192"><ele>536.5</ele><time>2026-03-27T13:27:09Z</time></trkpt><trkpt lat="44.79573471745235" lon="9.483514760153541"><ele>537.6666666666666</ele><time>2026-03-27T13:27:10Z</time></trkpt><trkpt lat="44.79579487398615" lon="9.483462131146768"><ele>538.8333333333334</ele><time>2026-03-27T13:27:11Z</time></trkpt><trkpt lat="44.79590224092652" lon="9.483406904553078"><ele>540.0</ele><time>2026-03-27T13:27:13Z</time></trkpt><trkpt lat="44.796007242542146" lon="9.483353117939608"><ele>540.0</ele><time>2026-03-27T13:27:15Z</time></trkpt><trkpt lat="44.79606639304427" lon="9.483315538951436"><ele>540.0</ele><time>2026-03-27T13:27:16Z</time></trkpt><trkpt lat="44.79613065816239" lon="9.483277323941573"><ele>540.0</ele><time>2026-03-27T13:27:17Z</time></trkpt><trkpt lat="44.79621679670151" lon="9.483243353980857"><ele>540.0</ele><time>2026-03-27T13:27:19Z</time></trkpt><trkpt lat="44.79629937225876" lon="9.483204931883947"><ele>540.0</ele><time>2026-03-27T13:27:20Z</time></trkpt><trkpt lat="44.796396542377934" lon="9.48319939619522"><ele>540.0</ele><time>2026-03-27T13:27:21Z</time></trkpt><trkpt lat="44.796470446321024" lon="9.483193039243567"><ele>540.0</ele><time>2026-03-27T13:27:22Z</time></trkpt><trkpt lat="44.79654204603387" lon="9.483212281465688"><ele>540.0</ele><time>2026-03-27T13:27:23Z</time></trkpt><trkpt lat="44.79661750735951" lon="9.483204598569873"><ele>540.0</ele><time>2026-03-27T13:27:24Z</time></trkpt><trkpt lat="44.79669240994717" lon="9.483216262189979"><ele>540.0</ele><time>2026-03-27T13:27:25Z</time></trkpt><trkpt lat="44.796766929196856" lon="9.483228525642206"><ele>540.0</ele><time>2026-03-27T13:27:26Z</time></trkpt><trkpt lat="44.79684089176691" lon="9.483237292141444"><ele>540.0</ele><time>2026-03-27T13:27:27Z</time></trkpt><trkpt lat="44.79691321763076" lon="9.483253480444093"><ele>540.0</ele><time>2026-03-27T13:27:28Z</time></trkpt><trkpt lat="44.79698787464746" lon="9.483263628621225"><ele>540.1666666666666</ele><time>2026-03-27T13:27:29Z</time></trkpt><trkpt lat="44.79707087573433" lon="9.483271997354485"><ele>540.3333333333334</ele><time>2026-03-27T13:27:30Z</time></trkpt><trkpt lat="44.79715248673739" lon="9.483280414076768"><ele>540.5</ele><time>2026-03-27T13:27:31Z</time></trkpt><trkpt lat="44.797236345863745" lon="9.483284552513163"><ele>540.6666666666667</ele><time>2026-03-27T13:27:32Z</time></trkpt><trkpt lat="44.79732088521155" lon="9.483315263326313"><ele>540.8333333333334</ele><time>2026-03-27T13:27:33Z</time></trkpt><trkpt lat="44.79740746715797" lon="9.483299828625686"><ele>541.0</ele><time>2026-03-27T13:27:34Z</time></trkpt><trkpt lat="44.797494169237545" lon="9.483302076541577"><ele>541.0</ele><time>2026-03-27T13:27:35Z</time></trkpt><trkpt lat="44.79758067336354" lon="9.483294747194256"><ele>541.0</ele><time>2026-03-27T13:27:36Z</time></trkpt><trkpt lat="44.79766074202131" lon="9.483292003893375"><ele>541.0</ele><time>2026-03-27T13:27:37Z</time></trkpt><trkpt lat="44.79773823972473" lon="9.48327746509103"><ele>541.0</ele><time>2026-03-27T13:27:38Z</time></trkpt><trkpt lat="44.79781645342877" lon="9.48326084728043"><ele>541.0</ele><time>2026-03-27T13:27:39Z</time></trkpt><trkpt lat="44.79789193271683" lon="9.483248877680325"><ele>541.0</ele><time>2026-03-27T13:27:40Z</time></trkpt><trkpt lat="44.79796540221933" lon="9.483233857870491"><ele>541.5</ele><time>2026-03-27T13:27:41Z</time></trkpt><trkpt lat="44.798044709796365" lon="9.483247482000374"><ele>542.0</ele><time>2026-03-27T13:27:42Z</time></trkpt><trkpt lat="44.798120014835696" lon="9.48324296564679"><ele>542.5</ele><time>2026-03-27T13:27:43Z</time></trkpt><trkpt lat="44.79819503308374" lon="9.483239790460113"><ele>543.0</ele><time>2026-03-27T13:27:44Z</time></trkpt><trkpt lat="44.79827078004986" lon="9.483217735193167"><ele>543.5</ele><time>2026-03-27T13:27:45Z</time></trkpt><trkpt lat="44.798341723890665" lon="9.48321479554823"><ele>544.0</ele><time>2026-03-27T13:27:46Z</time></trkpt><trkpt lat="44.798415291212656" lon="9.483216886777788"><ele>544.0</ele><time>2026-03-27T13:27:47Z</time></trkpt><trkpt lat="44.79848584018074" lon="9.483213356937144"><ele>544.0</ele><time>2026-03-27T13:27:48Z</time></trkpt><trkpt lat="44.79861380263258" lon="9.483223682886408"><ele>544.0</ele><time>2026-03-27T13:27:50Z</time></trkpt><trkpt lat="44.7986794674429" lon="9.483243729780199"><ele>544.0</ele><time>2026-03-27T13:27:51Z</time></trkpt><trkpt lat="44.7987487885707" lon="9.48325524217178"><ele>544.0</ele><time>2026-03-27T13:27:52Z</time></trkpt><trkpt lat="44.798818205263544" lon="9.483273319532374"><ele>544.0</ele><time>2026-03-27T13:27:53Z</time></trkpt><trkpt lat="44.79888416534245" lon="9.483299141836651"><ele>544.1666666666667</ele><time>2026-03-27T13:27:54Z</time></trkpt><trkpt lat="44.7989527759298" lon="9.483307395374519"><ele>544.3333333333334</ele><time>2026-03-27T13:27:55Z</time></trkpt><trkpt lat="44.79901289389603" lon="9.48333967350788"><ele>544.5</ele><time>2026-03-27T13:27:56Z</time></trkpt><trkpt lat="44.79912907579239" lon="9.48338189911022"><ele>544.6666666666666</ele><time>2026-03-27T13:27:58Z</time></trkpt><trkpt lat="44.79918778087979" lon="9.483423732800448"><ele>544.8333333333333</ele><time>2026-03-27T13:27:59Z</time></trkpt><trkpt lat="44.79925605517325" lon="9.483424872665072"><ele>545.0</ele><time>2026-03-27T13:28:00Z</time></trkpt><trkpt lat="44.79931754244758" lon="9.483459136429005"><ele>545.3333333333333</ele><time>2026-03-27T13:28:01Z</time></trkpt><trkpt lat="44.79938647388943" lon="9.483455243078401"><ele>545.6666666666666</ele><time>2026-03-27T13:28:02Z</time></trkpt><trkpt lat="44.79944818291529" lon="9.483475372370577"><ele>546.0</ele><time>2026-03-27T13:28:03Z</time></trkpt><trkpt lat="44.799513943742134" lon="9.483483617791409"><ele>546.3333333333334</ele><time>2026-03-27T13:28:04Z</time></trkpt><trkpt lat="44.79963651620525" lon="9.483509252350355"><ele>546.6666666666667</ele><time>2026-03-27T13:28:06Z</time></trkpt><trkpt lat="44.799757165253936" lon="9.483508533215735"><ele>547.0</ele><time>2026-03-27T13:28:08Z</time></trkpt><trkpt lat="44.79982218198471" lon="9.483498189206387"><ele>547.0</ele><time>2026-03-27T13:28:09Z</time></trkpt><trkpt lat="44.79988961820867" lon="9.483504581172374"><ele>547.0</ele><time>2026-03-27T13:28:10Z</time></trkpt><trkpt lat="44.79995236111453" lon="9.483487526188494"><ele>547.0</ele><time>2026-03-27T13:28:11Z</time></trkpt><trkpt lat="44.80001991861892" lon="9.483457721992043"><ele>547.0</ele><time>2026-03-27T13:28:12Z</time></trkpt><trkpt lat="44.800078748512014" lon="9.483404612312986"><ele>547.0</ele><time>2026-03-27T13:28:13Z</time></trkpt><trkpt lat="44.80014194446308" lon="9.483374495247096"><ele>547.0</ele><time>2026-03-27T13:28:13.999Z</time></trkpt><trkpt lat="44.80019510546188" lon="9.48328966887091"><ele>547.0</ele><time>2026-03-27T13:28:14.999Z</time></trkpt><trkpt lat="44.800278930199454" lon="9.48337107349379"><ele>546.0</ele><time>2026-03-27T13:28:15.999Z</time></trkpt><trkpt lat="44.800339531562315" lon="9.483295900822542"><ele>545.0</ele><time>2026-03-27T13:28:16.999Z</time></trkpt><trkpt lat="44.80040593315906" lon="9.483274426230977"><ele>544.0</ele><time>2026-03-27T13:28:17.999Z</time></trkpt><trkpt lat="44.800537357118614" lon="9.483271880827072"><ele>543.0</ele><time>2026-03-27T13:28:19.999Z</time></trkpt><trkpt lat="44.800658479920926" lon="9.483252164070953"><ele>542.0</ele><time>2026-03-27T13:28:21.999Z</time></trkpt><trkpt lat="44.80072359092926" lon="9.48323623805746"><ele>542.0</ele><time>2026-03-27T13:28:22.999Z</time></trkpt><trkpt lat="44.80083649185556" lon="9.483181249772535"><ele>542.0</ele><time>2026-03-27T13:28:24.999Z</time></trkpt><trkpt lat="44.800884404402495" lon="9.483121322397656"><ele>542.0</ele><time>2026-03-27T13:28:25.999Z</time></trkpt><trkpt lat="44.8009435076765" lon="9.483088178461857"><ele>542.0</ele><time>2026-03-27T13:28:26.999Z</time></trkpt><trkpt lat="44.8010291127496" lon="9.482955385749042"><ele>542.0</ele><time>2026-03-27T13:28:28.999Z</time></trkpt><trkpt lat="44.80111084260231" lon="9.482843781430343"><ele>540.6</ele><time>2026-03-27T13:28:30.999Z</time></trkpt><trkpt lat="44.80118007680024" lon="9.48275127759035"><ele>539.2</ele><time>2026-03-27T13:28:32.999Z</time></trkpt><trkpt lat="44.80126001576574" lon="9.482669318269744"><ele>537.8</ele><time>2026-03-27T13:28:34.999Z</time></trkpt><trkpt lat="44.801328666846224" lon="9.482583056627142"><ele>536.4</ele><time>2026-03-27T13:28:36.999Z</time></trkpt><trkpt lat="44.801391184257334" lon="9.482524852270494"><ele>535.0</ele><time>2026-03-27T13:28:38.999Z</time></trkpt><trkpt lat="44.801505699137834" lon="9.482510489146314"><ele>535.0</ele><time>2026-03-27T13:28:40.999Z</time></trkpt><trkpt lat="44.801627280603036" lon="9.482520143998528"><ele>535.0</ele><time>2026-03-27T13:28:42.999Z</time></trkpt><trkpt lat="44.80169310750366" lon="9.48251551716953"><ele>535.0</ele><time>2026-03-27T13:28:43.999Z</time></trkpt><trkpt lat="44.801758815092555" lon="9.482517110475897"><ele>535.0</ele><time>2026-03-27T13:28:44.999Z</time></trkpt><trkpt lat="44.80182506447956" lon="9.482496866316156"><ele>535.0</ele><time>2026-03-27T13:28:45.999Z</time></trkpt><trkpt lat="44.801891600680136" lon="9.482494906011079"><ele>535.0</ele><time>2026-03-27T13:28:46.999Z</time></trkpt><trkpt lat="44.801957967422055" lon="9.48249529675926"><ele>533.5714285714286</ele><time>2026-03-27T13:28:47.999Z</time></trkpt><trkpt lat="44.802021056100436" lon="9.48249566820493"><ele>532.1428571428571</ele><time>2026-03-27T13:28:48.999Z</time></trkpt><trkpt lat="44.8020896932539" lon="9.482496072320762"><ele>530.7142857142858</ele><time>2026-03-27T13:28:49.999Z</time></trkpt><trkpt lat="44.80215510077483" lon="9.482493869444998"><ele>529.2857142857142</ele><time>2026-03-27T13:28:50.999Z</time></trkpt><trkpt lat="44.80222225237513" lon="9.48251102629865"><ele>527.8571428571429</ele><time>2026-03-27T13:28:51.999Z</time></trkpt><trkpt lat="44.80228790395878" lon="9.48248942964915"><ele>526.4285714285714</ele><time>2026-03-27T13:28:52.999Z</time></trkpt><trkpt lat="44.802356294853524" lon="9.48248311140471"><ele>525.0</ele><time>2026-03-27T13:28:53.999Z</time></trkpt><trkpt lat="44.80247142993059" lon="9.482458109273127"><ele>525.0</ele><time>2026-03-27T13:28:55.999Z</time></trkpt><trkpt lat="44.80257888623099" lon="9.482391791527915"><ele>525.0</ele><time>2026-03-27T13:28:57.999Z</time></trkpt><trkpt lat="44.80267511989568" lon="9.482368932946763"><ele>525.0</ele><time>2026-03-27T13:28:59.999Z</time></trkpt><trkpt lat="44.80277642945946" lon="9.482290722614833"><ele>525.0</ele><time>2026-03-27T13:29:01.999Z</time></trkpt><trkpt lat="44.802878267786994" lon="9.482236319635136"><ele>525.0</ele><time>2026-03-27T13:29:03.999Z</time></trkpt><trkpt lat="44.802928026450225" lon="9.482181240771647"><ele>524.5</ele><time>2026-03-27T13:29:04.999Z</time></trkpt><trkpt lat="44.8030398409112" lon="9.482105123537917"><ele>524.0</ele><time>2026-03-27T13:29:06.999Z</time></trkpt><trkpt lat="44.80312988238152" lon="9.481988216066505"><ele>523.5</ele><time>2026-03-27T13:29:08.999Z</time></trkpt><trkpt lat="44.80321108240409" lon="9.481878414795636"><ele>523.0</ele><time>2026-03-27T13:29:10.999Z</time></trkpt><trkpt lat="44.80330629918261" lon="9.481780997997626"><ele>523.0</ele><time>2026-03-27T13:29:13Z</time></trkpt><trkpt lat="44.80336910355273" lon="9.481744151611485"><ele>523.0</ele><time>2026-03-27T13:29:14Z</time></trkpt><trkpt lat="44.803490356545964" lon="9.481681980596257"><ele>523.0</ele><time>2026-03-27T13:29:16Z</time></trkpt><trkpt lat="44.803579744909925" lon="9.481569773306475"><ele>523.0</ele><time>2026-03-27T13:29:18Z</time></trkpt><trkpt lat="44.8036480060556" lon="9.481478736048505"><ele>523.0</ele><time>2026-03-27T13:29:20Z</time></trkpt><trkpt lat="44.803731733482664" lon="9.481418425215661"><ele>521.6666666666667</ele><time>2026-03-27T13:29:22Z</time></trkpt><trkpt lat="44.80381621458488" lon="9.48135867207087"><ele>520.3333333333334</ele><time>2026-03-27T13:29:24Z</time></trkpt><trkpt lat="44.80390876591034" lon="9.481328719478418"><ele>519.0</ele><time>2026-03-27T13:29:26Z</time></trkpt><trkpt lat="44.8039755316928" lon="9.481278529594299"><ele>517.6666666666666</ele><time>2026-03-27T13:29:28Z</time></trkpt><trkpt lat="44.8040373469622" lon="9.481223965774783"><ele>516.3333333333333</ele><time>2026-03-27T13:29:31Z</time></trkpt><trkpt lat="44.804077102323866" lon="9.481154357891254"><ele>515.0</ele><time>2026-03-27T13:30:08Z</time></trkpt><trkpt lat="44.80402369644088" lon="9.481224439461544"><ele>515.0</ele><time>2026-03-27T13:32:56.999Z</time></trkpt><trkpt lat="44.8040654028052" lon="9.481151249729544"><ele>515.0</ele><time>2026-03-27T13:35:41.999Z</time></trkpt><trkpt lat="44.80408866935952" lon="9.481032845245508"><ele>515.0</ele><time>2026-03-27T13:35:43.999Z</time></trkpt><trkpt lat="44.80410614519564" lon="9.480906238347023"><ele>515.0</ele><time>2026-03-27T13:35:45.999Z</time></trkpt><trkpt lat="44.80410690666053" lon="9.480802584130531"><ele>515.0</ele><time>2026-03-27T13:35:47.999Z</time></trkpt><trkpt lat="44.80411932873877" lon="9.480686352965657"><ele>515.0</ele><time>2026-03-27T13:35:50.999Z</time></trkpt><trkpt lat="44.804114401013365" lon="9.480562737761732"><ele>515.0</ele><time>2026-03-27T13:35:53.999Z</time></trkpt><trkpt lat="44.80411447878092" lon="9.480465775591497"><ele>515.0</ele><time>2026-03-27T13:35:55.999Z</time></trkpt><trkpt lat="44.80409513323776" lon="9.480354933650993"><ele>515.0</ele><time>2026-03-27T13:35:57.999Z</time></trkpt><trkpt lat="44.80409376508558" lon="9.480242334288501"><ele>515.0</ele><time>2026-03-27T13:35:59.999Z</time></trkpt><trkpt lat="44.80408591415248" lon="9.480119046644235"><ele>515.0</ele><time>2026-03-27T13:36:01.999Z</time></trkpt><trkpt lat="44.80409714249965" lon="9.479993290352201"><ele>515.0</ele><time>2026-03-27T13:36:03.999Z</time></trkpt><trkpt lat="44.8040830525409" lon="9.479836209513502"><ele>514.6</ele><time>2026-03-27T13:36:05.999Z</time></trkpt><trkpt lat="44.804053929160766" lon="9.47969729970262"><ele>514.2</ele><time>2026-03-27T13:36:07.999Z</time></trkpt><trkpt lat="44.80400539773377" lon="9.479564549469776"><ele>513.8</ele><time>2026-03-27T13:36:09.999Z</time></trkpt><trkpt lat="44.80395759238994" lon="9.47944344974837"><ele>513.4</ele><time>2026-03-27T13:36:11.999Z</time></trkpt><trkpt lat="44.803904898148446" lon="9.479302302942617"><ele>513.0</ele><time>2026-03-27T13:36:13.999Z</time></trkpt><trkpt lat="44.803860846268186" lon="9.479160484269988"><ele>509.75</ele><time>2026-03-27T13:36:15.999Z</time></trkpt><trkpt lat="44.803822193125704" lon="9.479012866490605"><ele>506.5</ele><time>2026-03-27T13:36:17.999Z</time></trkpt><trkpt lat="44.803767081737305" lon="9.47885770787307"><ele>503.25</ele><time>2026-03-27T13:36:19.999Z</time></trkpt><trkpt lat="44.803741585291384" lon="9.47868732395047"><ele>500.0</ele><time>2026-03-27T13:36:21.999Z</time></trkpt><trkpt lat="44.80375379309085" lon="9.478537080821365"><ele>499.3333333333333</ele><time>2026-03-27T13:36:23.999Z</time></trkpt><trkpt lat="44.80376620124815" lon="9.4784033260303"><ele>498.66666666666663</ele><time>2026-03-27T13:36:25.999Z</time></trkpt><trkpt lat="44.803794663336" lon="9.478272142054633"><ele>498.0</ele><time>2026-03-27T13:36:27.999Z</time></trkpt><trkpt lat="44.80384359808058" lon="9.478173579381846"><ele>497.33333333333337</ele><time>2026-03-27T13:36:29.999Z</time></trkpt><trkpt lat="44.80389023620438" lon="9.478080791317302"><ele>496.6666666666667</ele><time>2026-03-27T13:36:31.999Z</time></trkpt><trkpt lat="44.80397677846871" lon="9.478106901327154"><ele>496.0</ele><time>2026-03-27T13:36:34.999Z</time></trkpt><trkpt lat="44.80400250906867" lon="9.478191950896782"><ele>496.00000000000006</ele><time>2026-03-27T13:36:36.999Z</time></trkpt><trkpt lat="44.804017282684256" lon="9.478279227517897"><ele>496.0</ele><time>2026-03-27T13:36:38.999Z</time></trkpt><trkpt lat="44.804028683553575" lon="9.478385677519313"><ele>496.0</ele><time>2026-03-27T13:36:40.999Z</time></trkpt><trkpt lat="44.804034726305225" lon="9.478488532141995"><ele>496.0</ele><time>2026-03-27T13:36:42.999Z</time></trkpt><trkpt lat="44.804055929300404" lon="9.478601299905309"><ele>496.00000000000006</ele><time>2026-03-27T13:36:44.999Z</time></trkpt><trkpt lat="44.8040972842787" lon="9.478705001273658"><ele>496.0</ele><time>2026-03-27T13:36:46.999Z</time></trkpt><trkpt lat="44.804153578299335" lon="9.478783443225755"><ele>496.8</ele><time>2026-03-27T13:36:48.999Z</time></trkpt><trkpt lat="44.80421908879498" lon="9.478835778500212"><ele>497.6</ele><time>2026-03-27T13:36:50.999Z</time></trkpt><trkpt lat="44.80430392572024" lon="9.478859063419268"><ele>498.4</ele><time>2026-03-27T13:36:52.999Z</time></trkpt><trkpt lat="44.80438685775577" lon="9.47883502340442"><ele>499.2</ele><time>2026-03-27T13:36:54.999Z</time></trkpt><trkpt lat="44.80446139351086" lon="9.478748066743487"><ele>500.0</ele><time>2026-03-27T13:36:56.999Z</time></trkpt><trkpt lat="44.80451965330798" lon="9.478619696719951"><ele>497.99999999999994</ele><time>2026-03-27T13:36:58.999Z</time></trkpt><trkpt lat="44.804558930474435" lon="9.478547612110903"><ele>496.0</ele><time>2026-03-27T13:36:59.999Z</time></trkpt><trkpt lat="44.80458972505893" lon="9.478462717966691"><ele>494.0</ele><time>2026-03-27T13:37:00.999Z</time></trkpt><trkpt lat="44.80460544211159" lon="9.478372008029027"><ele>492.0</ele><time>2026-03-27T13:37:01.999Z</time></trkpt><trkpt lat="44.80465272885943" lon="9.47821897623585"><ele>489.99999999999994</ele><time>2026-03-27T13:37:03.999Z</time></trkpt><trkpt lat="44.804713309837595" lon="9.478076674921"><ele>488.0</ele><time>2026-03-27T13:37:05.999Z</time></trkpt><trkpt lat="44.804723552019674" lon="9.477988952518924"><ele>486.99999999999994</ele><time>2026-03-27T13:37:06.999Z</time></trkpt><trkpt lat="44.80474529107781" lon="9.47790504312719"><ele>486.0</ele><time>2026-03-27T13:37:07.999Z</time></trkpt><trkpt lat="44.80476904417124" lon="9.47781695136811"><ele>485.0</ele><time>2026-03-27T13:37:08.999Z</time></trkpt><trkpt lat="44.804811185378455" lon="9.47766490227534"><ele>484.0</ele><time>2026-03-27T13:37:10.999Z</time></trkpt><trkpt lat="44.804844232350035" lon="9.477584921665757"><ele>482.99999999999994</ele><time>2026-03-27T13:37:11.999Z</time></trkpt><trkpt lat="44.80488363816211" lon="9.47742910843393"><ele>482.0</ele><time>2026-03-27T13:37:13.999Z</time></trkpt><trkpt lat="44.8049274823792" lon="9.477287381417694"><ele>482.0</ele><time>2026-03-27T13:37:15.999Z</time></trkpt><trkpt lat="44.80498097153235" lon="9.477180302783232"><ele>482.00000000000006</ele><time>2026-03-27T13:37:17.999Z</time></trkpt><trkpt lat="44.80502569812046" lon="9.477077964036772"><ele>482.00000000000006</ele><time>2026-03-27T13:37:19.999Z</time></trkpt><trkpt lat="44.805102539723265" lon="9.476979579266834"><ele>482.0</ele><time>2026-03-27T13:37:21.999Z</time></trkpt><trkpt lat="44.8051722237363" lon="9.476863583147079"><ele>482.0</ele><time>2026-03-27T13:37:23.999Z</time></trkpt><trkpt lat="44.80522909337109" lon="9.476746470096671"><ele>480.3333333333333</ele><time>2026-03-27T13:37:25.999Z</time></trkpt><trkpt lat="44.80528672131671" lon="9.476646521952771"><ele>478.66666666666663</ele><time>2026-03-27T13:37:27.999Z</time></trkpt><trkpt lat="44.80533791087437" lon="9.476569408331738"><ele>477.0</ele><time>2026-03-27T13:37:29.999Z</time></trkpt><trkpt lat="44.805388809161094" lon="9.47649067267114"><ele>475.33333333333337</ele><time>2026-03-27T13:37:31.999Z</time></trkpt><trkpt lat="44.805442078699414" lon="9.47639435309492"><ele>473.6666666666667</ele><time>2026-03-27T13:37:33.999Z</time></trkpt><trkpt lat="44.80550470703602" lon="9.476287009754998"><ele>472.0</ele><time>2026-03-27T13:37:35.999Z</time></trkpt><trkpt lat="44.80558134577825" lon="9.476190393860206"><ele>470.0</ele><time>2026-03-27T13:37:37.999Z</time></trkpt><trkpt lat="44.805656028966894" lon="9.476075357652384"><ele>468.00000000000006</ele><time>2026-03-27T13:37:39.999Z</time></trkpt><trkpt lat="44.80573408442906" lon="9.475959016746971"><ele>466.00000000000006</ele><time>2026-03-27T13:37:41.999Z</time></trkpt><trkpt lat="44.8057845275245" lon="9.475857932885159"><ele>464.0</ele><time>2026-03-27T13:37:44Z</time></trkpt><trkpt lat="44.80585344269327" lon="9.47578464213179"><ele>462.0</ele><time>2026-03-27T13:37:46Z</time></trkpt><trkpt lat="44.80592205791148" lon="9.475710597838255"><ele>460.0</ele><time>2026-03-27T13:37:48Z</time></trkpt><trkpt lat="44.80601051303044" lon="9.475642265634301"><ele>458.00000000000006</ele><time>2026-03-27T13:37:50Z</time></trkpt><trkpt lat="44.80609459134374" lon="9.475548048899999"><ele>456.00000000000006</ele><time>2026-03-27T13:37:52Z</time></trkpt><trkpt lat="44.8061799963664" lon="9.475452345790623"><ele>454.0</ele><time>2026-03-27T13:37:54Z</time></trkpt><trkpt lat="44.806270845787125" lon="9.475350541908375"><ele>452.0</ele><time>2026-03-27T13:37:56Z</time></trkpt><trkpt lat="44.806342434888016" lon="9.475240139159657"><ele>450.0</ele><time>2026-03-27T13:37:58Z</time></trkpt><trkpt lat="44.806419811184504" lon="9.475161311074627"><ele>448.00000000000006</ele><time>2026-03-27T13:38:00Z</time></trkpt><trkpt lat="44.806500290498676" lon="9.47508078933446"><ele>446.00000000000006</ele><time>2026-03-27T13:38:02Z</time></trkpt><trkpt lat="44.80657182376574" lon="9.474978347458052"><ele>444.0</ele><time>2026-03-27T13:38:04Z</time></trkpt><trkpt lat="44.806633555218575" lon="9.47485825575151"><ele>442.0</ele><time>2026-03-27T13:38:06Z</time></trkpt><trkpt lat="44.806663887686554" lon="9.474744762722679"><ele>442.0</ele><time>2026-03-27T13:38:08Z</time></trkpt><trkpt lat="44.806683955161354" lon="9.474624711068328"><ele>442.00000000000006</ele><time>2026-03-27T13:38:10Z</time></trkpt><trkpt lat="44.80671142631341" lon="9.474520349587024"><ele>442.00000000000006</ele><time>2026-03-27T13:38:12Z</time></trkpt><trkpt lat="44.806738134219" lon="9.474390858083583"><ele>442.0</ele><time>2026-03-27T13:38:14Z</time></trkpt><trkpt lat="44.80677446317538" lon="9.474265367300164"><ele>442.0</ele><time>2026-03-27T13:38:16Z</time></trkpt><trkpt lat="44.80682565707367" lon="9.474143608592325"><ele>439.6</ele><time>2026-03-27T13:38:18Z</time></trkpt><trkpt lat="44.806867140539396" lon="9.474000836999695"><ele>437.20000000000005</ele><time>2026-03-27T13:38:20Z</time></trkpt><trkpt lat="44.80690633769542" lon="9.47386593410526"><ele>434.8</ele><time>2026-03-27T13:38:22Z</time></trkpt><trkpt lat="44.80694326657986" lon="9.473724717980957"><ele>432.4</ele><time>2026-03-27T13:38:24Z</time></trkpt><trkpt lat="44.80695367764682" lon="9.473574460987985"><ele>430.0</ele><time>2026-03-27T13:38:26Z</time></trkpt><trkpt lat="44.80698558761167" lon="9.473433848531661"><ele>430.0</ele><time>2026-03-27T13:38:28Z</time></trkpt><trkpt lat="44.807008147394164" lon="9.473289765152415"><ele>430.0</ele><time>2026-03-27T13:38:30Z</time></trkpt><trkpt lat="44.80703828889546" lon="9.47314287568965"><ele>430.0</ele><time>2026-03-27T13:38:32Z</time></trkpt><trkpt lat="44.80708159836616" lon="9.473014566566668"><ele>430.0</ele><time>2026-03-27T13:38:34Z</time></trkpt><trkpt lat="44.80711320524091" lon="9.472868405027727"><ele>430.0</ele><time>2026-03-27T13:38:36Z</time></trkpt><trkpt lat="44.80714222374172" lon="9.472707625044224"><ele>429.6</ele><time>2026-03-27T13:38:38Z</time></trkpt><trkpt lat="44.8071701176142" lon="9.472556142902128"><ele>429.2</ele><time>2026-03-27T13:38:40Z</time></trkpt><trkpt lat="44.807192329463696" lon="9.472406262066977"><ele>428.79999999999995</ele><time>2026-03-27T13:38:42Z</time></trkpt><trkpt lat="44.80724186544092" lon="9.472288324177713"><ele>428.4</ele><time>2026-03-27T13:38:44Z</time></trkpt><trkpt lat="44.80731440699792" lon="9.472201470341476"><ele>428.0</ele><time>2026-03-27T13:38:46Z</time></trkpt><trkpt lat="44.807391475708364" lon="9.472140473112761"><ele>427.99999999999994</ele><time>2026-03-27T13:38:48Z</time></trkpt><trkpt lat="44.80748047569643" lon="9.47212062618455"><ele>428.0</ele><time>2026-03-27T13:38:49.999Z</time></trkpt><trkpt lat="44.807566935109556" lon="9.472115527185743"><ele>428.0</ele><time>2026-03-27T13:38:51.999Z</time></trkpt><trkpt lat="44.80766107570845" lon="9.47210601582825"><ele>428.0</ele><time>2026-03-27T13:38:53.999Z</time></trkpt><trkpt lat="44.80773381275063" lon="9.472167951667696"><ele>427.99999999999994</ele><time>2026-03-27T13:38:55.999Z</time></trkpt><trkpt lat="44.80781025265714" lon="9.472230520772273"><ele>428.0</ele><time>2026-03-27T13:38:57.999Z</time></trkpt><trkpt lat="44.807907637266695" lon="9.47225563864799"><ele>424.79999999999995</ele><time>2026-03-27T13:38:59.999Z</time></trkpt><trkpt lat="44.80800360662694" lon="9.472260844367296"><ele>421.59999999999997</ele><time>2026-03-27T13:39:01.999Z</time></trkpt><trkpt lat="44.80810119791564" lon="9.472214606276452"><ele>418.4</ele><time>2026-03-27T13:39:03.999Z</time></trkpt><trkpt lat="44.8081835588649" lon="9.472143479827928"><ele>415.20000000000005</ele><time>2026-03-27T13:39:05.999Z</time></trkpt><trkpt lat="44.808270344147566" lon="9.472058533903803"><ele>412.0</ele><time>2026-03-27T13:39:07.999Z</time></trkpt><trkpt lat="44.80831819091536" lon="9.471971630721498"><ele>412.0</ele><time>2026-03-27T13:39:09.999Z</time></trkpt><trkpt lat="44.8083633885321" lon="9.47189608989113"><ele>412.0</ele><time>2026-03-27T13:39:11.999Z</time></trkpt><trkpt lat="44.80841161248842" lon="9.471809639256637"><ele>412.0</ele><time>2026-03-27T13:39:15.999Z</time></trkpt><trkpt lat="44.80829373145059" lon="9.471604537293652"><ele>412.0</ele><time>2026-03-27T13:40:39Z</time></trkpt><trkpt lat="44.80824018103623" lon="9.47146544008379"><ele>412.0</ele><time>2026-03-27T13:40:41Z</time></trkpt><trkpt lat="44.8082224465331" lon="9.47137766752099"><ele>412.00000000000006</ele><time>2026-03-27T13:40:42Z</time></trkpt><trkpt lat="44.8082421935994" lon="9.471277439883615"><ele>412.0</ele><time>2026-03-27T13:40:43Z</time></trkpt><trkpt lat="44.80826152869317" lon="9.471190526439313"><ele>412.0</ele><time>2026-03-27T13:40:44Z</time></trkpt><trkpt lat="44.80824807708491" lon="9.471014604103397"><ele>412.0</ele><time>2026-03-27T13:40:46Z</time></trkpt><trkpt lat="44.80819139441998" lon="9.47091694758886"><ele>412.00000000000006</ele><time>2026-03-27T13:40:47Z</time></trkpt><trkpt lat="44.808126713203464" lon="9.470817821307906"><ele>412.0</ele><time>2026-03-27T13:40:48Z</time></trkpt><trkpt lat="44.80806193107216" lon="9.47073228331575"><ele>412.83333333333337</ele><time>2026-03-27T13:40:49Z</time></trkpt><trkpt lat="44.808000784462216" lon="9.47066968845775"><ele>413.6666666666667</ele><time>2026-03-27T13:40:50Z</time></trkpt><trkpt lat="44.8079241101267" lon="9.47060738678075"><ele>414.5</ele><time>2026-03-27T13:40:51Z</time></trkpt><trkpt lat="44.80785801310971" lon="9.470522843230865"><ele>415.33333333333337</ele><time>2026-03-27T13:40:52Z</time></trkpt><trkpt lat="44.80778932453104" lon="9.470426865182342"><ele>416.1666666666667</ele><time>2026-03-27T13:40:53Z</time></trkpt><trkpt lat="44.80772219377599" lon="9.470343908416494"><ele>417.0</ele><time>2026-03-27T13:40:54Z</time></trkpt><trkpt lat="44.80765009121196" lon="9.470273428208227"><ele>417.0</ele><time>2026-03-27T13:40:55Z</time></trkpt><trkpt lat="44.807569834084525" lon="9.470209636825782"><ele>417.0</ele><time>2026-03-27T13:40:56Z</time></trkpt><trkpt lat="44.80748623378685" lon="9.470152703017153"><ele>417.0</ele><time>2026-03-27T13:40:57Z</time></trkpt><trkpt lat="44.80739740483633" lon="9.470099202448633"><ele>417.0</ele><time>2026-03-27T13:40:58Z</time></trkpt><trkpt lat="44.80731719182932" lon="9.470050838911497"><ele>417.0</ele><time>2026-03-27T13:40:59Z</time></trkpt><trkpt lat="44.80724884793376" lon="9.470003984527063"><ele>417.0</ele><time>2026-03-27T13:41:00Z</time></trkpt><trkpt lat="44.80719408210042" lon="9.469949772829754"><ele>417.0</ele><time>2026-03-27T13:41:01Z</time></trkpt><trkpt lat="44.80712376076459" lon="9.469790146303392"><ele>417.0</ele><time>2026-03-27T13:41:03Z</time></trkpt><trkpt lat="44.807118971718275" lon="9.469681097313803"><ele>417.0</ele><time>2026-03-27T13:41:04Z</time></trkpt><trkpt lat="44.80708805703442" lon="9.469588533338525"><ele>417.0</ele><time>2026-03-27T13:41:05Z</time></trkpt><trkpt lat="44.80702056835981" lon="9.469516005649798"><ele>417.0</ele><time>2026-03-27T13:41:06Z</time></trkpt><trkpt lat="44.806934443735095" lon="9.469432777627409"><ele>416.0</ele><time>2026-03-27T13:41:07Z</time></trkpt><trkpt lat="44.80683083044038" lon="9.469366160759906"><ele>415.0</ele><time>2026-03-27T13:41:08Z</time></trkpt><trkpt lat="44.806713848348785" lon="9.46930185328928"><ele>414.0</ele><time>2026-03-27T13:41:09Z</time></trkpt><trkpt lat="44.806598371456275" lon="9.469251694707804"><ele>413.0</ele><time>2026-03-27T13:41:10Z</time></trkpt><trkpt lat="44.80649929011221" lon="9.469209128679834"><ele>415.8333333333333</ele><time>2026-03-27T13:41:11Z</time></trkpt><trkpt lat="44.8064224612549" lon="9.46917108709046"><ele>418.66666666666663</ele><time>2026-03-27T13:41:12Z</time></trkpt><trkpt lat="44.80634979651946" lon="9.46908750821389"><ele>421.5</ele><time>2026-03-27T13:41:14Z</time></trkpt><trkpt lat="44.8063434511897" lon="9.468942928890499"><ele>424.33333333333337</ele><time>2026-03-27T13:41:16Z</time></trkpt><trkpt lat="44.806391890982376" lon="9.468867334807744"><ele>427.1666666666667</ele><time>2026-03-27T13:41:17Z</time></trkpt><trkpt lat="44.80645815521441" lon="9.468816797342258"><ele>430.0</ele><time>2026-03-27T13:41:18Z</time></trkpt><trkpt lat="44.806542821589645" lon="9.468784380261352"><ele>430.6666666666667</ele><time>2026-03-27T13:41:19Z</time></trkpt><trkpt lat="44.806623759567636" lon="9.468740386116256"><ele>431.33333333333337</ele><time>2026-03-27T13:41:20Z</time></trkpt><trkpt lat="44.80668514121734" lon="9.468671867437804"><ele>432.0</ele><time>2026-03-27T13:41:21Z</time></trkpt><trkpt lat="44.806731371268526" lon="9.46857723161212"><ele>432.66666666666663</ele><time>2026-03-27T13:41:22Z</time></trkpt><trkpt lat="44.806761462563486" lon="9.468464170146083"><ele>433.3333333333333</ele><time>2026-03-27T13:41:22.999Z</time></trkpt><trkpt lat="44.806780986782925" lon="9.46834271444073"><ele>434.0</ele><time>2026-03-27T13:41:23.999Z</time></trkpt><trkpt lat="44.80679198005498" lon="9.468221923710386"><ele>433.99999999999994</ele><time>2026-03-27T13:41:24.999Z</time></trkpt><trkpt lat="44.806785585357794" lon="9.468109690047308"><ele>434.0</ele><time>2026-03-27T13:41:25.999Z</time></trkpt><trkpt lat="44.80675864190431" lon="9.468007991683946"><ele>434.0</ele><time>2026-03-27T13:41:26.999Z</time></trkpt><trkpt lat="44.80672243365549" lon="9.467904074823714"><ele>434.0</ele><time>2026-03-27T13:41:27.999Z</time></trkpt><trkpt lat="44.80669121441985" lon="9.46778937795724"><ele>433.99999999999994</ele><time>2026-03-27T13:41:28.999Z</time></trkpt><trkpt lat="44.80662364101687" lon="9.467709712311418"><ele>434.0</ele><time>2026-03-27T13:41:29.999Z</time></trkpt><trkpt lat="44.806564510710025" lon="9.467623915286374"><ele>434.3333333333333</ele><time>2026-03-27T13:41:30.999Z</time></trkpt><trkpt lat="44.806496402532304" lon="9.467553797650314"><ele>434.66666666666663</ele><time>2026-03-27T13:41:31.999Z</time></trkpt><trkpt lat="44.806425605992466" lon="9.467480839874316"><ele>435.0</ele><time>2026-03-27T13:41:32.999Z</time></trkpt><trkpt lat="44.806342207961215" lon="9.467452490658383"><ele>435.33333333333337</ele><time>2026-03-27T13:41:33.999Z</time></trkpt><trkpt lat="44.806257483128135" lon="9.467431324716278"><ele>435.6666666666667</ele><time>2026-03-27T13:41:34.999Z</time></trkpt><trkpt lat="44.80617252132511" lon="9.467407407382504"><ele>436.0</ele><time>2026-03-27T13:41:35.999Z</time></trkpt><trkpt lat="44.806094123514406" lon="9.467356973739228"><ele>436.0</ele><time>2026-03-27T13:41:36.999Z</time></trkpt><trkpt lat="44.80602300078059" lon="9.467259884011415"><ele>436.0</ele><time>2026-03-27T13:41:37.999Z</time></trkpt><trkpt lat="44.8059551930258" lon="9.467173009331246"><ele>436.0</ele><time>2026-03-27T13:41:38.999Z</time></trkpt><trkpt lat="44.805873415827286" lon="9.467087080969398"><ele>436.0</ele><time>2026-03-27T13:41:39.999Z</time></trkpt><trkpt lat="44.80577391598248" lon="9.466991841849351"><ele>436.0</ele><time>2026-03-27T13:41:40.999Z</time></trkpt><trkpt lat="44.805669837806064" lon="9.46689035735152"><ele>437.4</ele><time>2026-03-27T13:41:41.999Z</time></trkpt><trkpt lat="44.80556819689555" lon="9.466785658422676"><ele>438.8</ele><time>2026-03-27T13:41:42.999Z</time></trkpt><trkpt lat="44.80546981204132" lon="9.466709607749392"><ele>440.19999999999993</ele><time>2026-03-27T13:41:43.999Z</time></trkpt><trkpt lat="44.805401093246864" lon="9.466605245030028"><ele>441.59999999999997</ele><time>2026-03-27T13:41:44.999Z</time></trkpt><trkpt lat="44.80532055283009" lon="9.46653708227314"><ele>443.0</ele><time>2026-03-27T13:41:45.999Z</time></trkpt><trkpt lat="44.80523162035109" lon="9.466487956229587"><ele>445.79999999999995</ele><time>2026-03-27T13:41:46.999Z</time></trkpt><trkpt lat="44.805123059789636" lon="9.46646862024563"><ele>448.59999999999997</ele><time>2026-03-27T13:41:48Z</time></trkpt><trkpt lat="44.80501054301386" lon="9.466453786556647"><ele>451.40000000000003</ele><time>2026-03-27T13:41:49Z</time></trkpt><trkpt lat="44.80489995430277" lon="9.466423140945354"><ele>454.20000000000005</ele><time>2026-03-27T13:41:50Z</time></trkpt><trkpt lat="44.804801736775715" lon="9.466362344418982"><ele>457.0</ele><time>2026-03-27T13:41:51Z</time></trkpt><trkpt lat="44.8047057380863" lon="9.466308317930945"><ele>457.00000000000006</ele><time>2026-03-27T13:41:52Z</time></trkpt><trkpt lat="44.804622098712585" lon="9.466279649554604"><ele>457.0</ele><time>2026-03-27T13:41:53Z</time></trkpt><trkpt lat="44.804557011559005" lon="9.4662566654456"><ele>457.0</ele><time>2026-03-27T13:41:54Z</time></trkpt><trkpt lat="44.804471698151" lon="9.466131270351267"><ele>457.0</ele><time>2026-03-27T13:41:56Z</time></trkpt><trkpt lat="44.80443033136463" lon="9.466049188594718"><ele>457.00000000000006</ele><time>2026-03-27T13:41:57Z</time></trkpt><trkpt lat="44.804378781398086" lon="9.465971386401383"><ele>457.0</ele><time>2026-03-27T13:41:58Z</time></trkpt><trkpt lat="44.80432817908281" lon="9.465888875268103"><ele>456.50000000000006</ele><time>2026-03-27T13:41:59Z</time></trkpt><trkpt lat="44.80429130970808" lon="9.465800427559286"><ele>456.0</ele><time>2026-03-27T13:42:00Z</time></trkpt><trkpt lat="44.80430033261402" lon="9.465688592809459"><ele>455.5</ele><time>2026-03-27T13:42:01Z</time></trkpt><trkpt lat="44.80434005810588" lon="9.465585821272889"><ele>455.0</ele><time>2026-03-27T13:42:02Z</time></trkpt><trkpt lat="44.804389211229235" lon="9.465496440399527"><ele>454.50000000000006</ele><time>2026-03-27T13:42:03Z</time></trkpt><trkpt lat="44.80443188036434" lon="9.465405210897416"><ele>454.0</ele><time>2026-03-27T13:42:04Z</time></trkpt><trkpt lat="44.8044598674797" lon="9.465305867123723"><ele>455.6</ele><time>2026-03-27T13:42:05Z</time></trkpt><trkpt lat="44.804468975681225" lon="9.465178355316363"><ele>457.2</ele><time>2026-03-27T13:42:06Z</time></trkpt><trkpt lat="44.804484046249314" lon="9.465030944047768"><ele>458.80000000000007</ele><time>2026-03-27T13:42:07Z</time></trkpt><trkpt lat="44.80448858711653" lon="9.464889901488748"><ele>460.40000000000003</ele><time>2026-03-27T13:42:08Z</time></trkpt><trkpt lat="44.80450554304976" lon="9.464757354217834"><ele>462.0</ele><time>2026-03-27T13:42:09Z</time></trkpt><trkpt lat="44.804512978630285" lon="9.46463564682747"><ele>462.1666666666667</ele><time>2026-03-27T13:42:10Z</time></trkpt><trkpt lat="44.804503332256154" lon="9.464525379995859"><ele>462.33333333333337</ele><time>2026-03-27T13:42:11Z</time></trkpt><trkpt lat="44.80446108576757" lon="9.464423079305172"><ele>462.5</ele><time>2026-03-27T13:42:12Z</time></trkpt><trkpt lat="44.80439018587808" lon="9.464354669872522"><ele>462.6666666666667</ele><time>2026-03-27T13:42:13Z</time></trkpt><trkpt lat="44.80429807472404" lon="9.4643241886688"><ele>462.83333333333337</ele><time>2026-03-27T13:42:14Z</time></trkpt><trkpt lat="44.80419826532626" lon="9.464314160482346"><ele>463.0</ele><time>2026-03-27T13:42:15Z</time></trkpt><trkpt lat="44.80410182742246" lon="9.464309185024739"><ele>464.59999999999997</ele><time>2026-03-27T13:42:16Z</time></trkpt><trkpt lat="44.804018397256065" lon="9.464300612286872"><ele>466.19999999999993</ele><time>2026-03-27T13:42:17Z</time></trkpt><trkpt lat="44.803955466201046" lon="9.46427562002109"><ele>467.8</ele><time>2026-03-27T13:42:18Z</time></trkpt><trkpt lat="44.803871896992625" lon="9.464153270047149"><ele>469.4</ele><time>2026-03-27T13:42:20Z</time></trkpt><trkpt lat="44.80386991259474" lon="9.463976536803818"><ele>471.0</ele><time>2026-03-27T13:42:22Z</time></trkpt><trkpt lat="44.80390923945245" lon="9.463885743171513"><ele>471.0</ele><time>2026-03-27T13:42:23Z</time></trkpt><trkpt lat="44.803964836779386" lon="9.463812142279371"><ele>471.0</ele><time>2026-03-27T13:42:24Z</time></trkpt><trkpt lat="44.80402380909507" lon="9.463746020038784"><ele>471.0</ele><time>2026-03-27T13:42:25Z</time></trkpt><trkpt lat="44.80409086452865" lon="9.463715513594101"><ele>471.0</ele><time>2026-03-27T13:42:26Z</time></trkpt><trkpt lat="44.80417485259627" lon="9.463624188205804"><ele>471.0</ele><time>2026-03-27T13:42:27Z</time></trkpt><trkpt lat="44.80423545479026" lon="9.463560435432811"><ele>471.0</ele><time>2026-03-27T13:42:28Z</time></trkpt><trkpt lat="44.80430682728391" lon="9.46341745514018"><ele>471.3333333333333</ele><time>2026-03-27T13:42:30Z</time></trkpt><trkpt lat="44.804299592118525" lon="9.463323332350253"><ele>471.66666666666663</ele><time>2026-03-27T13:42:31Z</time></trkpt><trkpt lat="44.80426404011909" lon="9.463235248669095"><ele>472.0</ele><time>2026-03-27T13:42:32Z</time></trkpt><trkpt lat="44.804205371203174" lon="9.46315861781724"><ele>472.3333333333333</ele><time>2026-03-27T13:42:33Z</time></trkpt><trkpt lat="44.80413289109337" lon="9.463109282495749"><ele>472.66666666666663</ele><time>2026-03-27T13:42:34Z</time></trkpt><trkpt lat="44.80404007467757" lon="9.463077428177957"><ele>473.0</ele><time>2026-03-27T13:42:35Z</time></trkpt><trkpt lat="44.803933037533135" lon="9.463049676339935"><ele>473.0</ele><time>2026-03-27T13:42:36Z</time></trkpt><trkpt lat="44.80382909197137" lon="9.463035927943483"><ele>472.99999999999994</ele><time>2026-03-27T13:42:37Z</time></trkpt><trkpt lat="44.8037192843515" lon="9.463021402215565"><ele>472.99999999999994</ele><time>2026-03-27T13:42:38Z</time></trkpt><trkpt lat="44.80360453394924" lon="9.463018820007626"><ele>473.0</ele><time>2026-03-27T13:42:39Z</time></trkpt><trkpt lat="44.80349317869898" lon="9.462985748087855"><ele>473.0</ele><time>2026-03-27T13:42:40Z</time></trkpt><trkpt lat="44.80338910548711" lon="9.46295136433278"><ele>472.4</ele><time>2026-03-27T13:42:41Z</time></trkpt><trkpt lat="44.80328454359158" lon="9.462919130534758"><ele>471.79999999999995</ele><time>2026-03-27T13:42:42Z</time></trkpt><trkpt lat="44.80318073925866" lon="9.462883831579175"><ele>471.2</ele><time>2026-03-27T13:42:43Z</time></trkpt><trkpt lat="44.80307527176562" lon="9.462839887922833"><ele>470.6</ele><time>2026-03-27T13:42:44Z</time></trkpt><trkpt lat="44.80296659390284" lon="9.462789794186646"><ele>470.0</ele><time>2026-03-27T13:42:45Z</time></trkpt><trkpt lat="44.80286258558927" lon="9.462709967268475"><ele>469.99999999999994</ele><time>2026-03-27T13:42:46Z</time></trkpt><trkpt lat="44.802754745679756" lon="9.46264999657302"><ele>470.0</ele><time>2026-03-27T13:42:47Z</time></trkpt><trkpt lat="44.80267756050863" lon="9.462632031906429"><ele>470.0</ele><time>2026-03-27T13:42:48Z</time></trkpt><trkpt lat="44.802612238149074" lon="9.462625901589714"><ele>470.0</ele><time>2026-03-27T13:42:49Z</time></trkpt><trkpt lat="44.80253781931524" lon="9.462636061300453"><ele>469.99999999999994</ele><time>2026-03-27T13:42:50Z</time></trkpt><trkpt lat="44.80247524217763" lon="9.462693411986573"><ele>470.0</ele><time>2026-03-27T13:42:51Z</time></trkpt><trkpt lat="44.80241298473609" lon="9.462776039737506"><ele>471.49999999999994</ele><time>2026-03-27T13:42:52Z</time></trkpt><trkpt lat="44.80233571357281" lon="9.462816541125934"><ele>473.0</ele><time>2026-03-27T13:42:53Z</time></trkpt><trkpt lat="44.80226469768409" lon="9.462838965119321"><ele>474.5</ele><time>2026-03-27T13:42:54Z</time></trkpt><trkpt lat="44.802200193819225" lon="9.462879658644084"><ele>476.0</ele><time>2026-03-27T13:42:55Z</time></trkpt><trkpt lat="44.80212590759181" lon="9.462896496818312"><ele>477.49999999999994</ele><time>2026-03-27T13:42:56Z</time></trkpt><trkpt lat="44.80204326243127" lon="9.46287244419342"><ele>479.0</ele><time>2026-03-27T13:42:57Z</time></trkpt><trkpt lat="44.80193967832085" lon="9.462841655385647"><ele>481.2</ele><time>2026-03-27T13:42:58Z</time></trkpt><trkpt lat="44.80183083405263" lon="9.462818000188253"><ele>483.4</ele><time>2026-03-27T13:42:59Z</time></trkpt><trkpt lat="44.80173599461502" lon="9.462781893466069"><ele>485.6</ele><time>2026-03-27T13:43:00Z</time></trkpt><trkpt lat="44.80164206675812" lon="9.462759808139147"><ele>487.8</ele><time>2026-03-27T13:43:01Z</time></trkpt><trkpt lat="44.80154340788546" lon="9.462747741283653"><ele>490.0</ele><time>2026-03-27T13:43:02Z</time></trkpt><trkpt lat="44.8014503104238" lon="9.462739079687745"><ele>490.0</ele><time>2026-03-27T13:43:03Z</time></trkpt><trkpt lat="44.80136721276129" lon="9.462726835292216"><ele>490.0</ele><time>2026-03-27T13:43:04Z</time></trkpt><trkpt lat="44.801296037867246" lon="9.462710895102715"><ele>490.0</ele><time>2026-03-27T13:43:05Z</time></trkpt><trkpt lat="44.801232266555246" lon="9.462663693738781"><ele>490.0</ele><time>2026-03-27T13:43:06Z</time></trkpt><trkpt lat="44.80117147081096" lon="9.462610544430376"><ele>490.0</ele><time>2026-03-27T13:43:07Z</time></trkpt><trkpt lat="44.80113101620293" lon="9.462538185020394"><ele>490.0</ele><time>2026-03-27T13:43:08Z</time></trkpt><trkpt lat="44.801081143498216" lon="9.46245863757865"><ele>490.0</ele><time>2026-03-27T13:43:09Z</time></trkpt><trkpt lat="44.80102217616352" lon="9.462370099803907"><ele>494.2</ele><time>2026-03-27T13:43:10Z</time></trkpt><trkpt lat="44.80094512401532" lon="9.462287159460937"><ele>498.4</ele><time>2026-03-27T13:43:11Z</time></trkpt><trkpt lat="44.800874473931216" lon="9.46219956653027"><ele>502.6</ele><time>2026-03-27T13:43:12Z</time></trkpt><trkpt lat="44.80080837700186" lon="9.462121311210277"><ele>506.8</ele><time>2026-03-27T13:43:13Z</time></trkpt><trkpt lat="44.80076179998901" lon="9.462019703052755"><ele>511.0</ele><time>2026-03-27T13:43:15Z</time></trkpt><trkpt lat="44.800764015400304" lon="9.461862380182122"><ele>511.0</ele><time>2026-03-27T13:43:17Z</time></trkpt><trkpt lat="44.80075990239246" lon="9.461746486013874"><ele>511.0</ele><time>2026-03-27T13:43:18Z</time></trkpt><trkpt lat="44.80075262162008" lon="9.461606695339105"><ele>511.0</ele><time>2026-03-27T13:43:19Z</time></trkpt><trkpt lat="44.800744428149216" lon="9.461474064637033"><ele>511.0</ele><time>2026-03-27T13:43:20Z</time></trkpt><trkpt lat="44.800736292578534" lon="9.461377463971445"><ele>511.0</ele><time>2026-03-27T13:43:21Z</time></trkpt><trkpt lat="44.80072237654695" lon="9.461217239465597"><ele>511.1666666666667</ele><time>2026-03-27T13:43:23Z</time></trkpt><trkpt lat="44.800705521011224" lon="9.461066581101381"><ele>511.33333333333337</ele><time>2026-03-27T13:43:25Z</time></trkpt><trkpt lat="44.80066499632007" lon="9.460987348864478"><ele>511.5</ele><time>2026-03-27T13:43:26Z</time></trkpt><trkpt lat="44.80063977550239" lon="9.460890882993988"><ele>511.66666666666663</ele><time>2026-03-27T13:43:27Z</time></trkpt><trkpt lat="44.80059650761991" lon="9.460805990333796"><ele>511.8333333333333</ele><time>2026-03-27T13:43:28Z</time></trkpt><trkpt lat="44.800543840030016" lon="9.460731854897256"><ele>512.0</ele><time>2026-03-27T13:43:29Z</time></trkpt><trkpt lat="44.80048983828341" lon="9.460678145185215"><ele>512.0</ele><time>2026-03-27T13:43:30Z</time></trkpt><trkpt lat="44.800424864230315" lon="9.460667186560547"><ele>512.0</ele><time>2026-03-27T13:43:31Z</time></trkpt><trkpt lat="44.80029433990091" lon="9.46065938376589"><ele>512.0</ele><time>2026-03-27T13:43:33Z</time></trkpt><trkpt lat="44.80020579113325" lon="9.460676618844378"><ele>512.0</ele><time>2026-03-27T13:43:34Z</time></trkpt><trkpt lat="44.80011412382186" lon="9.460695663732663"><ele>512.0</ele><time>2026-03-27T13:43:35Z</time></trkpt><trkpt lat="44.800018099166216" lon="9.460717337887294"><ele>514.3333333333333</ele><time>2026-03-27T13:43:36Z</time></trkpt><trkpt lat="44.79993039447749" lon="9.460740442889783"><ele>516.6666666666666</ele><time>2026-03-27T13:43:37Z</time></trkpt><trkpt lat="44.79985328668464" lon="9.46076436014047"><ele>519.0</ele><time>2026-03-27T13:43:38Z</time></trkpt><trkpt lat="44.79978860794969" lon="9.460795716818176"><ele>521.3333333333334</ele><time>2026-03-27T13:43:39Z</time></trkpt><trkpt lat="44.79973321009987" lon="9.460855390784035"><ele>523.6666666666667</ele><time>2026-03-27T13:43:40Z</time></trkpt><trkpt lat="44.79969590050515" lon="9.460944548271108"><ele>526.0</ele><time>2026-03-27T13:43:41Z</time></trkpt><trkpt lat="44.799677797993944" lon="9.461050388295769"><ele>526.0</ele><time>2026-03-27T13:43:42Z</time></trkpt><trkpt lat="44.799693184483246" lon="9.461164331426133"><ele>526.0</ele><time>2026-03-27T13:43:43Z</time></trkpt><trkpt lat="44.799747405013456" lon="9.461261566160433"><ele>526.0</ele><time>2026-03-27T13:43:44Z</time></trkpt><trkpt lat="44.79980272953925" lon="9.46136384984356"><ele>526.0</ele><time>2026-03-27T13:43:45Z</time></trkpt><trkpt lat="44.799831370075" lon="9.461468905709767"><ele>526.0</ele><time>2026-03-27T13:43:46Z</time></trkpt><trkpt lat="44.799871375833945" lon="9.461555967322003"><ele>526.0</ele><time>2026-03-27T13:43:47Z</time></trkpt><trkpt lat="44.7998622624617" lon="9.461658190460183"><ele>527.5714285714286</ele><time>2026-03-27T13:43:48Z</time></trkpt><trkpt lat="44.799867838710284" lon="9.461751363568132"><ele>529.1428571428571</ele><time>2026-03-27T13:43:49Z</time></trkpt><trkpt lat="44.79987075333616" lon="9.461843301623798"><ele>530.7142857142857</ele><time>2026-03-27T13:43:50Z</time></trkpt><trkpt lat="44.79987007677105" lon="9.46194187609458"><ele>532.2857142857142</ele><time>2026-03-27T13:43:51Z</time></trkpt><trkpt lat="44.79986749446743" lon="9.462049524486886"><ele>533.8571428571429</ele><time>2026-03-27T13:43:52Z</time></trkpt><trkpt lat="44.7998746671035" lon="9.46215940794617"><ele>535.4285714285713</ele><time>2026-03-27T13:43:53Z</time></trkpt><trkpt lat="44.79986656011761" lon="9.462272739538175"><ele>537.0</ele><time>2026-03-27T13:43:54Z</time></trkpt><trkpt lat="44.7998611379758" lon="9.46237936749073"><ele>537.5</ele><time>2026-03-27T13:43:55Z</time></trkpt><trkpt lat="44.799840358162584" lon="9.462480049145112"><ele>538.0</ele><time>2026-03-27T13:43:56Z</time></trkpt><trkpt lat="44.79983315005415" lon="9.462583845910746"><ele>538.5</ele><time>2026-03-27T13:43:57Z</time></trkpt><trkpt lat="44.79983280570009" lon="9.462684780358792"><ele>539.0</ele><time>2026-03-27T13:43:58Z</time></trkpt><trkpt lat="44.799826405554086" lon="9.462780445093925"><ele>539.5</ele><time>2026-03-27T13:43:59Z</time></trkpt><trkpt lat="44.79979875126486" lon="9.462864198995995"><ele>540.0</ele><time>2026-03-27T13:44:00Z</time></trkpt><trkpt lat="44.799669525097414" lon="9.46288378446407"><ele>540.0</ele><time>2026-03-27T13:44:02Z</time></trkpt><trkpt lat="44.79958146145867" lon="9.46284224381122"><ele>540.0</ele><time>2026-03-27T13:44:03Z</time></trkpt><trkpt lat="44.79947173341373" lon="9.462830305770394"><ele>540.0</ele><time>2026-03-27T13:44:04Z</time></trkpt><trkpt lat="44.79936648961598" lon="9.462818470705868"><ele>540.0</ele><time>2026-03-27T13:44:05Z</time></trkpt><trkpt lat="44.79928461182435" lon="9.462809263230834"><ele>540.0</ele><time>2026-03-27T13:44:06Z</time></trkpt><trkpt lat="44.799208500816874" lon="9.462804792071063"><ele>542.0</ele><time>2026-03-27T13:44:07Z</time></trkpt><trkpt lat="44.79912153776226" lon="9.462813362098002"><ele>544.0</ele><time>2026-03-27T13:44:08Z</time></trkpt><trkpt lat="44.79903992061799" lon="9.462831698626058"><ele>546.0</ele><time>2026-03-27T13:44:09Z</time></trkpt><trkpt lat="44.79896567988331" lon="9.462859661720355"><ele>548.0</ele><time>2026-03-27T13:44:10Z</time></trkpt><trkpt lat="44.79889454707651" lon="9.462900245871236"><ele>550.0</ele><time>2026-03-27T13:44:11Z</time></trkpt><trkpt lat="44.79882553584779" lon="9.462946774231284"><ele>552.0</ele><time>2026-03-27T13:44:12Z</time></trkpt><trkpt lat="44.798754731129904" lon="9.463012648473017"><ele>554.6666666666666</ele><time>2026-03-27T13:44:13Z</time></trkpt><trkpt lat="44.79869450622637" lon="9.463093755504785"><ele>557.3333333333334</ele><time>2026-03-27T13:44:14Z</time></trkpt><trkpt lat="44.7986426491579" lon="9.463155336922773"><ele>560.0</ele><time>2026-03-27T13:44:15Z</time></trkpt><trkpt lat="44.79858612832255" lon="9.463206134718282"><ele>562.6666666666667</ele><time>2026-03-27T13:44:16Z</time></trkpt><trkpt lat="44.79846564720596" lon="9.463244741407642"><ele>565.3333333333334</ele><time>2026-03-27T13:44:18Z</time></trkpt><trkpt lat="44.79840431305235" lon="9.463288202421497"><ele>568.0</ele><time>2026-03-27T13:44:19Z</time></trkpt><trkpt lat="44.798337312817246" lon="9.463313328100663"><ele>568.0</ele><time>2026-03-27T13:44:20Z</time></trkpt><trkpt lat="44.798274813070655" lon="9.463366758021174"><ele>568.0</ele><time>2026-03-27T13:44:21Z</time></trkpt><trkpt lat="44.798202536236246" lon="9.463406552497206"><ele>568.0</ele><time>2026-03-27T13:44:22Z</time></trkpt><trkpt lat="44.798141730424504" lon="9.463462612961218"><ele>568.0</ele><time>2026-03-27T13:44:23Z</time></trkpt><trkpt lat="44.798034511094194" lon="9.463516252048878"><ele>568.0</ele><time>2026-03-27T13:44:25Z</time></trkpt><trkpt lat="44.797904578540745" lon="9.463534030381663"><ele>568.0</ele><time>2026-03-27T13:44:27Z</time></trkpt><trkpt lat="44.79779198094609" lon="9.463514681087789"><ele>568.0</ele><time>2026-03-27T13:44:29Z</time></trkpt><trkpt lat="44.797712615963476" lon="9.463523804889313"><ele>568.0</ele><time>2026-03-27T13:44:31Z</time></trkpt><trkpt lat="44.797657776333516" lon="9.46358258342705"><ele>568.0</ele><time>2026-03-27T13:44:33Z</time></trkpt><trkpt lat="44.79765333127863" lon="9.463672455308474"><ele>568.0</ele><time>2026-03-27T13:44:34Z</time></trkpt><trkpt lat="44.79758416719869" lon="9.463743518026691"><ele>568.0</ele><time>2026-03-27T13:44:36Z</time></trkpt><trkpt lat="44.797483235917994" lon="9.463763488462785"><ele>571.5</ele><time>2026-03-27T13:44:38Z</time></trkpt><trkpt lat="44.79738015429074" lon="9.463835823012225"><ele>575.0</ele><time>2026-03-27T13:44:40Z</time></trkpt><trkpt lat="44.79729309694955" lon="9.463876859794578"><ele>578.5</ele><time>2026-03-27T13:44:42Z</time></trkpt><trkpt lat="44.797223278872934" lon="9.46389654809253"><ele>582.0</ele><time>2026-03-27T13:44:55Z</time></trkpt><trkpt lat="44.79728792502359" lon="9.463863436099249"><ele>585.5</ele><time>2026-03-27T13:44:59Z</time></trkpt><trkpt lat="44.79735787815922" lon="9.463831361180992"><ele>589.0</ele><time>2026-03-27T13:45:03Z</time></trkpt><trkpt lat="44.79743941270988" lon="9.46380995395542"><ele>586.1666666666667</ele><time>2026-03-27T13:45:05Z</time></trkpt><trkpt lat="44.797513908911206" lon="9.463750599722106"><ele>583.3333333333334</ele><time>2026-03-27T13:45:07Z</time></trkpt><trkpt lat="44.79757735952978" lon="9.463723938365042"><ele>580.5</ele><time>2026-03-27T13:45:09Z</time></trkpt><trkpt lat="44.79765456264208" lon="9.463644477589147"><ele>577.6666666666666</ele><time>2026-03-27T13:45:12Z</time></trkpt><trkpt lat="44.79772336655145" lon="9.463611702634244"><ele>574.8333333333333</ele><time>2026-03-27T13:45:14Z</time></trkpt><trkpt lat="44.79770575104482" lon="9.463515480670608"><ele>572.0</ele><time>2026-03-27T13:45:15Z</time></trkpt><trkpt lat="44.79779735515067" lon="9.463682448193227"><ele>571.0</ele><time>2026-03-27T13:45:17Z</time></trkpt><trkpt lat="44.79789051235035" lon="9.463736224591168"><ele>570.0</ele><time>2026-03-27T13:45:19Z</time></trkpt><trkpt lat="44.79799527560804" lon="9.463795747374755"><ele>569.0</ele><time>2026-03-27T13:45:21Z</time></trkpt><trkpt lat="44.79809923293181" lon="9.463835578255729"><ele>568.0</ele><time>2026-03-27T13:45:23Z</time></trkpt><trkpt lat="44.79843173484444" lon="9.463722031761955"><ele>568.0</ele><time>2026-03-27T13:45:24Z</time></trkpt><trkpt lat="44.79848013160933" lon="9.463653574670909"><ele>568.0</ele><time>2026-03-27T13:45:25Z</time></trkpt><trkpt lat="44.79853892885343" lon="9.463814303435596"><ele>568.0</ele><time>2026-03-27T13:45:27Z</time></trkpt><trkpt lat="44.79856959099362" lon="9.463919479474468"><ele>568.0</ele><time>2026-03-27T13:45:28Z</time></trkpt><trkpt lat="44.7986612055126" lon="9.463390126368905"><ele>568.5</ele><time>2026-03-27T13:45:29Z</time></trkpt><trkpt lat="44.79871124262454" lon="9.463315343969265"><ele>569.0</ele><time>2026-03-27T13:45:30Z</time></trkpt><trkpt lat="44.79875975330061" lon="9.46323917806258"><ele>569.5</ele><time>2026-03-27T13:45:31Z</time></trkpt><trkpt lat="44.79880865086642" lon="9.46316344385161"><ele>570.0</ele><time>2026-03-27T13:45:32Z</time></trkpt><trkpt lat="44.798859396289544" lon="9.46308313243333"><ele>570.5</ele><time>2026-03-27T13:45:33Z</time></trkpt><trkpt lat="44.79886884163046" lon="9.462948290884558"><ele>571.0</ele><time>2026-03-27T13:45:34Z</time></trkpt><trkpt lat="44.798938214328054" lon="9.462903620365942"><ele>567.8333333333334</ele><time>2026-03-27T13:45:35Z</time></trkpt><trkpt lat="44.799010640966706" lon="9.462869098266964"><ele>564.6666666666667</ele><time>2026-03-27T13:45:36Z</time></trkpt><trkpt lat="44.79908340069347" lon="9.462845179928912"><ele>561.5</ele><time>2026-03-27T13:45:37Z</time></trkpt><trkpt lat="44.79915577666441" lon="9.462841781729107"><ele>558.3333333333334</ele><time>2026-03-27T13:45:38Z</time></trkpt><trkpt lat="44.79922178549896" lon="9.462848864850372"><ele>555.1666666666666</ele><time>2026-03-27T13:45:39Z</time></trkpt><trkpt lat="44.799343853447766" lon="9.462869096416446"><ele>552.0</ele><time>2026-03-27T13:45:41Z</time></trkpt><trkpt lat="44.79945897506752" lon="9.462884411718742"><ele>549.6</ele><time>2026-03-27T13:45:43Z</time></trkpt><trkpt lat="44.79957736324885" lon="9.462894645667417"><ele>547.2</ele><time>2026-03-27T13:45:45Z</time></trkpt><trkpt lat="44.79964239954338" lon="9.46290197344339"><ele>544.8</ele><time>2026-03-27T13:45:46Z</time></trkpt><trkpt lat="44.79970738454956" lon="9.462900359645014"><ele>542.4</ele><time>2026-03-27T13:45:47Z</time></trkpt><trkpt lat="44.799817930347075" lon="9.462844493739938"><ele>540.0</ele><time>2026-03-27T13:45:49Z</time></trkpt><trkpt lat="44.799860638552786" lon="9.462678020468072"><ele>540.0</ele><time>2026-03-27T13:45:51Z</time></trkpt><trkpt lat="44.79986115668495" lon="9.462538737752167"><ele>540.0</ele><time>2026-03-27T13:45:52Z</time></trkpt><trkpt lat="44.79987722634915" lon="9.462428086458898"><ele>540.0</ele><time>2026-03-27T13:45:53Z</time></trkpt><trkpt lat="44.799875276383816" lon="9.462316301744854"><ele>540.0</ele><time>2026-03-27T13:45:54Z</time></trkpt><trkpt lat="44.799883528333915" lon="9.462190539988859"><ele>540.0</ele><time>2026-03-27T13:45:55Z</time></trkpt><trkpt lat="44.79989322195735" lon="9.462065334474909"><ele>540.0</ele><time>2026-03-27T13:45:56Z</time></trkpt><trkpt lat="44.79990148002345" lon="9.46193058927089"><ele>539.5</ele><time>2026-03-27T13:45:57Z</time></trkpt><trkpt lat="44.79990328047028" lon="9.461798757439688"><ele>539.0</ele><time>2026-03-27T13:45:58Z</time></trkpt><trkpt lat="44.79989707162308" lon="9.46167903898006"><ele>538.5</ele><time>2026-03-27T13:45:59Z</time></trkpt><trkpt lat="44.79988343219276" lon="9.461574827990562"><ele>538.0</ele><time>2026-03-27T13:46:00.001Z</time></trkpt><trkpt lat="44.79986429337162" lon="9.461480270123236"><ele>537.5</ele><time>2026-03-27T13:46:01.001Z</time></trkpt><trkpt lat="44.79983119342671" lon="9.46138466326729"><ele>537.0</ele><time>2026-03-27T13:46:02.001Z</time></trkpt><trkpt lat="44.799785906496496" lon="9.461291985999623"><ele>535.1666666666666</ele><time>2026-03-27T13:46:03.001Z</time></trkpt><trkpt lat="44.79975587676957" lon="9.461189700214689"><ele>533.3333333333334</ele><time>2026-03-27T13:46:04.001Z</time></trkpt><trkpt lat="44.79972479125949" lon="9.461105199051579"><ele>531.5</ele><time>2026-03-27T13:46:05.001Z</time></trkpt><trkpt lat="44.799689975115456" lon="9.46103016846433"><ele>529.6666666666667</ele><time>2026-03-27T13:46:06.001Z</time></trkpt><trkpt lat="44.799721641435205" lon="9.46094226415956"><ele>527.8333333333334</ele><time>2026-03-27T13:46:07.001Z</time></trkpt><trkpt lat="44.7997958261748" lon="9.460823034228106"><ele>526.0</ele><time>2026-03-27T13:46:09.001Z</time></trkpt><trkpt lat="44.79985698971656" lon="9.460785284668397"><ele>526.0</ele><time>2026-03-27T13:46:10.001Z</time></trkpt><trkpt lat="44.799928451410246" lon="9.460788989559726"><ele>526.0</ele><time>2026-03-27T13:46:11.001Z</time></trkpt><trkpt lat="44.800004454692015" lon="9.460768029734892"><ele>526.0</ele><time>2026-03-27T13:46:12.001Z</time></trkpt><trkpt lat="44.80008457394978" lon="9.460735897748899"><ele>526.0</ele><time>2026-03-27T13:46:13.001Z</time></trkpt><trkpt lat="44.800164533104464" lon="9.460723147284416"><ele>526.0</ele><time>2026-03-27T13:46:14.001Z</time></trkpt><trkpt lat="44.80024883164456" lon="9.460710494174176"><ele>526.0</ele><time>2026-03-27T13:46:15.001Z</time></trkpt><trkpt lat="44.800325795870016" lon="9.460693078363777"><ele>523.6666666666667</ele><time>2026-03-27T13:46:16.001Z</time></trkpt><trkpt lat="44.80038834870733" lon="9.46067912823137"><ele>521.3333333333334</ele><time>2026-03-27T13:46:17.001Z</time></trkpt><trkpt lat="44.80048765845897" lon="9.460721860772653"><ele>519.0</ele><time>2026-03-27T13:46:19Z</time></trkpt><trkpt lat="44.80058134850971" lon="9.460838170013869"><ele>516.6666666666666</ele><time>2026-03-27T13:46:21Z</time></trkpt><trkpt lat="44.80062445351626" lon="9.460918405284602"><ele>514.3333333333333</ele><time>2026-03-27T13:46:22Z</time></trkpt><trkpt lat="44.80066292219756" lon="9.461001300760653"><ele>512.0</ele><time>2026-03-27T13:46:23Z</time></trkpt><trkpt lat="44.80068893918536" lon="9.461103958018047"><ele>511.99999999999994</ele><time>2026-03-27T13:46:24Z</time></trkpt><trkpt lat="44.800703517241" lon="9.461202024293717"><ele>512.0</ele><time>2026-03-27T13:46:25Z</time></trkpt><trkpt lat="44.80069557105771" lon="9.46130366969346"><ele>512.0</ele><time>2026-03-27T13:46:26Z</time></trkpt><trkpt lat="44.80070574185629" lon="9.461409016243815"><ele>512.0</ele><time>2026-03-27T13:46:27Z</time></trkpt><trkpt lat="44.80071417639303" lon="9.461522227530784"><ele>511.99999999999994</ele><time>2026-03-27T13:46:28Z</time></trkpt><trkpt lat="44.80072090160934" lon="9.461638590869804"><ele>512.0</ele><time>2026-03-27T13:46:29Z</time></trkpt><trkpt lat="44.80072639704195" lon="9.461744103131181"><ele>511.8333333333333</ele><time>2026-03-27T13:46:30Z</time></trkpt><trkpt lat="44.80073908399615" lon="9.461836435612918"><ele>511.66666666666663</ele><time>2026-03-27T13:46:31Z</time></trkpt><trkpt lat="44.800745618071694" lon="9.46192596122103"><ele>511.5</ele><time>2026-03-27T13:46:32Z</time></trkpt><trkpt lat="44.80073540535449" lon="9.462081593134844"><ele>511.33333333333337</ele><time>2026-03-27T13:46:34Z</time></trkpt><trkpt lat="44.800784842567246" lon="9.462175191476272"><ele>511.1666666666667</ele><time>2026-03-27T13:46:35Z</time></trkpt><trkpt lat="44.80084999554253" lon="9.46223469283707"><ele>511.0</ele><time>2026-03-27T13:46:36Z</time></trkpt><trkpt lat="44.80091933439574" lon="9.462303128961313"><ele>511.50000000000006</ele><time>2026-03-27T13:46:37Z</time></trkpt><trkpt lat="44.80097908163512" lon="9.462370490423746"><ele>512.0</ele><time>2026-03-27T13:46:38Z</time></trkpt><trkpt lat="44.80103603419604" lon="9.4624490407956"><ele>512.5</ele><time>2026-03-27T13:46:39Z</time></trkpt><trkpt lat="44.80108822352138" lon="9.462530459129514"><ele>513.0</ele><time>2026-03-27T13:46:40Z</time></trkpt><trkpt lat="44.80113736531842" lon="9.462608563891425"><ele>513.5</ele><time>2026-03-27T13:46:41Z</time></trkpt><trkpt lat="44.80119701554985" lon="9.462673459468283"><ele>514.0</ele><time>2026-03-27T13:46:42Z</time></trkpt><trkpt lat="44.80125885914579" lon="9.462723700916657"><ele>510.00000000000006</ele><time>2026-03-27T13:46:43Z</time></trkpt><trkpt lat="44.80133541809811" lon="9.462757774734369"><ele>506.0</ele><time>2026-03-27T13:46:44Z</time></trkpt><trkpt lat="44.801409114053136" lon="9.462783137548394"><ele>502.0</ele><time>2026-03-27T13:46:45Z</time></trkpt><trkpt lat="44.80148634390146" lon="9.46279170228721"><ele>498.0</ele><time>2026-03-27T13:46:46Z</time></trkpt><trkpt lat="44.80156813896642" lon="9.462794218067607"><ele>494.00000000000006</ele><time>2026-03-27T13:46:47Z</time></trkpt><trkpt lat="44.801638937560305" lon="9.462813949350213"><ele>490.0</ele><time>2026-03-27T13:46:48Z</time></trkpt><trkpt lat="44.8017074034336" lon="9.462836445034295"><ele>490.00000000000006</ele><time>2026-03-27T13:46:49Z</time></trkpt><trkpt lat="44.80177353022685" lon="9.462862486497485"><ele>490.0</ele><time>2026-03-27T13:46:50Z</time></trkpt><trkpt lat="44.80190366542717" lon="9.46290919716927"><ele>490.0</ele><time>2026-03-27T13:46:52Z</time></trkpt><trkpt lat="44.801968846324485" lon="9.462930573189155"><ele>490.0</ele><time>2026-03-27T13:46:53Z</time></trkpt><trkpt lat="44.802036808651906" lon="9.462929092139571"><ele>490.00000000000006</ele><time>2026-03-27T13:46:54Z</time></trkpt><trkpt lat="44.80210664453403" lon="9.462926803961789"><ele>490.0</ele><time>2026-03-27T13:46:55Z</time></trkpt><trkpt lat="44.802178614167495" lon="9.462921705737413"><ele>488.42857142857144</ele><time>2026-03-27T13:46:56Z</time></trkpt><trkpt lat="44.802249953077585" lon="9.462897978689154"><ele>486.8571428571429</ele><time>2026-03-27T13:46:57Z</time></trkpt><trkpt lat="44.80232154906745" lon="9.462863212503882"><ele>485.2857142857143</ele><time>2026-03-27T13:46:58Z</time></trkpt><trkpt lat="44.80238619478614" lon="9.462822091391748"><ele>483.7142857142857</ele><time>2026-03-27T13:46:59Z</time></trkpt><trkpt lat="44.80245348975964" lon="9.462750875128577"><ele>482.14285714285717</ele><time>2026-03-27T13:47:00Z</time></trkpt><trkpt lat="44.802514157490464" lon="9.462700075951226"><ele>480.57142857142856</ele><time>2026-03-27T13:47:01Z</time></trkpt><trkpt lat="44.802570103834924" lon="9.462659329267995"><ele>479.0</ele><time>2026-03-27T13:47:02Z</time></trkpt><trkpt lat="44.802635084118116" lon="9.462647499032576"><ele>477.49999999999994</ele><time>2026-03-27T13:47:03Z</time></trkpt><trkpt lat="44.80269721930851" lon="9.462665881909263"><ele>476.0</ele><time>2026-03-27T13:47:04Z</time></trkpt><trkpt lat="44.802769810250425" lon="9.462703666025043"><ele>474.5</ele><time>2026-03-27T13:47:05Z</time></trkpt><trkpt lat="44.802854338053166" lon="9.462750999378356"><ele>473.0</ele><time>2026-03-27T13:47:06Z</time></trkpt><trkpt lat="44.80294758730027" lon="9.462806943501587"><ele>471.49999999999994</ele><time>2026-03-27T13:47:07Z</time></trkpt><trkpt lat="44.80305174663086" lon="9.462850334444006"><ele>470.0</ele><time>2026-03-27T13:47:08Z</time></trkpt><trkpt lat="44.80316054457934" lon="9.462899115353602"><ele>470.0</ele><time>2026-03-27T13:47:09Z</time></trkpt><trkpt lat="44.80327606644498" lon="9.462942812109493"><ele>470.0</ele><time>2026-03-27T13:47:10Z</time></trkpt><trkpt lat="44.80340399383175" lon="9.462979605294116"><ele>470.0</ele><time>2026-03-27T13:47:11Z</time></trkpt><trkpt lat="44.80353010915834" lon="9.463019419701686"><ele>470.0</ele><time>2026-03-27T13:47:12Z</time></trkpt><trkpt lat="44.803648832478956" lon="9.463045582784652"><ele>470.6</ele><time>2026-03-27T13:47:13Z</time></trkpt><trkpt lat="44.80376604367686" lon="9.463065791214001"><ele>471.2</ele><time>2026-03-27T13:47:14Z</time></trkpt><trkpt lat="44.80387431906935" lon="9.46307735108317"><ele>471.79999999999995</ele><time>2026-03-27T13:47:15Z</time></trkpt><trkpt lat="44.80396593375615" lon="9.463087786661328"><ele>472.4</ele><time>2026-03-27T13:47:16Z</time></trkpt><trkpt lat="44.80405500508318" lon="9.463103325781098"><ele>473.0</ele><time>2026-03-27T13:47:17Z</time></trkpt><trkpt lat="44.80412607302981" lon="9.46312116802225"><ele>472.99999999999994</ele><time>2026-03-27T13:47:18Z</time></trkpt><trkpt lat="44.8041749093241" lon="9.463186542199733"><ele>473.0</ele><time>2026-03-27T13:47:19Z</time></trkpt><trkpt lat="44.804232063665005" lon="9.463236905181203"><ele>473.0</ele><time>2026-03-27T13:47:20Z</time></trkpt><trkpt lat="44.80425073789319" lon="9.463335453452068"><ele>473.0</ele><time>2026-03-27T13:47:21Z</time></trkpt><trkpt lat="44.804278751467116" lon="9.463485038366668"><ele>472.99999999999994</ele><time>2026-03-27T13:47:23Z</time></trkpt><trkpt lat="44.80422559265787" lon="9.463547908938528"><ele>473.0</ele><time>2026-03-27T13:47:24Z</time></trkpt><trkpt lat="44.80417214521309" lon="9.463600263351017"><ele>472.99999999999994</ele><time>2026-03-27T13:47:25Z</time></trkpt><trkpt lat="44.80410335050807" lon="9.463650847778498"><ele>473.0</ele><time>2026-03-27T13:47:26Z</time></trkpt><trkpt lat="44.80402207545381" lon="9.463718259794476"><ele>473.0</ele><time>2026-03-27T13:47:27Z</time></trkpt><trkpt lat="44.80394321643584" lon="9.463789668543702"><ele>473.0</ele><time>2026-03-27T13:47:28Z</time></trkpt><trkpt lat="44.803880424899376" lon="9.463877549469432"><ele>472.99999999999994</ele><time>2026-03-27T13:47:29Z</time></trkpt><trkpt lat="44.80383813956626" lon="9.46397296889536"><ele>473.0</ele><time>2026-03-27T13:47:30Z</time></trkpt><trkpt lat="44.80381656424787" lon="9.46407507574066"><ele>472.66666666666663</ele><time>2026-03-27T13:47:31Z</time></trkpt><trkpt lat="44.80382296668931" lon="9.464181679823678"><ele>472.3333333333333</ele><time>2026-03-27T13:47:32Z</time></trkpt><trkpt lat="44.80389634548749" lon="9.464271483889636"><ele>472.0</ele><time>2026-03-27T13:47:33Z</time></trkpt><trkpt lat="44.80396195443843" lon="9.464338440957267"><ele>471.66666666666663</ele><time>2026-03-27T13:47:34Z</time></trkpt><trkpt lat="44.80404717846649" lon="9.464367675548246"><ele>471.3333333333333</ele><time>2026-03-27T13:47:35Z</time></trkpt><trkpt lat="44.80414725886458" lon="9.46436557892885"><ele>471.0</ele><time>2026-03-27T13:47:36Z</time></trkpt><trkpt lat="44.80424448569047" lon="9.464360591745805"><ele>471.00000000000006</ele><time>2026-03-27T13:47:37Z</time></trkpt><trkpt lat="44.804321034314555" lon="9.464369117589586"><ele>471.0</ele><time>2026-03-27T13:47:38Z</time></trkpt><trkpt lat="44.80438846582888" lon="9.464392422410334"><ele>471.00000000000006</ele><time>2026-03-27T13:47:39Z</time></trkpt><trkpt lat="44.80444539347856" lon="9.4644408307785"><ele>471.00000000000006</ele><time>2026-03-27T13:47:40Z</time></trkpt><trkpt lat="44.804482997307325" lon="9.46451642270817"><ele>471.0</ele><time>2026-03-27T13:47:41Z</time></trkpt><trkpt lat="44.80450401848916" lon="9.464614358225173"><ele>471.00000000000006</ele><time>2026-03-27T13:47:42Z</time></trkpt><trkpt lat="44.804482411687665" lon="9.464730081926932"><ele>471.00000000000006</ele><time>2026-03-27T13:47:43Z</time></trkpt><trkpt lat="44.80445829311235" lon="9.464852681740343"><ele>469.5</ele><time>2026-03-27T13:47:44Z</time></trkpt><trkpt lat="44.804466955457606" lon="9.464995571791212"><ele>468.0</ele><time>2026-03-27T13:47:45Z</time></trkpt><trkpt lat="44.80446391842565" lon="9.465134233093524"><ele>466.5</ele><time>2026-03-27T13:47:46Z</time></trkpt><trkpt lat="44.80444653637822" lon="9.465243806179606"><ele>465.0</ele><time>2026-03-27T13:47:47Z</time></trkpt><trkpt lat="44.80443318306407" lon="9.465343669534324"><ele>463.5</ele><time>2026-03-27T13:47:48Z</time></trkpt><trkpt lat="44.80439252121003" lon="9.465423463200851"><ele>462.0</ele><time>2026-03-27T13:47:49Z</time></trkpt><trkpt lat="44.80434667536696" lon="9.465513017264062"><ele>463.3333333333333</ele><time>2026-03-27T13:47:50Z</time></trkpt><trkpt lat="44.80430868324266" lon="9.4656135320381"><ele>464.66666666666663</ele><time>2026-03-27T13:47:51Z</time></trkpt><trkpt lat="44.80428099263378" lon="9.4657153050459"><ele>466.0</ele><time>2026-03-27T13:47:52Z</time></trkpt><trkpt lat="44.80426355350659" lon="9.465824026410147"><ele>467.3333333333333</ele><time>2026-03-27T13:47:53Z</time></trkpt><trkpt lat="44.80430834633066" lon="9.465930475831911"><ele>468.66666666666663</ele><time>2026-03-27T13:47:54Z</time></trkpt><trkpt lat="44.80435643754955" lon="9.466015458737564"><ele>470.0</ele><time>2026-03-27T13:47:55Z</time></trkpt><trkpt lat="44.804417548982265" lon="9.466090256783858"><ele>467.8333333333333</ele><time>2026-03-27T13:47:56Z</time></trkpt><trkpt lat="44.80446847203155" lon="9.466180097850659"><ele>465.66666666666663</ele><time>2026-03-27T13:47:57Z</time></trkpt><trkpt lat="44.80451370710432" lon="9.466264574834886"><ele>463.5</ele><time>2026-03-27T13:47:58Z</time></trkpt><trkpt lat="44.804562121310035" lon="9.466343401959756"><ele>461.33333333333337</ele><time>2026-03-27T13:47:59Z</time></trkpt><trkpt lat="44.8046514938946" lon="9.46635116453217"><ele>459.1666666666667</ele><time>2026-03-27T13:48:00Z</time></trkpt><trkpt lat="44.804738315907194" lon="9.466374523656198"><ele>457.0</ele><time>2026-03-27T13:48:01Z</time></trkpt><trkpt lat="44.80482027924057" lon="9.466428618323528"><ele>457.00000000000006</ele><time>2026-03-27T13:48:02Z</time></trkpt><trkpt lat="44.80491585755283" lon="9.466475466362356"><ele>457.0</ele><time>2026-03-27T13:48:03Z</time></trkpt><trkpt lat="44.805002587045614" lon="9.466499020837295"><ele>457.0</ele><time>2026-03-27T13:48:04Z</time></trkpt><trkpt lat="44.80508807661735" lon="9.466515088756182"><ele>457.0</ele><time>2026-03-27T13:48:05.001Z</time></trkpt><trkpt lat="44.80517016891308" lon="9.466528023100112"><ele>457.00000000000006</ele><time>2026-03-27T13:48:06.001Z</time></trkpt><trkpt lat="44.80524693985745" lon="9.466543487168407"><ele>457.0</ele><time>2026-03-27T13:48:07.001Z</time></trkpt><trkpt lat="44.80532189615311" lon="9.466582975053765"><ele>454.20000000000005</ele><time>2026-03-27T13:48:08.001Z</time></trkpt><trkpt lat="44.80539556812716" lon="9.466648524615836"><ele>451.40000000000003</ele><time>2026-03-27T13:48:09.001Z</time></trkpt><trkpt lat="44.805477877089366" lon="9.466740784596613"><ele>448.59999999999997</ele><time>2026-03-27T13:48:10.001Z</time></trkpt><trkpt lat="44.80556682076628" lon="9.466838517063778"><ele>445.79999999999995</ele><time>2026-03-27T13:48:11.001Z</time></trkpt><trkpt lat="44.805659401799254" lon="9.466933366191784"><ele>443.0</ele><time>2026-03-27T13:48:12.001Z</time></trkpt><trkpt lat="44.80574613251614" lon="9.46701851029114"><ele>443.0</ele><time>2026-03-27T13:48:13.001Z</time></trkpt><trkpt lat="44.80582849965145" lon="9.467098101237493"><ele>442.99999999999994</ele><time>2026-03-27T13:48:14.001Z</time></trkpt><trkpt lat="44.80590696714628" lon="9.467176268355175"><ele>442.99999999999994</ele><time>2026-03-27T13:48:15.001Z</time></trkpt><trkpt lat="44.80598223028615" lon="9.467254585830787"><ele>443.0</ele><time>2026-03-27T13:48:16.001Z</time></trkpt><trkpt lat="44.80604809783977" lon="9.467343230945255"><ele>443.0</ele><time>2026-03-27T13:48:17.001Z</time></trkpt><trkpt lat="44.806115710757155" lon="9.467426110068704"><ele>441.8333333333333</ele><time>2026-03-27T13:48:18.001Z</time></trkpt><trkpt lat="44.80619412614317" lon="9.467474320928003"><ele>440.66666666666663</ele><time>2026-03-27T13:48:19.001Z</time></trkpt><trkpt lat="44.8062835741719" lon="9.467494588436741"><ele>439.5</ele><time>2026-03-27T13:48:20Z</time></trkpt><trkpt lat="44.80637530685333" lon="9.467515154684609"><ele>438.33333333333337</ele><time>2026-03-27T13:48:21Z</time></trkpt><trkpt lat="44.80645302640417" lon="9.467543885265467"><ele>437.1666666666667</ele><time>2026-03-27T13:48:22Z</time></trkpt><trkpt lat="44.80652498418077" lon="9.467598011531717"><ele>436.0</ele><time>2026-03-27T13:48:23Z</time></trkpt><trkpt lat="44.80659022155223" lon="9.467677592440017"><ele>436.00000000000006</ele><time>2026-03-27T13:48:24Z</time></trkpt><trkpt lat="44.806650386928204" lon="9.467764317253305"><ele>436.0</ele><time>2026-03-27T13:48:25Z</time></trkpt><trkpt lat="44.806698568545926" lon="9.467856152419005"><ele>436.0</ele><time>2026-03-27T13:48:26Z</time></trkpt><trkpt lat="44.80673622851853" lon="9.467962021481501"><ele>436.0</ele><time>2026-03-27T13:48:27Z</time></trkpt><trkpt lat="44.8067648479771" lon="9.468060736751449"><ele>436.00000000000006</ele><time>2026-03-27T13:48:28Z</time></trkpt><trkpt lat="44.80676750569928" lon="9.468168754010744"><ele>436.0</ele><time>2026-03-27T13:48:29Z</time></trkpt><trkpt lat="44.8067650536547" lon="9.468273831714367"><ele>435.7142857142857</ele><time>2026-03-27T13:48:30Z</time></trkpt><trkpt lat="44.806749876075735" lon="9.468378080546227"><ele>435.42857142857144</ele><time>2026-03-27T13:48:31Z</time></trkpt><trkpt lat="44.806727901987045" lon="9.468490566517568"><ele>435.1428571428571</ele><time>2026-03-27T13:48:32Z</time></trkpt><trkpt lat="44.806702190663366" lon="9.468580940512089"><ele>434.8571428571429</ele><time>2026-03-27T13:48:33Z</time></trkpt><trkpt lat="44.8066639837243" lon="9.468651810630856"><ele>434.57142857142856</ele><time>2026-03-27T13:48:34Z</time></trkpt><trkpt lat="44.80661409423961" lon="9.468710086790201"><ele>434.2857142857143</ele><time>2026-03-27T13:48:35Z</time></trkpt><trkpt lat="44.80654837041968" lon="9.468729528018606"><ele>434.0</ele><time>2026-03-27T13:48:36Z</time></trkpt><trkpt lat="44.80647586579137" lon="9.468767388511553"><ele>433.3333333333333</ele><time>2026-03-27T13:48:37Z</time></trkpt><trkpt lat="44.80640423018421" lon="9.468816340368248"><ele>432.66666666666663</ele><time>2026-03-27T13:48:38Z</time></trkpt><trkpt lat="44.80634317521453" lon="9.468884070979756"><ele>432.0</ele><time>2026-03-27T13:48:39Z</time></trkpt><trkpt lat="44.80630792993648" lon="9.468977492582843"><ele>431.33333333333337</ele><time>2026-03-27T13:48:40Z</time></trkpt><trkpt lat="44.80630925363987" lon="9.46908556136876"><ele>430.6666666666667</ele><time>2026-03-27T13:48:41Z</time></trkpt><trkpt lat="44.80635086876903" lon="9.469184222414714"><ele>430.0</ele><time>2026-03-27T13:48:42Z</time></trkpt><trkpt lat="44.80643295841021" lon="9.46922662046992"><ele>430.0</ele><time>2026-03-27T13:48:43Z</time></trkpt><trkpt lat="44.806511561162694" lon="9.469265425469818"><ele>430.0</ele><time>2026-03-27T13:48:44Z</time></trkpt><trkpt lat="44.806609381062486" lon="9.46929695703573"><ele>430.0</ele><time>2026-03-27T13:48:45Z</time></trkpt><trkpt lat="44.80671610160602" lon="9.469340073847471"><ele>430.0</ele><time>2026-03-27T13:48:46Z</time></trkpt><trkpt lat="44.80682391657756" lon="9.469395927984811"><ele>430.0</ele><time>2026-03-27T13:48:47Z</time></trkpt><trkpt lat="44.80691732279462" lon="9.469454490817903"><ele>427.83333333333337</ele><time>2026-03-27T13:48:48Z</time></trkpt><trkpt lat="44.8069960902578" lon="9.46951021477142"><ele>425.6666666666667</ele><time>2026-03-27T13:48:49Z</time></trkpt><trkpt lat="44.807061147049616" lon="9.469559883180965"><ele>423.5</ele><time>2026-03-27T13:48:50Z</time></trkpt><trkpt lat="44.807090648742026" lon="9.46964315539752"><ele>421.33333333333337</ele><time>2026-03-27T13:48:51Z</time></trkpt><trkpt lat="44.80710333129256" lon="9.469739441056639"><ele>419.1666666666667</ele><time>2026-03-27T13:48:52Z</time></trkpt><trkpt lat="44.80711697717268" lon="9.469852263966994"><ele>417.0</ele><time>2026-03-27T13:48:53Z</time></trkpt><trkpt lat="44.807145465456195" lon="9.469948539057881"><ele>417.0</ele><time>2026-03-27T13:48:54Z</time></trkpt><trkpt lat="44.807220089950775" lon="9.470021043865104"><ele>417.0</ele><time>2026-03-27T13:48:55Z</time></trkpt><trkpt lat="44.807297585944774" lon="9.47008779180861"><ele>417.0</ele><time>2026-03-27T13:48:56Z</time></trkpt><trkpt lat="44.807368464036394" lon="9.470164019515396"><ele>417.0</ele><time>2026-03-27T13:48:57Z</time></trkpt><trkpt lat="44.80747322692677" lon="9.470214981419153"><ele>417.0</ele><time>2026-03-27T13:48:58Z</time></trkpt><trkpt lat="44.80757241333605" lon="9.470273061660404"><ele>415.1666666666667</ele><time>2026-03-27T13:48:59Z</time></trkpt><trkpt lat="44.80766157220548" lon="9.470342370777878"><ele>413.33333333333337</ele><time>2026-03-27T13:49:00Z</time></trkpt><trkpt lat="44.80773066167786" lon="9.470422245598753"><ele>411.5</ele><time>2026-03-27T13:49:01Z</time></trkpt><trkpt lat="44.807799065715834" lon="9.470500220835062"><ele>409.6666666666667</ele><time>2026-03-27T13:49:02Z</time></trkpt><trkpt lat="44.807860060610054" lon="9.470582410387065"><ele>407.83333333333337</ele><time>2026-03-27T13:49:03Z</time></trkpt><trkpt lat="44.80791712013664" lon="9.470662952700977"><ele>406.0</ele><time>2026-03-27T13:49:04Z</time></trkpt><trkpt lat="44.8079906968966" lon="9.470725911844111"><ele>406.00000000000006</ele><time>2026-03-27T13:49:05Z</time></trkpt><trkpt lat="44.80806190249566" lon="9.47078641987601"><ele>406.0</ele><time>2026-03-27T13:49:06Z</time></trkpt><trkpt lat="44.80811944024236" lon="9.470874471091639"><ele>406.0</ele><time>2026-03-27T13:49:07Z</time></trkpt><trkpt lat="44.80817700613393" lon="9.470964151381363"><ele>406.0</ele><time>2026-03-27T13:49:08Z</time></trkpt><trkpt lat="44.80822406612454" lon="9.471044520419088"><ele>406.00000000000006</ele><time>2026-03-27T13:49:09Z</time></trkpt><trkpt lat="44.808264074310614" lon="9.47119488887191"><ele>406.0</ele><time>2026-03-27T13:49:11Z</time></trkpt><trkpt lat="44.808205886413305" lon="9.471344898067844"><ele>407.00000000000006</ele><time>2026-03-27T13:49:13Z</time></trkpt><trkpt lat="44.80819776788824" lon="9.471443413413507"><ele>408.0</ele><time>2026-03-27T13:49:14Z</time></trkpt><trkpt lat="44.80821291391653" lon="9.471541828232379"><ele>409.0</ele><time>2026-03-27T13:49:15Z</time></trkpt><trkpt lat="44.80825833644773" lon="9.471615093653174"><ele>410.0</ele><time>2026-03-27T13:49:16Z</time></trkpt><trkpt lat="44.80833134115894" lon="9.471710788764872"><ele>411.00000000000006</ele><time>2026-03-27T13:49:18Z</time></trkpt><trkpt lat="44.80838939123525" lon="9.47178825330201"><ele>412.0</ele><time>2026-03-27T13:49:20Z</time></trkpt><trkpt lat="44.808321542189034" lon="9.47189800640271"><ele>412.00000000000006</ele><time>2026-03-27T13:49:23Z</time></trkpt><trkpt lat="44.80826938890402" lon="9.471972117896513"><ele>412.0</ele><time>2026-03-27T13:49:25Z</time></trkpt><trkpt lat="44.80820858537876" lon="9.472045620205032"><ele>412.0</ele><time>2026-03-27T13:49:27Z</time></trkpt><trkpt lat="44.80814582921979" lon="9.472109949484503"><ele>412.0</ele><time>2026-03-27T13:49:29Z</time></trkpt><trkpt lat="44.80808094168061" lon="9.472157036034169"><ele>412.00000000000006</ele><time>2026-03-27T13:49:31Z</time></trkpt><trkpt lat="44.80799614351758" lon="9.47219357898588"><ele>412.0</ele><time>2026-03-27T13:49:33Z</time></trkpt><trkpt lat="44.807910018265574" lon="9.472197474490665"><ele>412.0</ele><time>2026-03-27T13:49:35Z</time></trkpt><trkpt lat="44.807816172586875" lon="9.472162414030523"><ele>412.0</ele><time>2026-03-27T13:49:37Z</time></trkpt><trkpt lat="44.807720795936014" lon="9.472100898353595"><ele>412.0</ele><time>2026-03-27T13:49:39Z</time></trkpt><trkpt lat="44.80763237446376" lon="9.472060072934623"><ele>412.0</ele><time>2026-03-27T13:49:41Z</time></trkpt><trkpt lat="44.80751065861963" lon="9.472071256470851"><ele>412.0</ele><time>2026-03-27T13:49:43Z</time></trkpt><trkpt lat="44.80740039783408" lon="9.472091408124022"><ele>415.20000000000005</ele><time>2026-03-27T13:49:45Z</time></trkpt><trkpt lat="44.80736271118785" lon="9.472164473906803"><ele>418.4</ele><time>2026-03-27T13:49:46Z</time></trkpt><trkpt lat="44.807271930906694" lon="9.472248551641844"><ele>421.59999999999997</ele><time>2026-03-27T13:49:48Z</time></trkpt><trkpt lat="44.80724493178756" lon="9.472340366234885"><ele>424.79999999999995</ele><time>2026-03-27T13:49:49Z</time></trkpt><trkpt lat="44.807193860673806" lon="9.472492842973143"><ele>428.0</ele><time>2026-03-27T13:49:51Z</time></trkpt><trkpt lat="44.80715255904492" lon="9.472640964691879"><ele>428.0</ele><time>2026-03-27T13:49:53Z</time></trkpt><trkpt lat="44.80712036855407" lon="9.472801047691272"><ele>427.99999999999994</ele><time>2026-03-27T13:49:55Z</time></trkpt><trkpt lat="44.807087413869944" lon="9.472959302373587"><ele>427.99999999999994</ele><time>2026-03-27T13:49:57Z</time></trkpt><trkpt lat="44.807061951084336" lon="9.473062051712006"><ele>428.0</ele><time>2026-03-27T13:49:58Z</time></trkpt><trkpt lat="44.8070434477712" lon="9.47316199715696"><ele>428.0</ele><time>2026-03-27T13:49:59Z</time></trkpt><trkpt lat="44.80702321843429" lon="9.47326491518867"><ele>428.28571428571433</ele><time>2026-03-27T13:50:00Z</time></trkpt><trkpt lat="44.807008603325706" lon="9.473355207830817"><ele>428.57142857142856</ele><time>2026-03-27T13:50:01Z</time></trkpt><trkpt lat="44.80698879081162" lon="9.473449270920511"><ele>428.8571428571429</ele><time>2026-03-27T13:50:02Z</time></trkpt><trkpt lat="44.80696731279209" lon="9.473543583132338"><ele>429.14285714285717</ele><time>2026-03-27T13:50:03Z</time></trkpt><trkpt lat="44.80694018614915" lon="9.473645796337584"><ele>429.42857142857144</ele><time>2026-03-27T13:50:04Z</time></trkpt><trkpt lat="44.80691170366405" lon="9.473745505592852"><ele>429.7142857142857</ele><time>2026-03-27T13:50:05Z</time></trkpt><trkpt lat="44.80688983002755" lon="9.473842467357949"><ele>430.0</ele><time>2026-03-27T13:50:06Z</time></trkpt><trkpt lat="44.80686675669985" lon="9.473939864936652"><ele>428.7142857142857</ele><time>2026-03-27T13:50:07Z</time></trkpt><trkpt lat="44.806840504154316" lon="9.474035181643478"><ele>427.42857142857144</ele><time>2026-03-27T13:50:08Z</time></trkpt><trkpt lat="44.80681543871904" lon="9.47413319450136"><ele>426.14285714285717</ele><time>2026-03-27T13:50:09Z</time></trkpt><trkpt lat="44.806789983235134" lon="9.474228110028383"><ele>424.8571428571429</ele><time>2026-03-27T13:50:10Z</time></trkpt><trkpt lat="44.806765558719526" lon="9.47432208622452"><ele>423.57142857142856</ele><time>2026-03-27T13:50:11Z</time></trkpt><trkpt lat="44.80674577669538" lon="9.474407642458035"><ele>422.28571428571433</ele><time>2026-03-27T13:50:12Z</time></trkpt><trkpt lat="44.80669665461147" lon="9.474484569454726"><ele>421.0</ele><time>2026-03-27T13:50:13Z</time></trkpt><trkpt lat="44.80666355529006" lon="9.47463761066616"><ele>424.50000000000006</ele><time>2026-03-27T13:50:15Z</time></trkpt><trkpt lat="44.80663684951831" lon="9.474723618673899"><ele>428.0</ele><time>2026-03-27T13:50:16Z</time></trkpt><trkpt lat="44.80665644329781" lon="9.474821051198973"><ele>431.5</ele><time>2026-03-27T13:50:17Z</time></trkpt><trkpt lat="44.80659749984752" lon="9.47496297239502"><ele>435.0</ele><time>2026-03-27T13:50:19Z</time></trkpt><trkpt lat="44.806555663176084" lon="9.475030085304168"><ele>438.50000000000006</ele><time>2026-03-27T13:50:20Z</time></trkpt><trkpt lat="44.80650201644774" lon="9.475097269956136"><ele>442.0</ele><time>2026-03-27T13:50:21Z</time></trkpt><trkpt lat="44.806447051422076" lon="9.475158061837636"><ele>442.00000000000006</ele><time>2026-03-27T13:50:22Z</time></trkpt><trkpt lat="44.80638813613785" lon="9.475216072195469"><ele>442.0</ele><time>2026-03-27T13:50:23Z</time></trkpt><trkpt lat="44.80633332068539" lon="9.475273479312099"><ele>442.0</ele><time>2026-03-27T13:50:24Z</time></trkpt><trkpt lat="44.80627557165924" lon="9.475340076886475"><ele>442.0</ele><time>2026-03-27T13:50:25Z</time></trkpt><trkpt lat="44.80621606137209" lon="9.475406586011772"><ele>442.00000000000006</ele><time>2026-03-27T13:50:26Z</time></trkpt><trkpt lat="44.8061510996146" lon="9.475484234238898"><ele>442.0</ele><time>2026-03-27T13:50:27Z</time></trkpt><trkpt lat="44.80609256355173" lon="9.475550087524564"><ele>443.42857142857144</ele><time>2026-03-27T13:50:28Z</time></trkpt><trkpt lat="44.806035677347545" lon="9.475616046287135"><ele>444.8571428571429</ele><time>2026-03-27T13:50:29Z</time></trkpt><trkpt lat="44.805979711032506" lon="9.47568358652843"><ele>446.28571428571433</ele><time>2026-03-27T13:50:30Z</time></trkpt><trkpt lat="44.805920327965225" lon="9.47574807323833"><ele>447.7142857142857</ele><time>2026-03-27T13:50:31Z</time></trkpt><trkpt lat="44.80586435967324" lon="9.475817517867819"><ele>449.1428571428571</ele><time>2026-03-27T13:50:32Z</time></trkpt><trkpt lat="44.805805105681046" lon="9.475885678118864"><ele>450.5714285714286</ele><time>2026-03-27T13:50:33Z</time></trkpt><trkpt lat="44.80574877784246" lon="9.475955427950336"><ele>452.0</ele><time>2026-03-27T13:50:34Z</time></trkpt><trkpt lat="44.805692867967295" lon="9.476020246039864"><ele>453.66666666666663</ele><time>2026-03-27T13:50:35Z</time></trkpt><trkpt lat="44.805636308617956" lon="9.476075829797503"><ele>455.3333333333333</ele><time>2026-03-27T13:50:36Z</time></trkpt><trkpt lat="44.80558573868554" lon="9.476150179864728"><ele>457.0</ele><time>2026-03-27T13:50:37Z</time></trkpt><trkpt lat="44.80554316038688" lon="9.47624101154722"><ele>458.66666666666663</ele><time>2026-03-27T13:50:38Z</time></trkpt><trkpt lat="44.80549629892598" lon="9.476332518047437"><ele>460.3333333333333</ele><time>2026-03-27T13:50:39Z</time></trkpt><trkpt lat="44.805451291502465" lon="9.476419101807863"><ele>462.0</ele><time>2026-03-27T13:50:40Z</time></trkpt><trkpt lat="44.80540114653121" lon="9.476497477472972"><ele>463.6666666666667</ele><time>2026-03-27T13:50:41Z</time></trkpt><trkpt lat="44.80535178987608" lon="9.47656710004597"><ele>465.33333333333337</ele><time>2026-03-27T13:50:42Z</time></trkpt><trkpt lat="44.80527921179682" lon="9.476667084023743"><ele>467.0</ele><time>2026-03-27T13:50:44Z</time></trkpt><trkpt lat="44.805227974803195" lon="9.476742780718226"><ele>468.6666666666667</ele><time>2026-03-27T13:50:45Z</time></trkpt><trkpt lat="44.805183183613686" lon="9.476811678957128"><ele>470.33333333333337</ele><time>2026-03-27T13:50:46Z</time></trkpt><trkpt lat="44.80513819336227" lon="9.476891194287695"><ele>472.0</ele><time>2026-03-27T13:50:47Z</time></trkpt><trkpt lat="44.805100134463345" lon="9.476974940898236"><ele>473.40000000000003</ele><time>2026-03-27T13:50:48Z</time></trkpt><trkpt lat="44.80505649235793" lon="9.477056714439348"><ele>474.80000000000007</ele><time>2026-03-27T13:50:49Z</time></trkpt><trkpt lat="44.805014188209114" lon="9.477130702818906"><ele>476.2</ele><time>2026-03-27T13:50:50Z</time></trkpt><trkpt lat="44.804949350121454" lon="9.477281660271986"><ele>477.6</ele><time>2026-03-27T13:50:52Z</time></trkpt><trkpt lat="44.80488018888624" lon="9.477421020531235"><ele>479.0</ele><time>2026-03-27T13:50:54Z</time></trkpt><trkpt lat="44.804841658653885" lon="9.477512925063605"><ele>479.49999999999994</ele><time>2026-03-27T13:50:55Z</time></trkpt><trkpt lat="44.80481241543654" lon="9.477614196555743"><ele>480.0</ele><time>2026-03-27T13:50:56Z</time></trkpt><trkpt lat="44.80478974830318" lon="9.477711433599026"><ele>480.5</ele><time>2026-03-27T13:50:57Z</time></trkpt><trkpt lat="44.80476273904417" lon="9.477801082818244"><ele>481.0</ele><time>2026-03-27T13:50:58Z</time></trkpt><trkpt lat="44.804737091542016" lon="9.477895188326634"><ele>481.49999999999994</ele><time>2026-03-27T13:50:59Z</time></trkpt><trkpt lat="44.80471947619183" lon="9.47800251571995"><ele>482.0</ele><time>2026-03-27T13:51:00Z</time></trkpt><trkpt lat="44.80469169170335" lon="9.478111141811983"><ele>482.8571428571429</ele><time>2026-03-27T13:51:01Z</time></trkpt><trkpt lat="44.80465592548592" lon="9.478210830061103"><ele>483.7142857142858</ele><time>2026-03-27T13:51:02Z</time></trkpt><trkpt lat="44.8046249894646" lon="9.478303455785365"><ele>484.57142857142856</ele><time>2026-03-27T13:51:03Z</time></trkpt><trkpt lat="44.80459157537503" lon="9.478410038001961"><ele>485.42857142857144</ele><time>2026-03-27T13:51:04Z</time></trkpt><trkpt lat="44.80456134096744" lon="9.478503875682492"><ele>486.2857142857143</ele><time>2026-03-27T13:51:05Z</time></trkpt><trkpt lat="44.8045320815571" lon="9.478596532906732"><ele>487.1428571428571</ele><time>2026-03-27T13:51:06Z</time></trkpt><trkpt lat="44.804498363748685" lon="9.478681276932145"><ele>487.99999999999994</ele><time>2026-03-27T13:51:07Z</time></trkpt><trkpt lat="44.80445756382911" lon="9.478750383992368"><ele>488.49999999999994</ele><time>2026-03-27T13:51:08Z</time></trkpt><trkpt lat="44.80440265293711" lon="9.47880135100092"><ele>489.0</ele><time>2026-03-27T13:51:09Z</time></trkpt><trkpt lat="44.80429923193074" lon="9.478860848067828"><ele>489.5</ele><time>2026-03-27T13:51:11Z</time></trkpt><trkpt lat="44.80417991977989" lon="9.478794581228543"><ele>490.0</ele><time>2026-03-27T13:51:13Z</time></trkpt><trkpt lat="44.80412529710493" lon="9.478741159629298"><ele>490.49999999999994</ele><time>2026-03-27T13:51:14Z</time></trkpt><trkpt lat="44.80408605187872" lon="9.478666473876723"><ele>491.0</ele><time>2026-03-27T13:51:15Z</time></trkpt><trkpt lat="44.80407690571495" lon="9.47856874405324"><ele>491.71428571428567</ele><time>2026-03-27T13:51:16Z</time></trkpt><trkpt lat="44.80406200210669" lon="9.478478457898689"><ele>492.4285714285714</ele><time>2026-03-27T13:51:17Z</time></trkpt><trkpt lat="44.80403471645737" lon="9.478393460827297"><ele>493.1428571428571</ele><time>2026-03-27T13:51:18Z</time></trkpt><trkpt lat="44.80403392250972" lon="9.478294007981518"><ele>493.8571428571429</ele><time>2026-03-27T13:51:19Z</time></trkpt><trkpt lat="44.80402663743099" lon="9.478200735236255"><ele>494.5714285714286</ele><time>2026-03-27T13:51:20Z</time></trkpt><trkpt lat="44.8039936607455" lon="9.47808764141202"><ele>495.28571428571433</ele><time>2026-03-27T13:51:22Z</time></trkpt><trkpt lat="44.80393184917553" lon="9.47804504803911"><ele>496.0</ele><time>2026-03-27T13:51:24Z</time></trkpt><trkpt lat="44.803815647764544" lon="9.478106481987828"><ele>496.00000000000006</ele><time>2026-03-27T13:51:26Z</time></trkpt><trkpt lat="44.803794827440456" lon="9.478219547404228"><ele>496.0</ele><time>2026-03-27T13:51:27Z</time></trkpt><trkpt lat="44.80375395312281" lon="9.478291434490417"><ele>496.0</ele><time>2026-03-27T13:51:28Z</time></trkpt><trkpt lat="44.8037345749333" lon="9.478383764786622"><ele>496.0</ele><time>2026-03-27T13:51:29Z</time></trkpt><trkpt lat="44.80372354007416" lon="9.478492595364195"><ele>496.00000000000006</ele><time>2026-03-27T13:51:30Z</time></trkpt><trkpt lat="44.803732249218854" lon="9.478606771967408"><ele>496.0</ele><time>2026-03-27T13:51:31Z</time></trkpt><trkpt lat="44.803722092948405" lon="9.478722483308344"><ele>496.6666666666667</ele><time>2026-03-27T13:51:32Z</time></trkpt><trkpt lat="44.80375911228506" lon="9.478834773288833"><ele>497.33333333333337</ele><time>2026-03-27T13:51:33Z</time></trkpt><trkpt lat="44.803782316261014" lon="9.478946631958337"><ele>498.0</ele><time>2026-03-27T13:51:34Z</time></trkpt><trkpt lat="44.80380263866345" lon="9.479061499379828"><ele>498.66666666666663</ele><time>2026-03-27T13:51:35Z</time></trkpt><trkpt lat="44.803839086687105" lon="9.479174967619452"><ele>499.3333333333333</ele><time>2026-03-27T13:51:36Z</time></trkpt><trkpt lat="44.80387621275243" lon="9.479288321139096"><ele>500.0</ele><time>2026-03-27T13:51:37Z</time></trkpt><trkpt lat="44.8039128292399" lon="9.479395052954365"><ele>499.99999999999994</ele><time>2026-03-27T13:51:38Z</time></trkpt><trkpt lat="44.80395547584103" lon="9.479500698397597"><ele>500.0</ele><time>2026-03-27T13:51:39Z</time></trkpt><trkpt lat="44.803995220039695" lon="9.479603338202548"><ele>500.0</ele><time>2026-03-27T13:51:40Z</time></trkpt><trkpt lat="44.80403138561092" lon="9.47969822870174"><ele>500.0</ele><time>2026-03-27T13:51:41Z</time></trkpt><trkpt lat="44.8040554857857" lon="9.47979504323504"><ele>499.99999999999994</ele><time>2026-03-27T13:51:42Z</time></trkpt><trkpt lat="44.80405803036157" lon="9.47990328676817"><ele>500.0</ele><time>2026-03-27T13:51:43Z</time></trkpt><trkpt lat="44.80406499108726" lon="9.480012963427695"><ele>502.16666666666663</ele><time>2026-03-27T13:51:44Z</time></trkpt><trkpt lat="44.80406845901914" lon="9.480125299940706"><ele>504.3333333333333</ele><time>2026-03-27T13:51:45Z</time></trkpt><trkpt lat="44.804072551614674" lon="9.480237311187366"><ele>506.5</ele><time>2026-03-27T13:51:46Z</time></trkpt><trkpt lat="44.80407668770756" lon="9.480343743462873"><ele>508.66666666666663</ele><time>2026-03-27T13:51:47Z</time></trkpt><trkpt lat="44.8040809276002" lon="9.480462459113221"><ele>510.8333333333333</ele><time>2026-03-27T13:51:48Z</time></trkpt><trkpt lat="44.80408245387215" lon="9.48058501870613"><ele>513.0</ele><time>2026-03-27T13:51:49Z</time></trkpt><trkpt lat="44.80408166128197" lon="9.480700981535163"><ele>513.3333333333334</ele><time>2026-03-27T13:51:50Z</time></trkpt><trkpt lat="44.80407771825333" lon="9.480820884957632"><ele>513.6666666666666</ele><time>2026-03-27T13:51:51Z</time></trkpt><trkpt lat="44.80407040108184" lon="9.480929875024373"><ele>514.0</ele><time>2026-03-27T13:51:52Z</time></trkpt><trkpt lat="44.80405863235423" lon="9.481032050589587"><ele>514.3333333333333</ele><time>2026-03-27T13:51:53Z</time></trkpt><trkpt lat="44.80404314080961" lon="9.48112292808653"><ele>514.6666666666666</ele><time>2026-03-27T13:51:54Z</time></trkpt><trkpt lat="44.8039874067348" lon="9.481256939369178"><ele>515.0</ele><time>2026-03-27T13:51:56Z</time></trkpt><trkpt lat="44.803871028408786" lon="9.481299366732305"><ele>516.1428571428571</ele><time>2026-03-27T13:51:58Z</time></trkpt><trkpt lat="44.80380873316754" lon="9.48133076833253"><ele>517.2857142857142</ele><time>2026-03-27T13:51:59Z</time></trkpt><trkpt lat="44.803743769205894" lon="9.48136129313836"><ele>518.4285714285713</ele><time>2026-03-27T13:52:00Z</time></trkpt><trkpt lat="44.80367495130828" lon="9.481407534498658"><ele>519.5714285714286</ele><time>2026-03-27T13:52:01Z</time></trkpt><trkpt lat="44.803616699992496" lon="9.481480339964639"><ele>520.7142857142857</ele><time>2026-03-27T13:52:02Z</time></trkpt><trkpt lat="44.80356136655027" lon="9.481548147031388"><ele>521.8571428571428</ele><time>2026-03-27T13:52:03Z</time></trkpt><trkpt lat="44.80351046273815" lon="9.481607212892127"><ele>523.0</ele><time>2026-03-27T13:52:04Z</time></trkpt><trkpt lat="44.80339415686776" lon="9.481696685733711"><ele>522.9999999999999</ele><time>2026-03-27T13:52:06Z</time></trkpt><trkpt lat="44.8033299003752" lon="9.481740315282286"><ele>523.0</ele><time>2026-03-27T13:52:07Z</time></trkpt><trkpt lat="44.80326071398859" lon="9.481791113151083"><ele>523.0</ele><time>2026-03-27T13:52:08Z</time></trkpt><trkpt lat="44.803196733641826" lon="9.48185956980296"><ele>523.0</ele><time>2026-03-27T13:52:09Z</time></trkpt><trkpt lat="44.80314382304747" lon="9.481928526061246"><ele>523.0</ele><time>2026-03-27T13:52:10Z</time></trkpt><trkpt lat="44.80308905373046" lon="9.481999218088923"><ele>522.9999999999999</ele><time>2026-03-27T13:52:11Z</time></trkpt><trkpt lat="44.80303763107831" lon="9.482053810182462"><ele>523.0</ele><time>2026-03-27T13:52:12Z</time></trkpt><trkpt lat="44.80298389826211" lon="9.482101996948355"><ele>523.4</ele><time>2026-03-27T13:52:13Z</time></trkpt><trkpt lat="44.80292399998474" lon="9.48215140804985"><ele>523.8</ele><time>2026-03-27T13:52:14Z</time></trkpt><trkpt lat="44.802864780820286" lon="9.48219349550426"><ele>524.2</ele><time>2026-03-27T13:52:15Z</time></trkpt><trkpt lat="44.80275155763475" lon="9.482267555224048"><ele>524.6</ele><time>2026-03-27T13:52:17Z</time></trkpt><trkpt lat="44.802633394015785" lon="9.482334796054099"><ele>525.0</ele><time>2026-03-27T13:52:19Z</time></trkpt><trkpt lat="44.80256197964888" lon="9.48236900231392"><ele>525.0</ele><time>2026-03-27T13:52:20Z</time></trkpt><trkpt lat="44.80249428335627" lon="9.48239840458393"><ele>525.0</ele><time>2026-03-27T13:52:21Z</time></trkpt><trkpt lat="44.802423064808174" lon="9.482421439308249"><ele>525.0</ele><time>2026-03-27T13:52:22Z</time></trkpt><trkpt lat="44.802350412162404" lon="9.482437034829733"><ele>525.0</ele><time>2026-03-27T13:52:23Z</time></trkpt><trkpt lat="44.8022783940255" lon="9.482441792304565"><ele>525.0</ele><time>2026-03-27T13:52:24Z</time></trkpt><trkpt lat="44.80220414125786" lon="9.482445397421653"><ele>525.0</ele><time>2026-03-27T13:52:25Z</time></trkpt><trkpt lat="44.80212893355698" lon="9.482447999098616"><ele>525.0</ele><time>2026-03-27T13:52:26Z</time></trkpt><trkpt lat="44.802052054878516" lon="9.482449088931622"><ele>525.0</ele><time>2026-03-27T13:52:27Z</time></trkpt><trkpt lat="44.80197430601837" lon="9.482448631171499"><ele>525.0</ele><time>2026-03-27T13:52:28Z</time></trkpt><trkpt lat="44.80190073568482" lon="9.482448198014309"><ele>525.0</ele><time>2026-03-27T13:52:29Z</time></trkpt><trkpt lat="44.801821424545714" lon="9.4824502471904"><ele>525.0</ele><time>2026-03-27T13:52:30Z</time></trkpt><trkpt lat="44.801741871564055" lon="9.482453902701856"><ele>525.0</ele><time>2026-03-27T13:52:31Z</time></trkpt><trkpt lat="44.80166783832302" lon="9.482456308025515"><ele>525.0</ele><time>2026-03-27T13:52:32Z</time></trkpt><trkpt lat="44.80159366010603" lon="9.482457069731383"><ele>526.6666666666666</ele><time>2026-03-27T13:52:33Z</time></trkpt><trkpt lat="44.8015153818209" lon="9.482460882747318"><ele>528.3333333333334</ele><time>2026-03-27T13:52:34Z</time></trkpt><trkpt lat="44.80145027034308" lon="9.482466776016091"><ele>530.0</ele><time>2026-03-27T13:52:35Z</time></trkpt><trkpt lat="44.80138140305471" lon="9.482484467902102"><ele>531.6666666666667</ele><time>2026-03-27T13:52:36Z</time></trkpt><trkpt lat="44.80131242144397" lon="9.482530999104936"><ele>533.3333333333334</ele><time>2026-03-27T13:52:37Z</time></trkpt><trkpt lat="44.80125115656218" lon="9.482616618166757"><ele>535.0</ele><time>2026-03-27T13:52:38Z</time></trkpt><trkpt lat="44.80119480440438" lon="9.482690869968975"><ele>535.0</ele><time>2026-03-27T13:52:39Z</time></trkpt><trkpt lat="44.80114171126586" lon="9.482763538016291"><ele>535.0</ele><time>2026-03-27T13:52:40Z</time></trkpt><trkpt lat="44.80109593092826" lon="9.482828087949718"><ele>535.0</ele><time>2026-03-27T13:52:41Z</time></trkpt><trkpt lat="44.80104687189942" lon="9.482897260956994"><ele>535.0</ele><time>2026-03-27T13:52:42Z</time></trkpt><trkpt lat="44.80099586002268" lon="9.48295832858282"><ele>535.0</ele><time>2026-03-27T13:52:43Z</time></trkpt><trkpt lat="44.80094434281313" lon="9.483012865126602"><ele>535.0</ele><time>2026-03-27T13:52:44Z</time></trkpt><trkpt lat="44.80089041645294" lon="9.483061275439189"><ele>535.0</ele><time>2026-03-27T13:52:45Z</time></trkpt><trkpt lat="44.800833765986" lon="9.483107862055931"><ele>536.1666666666667</ele><time>2026-03-27T13:52:46Z</time></trkpt><trkpt lat="44.8007147708539" lon="9.483184748073903"><ele>537.3333333333334</ele><time>2026-03-27T13:52:48Z</time></trkpt><trkpt lat="44.80065034917225" lon="9.483203329394648"><ele>538.5</ele><time>2026-03-27T13:52:49Z</time></trkpt><trkpt lat="44.80058629712255" lon="9.48321479541927"><ele>539.6666666666666</ele><time>2026-03-27T13:52:50Z</time></trkpt><trkpt lat="44.800518050906376" lon="9.483227527468543"><ele>540.8333333333333</ele><time>2026-03-27T13:52:51Z</time></trkpt><trkpt lat="44.800446970741085" lon="9.483236036252658"><ele>542.0</ele><time>2026-03-27T13:52:52Z</time></trkpt><trkpt lat="44.80036928317145" lon="9.48324896922246"><ele>542.0</ele><time>2026-03-27T13:52:53Z</time></trkpt><trkpt lat="44.800297254530385" lon="9.483318156423547"><ele>542.0</ele><time>2026-03-27T13:52:54Z</time></trkpt><trkpt lat="44.80022248480692" lon="9.48333940702746"><ele>542.0</ele><time>2026-03-27T13:52:55Z</time></trkpt><trkpt lat="44.800124940360554" lon="9.483266362627308"><ele>542.0</ele><time>2026-03-27T13:52:56Z</time></trkpt><trkpt lat="44.80005909410789" lon="9.483380127736936"><ele>542.0</ele><time>2026-03-27T13:52:57Z</time></trkpt><trkpt lat="44.79999589882421" lon="9.483419717531655"><ele>542.0</ele><time>2026-03-27T13:52:58Z</time></trkpt><trkpt lat="44.79992938914569" lon="9.48344669649616"><ele>542.7142857142857</ele><time>2026-03-27T13:52:59Z</time></trkpt><trkpt lat="44.79986017620513" lon="9.483464791680458"><ele>543.4285714285714</ele><time>2026-03-27T13:53:00Z</time></trkpt><trkpt lat="44.799794634126386" lon="9.4834695527134"><ele>544.1428571428571</ele><time>2026-03-27T13:53:01Z</time></trkpt><trkpt lat="44.799725963747576" lon="9.483465970766257"><ele>544.8571428571429</ele><time>2026-03-27T13:53:02Z</time></trkpt><trkpt lat="44.799652457843436" lon="9.483462753868539"><ele>545.5714285714286</ele><time>2026-03-27T13:53:03Z</time></trkpt><trkpt lat="44.79958847131044" lon="9.483456692606392"><ele>546.2857142857142</ele><time>2026-03-27T13:53:04Z</time></trkpt><trkpt lat="44.79951533178546" lon="9.483447451912697"><ele>547.0</ele><time>2026-03-27T13:53:05Z</time></trkpt><trkpt lat="44.799447288065025" lon="9.483437876463684"><ele>547.0</ele><time>2026-03-27T13:53:06Z</time></trkpt><trkpt lat="44.799368283364196" lon="9.48343344135163"><ele>547.0</ele><time>2026-03-27T13:53:07Z</time></trkpt><trkpt lat="44.79929651438957" lon="9.48340655592792"><ele>547.0</ele><time>2026-03-27T13:53:08Z</time></trkpt><trkpt lat="44.799222097466654" lon="9.483386514683886"><ele>547.0</ele><time>2026-03-27T13:53:09Z</time></trkpt><trkpt lat="44.79915048997988" lon="9.483364241727255"><ele>547.0</ele><time>2026-03-27T13:53:10Z</time></trkpt><trkpt lat="44.79909039234746" lon="9.483337343103264"><ele>547.0</ele><time>2026-03-27T13:53:11Z</time></trkpt><trkpt lat="44.7989565647113" lon="9.483276873369668"><ele>546.6666666666667</ele><time>2026-03-27T13:53:13Z</time></trkpt><trkpt lat="44.798864660090224" lon="9.483293326308765"><ele>546.3333333333334</ele><time>2026-03-27T13:53:14Z</time></trkpt><trkpt lat="44.79878724869372" lon="9.483250971174773"><ele>546.0</ele><time>2026-03-27T13:53:15Z</time></trkpt><trkpt lat="44.798713722969985" lon="9.483206559574551"><ele>545.6666666666666</ele><time>2026-03-27T13:53:16Z</time></trkpt><trkpt lat="44.798630140277666" lon="9.483194372921517"><ele>545.3333333333333</ele><time>2026-03-27T13:53:17Z</time></trkpt><trkpt lat="44.79854844582167" lon="9.48318759931685"><ele>545.0</ele><time>2026-03-27T13:53:18Z</time></trkpt><trkpt lat="44.798465396345925" lon="9.483184320398754"><ele>544.8333333333333</ele><time>2026-03-27T13:53:19Z</time></trkpt><trkpt lat="44.79838028927966" lon="9.483186004174883"><ele>544.6666666666666</ele><time>2026-03-27T13:53:20Z</time></trkpt><trkpt lat="44.79830684550463" lon="9.483188783978875"><ele>544.5</ele><time>2026-03-27T13:53:21Z</time></trkpt><trkpt lat="44.79823304839406" lon="9.483191577137296"><ele>544.3333333333334</ele><time>2026-03-27T13:53:22Z</time></trkpt><trkpt lat="44.798160045852406" lon="9.483217239825118"><ele>544.1666666666667</ele><time>2026-03-27T13:53:23Z</time></trkpt><trkpt lat="44.798081368449" lon="9.483198206841262"><ele>544.0</ele><time>2026-03-27T13:53:24Z</time></trkpt><trkpt lat="44.798004320840334" lon="9.483226526553995"><ele>544.0</ele><time>2026-03-27T13:53:25Z</time></trkpt><trkpt lat="44.797919213858194" lon="9.48323164247331"><ele>544.0</ele><time>2026-03-27T13:53:26Z</time></trkpt><trkpt lat="44.79783351321541" lon="9.483226758860834"><ele>544.0</ele><time>2026-03-27T13:53:27Z</time></trkpt><trkpt lat="44.797749034426495" lon="9.48323966235467"><ele>544.0</ele><time>2026-03-27T13:53:28Z</time></trkpt><trkpt lat="44.79766861821644" lon="9.483251074836202"><ele>544.0</ele><time>2026-03-27T13:53:29Z</time></trkpt><trkpt lat="44.79758762738445" lon="9.483260069983471"><ele>544.0</ele><time>2026-03-27T13:53:30Z</time></trkpt><trkpt lat="44.797505403261454" lon="9.483266035418831"><ele>543.5</ele><time>2026-03-27T13:53:31Z</time></trkpt><trkpt lat="44.79742249764363" lon="9.483269182682792"><ele>543.0</ele><time>2026-03-27T13:53:32Z</time></trkpt><trkpt lat="44.79734149209233" lon="9.483270200705942"><ele>542.5</ele><time>2026-03-27T13:53:33Z</time></trkpt><trkpt lat="44.79726195574601" lon="9.483262963477824"><ele>542.0</ele><time>2026-03-27T13:53:34Z</time></trkpt><trkpt lat="44.79718111636981" lon="9.483271071748495"><ele>541.5</ele><time>2026-03-27T13:53:35Z</time></trkpt><trkpt lat="44.79710138329398" lon="9.483245159980264"><ele>541.0</ele><time>2026-03-27T13:53:36Z</time></trkpt><trkpt lat="44.79702471020818" lon="9.483236426787352"><ele>541.0</ele><time>2026-03-27T13:53:37Z</time></trkpt><trkpt lat="44.796948527796424" lon="9.483227749443113"><ele>541.0</ele><time>2026-03-27T13:53:38Z</time></trkpt><trkpt lat="44.79687986146772" lon="9.48321662787707"><ele>541.0</ele><time>2026-03-27T13:53:39Z</time></trkpt><trkpt lat="44.796802826012296" lon="9.483204561540044"><ele>541.0</ele><time>2026-03-27T13:53:40Z</time></trkpt><trkpt lat="44.796717976069814" lon="9.483207036416507"><ele>541.0</ele><time>2026-03-27T13:53:41Z</time></trkpt><trkpt lat="44.796638047954715" lon="9.4832011569072"><ele>541.0</ele><time>2026-03-27T13:53:42Z</time></trkpt><trkpt lat="44.796555794934605" lon="9.483186373790078"><ele>540.8333333333334</ele><time>2026-03-27T13:53:43Z</time></trkpt><trkpt lat="44.79647678075129" lon="9.483178188301231"><ele>540.6666666666667</ele><time>2026-03-27T13:53:44Z</time></trkpt><trkpt lat="44.79639608442446" lon="9.483186426291562"><ele>540.5</ele><time>2026-03-27T13:53:45Z</time></trkpt><trkpt lat="44.79631668014088" lon="9.483195563351238"><ele>540.3333333333334</ele><time>2026-03-27T13:53:46Z</time></trkpt><trkpt lat="44.7962409607538" lon="9.48320346270836"><ele>540.1666666666666</ele><time>2026-03-27T13:53:47Z</time></trkpt><trkpt lat="44.79616699334628" lon="9.483229857640126"><ele>540.0</ele><time>2026-03-27T13:53:48Z</time></trkpt><trkpt lat="44.7960978090429" lon="9.483279153649178"><ele>540.0</ele><time>2026-03-27T13:53:49Z</time></trkpt><trkpt lat="44.796017865154845" lon="9.483333554777008"><ele>540.0</ele><time>2026-03-27T13:53:50Z</time></trkpt><trkpt lat="44.79595755528073" lon="9.483381626350893"><ele>540.0</ele><time>2026-03-27T13:53:51Z</time></trkpt><trkpt lat="44.795891449693485" lon="9.483405360468119"><ele>540.0</ele><time>2026-03-27T13:53:52Z</time></trkpt><trkpt lat="44.79582538386987" lon="9.48341243774"><ele>540.0</ele><time>2026-03-27T13:53:53Z</time></trkpt><trkpt lat="44.795764361452285" lon="9.483467039022633"><ele>540.0</ele><time>2026-03-27T13:53:54Z</time></trkpt><trkpt lat="44.795696753741495" lon="9.483481050850754"><ele>540.0</ele><time>2026-03-27T13:53:55Z</time></trkpt><trkpt lat="44.79562590751538" lon="9.483517411894777"><ele>540.8</ele><time>2026-03-27T13:53:56Z</time></trkpt><trkpt lat="44.79556236364931" lon="9.483565907565524"><ele>541.6</ele><time>2026-03-27T13:53:57Z</time></trkpt><trkpt lat="44.79549737775749" lon="9.483602565336557"><ele>542.4</ele><time>2026-03-27T13:53:58Z</time></trkpt><trkpt lat="44.79543587734559" lon="9.483623791418923"><ele>543.2</ele><time>2026-03-27T13:53:59Z</time></trkpt><trkpt lat="44.79531057904781" lon="9.483643828985667"><ele>544.0</ele><time>2026-03-27T13:54:01Z</time></trkpt><trkpt lat="44.7951890338347" lon="9.483668342115706"><ele>544.8333333333334</ele><time>2026-03-27T13:54:03Z</time></trkpt><trkpt lat="44.7951274008762" lon="9.483712762054287"><ele>545.6666666666667</ele><time>2026-03-27T13:54:04Z</time></trkpt><trkpt lat="44.7950793406077" lon="9.483799021820317"><ele>546.5</ele><time>2026-03-27T13:54:05Z</time></trkpt><trkpt lat="44.79504671190087" lon="9.483877154035758"><ele>547.3333333333334</ele><time>2026-03-27T13:54:06Z</time></trkpt><trkpt lat="44.79499341254473" lon="9.484021930107527"><ele>548.1666666666666</ele><time>2026-03-27T13:54:08Z</time></trkpt><trkpt lat="44.79497667399054" lon="9.484115733213871"><ele>549.0</ele><time>2026-03-27T13:54:09Z</time></trkpt><trkpt lat="44.79497379080718" lon="9.484219957319983"><ele>547.3333333333334</ele><time>2026-03-27T13:54:10Z</time></trkpt><trkpt lat="44.794995256303814" lon="9.484336696732827"><ele>545.6666666666666</ele><time>2026-03-27T13:54:11Z</time></trkpt><trkpt lat="44.79499934722603" lon="9.484434817781343"><ele>544.0</ele><time>2026-03-27T13:54:12Z</time></trkpt><trkpt lat="44.79503374394653" lon="9.484536501392888"><ele>542.3333333333333</ele><time>2026-03-27T13:54:13Z</time></trkpt><trkpt lat="44.795016133763376" lon="9.484648595138944"><ele>540.6666666666666</ele><time>2026-03-27T13:54:14Z</time></trkpt><trkpt lat="44.79499741609109" lon="9.48476021277537"><ele>539.0</ele><time>2026-03-27T13:54:15Z</time></trkpt><trkpt lat="44.794987502376564" lon="9.48486320960796"><ele>539.0</ele><time>2026-03-27T13:54:16Z</time></trkpt><trkpt lat="44.79497897556002" lon="9.484962392270251"><ele>539.0</ele><time>2026-03-27T13:54:17Z</time></trkpt><trkpt lat="44.79495464099185" lon="9.485050758375701"><ele>539.0</ele><time>2026-03-27T13:54:18Z</time></trkpt><trkpt lat="44.794919381591036" lon="9.485137492520265"><ele>539.0</ele><time>2026-03-27T13:54:18.999Z</time></trkpt><trkpt lat="44.79486479837502" lon="9.485219958475229"><ele>539.0</ele><time>2026-03-27T13:54:19.999Z</time></trkpt><trkpt lat="44.794803544476586" lon="9.485312888873448"><ele>539.0</ele><time>2026-03-27T13:54:20.999Z</time></trkpt><trkpt lat="44.79474845481419" lon="9.48539742758769"><ele>539.0</ele><time>2026-03-27T13:54:21.999Z</time></trkpt><trkpt lat="44.794659072451665" lon="9.485431100138266"><ele>539.0</ele><time>2026-03-27T13:54:23Z</time></trkpt><trkpt lat="44.79460362424575" lon="9.485506884317768"><ele>539.0</ele><time>2026-03-27T13:54:24Z</time></trkpt><trkpt lat="44.79454869736421" lon="9.485583580693884"><ele>539.0</ele><time>2026-03-27T13:54:25Z</time></trkpt><trkpt lat="44.79449996559241" lon="9.485653823018676"><ele>539.0</ele><time>2026-03-27T13:54:26Z</time></trkpt><trkpt lat="44.794468790672944" lon="9.485746068498075"><ele>539.0</ele><time>2026-03-27T13:54:27Z</time></trkpt><trkpt lat="44.79447442317835" lon="9.485854051794606"><ele>539.0</ele><time>2026-03-27T13:54:28Z</time></trkpt><trkpt lat="44.794488234250245" lon="9.485946600460396"><ele>539.0</ele><time>2026-03-27T13:54:29Z</time></trkpt><trkpt lat="44.79450928105008" lon="9.486066807948681"><ele>539.0</ele><time>2026-03-27T13:54:31Z</time></trkpt><trkpt lat="44.794429583805915" lon="9.486058190387299"><ele>539.0</ele><time>2026-03-27T13:54:34Z</time></trkpt><trkpt lat="44.79437048218067" lon="9.486024831238732"><ele>539.0</ele><time>2026-03-27T13:54:35Z</time></trkpt><trkpt lat="44.7943062459192" lon="9.485991338618607"><ele>539.0</ele><time>2026-03-27T13:54:36Z</time></trkpt><trkpt lat="44.79417616887297" lon="9.485930029417899"><ele>541.4</ele><time>2026-03-27T13:54:38Z</time></trkpt><trkpt lat="44.794098430681956" lon="9.48588851082597"><ele>543.8</ele><time>2026-03-27T13:54:39Z</time></trkpt><trkpt lat="44.79402598909999" lon="9.485827307540315"><ele>546.2</ele><time>2026-03-27T13:54:40Z</time></trkpt><trkpt lat="44.79395793005237" lon="9.48574711993779"><ele>548.6</ele><time>2026-03-27T13:54:41Z</time></trkpt><trkpt lat="44.79387525133001" lon="9.485678202474299"><ele>551.0</ele><time>2026-03-27T13:54:42Z</time></trkpt><trkpt lat="44.793781649633054" lon="9.485633142096331"><ele>551.0</ele><time>2026-03-27T13:54:43Z</time></trkpt><trkpt lat="44.79369869904995" lon="9.48557471527817"><ele>551.0</ele><time>2026-03-27T13:54:44Z</time></trkpt><trkpt lat="44.793663762265226" lon="9.485474225552737"><ele>551.0</ele><time>2026-03-27T13:54:45Z</time></trkpt><trkpt lat="44.79359952605065" lon="9.48536771617056"><ele>551.0</ele><time>2026-03-27T13:54:46Z</time></trkpt><trkpt lat="44.79351705336327" lon="9.485270335525136"><ele>551.0</ele><time>2026-03-27T13:54:47Z</time></trkpt><trkpt lat="44.79342349742136" lon="9.48518511188935"><ele>552.8</ele><time>2026-03-27T13:54:48Z</time></trkpt><trkpt lat="44.79333804562342" lon="9.485122519213068"><ele>554.6</ele><time>2026-03-27T13:54:49Z</time></trkpt><trkpt lat="44.79323918289121" lon="9.485073373998516"><ele>556.4</ele><time>2026-03-27T13:54:50Z</time></trkpt><trkpt lat="44.7931416194479" lon="9.485046368686545"><ele>558.2</ele><time>2026-03-27T13:54:51Z</time></trkpt><trkpt lat="44.79306795226325" lon="9.48501489459789"><ele>560.0</ele><time>2026-03-27T13:54:52Z</time></trkpt><trkpt lat="44.79299628268074" lon="9.484940996741312"><ele>560.0</ele><time>2026-03-27T13:54:53Z</time></trkpt><trkpt lat="44.79295880981059" lon="9.484800409428074"><ele>560.0</ele><time>2026-03-27T13:54:54Z</time></trkpt><trkpt lat="44.792886240684986" lon="9.484709164366324"><ele>560.0</ele><time>2026-03-27T13:54:55Z</time></trkpt><trkpt lat="44.792830578999876" lon="9.484612299070555"><ele>560.0</ele><time>2026-03-27T13:54:56Z</time></trkpt><trkpt lat="44.792752295716085" lon="9.484550534390989"><ele>560.0</ele><time>2026-03-27T13:54:57Z</time></trkpt><trkpt lat="44.79265473237372" lon="9.484525489355864"><ele>563.5</ele><time>2026-03-27T13:54:58Z</time></trkpt><trkpt lat="44.792546231442174" lon="9.484527894162484"><ele>567.0</ele><time>2026-03-27T13:54:59Z</time></trkpt><trkpt lat="44.79243101313085" lon="9.484542430550222"><ele>570.5</ele><time>2026-03-27T13:55:00Z</time></trkpt><trkpt lat="44.792308097620605" lon="9.484540513684133"><ele>574.0</ele><time>2026-03-27T13:55:01Z</time></trkpt><trkpt lat="44.792189308011956" lon="9.484488645473053"><ele>574.0</ele><time>2026-03-27T13:55:02Z</time></trkpt><trkpt lat="44.79205683738093" lon="9.48444462186071"><ele>574.0</ele><time>2026-03-27T13:55:03Z</time></trkpt><trkpt lat="44.791958894364065" lon="9.484418899262169"><ele>574.0</ele><time>2026-03-27T13:55:04Z</time></trkpt><trkpt lat="44.791867497935655" lon="9.484378199627955"><ele>574.0</ele><time>2026-03-27T13:55:05Z</time></trkpt><trkpt lat="44.791782335165124" lon="9.484323641668094"><ele>574.0</ele><time>2026-03-27T13:55:06Z</time></trkpt><trkpt lat="44.791703364892" lon="9.484240747753296"><ele>575.8333333333334</ele><time>2026-03-27T13:55:07Z</time></trkpt><trkpt lat="44.79162755936812" lon="9.484154249289308"><ele>577.6666666666667</ele><time>2026-03-27T13:55:08Z</time></trkpt><trkpt lat="44.79157318595722" lon="9.484051050492315"><ele>579.5</ele><time>2026-03-27T13:55:09Z</time></trkpt><trkpt lat="44.7915417356184" lon="9.48393462114957"><ele>581.3333333333334</ele><time>2026-03-27T13:55:10Z</time></trkpt><trkpt lat="44.79155290021762" lon="9.483811331596385"><ele>583.1666666666666</ele><time>2026-03-27T13:55:11Z</time></trkpt><trkpt lat="44.79153671925959" lon="9.483700908811265"><ele>585.0</ele><time>2026-03-27T13:55:12Z</time></trkpt><trkpt lat="44.79149860879505" lon="9.483617927809732"><ele>585.0</ele><time>2026-03-27T13:55:13Z</time></trkpt><trkpt lat="44.79144677556265" lon="9.48355633640929"><ele>585.0</ele><time>2026-03-27T13:55:14Z</time></trkpt><trkpt lat="44.79138062350584" lon="9.483541009258229"><ele>585.0</ele><time>2026-03-27T13:55:15Z</time></trkpt><trkpt lat="44.79129763764323" lon="9.483636225208867"><ele>585.0</ele><time>2026-03-27T13:55:16Z</time></trkpt><trkpt lat="44.79124899320547" lon="9.483719859815594"><ele>585.0</ele><time>2026-03-27T13:55:17Z</time></trkpt><trkpt lat="44.79124422470621" lon="9.483821352226975"><ele>585.0</ele><time>2026-03-27T13:55:18Z</time></trkpt><trkpt lat="44.79125727638552" lon="9.483923997869208"><ele>585.5</ele><time>2026-03-27T13:55:19Z</time></trkpt><trkpt lat="44.79130028445557" lon="9.484042624403951"><ele>586.0</ele><time>2026-03-27T13:55:20Z</time></trkpt><trkpt lat="44.791341537122484" lon="9.484144860811718"><ele>586.5</ele><time>2026-03-27T13:55:21Z</time></trkpt><trkpt lat="44.79132736204098" lon="9.484251320319617"><ele>587.0</ele><time>2026-03-27T13:55:22Z</time></trkpt><trkpt lat="44.7913033209202" lon="9.484364175335543"><ele>587.5</ele><time>2026-03-27T13:55:23Z</time></trkpt><trkpt lat="44.791283503192126" lon="9.484490693905107"><ele>588.0</ele><time>2026-03-27T13:55:24Z</time></trkpt><trkpt lat="44.791243307522564" lon="9.484611552699992"><ele>588.8</ele><time>2026-03-27T13:55:25Z</time></trkpt><trkpt lat="44.79118111139411" lon="9.484719990458444"><ele>589.5999999999999</ele><time>2026-03-27T13:55:26Z</time></trkpt><trkpt lat="44.791121356256554" lon="9.484834233894869"><ele>590.4000000000001</ele><time>2026-03-27T13:55:27Z</time></trkpt><trkpt lat="44.791080510546266" lon="9.484908899504186"><ele>591.2</ele><time>2026-03-27T13:55:28Z</time></trkpt><trkpt lat="44.79098986408244" lon="9.484961453557556"><ele>592.0</ele><time>2026-03-27T13:55:30Z</time></trkpt><trkpt lat="44.790890868522254" lon="9.48488152331957"><ele>593.8000000000001</ele><time>2026-03-27T13:55:32Z</time></trkpt><trkpt lat="44.790819927305186" lon="9.484811980571205"><ele>595.6</ele><time>2026-03-27T13:55:33Z</time></trkpt><trkpt lat="44.79076541823913" lon="9.484696684333148"><ele>597.4000000000001</ele><time>2026-03-27T13:55:34Z</time></trkpt><trkpt lat="44.79070084134605" lon="9.484595590205132"><ele>599.2</ele><time>2026-03-27T13:55:35Z</time></trkpt><trkpt lat="44.79063898712459" lon="9.484487546998462"><ele>601.0</ele><time>2026-03-27T13:55:36Z</time></trkpt><trkpt lat="44.79056016805515" lon="9.484419724836776"><ele>601.0</ele><time>2026-03-27T13:55:37Z</time></trkpt><trkpt lat="44.7904693502908" lon="9.484367563476212"><ele>601.0</ele><time>2026-03-27T13:55:38Z</time></trkpt><trkpt lat="44.790379880687325" lon="9.484312438285883"><ele>601.0</ele><time>2026-03-27T13:55:39Z</time></trkpt><trkpt lat="44.79033965411059" lon="9.484191089134498"><ele>601.0</ele><time>2026-03-27T13:55:40Z</time></trkpt><trkpt lat="44.79032096587152" lon="9.484067607605327"><ele>601.0</ele><time>2026-03-27T13:55:41Z</time></trkpt><trkpt lat="44.79028140432221" lon="9.483954549645487"><ele>601.0</ele><time>2026-03-27T13:55:42Z</time></trkpt><trkpt lat="44.79024508959957" lon="9.483857143201032"><ele>601.0</ele><time>2026-03-27T13:55:43Z</time></trkpt><trkpt lat="44.79017413040446" lon="9.483790356363194"><ele>601.0</ele><time>2026-03-27T13:55:44Z</time></trkpt><trkpt lat="44.790077039507786" lon="9.483736254077446"><ele>601.0</ele><time>2026-03-27T13:55:45Z</time></trkpt><trkpt lat="44.7899764559108" lon="9.483676715239826"><ele>601.0</ele><time>2026-03-27T13:55:46Z</time></trkpt><trkpt lat="44.789864938517354" lon="9.483590959227202"><ele>604.0</ele><time>2026-03-27T13:55:47Z</time></trkpt><trkpt lat="44.78976834341147" lon="9.483481187783196"><ele>607.0</ele><time>2026-03-27T13:55:48Z</time></trkpt><trkpt lat="44.78967546747848" lon="9.483431702553613"><ele>610.0</ele><time>2026-03-27T13:55:49Z</time></trkpt><trkpt lat="44.78961483724923" lon="9.483350529872363"><ele>613.0</ele><time>2026-03-27T13:55:50Z</time></trkpt><trkpt lat="44.78956625507726" lon="9.48327976383443"><ele>616.0</ele><time>2026-03-27T13:55:51Z</time></trkpt><trkpt lat="44.78955606305038" lon="9.48317707044937"><ele>616.0</ele><time>2026-03-27T13:55:52Z</time></trkpt><trkpt lat="44.78958337941851" lon="9.483072277457794"><ele>616.0</ele><time>2026-03-27T13:55:53Z</time></trkpt><trkpt lat="44.789592148435574" lon="9.482945216349602"><ele>616.0</ele><time>2026-03-27T13:55:54Z</time></trkpt><trkpt lat="44.789613808969136" lon="9.482827019070482"><ele>616.0</ele><time>2026-03-27T13:55:55Z</time></trkpt><trkpt lat="44.789619245883834" lon="9.48271925107339"><ele>616.0</ele><time>2026-03-27T13:55:56Z</time></trkpt><trkpt lat="44.789559076956074" lon="9.482637470778974"><ele>616.0</ele><time>2026-03-27T13:55:57Z</time></trkpt><trkpt lat="44.78949409857342" lon="9.482594162913323"><ele>616.5</ele><time>2026-03-27T13:55:58Z</time></trkpt><trkpt lat="44.78941460187065" lon="9.482581067377332"><ele>617.0</ele><time>2026-03-27T13:55:59Z</time></trkpt><trkpt lat="44.78933128097102" lon="9.482572724588445"><ele>617.5</ele><time>2026-03-27T13:56:00Z</time></trkpt><trkpt lat="44.78924820946339" lon="9.482657199073893"><ele>618.0</ele><time>2026-03-27T13:56:01Z</time></trkpt><trkpt lat="44.78916423394486" lon="9.482725816784411"><ele>618.5</ele><time>2026-03-27T13:56:02Z</time></trkpt><trkpt lat="44.789097172705524" lon="9.48280131092617"><ele>619.0</ele><time>2026-03-27T13:56:03Z</time></trkpt><trkpt lat="44.78904092919803" lon="9.482892705680438"><ele>622.0</ele><time>2026-03-27T13:56:04Z</time></trkpt><trkpt lat="44.788980117825965" lon="9.482982848730291"><ele>625.0</ele><time>2026-03-27T13:56:05Z</time></trkpt><trkpt lat="44.788946158166176" lon="9.48310577420647"><ele>628.0</ele><time>2026-03-27T13:56:06Z</time></trkpt><trkpt lat="44.78899607234899" lon="9.483269385899806"><ele>631.0</ele><time>2026-03-27T13:56:07Z</time></trkpt><trkpt lat="44.78902868226758" lon="9.48341921354261"><ele>634.0</ele><time>2026-03-27T13:56:08Z</time></trkpt><trkpt lat="44.78904598723238" lon="9.483579550641606"><ele>634.0</ele><time>2026-03-27T13:56:09Z</time></trkpt><trkpt lat="44.789012681838656" lon="9.483740090894567"><ele>634.0</ele><time>2026-03-27T13:56:10Z</time></trkpt><trkpt lat="44.788996665965776" lon="9.483911610158287"><ele>634.0</ele><time>2026-03-27T13:56:11Z</time></trkpt><trkpt lat="44.78901163540276" lon="9.48406121939322"><ele>634.0</ele><time>2026-03-27T13:56:12Z</time></trkpt><trkpt lat="44.78901055496204" lon="9.484195274492402"><ele>634.0</ele><time>2026-03-27T13:56:13Z</time></trkpt><trkpt lat="44.78901606324618" lon="9.484299296001609"><ele>635.2</ele><time>2026-03-27T13:56:14Z</time></trkpt><trkpt lat="44.78900348325822" lon="9.484410863882506"><ele>636.4</ele><time>2026-03-27T13:56:15Z</time></trkpt><trkpt lat="44.78892654398552" lon="9.484367421665628"><ele>637.6</ele><time>2026-03-27T13:56:16.999Z</time></trkpt><trkpt lat="44.78879994587495" lon="9.48431913504624"><ele>638.8</ele><time>2026-03-27T13:56:18.999Z</time></trkpt><trkpt lat="44.78870147249856" lon="9.484255293140208"><ele>640.0</ele><time>2026-03-27T13:56:19.999Z</time></trkpt><trkpt lat="44.788598849118024" lon="9.484184742775957"><ele>643.0</ele><time>2026-03-27T13:56:20.999Z</time></trkpt><trkpt lat="44.78850196968593" lon="9.484118456067748"><ele>646.0</ele><time>2026-03-27T13:56:21.999Z</time></trkpt><trkpt lat="44.788411608548664" lon="9.4840668697105"><ele>649.0</ele><time>2026-03-27T13:56:22.999Z</time></trkpt><trkpt lat="44.788319774535815" lon="9.484024266021956"><ele>652.0</ele><time>2026-03-27T13:56:23.999Z</time></trkpt><trkpt lat="44.78823924719125" lon="9.483993517706626"><ele>655.0</ele><time>2026-03-27T13:56:24.999Z</time></trkpt><trkpt lat="44.788171169665695" lon="9.483958579775011"><ele>655.0</ele><time>2026-03-27T13:56:25.999Z</time></trkpt><trkpt lat="44.78811096900338" lon="9.483885958801993"><ele>655.0</ele><time>2026-03-27T13:56:26.999Z</time></trkpt><trkpt lat="44.788115814913006" lon="9.483725580611408"><ele>655.0</ele><time>2026-03-27T13:56:27.999Z</time></trkpt><trkpt lat="44.7880866202575" lon="9.483572220454816"><ele>655.0</ele><time>2026-03-27T13:56:29Z</time></trkpt><trkpt lat="44.788057679589706" lon="9.483412103728421"><ele>655.0</ele><time>2026-03-27T13:56:30Z</time></trkpt><trkpt lat="44.78803925323795" lon="9.483247714123761"><ele>654.6</ele><time>2026-03-27T13:56:31Z</time></trkpt><trkpt lat="44.78801270913083" lon="9.483093258478629"><ele>654.2</ele><time>2026-03-27T13:56:32Z</time></trkpt><trkpt lat="44.787975403684044" lon="9.482954030722992"><ele>653.8</ele><time>2026-03-27T13:56:33Z</time></trkpt><trkpt lat="44.78790871921991" lon="9.482838329337456"><ele>653.4</ele><time>2026-03-27T13:56:34Z</time></trkpt><trkpt lat="44.78782986424237" lon="9.482734383900427"><ele>653.0</ele><time>2026-03-27T13:56:35Z</time></trkpt><trkpt lat="44.78773100655513" lon="9.482656660788393"><ele>656.4</ele><time>2026-03-27T13:56:36Z</time></trkpt><trkpt lat="44.787615196735345" lon="9.482593432045341"><ele>659.8</ele><time>2026-03-27T13:56:37Z</time></trkpt><trkpt lat="44.78752165291141" lon="9.482512809845794"><ele>663.2</ele><time>2026-03-27T13:56:38Z</time></trkpt><trkpt lat="44.78745736866333" lon="9.482445966745205"><ele>666.6</ele><time>2026-03-27T13:56:39Z</time></trkpt><trkpt lat="44.787397992659244" lon="9.482369298058337"><ele>670.0</ele><time>2026-03-27T13:56:40Z</time></trkpt><trkpt lat="44.787359390514624" lon="9.482282384268013"><ele>670.0</ele><time>2026-03-27T13:56:41Z</time></trkpt><trkpt lat="44.78736183396685" lon="9.482169842721621"><ele>670.0</ele><time>2026-03-27T13:56:42Z</time></trkpt><trkpt lat="44.78739781320914" lon="9.48206080013022"><ele>670.0</ele><time>2026-03-27T13:56:43Z</time></trkpt><trkpt lat="44.78742138561464" lon="9.4819290888997"><ele>670.0</ele><time>2026-03-27T13:56:44Z</time></trkpt><trkpt lat="44.78743342552592" lon="9.481802513162247"><ele>670.0</ele><time>2026-03-27T13:56:45Z</time></trkpt><trkpt lat="44.787435310551366" lon="9.481683598650614"><ele>670.0</ele><time>2026-03-27T13:56:46Z</time></trkpt><trkpt lat="44.78741050116043" lon="9.48156918157023"><ele>669.75</ele><time>2026-03-27T13:56:47Z</time></trkpt><trkpt lat="44.78736605493706" lon="9.48145104936604"><ele>669.5</ele><time>2026-03-27T13:56:48Z</time></trkpt><trkpt lat="44.78731288386517" lon="9.481321045598328"><ele>669.25</ele><time>2026-03-27T13:56:49Z</time></trkpt><trkpt lat="44.78724073445839" lon="9.481168179990334"><ele>669.0</ele><time>2026-03-27T13:56:50Z</time></trkpt><trkpt lat="44.78717194832192" lon="9.481015041212173"><ele>668.6</ele><time>2026-03-27T13:56:51Z</time></trkpt><trkpt lat="44.78709373005637" lon="9.48088401762691"><ele>668.2</ele><time>2026-03-27T13:56:52Z</time></trkpt><trkpt lat="44.78701791414249" lon="9.480783118603695"><ele>667.8000000000001</ele><time>2026-03-27T13:56:53Z</time></trkpt><trkpt lat="44.786948354315335" lon="9.480698696017852"><ele>667.4000000000001</ele><time>2026-03-27T13:56:54Z</time></trkpt><trkpt lat="44.78687575624746" lon="9.480625651580706"><ele>667.0</ele><time>2026-03-27T13:56:55Z</time></trkpt><trkpt lat="44.786792553523114" lon="9.480572592690818"><ele>670.4000000000001</ele><time>2026-03-27T13:56:56Z</time></trkpt><trkpt lat="44.78670428038755" lon="9.48052493850574"><ele>673.8000000000001</ele><time>2026-03-27T13:56:57Z</time></trkpt><trkpt lat="44.78661276131765" lon="9.480447836492166"><ele>677.2</ele><time>2026-03-27T13:56:58Z</time></trkpt><trkpt lat="44.78652067824965" lon="9.480345438587973"><ele>680.6</ele><time>2026-03-27T13:56:59Z</time></trkpt><trkpt lat="44.78644843741488" lon="9.480236456648411"><ele>684.0</ele><time>2026-03-27T13:57:00Z</time></trkpt><trkpt lat="44.786400546921904" lon="9.480133315028715"><ele>684.0</ele><time>2026-03-27T13:57:01Z</time></trkpt><trkpt lat="44.78637023001899" lon="9.480037854875636"><ele>684.0</ele><time>2026-03-27T13:57:02Z</time></trkpt><trkpt lat="44.7863388959939" lon="9.479935528530179"><ele>684.0</ele><time>2026-03-27T13:57:03Z</time></trkpt><trkpt lat="44.786352722051085" lon="9.47981019991764"><ele>684.0</ele><time>2026-03-27T13:57:04Z</time></trkpt><trkpt lat="44.786378087648544" lon="9.479687292429173"><ele>684.0</ele><time>2026-03-27T13:57:05Z</time></trkpt><trkpt lat="44.78638563611703" lon="9.479579940031572"><ele>684.0</ele><time>2026-03-27T13:57:06Z</time></trkpt><trkpt lat="44.78635988944481" lon="9.479479360161356"><ele>684.2</ele><time>2026-03-27T13:57:07Z</time></trkpt><trkpt lat="44.78628656662291" lon="9.47940614015042"><ele>684.4000000000001</ele><time>2026-03-27T13:57:08Z</time></trkpt><trkpt lat="44.786193991798555" lon="9.47934179487229"><ele>684.6</ele><time>2026-03-27T13:57:09Z</time></trkpt><trkpt lat="44.78608134294914" lon="9.479298540820428"><ele>684.8</ele><time>2026-03-27T13:57:10Z</time></trkpt><trkpt lat="44.78595632911839" lon="9.479258323490932"><ele>685.0</ele><time>2026-03-27T13:57:11Z</time></trkpt><trkpt lat="44.78582509845835" lon="9.479223899225262"><ele>687.6</ele><time>2026-03-27T13:57:12Z</time></trkpt><trkpt lat="44.78569043543389" lon="9.479200297549701"><ele>690.2</ele><time>2026-03-27T13:57:13Z</time></trkpt><trkpt lat="44.78556387258383" lon="9.47917998676244"><ele>692.8</ele><time>2026-03-27T13:57:14Z</time></trkpt><trkpt lat="44.78546449703073" lon="9.479158154006344"><ele>695.4</ele><time>2026-03-27T13:57:15Z</time></trkpt><trkpt lat="44.78539143222241" lon="9.479104970126194"><ele>698.0</ele><time>2026-03-27T13:57:16Z</time></trkpt><trkpt lat="44.785328672358446" lon="9.479006110826282"><ele>698.0</ele><time>2026-03-27T13:57:17Z</time></trkpt><trkpt lat="44.785256403614355" lon="9.478886456679552"><ele>698.0</ele><time>2026-03-27T13:57:18Z</time></trkpt><trkpt lat="44.78516889693471" lon="9.47877039309376"><ele>698.0</ele><time>2026-03-27T13:57:19Z</time></trkpt><trkpt lat="44.78509232008987" lon="9.478649779378818"><ele>698.0</ele><time>2026-03-27T13:57:20Z</time></trkpt><trkpt lat="44.785046339140344" lon="9.478520488448968"><ele>698.0</ele><time>2026-03-27T13:57:21Z</time></trkpt><trkpt lat="44.785003256694736" lon="9.478385969043794"><ele>701.5</ele><time>2026-03-27T13:57:22Z</time></trkpt><trkpt lat="44.78499684034045" lon="9.478224636485134"><ele>705.0</ele><time>2026-03-27T13:57:23Z</time></trkpt><trkpt lat="44.78500564902056" lon="9.478061921795272"><ele>708.5</ele><time>2026-03-27T13:57:24Z</time></trkpt><trkpt lat="44.785007017715145" lon="9.477891299200166"><ele>712.0</ele><time>2026-03-27T13:57:25Z</time></trkpt><trkpt lat="44.78498407780224" lon="9.477716162929644"><ele>712.2</ele><time>2026-03-27T13:57:26Z</time></trkpt><trkpt lat="44.784961184686054" lon="9.477563662161561"><ele>712.4000000000001</ele><time>2026-03-27T13:57:27Z</time></trkpt><trkpt lat="44.78495017953058" lon="9.47743111436801"><ele>712.5999999999999</ele><time>2026-03-27T13:57:28Z</time></trkpt><trkpt lat="44.78492856820685" lon="9.477316028049403"><ele>712.8</ele><time>2026-03-27T13:57:29Z</time></trkpt><trkpt lat="44.78488043779294" lon="9.477201107186604"><ele>713.0</ele><time>2026-03-27T13:57:30Z</time></trkpt><trkpt lat="44.784803852225025" lon="9.477100857705132"><ele>714.0</ele><time>2026-03-27T13:57:31Z</time></trkpt><trkpt lat="44.78472763675184" lon="9.476993534595483"><ele>715.0</ele><time>2026-03-27T13:57:32Z</time></trkpt><trkpt lat="44.78466754207668" lon="9.476905217814137"><ele>716.0</ele><time>2026-03-27T13:57:33Z</time></trkpt><trkpt lat="44.7846370985384" lon="9.47682505032468"><ele>717.0</ele><time>2026-03-27T13:57:34Z</time></trkpt><trkpt lat="44.78462649226476" lon="9.476730168587446"><ele>718.0</ele><time>2026-03-27T13:57:35Z</time></trkpt><trkpt lat="44.78465745673953" lon="9.476611214584269"><ele>719.0</ele><time>2026-03-27T13:57:36Z</time></trkpt><trkpt lat="44.78473393928602" lon="9.476513143577922"><ele>719.0</ele><time>2026-03-27T13:57:37Z</time></trkpt><trkpt lat="44.78478929939788" lon="9.47636901865704"><ele>719.0</ele><time>2026-03-27T13:57:38Z</time></trkpt><trkpt lat="44.78487515770311" lon="9.476247821772755"><ele>719.0</ele><time>2026-03-27T13:57:39Z</time></trkpt><trkpt lat="44.784980273250596" lon="9.476158429114218"><ele>719.0</ele><time>2026-03-27T13:57:40Z</time></trkpt><trkpt lat="44.78509352175611" lon="9.476103453283239"><ele>718.8000000000001</ele><time>2026-03-27T13:57:41Z</time></trkpt><trkpt lat="44.78520131430207" lon="9.476043022017794"><ele>718.6</ele><time>2026-03-27T13:57:42Z</time></trkpt><trkpt lat="44.78528846739493" lon="9.475980147259538"><ele>718.4</ele><time>2026-03-27T13:57:43Z</time></trkpt><trkpt lat="44.78536673189699" lon="9.475924565589379"><ele>718.2</ele><time>2026-03-27T13:57:44Z</time></trkpt><trkpt lat="44.785442942892935" lon="9.475856674536596"><ele>718.0</ele><time>2026-03-27T13:57:45Z</time></trkpt><trkpt lat="44.78551063384918" lon="9.475755755886686"><ele>718.0</ele><time>2026-03-27T13:57:46Z</time></trkpt><trkpt lat="44.78557000666718" lon="9.475620354296272"><ele>718.0</ele><time>2026-03-27T13:57:47Z</time></trkpt><trkpt lat="44.78562283507286" lon="9.47546942709399"><ele>718.0</ele><time>2026-03-27T13:57:48Z</time></trkpt><trkpt lat="44.78567687121938" lon="9.475321521970935"><ele>718.0</ele><time>2026-03-27T13:57:49Z</time></trkpt><trkpt lat="44.7857274012003" lon="9.475193946932512"><ele>718.8333333333334</ele><time>2026-03-27T13:57:50Z</time></trkpt><trkpt lat="44.785765517283714" lon="9.475073256981293"><ele>719.6666666666667</ele><time>2026-03-27T13:57:51Z</time></trkpt><trkpt lat="44.785781284043" lon="9.47496608869679"><ele>720.5</ele><time>2026-03-27T13:57:52Z</time></trkpt><trkpt lat="44.78578064975152" lon="9.474869060823105"><ele>721.3333333333334</ele><time>2026-03-27T13:57:53Z</time></trkpt><trkpt lat="44.78571594502821" lon="9.474730072354292"><ele>722.1666666666666</ele><time>2026-03-27T13:57:55Z</time></trkpt><trkpt lat="44.785662232132914" lon="9.474676666635215"><ele>723.0</ele><time>2026-03-27T13:57:56Z</time></trkpt><trkpt lat="44.785595248704574" lon="9.474637574230213"><ele>723.5714285714287</ele><time>2026-03-27T13:57:57Z</time></trkpt><trkpt lat="44.785540672409056" lon="9.474577548757106"><ele>724.1428571428571</ele><time>2026-03-27T13:57:58Z</time></trkpt><trkpt lat="44.78548105348904" lon="9.47453864703131"><ele>724.7142857142858</ele><time>2026-03-27T13:57:59Z</time></trkpt><trkpt lat="44.78542188801469" lon="9.474501606227978"><ele>725.2857142857143</ele><time>2026-03-27T13:58:00Z</time></trkpt><trkpt lat="44.785363671719715" lon="9.474466849310337"><ele>725.8571428571429</ele><time>2026-03-27T13:58:01Z</time></trkpt><trkpt lat="44.78529774220846" lon="9.474455655702997"><ele>726.4285714285714</ele><time>2026-03-27T13:58:02Z</time></trkpt><trkpt lat="44.78519309449185" lon="9.474379405118539"><ele>727.0</ele><time>2026-03-27T13:58:04Z</time></trkpt><trkpt lat="44.78511741281629" lon="9.474375520124228"><ele>728.6666666666667</ele><time>2026-03-27T13:58:05Z</time></trkpt><trkpt lat="44.7850444933302" lon="9.4743405952357"><ele>730.3333333333334</ele><time>2026-03-27T13:58:06Z</time></trkpt><trkpt lat="44.78497479737763" lon="9.47430252218073"><ele>732.0</ele><time>2026-03-27T13:58:07Z</time></trkpt><trkpt lat="44.78491168618723" lon="9.474250447403968"><ele>733.6666666666666</ele><time>2026-03-27T13:58:08Z</time></trkpt><trkpt lat="44.784870482496295" lon="9.474160425154697"><ele>735.3333333333333</ele><time>2026-03-27T13:58:09Z</time></trkpt><trkpt lat="44.78485985500359" lon="9.474036635248474"><ele>737.0</ele><time>2026-03-27T13:58:09.999Z</time></trkpt><trkpt lat="44.78482182591888" lon="9.47392498846199"><ele>737.0</ele><time>2026-03-27T13:58:10.999Z</time></trkpt><trkpt lat="44.78476410910686" lon="9.473823555046202"><ele>737.0</ele><time>2026-03-27T13:58:11.999Z</time></trkpt><trkpt lat="44.78466841177525" lon="9.47375879836537"><ele>737.0</ele><time>2026-03-27T13:58:12.999Z</time></trkpt><trkpt lat="44.784586727838544" lon="9.473668851434947"><ele>737.0</ele><time>2026-03-27T13:58:13.999Z</time></trkpt><trkpt lat="44.78450367809907" lon="9.473579618721994"><ele>737.0</ele><time>2026-03-27T13:58:14.999Z</time></trkpt><trkpt lat="44.784437598925905" lon="9.473471908805417"><ele>737.25</ele><time>2026-03-27T13:58:15.999Z</time></trkpt><trkpt lat="44.78434962640494" lon="9.473374792544982"><ele>737.5</ele><time>2026-03-27T13:58:16.999Z</time></trkpt><trkpt lat="44.78424031143527" lon="9.473306482093907"><ele>737.75</ele><time>2026-03-27T13:58:17.999Z</time></trkpt><trkpt lat="44.78413012576016" lon="9.473238119812969"><ele>738.0</ele><time>2026-03-27T13:58:18.999Z</time></trkpt><trkpt lat="44.784022297522675" lon="9.473169280766797"><ele>739.8</ele><time>2026-03-27T13:58:19.999Z</time></trkpt><trkpt lat="44.78392515272299" lon="9.473093895441973"><ele>741.5999999999999</ele><time>2026-03-27T13:58:20.999Z</time></trkpt><trkpt lat="44.783852682358024" lon="9.473008130497828"><ele>743.4000000000001</ele><time>2026-03-27T13:58:21.999Z</time></trkpt><trkpt lat="44.78377814209465" lon="9.472927440418424"><ele>745.2</ele><time>2026-03-27T13:58:22.999Z</time></trkpt><trkpt lat="44.78368174992097" lon="9.472878326980638"><ele>747.0</ele><time>2026-03-27T13:58:23.999Z</time></trkpt><trkpt lat="44.78357889735255" lon="9.472859921289109"><ele>749.0</ele><time>2026-03-27T13:58:24.999Z</time></trkpt><trkpt lat="44.78347599804282" lon="9.4728606271778"><ele>751.0</ele><time>2026-03-27T13:58:25.999Z</time></trkpt><trkpt lat="44.78337306487573" lon="9.47288876472064"><ele>753.0</ele><time>2026-03-27T13:58:26.999Z</time></trkpt><trkpt lat="44.78327389149566" lon="9.472917689479981"><ele>755.0</ele><time>2026-03-27T13:58:27.999Z</time></trkpt><trkpt lat="44.78317877477155" lon="9.47295667043846"><ele>757.0</ele><time>2026-03-27T13:58:28.999Z</time></trkpt><trkpt lat="44.783091265886945" lon="9.473015382056598"><ele>757.0</ele><time>2026-03-27T13:58:29.999Z</time></trkpt><trkpt lat="44.78301237721865" lon="9.473110749470852"><ele>757.0</ele><time>2026-03-27T13:58:30.999Z</time></trkpt><trkpt lat="44.78294824615345" lon="9.473232220483707"><ele>757.0</ele><time>2026-03-27T13:58:31.999Z</time></trkpt><trkpt lat="44.78289146424795" lon="9.473325416733717"><ele>757.0</ele><time>2026-03-27T13:58:32.999Z</time></trkpt><trkpt lat="44.782842444157374" lon="9.473388371749989"><ele>757.0</ele><time>2026-03-27T13:58:33.999Z</time></trkpt><trkpt lat="44.782757378185046" lon="9.473490165966144"><ele>757.0</ele><time>2026-03-27T13:58:36Z</time></trkpt><trkpt lat="44.78269413238104" lon="9.473556427688775"><ele>757.0</ele><time>2026-03-27T13:58:38Z</time></trkpt><trkpt lat="44.78261812247962" lon="9.473448155519947"><ele>757.0</ele><time>2026-03-27T13:58:40Z</time></trkpt><trkpt lat="44.78256892087745" lon="9.473369954855679"><ele>757.0</ele><time>2026-03-27T13:58:41Z</time></trkpt><trkpt lat="44.78252853687455" lon="9.473257160704858"><ele>757.0</ele><time>2026-03-27T13:58:42Z</time></trkpt><trkpt lat="44.7824925459066" lon="9.473127461583084"><ele>758.8</ele><time>2026-03-27T13:58:43Z</time></trkpt><trkpt lat="44.782482955779905" lon="9.47299869239639"><ele>760.6</ele><time>2026-03-27T13:58:44Z</time></trkpt><trkpt lat="44.78250217132967" lon="9.472884145041947"><ele>762.4</ele><time>2026-03-27T13:58:45Z</time></trkpt><trkpt lat="44.78256112328066" lon="9.472768781808863"><ele>764.1999999999999</ele><time>2026-03-27T13:58:46Z</time></trkpt><trkpt lat="44.7826316157393" lon="9.472642987327339"><ele>766.0</ele><time>2026-03-27T13:58:47Z</time></trkpt><trkpt lat="44.782685115608956" lon="9.472516769494476"><ele>766.0</ele><time>2026-03-27T13:58:48Z</time></trkpt><trkpt lat="44.78272050694325" lon="9.472388380641577"><ele>766.0</ele><time>2026-03-27T13:58:49Z</time></trkpt><trkpt lat="44.78276089698248" lon="9.472254544352817"><ele>766.0</ele><time>2026-03-27T13:58:50Z</time></trkpt><trkpt lat="44.78281169888878" lon="9.472130465666142"><ele>766.0</ele><time>2026-03-27T13:58:51Z</time></trkpt><trkpt lat="44.78285441099681" lon="9.47201501021378"><ele>766.0</ele><time>2026-03-27T13:58:52Z</time></trkpt><trkpt lat="44.782879127678534" lon="9.471875198935146"><ele>768.4</ele><time>2026-03-27T13:58:53Z</time></trkpt><trkpt lat="44.782871293952724" lon="9.471717391224997"><ele>770.8</ele><time>2026-03-27T13:58:54Z</time></trkpt><trkpt lat="44.7828582825988" lon="9.471547745277771"><ele>773.1999999999999</ele><time>2026-03-27T13:58:55Z</time></trkpt><trkpt lat="44.782858112251034" lon="9.471391886509485"><ele>775.5999999999999</ele><time>2026-03-27T13:58:56Z</time></trkpt><trkpt lat="44.782864924788115" lon="9.471271262000016"><ele>778.0</ele><time>2026-03-27T13:58:57Z</time></trkpt><trkpt lat="44.78290931772056" lon="9.471171924639043"><ele>779.9999999999999</ele><time>2026-03-27T13:58:58Z</time></trkpt><trkpt lat="44.782982044035556" lon="9.47112088344673"><ele>782.0</ele><time>2026-03-27T13:58:59Z</time></trkpt><trkpt lat="44.783062883573805" lon="9.471126163026119"><ele>784.0</ele><time>2026-03-27T13:59:00Z</time></trkpt><trkpt lat="44.783151622238684" lon="9.471100781599574"><ele>786.0</ele><time>2026-03-27T13:59:01Z</time></trkpt><trkpt lat="44.7832145407282" lon="9.471017361941486"><ele>787.9999999999999</ele><time>2026-03-27T13:59:02Z</time></trkpt><trkpt lat="44.783262146849395" lon="9.470929780094174"><ele>790.0</ele><time>2026-03-27T13:59:03Z</time></trkpt><trkpt lat="44.78328742138336" lon="9.470816564222172"><ele>790.0</ele><time>2026-03-27T13:59:04Z</time></trkpt><trkpt lat="44.78329194783358" lon="9.47071115684522"><ele>790.0</ele><time>2026-03-27T13:59:05Z</time></trkpt><trkpt lat="44.78323329512851" lon="9.470505174659964"><ele>790.0</ele><time>2026-03-27T13:59:06Z</time></trkpt><trkpt lat="44.783224189494106" lon="9.470359213118199"><ele>790.0</ele><time>2026-03-27T13:59:07Z</time></trkpt><trkpt lat="44.78325343833249" lon="9.4702110822621"><ele>790.0</ele><time>2026-03-27T13:59:08Z</time></trkpt><trkpt lat="44.78329874922097" lon="9.470045067545117"><ele>792.5</ele><time>2026-03-27T13:59:09Z</time></trkpt><trkpt lat="44.78335993035872" lon="9.469885227373961"><ele>795.0</ele><time>2026-03-27T13:59:10Z</time></trkpt><trkpt lat="44.783418403155686" lon="9.469755560000399"><ele>797.5</ele><time>2026-03-27T13:59:11Z</time></trkpt><trkpt lat="44.78346563687761" lon="9.469610787371817"><ele>800.0</ele><time>2026-03-27T13:59:12Z</time></trkpt><trkpt lat="44.78347992819276" lon="9.469472382483275"><ele>801.0</ele><time>2026-03-27T13:59:13Z</time></trkpt><trkpt lat="44.78348928872668" lon="9.469345792056673"><ele>802.0</ele><time>2026-03-27T13:59:14Z</time></trkpt><trkpt lat="44.78348573594868" lon="9.469215935326764"><ele>803.0</ele><time>2026-03-27T13:59:15Z</time></trkpt><trkpt lat="44.78347655408386" lon="9.469085089086294"><ele>804.0</ele><time>2026-03-27T13:59:16Z</time></trkpt><trkpt lat="44.78342860273842" lon="9.468959377111732"><ele>805.0</ele><time>2026-03-27T13:59:17Z</time></trkpt><trkpt lat="44.78334498543302" lon="9.468861417403572"><ele>806.25</ele><time>2026-03-27T13:59:18Z</time></trkpt><trkpt lat="44.78327107641774" lon="9.46875481494489"><ele>807.5</ele><time>2026-03-27T13:59:19Z</time></trkpt><trkpt lat="44.78317166358796" lon="9.468636153219162"><ele>808.75</ele><time>2026-03-27T13:59:20Z</time></trkpt><trkpt lat="44.78306045622089" lon="9.468491464117868"><ele>810.0</ele><time>2026-03-27T13:59:21Z</time></trkpt><trkpt lat="44.78296719668481" lon="9.468326957246868"><ele>810.0</ele><time>2026-03-27T13:59:22Z</time></trkpt><trkpt lat="44.78287117032161" lon="9.468171893131572"><ele>810.0</ele><time>2026-03-27T13:59:23Z</time></trkpt><trkpt lat="44.78277653961853" lon="9.468016681876021"><ele>810.0</ele><time>2026-03-27T13:59:24Z</time></trkpt><trkpt lat="44.78268836463404" lon="9.467928117663586"><ele>810.0</ele><time>2026-03-27T13:59:25Z</time></trkpt><trkpt lat="44.78261156027119" lon="9.467791474640912"><ele>812.0</ele><time>2026-03-27T13:59:26Z</time></trkpt><trkpt lat="44.78254920675129" lon="9.467660133173005"><ele>814.0</ele><time>2026-03-27T13:59:27Z</time></trkpt><trkpt lat="44.78253190886028" lon="9.467518358336342"><ele>816.0</ele><time>2026-03-27T13:59:28Z</time></trkpt><trkpt lat="44.78253431855261" lon="9.467389504383823"><ele>818.0</ele><time>2026-03-27T13:59:29Z</time></trkpt><trkpt lat="44.78257549354373" lon="9.46727692754265"><ele>820.0</ele><time>2026-03-27T13:59:30Z</time></trkpt><trkpt lat="44.78261057686728" lon="9.46712866949743"><ele>822.75</ele><time>2026-03-27T13:59:31Z</time></trkpt><trkpt lat="44.782643211534065" lon="9.466960183526213"><ele>825.5</ele><time>2026-03-27T13:59:32Z</time></trkpt><trkpt lat="44.782685098578675" lon="9.466784292111802"><ele>828.25</ele><time>2026-03-27T13:59:33Z</time></trkpt><trkpt lat="44.78272140080479" lon="9.466611800876544"><ele>831.0</ele><time>2026-03-27T13:59:34Z</time></trkpt><trkpt lat="44.7827452845305" lon="9.466439235636138"><ele>833.75</ele><time>2026-03-27T13:59:35Z</time></trkpt><trkpt lat="44.78275156256824" lon="9.46625327767391"><ele>836.5</ele><time>2026-03-27T13:59:36Z</time></trkpt><trkpt lat="44.78275115658207" lon="9.466070296739383"><ele>839.25</ele><time>2026-03-27T13:59:37Z</time></trkpt><trkpt lat="44.782753892328316" lon="9.465892246760292"><ele>842.0</ele><time>2026-03-27T13:59:38Z</time></trkpt><trkpt lat="44.78275599143041" lon="9.465735065902397"><ele>842.0</ele><time>2026-03-27T13:59:39Z</time></trkpt><trkpt lat="44.782745871498136" lon="9.465584191565304"><ele>842.0</ele><time>2026-03-27T13:59:40Z</time></trkpt><trkpt lat="44.78271516558773" lon="9.46542256915518"><ele>842.0</ele><time>2026-03-27T13:59:41Z</time></trkpt><trkpt lat="44.78266995234148" lon="9.465263236386876"><ele>842.0</ele><time>2026-03-27T13:59:42Z</time></trkpt><trkpt lat="44.782629924953795" lon="9.465103697994158"><ele>842.0</ele><time>2026-03-27T13:59:43Z</time></trkpt><trkpt lat="44.78259517133106" lon="9.46492878919663"><ele>842.0</ele><time>2026-03-27T13:59:44Z</time></trkpt><trkpt lat="44.7825760125365" lon="9.464749025711694"><ele>842.0</ele><time>2026-03-27T13:59:45Z</time></trkpt><trkpt lat="44.782552081519626" lon="9.464562968643895"><ele>842.0</ele><time>2026-03-27T13:59:46Z</time></trkpt><trkpt lat="44.782526360557576" lon="9.46437563634831"><ele>842.25</ele><time>2026-03-27T13:59:47Z</time></trkpt><trkpt lat="44.78250216820106" lon="9.464176672142665"><ele>842.5</ele><time>2026-03-27T13:59:48Z</time></trkpt><trkpt lat="44.78248167437941" lon="9.463980895907163"><ele>842.75</ele><time>2026-03-27T13:59:49Z</time></trkpt><trkpt lat="44.78246212601545" lon="9.463810505087952"><ele>843.0</ele><time>2026-03-27T13:59:50Z</time></trkpt><trkpt lat="44.782438994254825" lon="9.463682802143927"><ele>843.0</ele><time>2026-03-27T13:59:51Z</time></trkpt><trkpt lat="44.78239681033234" lon="9.463582604360044"><ele>843.0</ele><time>2026-03-27T13:59:52Z</time></trkpt><trkpt lat="44.78232300203573" lon="9.463505268574645"><ele>843.0</ele><time>2026-03-27T13:59:53Z</time></trkpt><trkpt lat="44.78223209068117" lon="9.4634541027233"><ele>843.0</ele><time>2026-03-27T13:59:54Z</time></trkpt><trkpt lat="44.78212804037697" lon="9.463373009923277"><ele>843.0</ele><time>2026-03-27T13:59:55Z</time></trkpt><trkpt lat="44.78200710044005" lon="9.463299936270984"><ele>843.0</ele><time>2026-03-27T13:59:56Z</time></trkpt><trkpt lat="44.781877465539466" lon="9.463223217376719"><ele>843.0</ele><time>2026-03-27T13:59:57Z</time></trkpt><trkpt lat="44.78174760732448" lon="9.463146366458922"><ele>843.0</ele><time>2026-03-27T13:59:58Z</time></trkpt><trkpt lat="44.78163051341615" lon="9.463077069465434"><ele>843.0</ele><time>2026-03-27T13:59:59Z</time></trkpt><trkpt lat="44.78150875781532" lon="9.46300500738236"><ele>844.25</ele><time>2026-03-27T14:00:00Z</time></trkpt><trkpt lat="44.7813888634078" lon="9.462920590548057"><ele>845.5</ele><time>2026-03-27T14:00:01Z</time></trkpt><trkpt lat="44.78126152935893" lon="9.46281631503533"><ele>846.75</ele><time>2026-03-27T14:00:02Z</time></trkpt><trkpt lat="44.781131082293406" lon="9.462715587393099"><ele>848.0</ele><time>2026-03-27T14:00:03Z</time></trkpt><trkpt lat="44.78099961482603" lon="9.462616730061193"><ele>851.5</ele><time>2026-03-27T14:00:04Z</time></trkpt><trkpt lat="44.78087467540624" lon="9.4625215838554"><ele>855.0</ele><time>2026-03-27T14:00:05Z</time></trkpt><trkpt lat="44.78075368405669" lon="9.462427389128012"><ele>858.5</ele><time>2026-03-27T14:00:06Z</time></trkpt><trkpt lat="44.780638954988305" lon="9.462325919026913"><ele>862.0</ele><time>2026-03-27T14:00:07Z</time></trkpt><trkpt lat="44.78052855346759" lon="9.462209899829503"><ele>860.5</ele><time>2026-03-27T14:00:08Z</time></trkpt><trkpt lat="44.78042108313627" lon="9.46209102914729"><ele>859.0</ele><time>2026-03-27T14:00:09Z</time></trkpt><trkpt lat="44.78031435874756" lon="9.461973600946175"><ele>857.5</ele><time>2026-03-27T14:00:10Z</time></trkpt><trkpt lat="44.78020869651768" lon="9.461863919948275"><ele>856.0</ele><time>2026-03-27T14:00:11Z</time></trkpt><trkpt lat="44.780144315407796" lon="9.461696540802293"><ele>860.5</ele><time>2026-03-27T14:00:12Z</time></trkpt><trkpt lat="44.78007013435298" lon="9.461524118721744"><ele>865.0</ele><time>2026-03-27T14:00:13Z</time></trkpt><trkpt lat="44.77997063412776" lon="9.461379130320182"><ele>869.5</ele><time>2026-03-27T14:00:14Z</time></trkpt><trkpt lat="44.77986997196904" lon="9.461234459976094"><ele>874.0</ele><time>2026-03-27T14:00:15Z</time></trkpt><trkpt lat="44.77976826018676" lon="9.46108663311916"><ele>874.5</ele><time>2026-03-27T14:00:16Z</time></trkpt><trkpt lat="44.77966109822896" lon="9.460938646641013"><ele>875.0</ele><time>2026-03-27T14:00:17Z</time></trkpt><trkpt lat="44.77956143970678" lon="9.460791563351641"><ele>875.5</ele><time>2026-03-27T14:00:18Z</time></trkpt><trkpt lat="44.779470982434304" lon="9.460642048743257"><ele>876.0</ele><time>2026-03-27T14:00:19Z</time></trkpt><trkpt lat="44.77939358346094" lon="9.460480768868466"><ele>878.5</ele><time>2026-03-27T14:00:20Z</time></trkpt><trkpt lat="44.77932728230354" lon="9.460309090030375"><ele>881.0</ele><time>2026-03-27T14:00:21Z</time></trkpt><trkpt lat="44.7792538113894" lon="9.460139181398585"><ele>883.5</ele><time>2026-03-27T14:00:22Z</time></trkpt><trkpt lat="44.779166790555614" lon="9.459981332021204"><ele>886.0</ele><time>2026-03-27T14:00:23Z</time></trkpt><trkpt lat="44.7790771742186" lon="9.459846912329985"><ele>886.0</ele><time>2026-03-27T14:00:24Z</time></trkpt><trkpt lat="44.77899776807195" lon="9.45971121973936"><ele>886.0</ele><time>2026-03-27T14:00:25Z</time></trkpt><trkpt lat="44.77893468064493" lon="9.459560448544638"><ele>886.0</ele><time>2026-03-27T14:00:26Z</time></trkpt><trkpt lat="44.77888807176895" lon="9.45938258111804"><ele>886.0</ele><time>2026-03-27T14:00:27Z</time></trkpt><trkpt lat="44.77885582723797" lon="9.459201724499946"><ele>885.4</ele><time>2026-03-27T14:00:28Z</time></trkpt><trkpt lat="44.77883322944501" lon="9.45904603682133"><ele>884.8</ele><time>2026-03-27T14:00:29Z</time></trkpt><trkpt lat="44.778803997006044" lon="9.45891295203814"><ele>884.1999999999999</ele><time>2026-03-27T14:00:30Z</time></trkpt><trkpt lat="44.77878629981932" lon="9.458799086395373"><ele>883.5999999999999</ele><time>2026-03-27T14:00:31Z</time></trkpt><trkpt lat="44.778766789045825" lon="9.458701308902398"><ele>883.0</ele><time>2026-03-27T14:00:32Z</time></trkpt><trkpt lat="44.7786240251783" lon="9.458648665650308"><ele>882.5</ele><time>2026-03-27T14:00:32.999Z</time></trkpt><trkpt lat="44.77852190045906" lon="9.458565314281874"><ele>882.0</ele><time>2026-03-27T14:00:33.999Z</time></trkpt><trkpt lat="44.778402123871764" lon="9.458468373286026"><ele>881.5</ele><time>2026-03-27T14:00:34.999Z</time></trkpt><trkpt lat="44.77827412079256" lon="9.458362268355778"><ele>881.0</ele><time>2026-03-27T14:00:35.999Z</time></trkpt><trkpt lat="44.778137553855295" lon="9.458249946304157"><ele>882.3333333333334</ele><time>2026-03-27T14:00:36.999Z</time></trkpt><trkpt lat="44.778020406535" lon="9.458088193982098"><ele>883.6666666666667</ele><time>2026-03-27T14:00:37.999Z</time></trkpt><trkpt lat="44.77789184748674" lon="9.457957209204286"><ele>885.0</ele><time>2026-03-27T14:00:38.999Z</time></trkpt><trkpt lat="44.77776452694775" lon="9.457854581420888"><ele>883.25</ele><time>2026-03-27T14:00:39.999Z</time></trkpt><trkpt lat="44.77766395472447" lon="9.457725729517975"><ele>881.5</ele><time>2026-03-27T14:00:41Z</time></trkpt><trkpt lat="44.77756051678581" lon="9.45762181921664"><ele>879.75</ele><time>2026-03-27T14:00:42Z</time></trkpt><trkpt lat="44.77746370028381" lon="9.457557341267387"><ele>878.0</ele><time>2026-03-27T14:00:43Z</time></trkpt><trkpt lat="44.77737298226563" lon="9.457497360692876"><ele>878.0</ele><time>2026-03-27T14:00:44Z</time></trkpt><trkpt lat="44.7772901286732" lon="9.457473038195111"><ele>878.0</ele><time>2026-03-27T14:00:45Z</time></trkpt><trkpt lat="44.777202165907454" lon="9.45741962422972"><ele>878.0</ele><time>2026-03-27T14:00:46Z</time></trkpt><trkpt lat="44.77710270179399" lon="9.45737100017041"><ele>878.0</ele><time>2026-03-27T14:00:47Z</time></trkpt><trkpt lat="44.7769976456438" lon="9.457299883550148"><ele>878.0</ele><time>2026-03-27T14:00:48Z</time></trkpt><trkpt lat="44.776877429041036" lon="9.457217176571278"><ele>879.0</ele><time>2026-03-27T14:00:49Z</time></trkpt><trkpt lat="44.77675596883362" lon="9.45713382228825"><ele>880.0</ele><time>2026-03-27T14:00:50Z</time></trkpt><trkpt lat="44.7766477258024" lon="9.45704187149948"><ele>881.0</ele><time>2026-03-27T14:00:51Z</time></trkpt><trkpt lat="44.77655592954344" lon="9.456928473866196"><ele>882.0</ele><time>2026-03-27T14:00:52Z</time></trkpt><trkpt lat="44.77646483984844" lon="9.456807882842169"><ele>880.4000000000001</ele><time>2026-03-27T14:00:53Z</time></trkpt><trkpt lat="44.776372917205684" lon="9.45670054203097"><ele>878.8000000000001</ele><time>2026-03-27T14:00:54Z</time></trkpt><trkpt lat="44.77631742721006" lon="9.456564683599678"><ele>877.2</ele><time>2026-03-27T14:00:55Z</time></trkpt><trkpt lat="44.77629358499165" lon="9.456414566483405"><ele>875.6</ele><time>2026-03-27T14:00:56Z</time></trkpt><trkpt lat="44.77627665099677" lon="9.45626210011247"><ele>874.0</ele><time>2026-03-27T14:00:57Z</time></trkpt><trkpt lat="44.77626121572391" lon="9.45610854231686"><ele>873.2</ele><time>2026-03-27T14:00:58Z</time></trkpt><trkpt lat="44.77626999795119" lon="9.455963970233228"><ele>872.4000000000001</ele><time>2026-03-27T14:00:59Z</time></trkpt><trkpt lat="44.776278545550824" lon="9.455828719170347"><ele>871.6</ele><time>2026-03-27T14:01:00Z</time></trkpt><trkpt lat="44.77628242348128" lon="9.455693736927321"><ele>870.8</ele><time>2026-03-27T14:01:01Z</time></trkpt><trkpt lat="44.776284905233865" lon="9.455549568269893"><ele>870.0</ele><time>2026-03-27T14:01:02Z</time></trkpt><trkpt lat="44.776233926349946" lon="9.45540884170572"><ele>869.0</ele><time>2026-03-27T14:01:03Z</time></trkpt><trkpt lat="44.77617318605525" lon="9.455275513704503"><ele>868.0</ele><time>2026-03-27T14:01:04Z</time></trkpt><trkpt lat="44.776113387970966" lon="9.455127087655532"><ele>867.0</ele><time>2026-03-27T14:01:05Z</time></trkpt><trkpt lat="44.77603936528885" lon="9.454999655571688"><ele>866.0</ele><time>2026-03-27T14:01:06Z</time></trkpt><trkpt lat="44.775973037302" lon="9.454869001737261"><ele>868.0</ele><time>2026-03-27T14:01:07Z</time></trkpt><trkpt lat="44.77589821941553" lon="9.454742158836046"><ele>869.9999999999999</ele><time>2026-03-27T14:01:08Z</time></trkpt><trkpt lat="44.77585179365028" lon="9.454598032264343"><ele>871.9999999999999</ele><time>2026-03-27T14:01:09Z</time></trkpt><trkpt lat="44.77581359292942" lon="9.454465534097368"><ele>874.0</ele><time>2026-03-27T14:01:10Z</time></trkpt><trkpt lat="44.775775429831434" lon="9.45434380803491"><ele>876.0</ele><time>2026-03-27T14:01:11Z</time></trkpt><trkpt lat="44.775742520834825" lon="9.454246358860175"><ele>876.4</ele><time>2026-03-27T14:01:12Z</time></trkpt><trkpt lat="44.77568929797195" lon="9.454101209926312"><ele>876.8</ele><time>2026-03-27T14:01:14Z</time></trkpt><trkpt lat="44.775646206147094" lon="9.453983840528522"><ele>877.1999999999999</ele><time>2026-03-27T14:01:16Z</time></trkpt><trkpt lat="44.77553546277832" lon="9.453978229624363"><ele>877.5999999999999</ele><time>2026-03-27T14:01:17Z</time></trkpt><trkpt lat="44.775449725201405" lon="9.45403389520843"><ele>878.0</ele><time>2026-03-27T14:01:18Z</time></trkpt><trkpt lat="44.77536193152892" lon="9.454085458540161"><ele>878.0</ele><time>2026-03-27T14:01:19Z</time></trkpt><trkpt lat="44.7752701754525" lon="9.454145919460252"><ele>878.0</ele><time>2026-03-27T14:01:20Z</time></trkpt><trkpt lat="44.77517264118941" lon="9.454219269336514"><ele>878.0</ele><time>2026-03-27T14:01:21Z</time></trkpt><trkpt lat="44.775079919924295" lon="9.454283454471337"><ele>878.0</ele><time>2026-03-27T14:01:22Z</time></trkpt><trkpt lat="44.77499863463451" lon="9.454330301281098"><ele>878.0</ele><time>2026-03-27T14:01:23Z</time></trkpt><trkpt lat="44.77492563800084" lon="9.45435705379954"><ele>880.0000000000001</ele><time>2026-03-27T14:01:24Z</time></trkpt><trkpt lat="44.774854444475146" lon="9.45436554377539"><ele>882.0</ele><time>2026-03-27T14:01:25Z</time></trkpt><trkpt lat="44.77479587992116" lon="9.45433035904303"><ele>884.0</ele><time>2026-03-27T14:01:26Z</time></trkpt><trkpt lat="44.77471434917781" lon="9.454201264262839"><ele>886.0</ele><time>2026-03-27T14:01:28Z</time></trkpt><trkpt lat="44.774691202635545" lon="9.45408987648143"><ele>888.0000000000001</ele><time>2026-03-27T14:01:29Z</time></trkpt><trkpt lat="44.77464517568788" lon="9.454006554295177"><ele>890.0</ele><time>2026-03-27T14:01:30Z</time></trkpt><trkpt lat="44.77457430966672" lon="9.453929151743807"><ele>890.0</ele><time>2026-03-27T14:01:31Z</time></trkpt><trkpt lat="44.774468399367194" lon="9.453890804978252"><ele>890.0</ele><time>2026-03-27T14:01:32Z</time></trkpt><trkpt lat="44.77437796422695" lon="9.453847327159844"><ele>890.0</ele><time>2026-03-27T14:01:33Z</time></trkpt><trkpt lat="44.77429425944053" lon="9.453784749858627"><ele>890.0</ele><time>2026-03-27T14:01:34Z</time></trkpt><trkpt lat="44.77425631289589" lon="9.453646574343779"><ele>890.0</ele><time>2026-03-27T14:01:35Z</time></trkpt><trkpt lat="44.774201150548365" lon="9.453544881333613"><ele>892.0</ele><time>2026-03-27T14:01:36Z</time></trkpt><trkpt lat="44.77413358352708" lon="9.453457478682388"><ele>894.0</ele><time>2026-03-27T14:01:37Z</time></trkpt><trkpt lat="44.77404672171181" lon="9.453385973370885"><ele>896.0</ele><time>2026-03-27T14:01:38Z</time></trkpt><trkpt lat="44.773941030050416" lon="9.453321011636115"><ele>898.0</ele><time>2026-03-27T14:01:39Z</time></trkpt><trkpt lat="44.77384699633205" lon="9.45326853479956"><ele>900.0</ele><time>2026-03-27T14:01:40Z</time></trkpt><trkpt lat="44.773753643302726" lon="9.45320651827116"><ele>900.0</ele><time>2026-03-27T14:01:41Z</time></trkpt><trkpt lat="44.77366539836595" lon="9.453116677329337"><ele>900.0</ele><time>2026-03-27T14:01:42Z</time></trkpt><trkpt lat="44.773597475297215" lon="9.452982522622014"><ele>900.0</ele><time>2026-03-27T14:01:43Z</time></trkpt><trkpt lat="44.77351775403449" lon="9.452843963121012"><ele>900.0</ele><time>2026-03-27T14:01:44Z</time></trkpt><trkpt lat="44.77341805809209" lon="9.45272076456688"><ele>902.25</ele><time>2026-03-27T14:01:45Z</time></trkpt><trkpt lat="44.7733237113595" lon="9.452581498195295"><ele>904.5</ele><time>2026-03-27T14:01:46Z</time></trkpt><trkpt lat="44.77323844090611" lon="9.452425083546887"><ele>906.75</ele><time>2026-03-27T14:01:47Z</time></trkpt><trkpt lat="44.773140795637325" lon="9.452292376353665"><ele>909.0</ele><time>2026-03-27T14:01:48Z</time></trkpt><trkpt lat="44.773040813007476" lon="9.452176544281325"><ele>907.25</ele><time>2026-03-27T14:01:49Z</time></trkpt><trkpt lat="44.77294964831253" lon="9.452061795120555"><ele>905.5</ele><time>2026-03-27T14:01:50Z</time></trkpt><trkpt lat="44.77286220843094" lon="9.451946003301398"><ele>903.75</ele><time>2026-03-27T14:01:51Z</time></trkpt><trkpt lat="44.77277344935194" lon="9.451836787644218"><ele>902.0</ele><time>2026-03-27T14:01:52Z</time></trkpt><trkpt lat="44.772717117047556" lon="9.451696888775881"><ele>907.25</ele><time>2026-03-27T14:01:53Z</time></trkpt><trkpt lat="44.77268929775993" lon="9.451539214284724"><ele>912.5</ele><time>2026-03-27T14:01:54Z</time></trkpt><trkpt lat="44.77267166161651" lon="9.451371363299401"><ele>917.75</ele><time>2026-03-27T14:01:55Z</time></trkpt><trkpt lat="44.77265194278414" lon="9.451194799626368"><ele>923.0</ele><time>2026-03-27T14:01:56Z</time></trkpt><trkpt lat="44.77262520561548" lon="9.45101780544799"><ele>923.5</ele><time>2026-03-27T14:01:57Z</time></trkpt><trkpt lat="44.77259226516378" lon="9.450838091090624"><ele>924.0</ele><time>2026-03-27T14:01:58Z</time></trkpt><trkpt lat="44.77256322866268" lon="9.450654978779363"><ele>924.5</ele><time>2026-03-27T14:01:59Z</time></trkpt><trkpt lat="44.77253394555257" lon="9.450473155420124"><ele>925.0</ele><time>2026-03-27T14:02:00Z</time></trkpt><trkpt lat="44.772536991942054" lon="9.450299120450655"><ele>926.0</ele><time>2026-03-27T14:02:01Z</time></trkpt><trkpt lat="44.77255287379113" lon="9.450139733761715"><ele>927.0</ele><time>2026-03-27T14:02:02Z</time></trkpt><trkpt lat="44.77256399527367" lon="9.449966698311437"><ele>928.0</ele><time>2026-03-27T14:02:03Z</time></trkpt><trkpt lat="44.77257027025906" lon="9.449785356043007"><ele>929.0</ele><time>2026-03-27T14:02:04Z</time></trkpt><trkpt lat="44.77256154094396" lon="9.44959726736437"><ele>929.8000000000001</ele><time>2026-03-27T14:02:05Z</time></trkpt><trkpt lat="44.77255367203044" lon="9.449426664391853"><ele>930.6000000000001</ele><time>2026-03-27T14:02:06Z</time></trkpt><trkpt lat="44.77254399156625" lon="9.449282649419844"><ele>931.4</ele><time>2026-03-27T14:02:07Z</time></trkpt><trkpt lat="44.772520028601825" lon="9.449165886498985"><ele>932.2</ele><time>2026-03-27T14:02:08Z</time></trkpt><trkpt lat="44.77246738350824" lon="9.44909759500797"><ele>933.0</ele><time>2026-03-27T14:02:09Z</time></trkpt><trkpt lat="44.77240687416031" lon="9.449035199331089"><ele>933.0</ele><time>2026-03-27T14:02:10Z</time></trkpt><trkpt lat="44.77231906016795" lon="9.449001242698836"><ele>933.0</ele><time>2026-03-27T14:02:11Z</time></trkpt><trkpt lat="44.77221569278096" lon="9.449007737045317"><ele>933.0</ele><time>2026-03-27T14:02:12Z</time></trkpt><trkpt lat="44.7720996701987" lon="9.449029798473155"><ele>933.0</ele><time>2026-03-27T14:02:13Z</time></trkpt><trkpt lat="44.771981379335244" lon="9.449089619726085"><ele>933.0</ele><time>2026-03-27T14:02:14Z</time></trkpt><trkpt lat="44.771875425292784" lon="9.449176778501378"><ele>932.1666666666666</ele><time>2026-03-27T14:02:15Z</time></trkpt><trkpt lat="44.771787266136336" lon="9.449281584113857"><ele>931.3333333333333</ele><time>2026-03-27T14:02:16Z</time></trkpt><trkpt lat="44.771712560478136" lon="9.449371749170124"><ele>930.5</ele><time>2026-03-27T14:02:17Z</time></trkpt><trkpt lat="44.771641269092605" lon="9.449414377083597"><ele>929.6666666666666</ele><time>2026-03-27T14:02:18Z</time></trkpt><trkpt lat="44.77156375576453" lon="9.4494111945727"><ele>928.8333333333333</ele><time>2026-03-27T14:02:19Z</time></trkpt><trkpt lat="44.771492645946736" lon="9.449382547378148"><ele>928.0</ele><time>2026-03-27T14:02:20Z</time></trkpt><trkpt lat="44.77140691657986" lon="9.449357653307285"><ele>928.0</ele><time>2026-03-27T14:02:21Z</time></trkpt><trkpt lat="44.77130823585549" lon="9.449354450684092"><ele>928.0</ele><time>2026-03-27T14:02:22Z</time></trkpt><trkpt lat="44.771204278426815" lon="9.449397826746768"><ele>928.0</ele><time>2026-03-27T14:02:23Z</time></trkpt><trkpt lat="44.7711047507708" lon="9.449460369153055"><ele>928.0</ele><time>2026-03-27T14:02:24Z</time></trkpt><trkpt lat="44.77101619976633" lon="9.449516436649928"><ele>928.0</ele><time>2026-03-27T14:02:25Z</time></trkpt><trkpt lat="44.77093585205499" lon="9.449560554786334"><ele>926.2</ele><time>2026-03-27T14:02:26Z</time></trkpt><trkpt lat="44.77084749701965" lon="9.449584044164334"><ele>924.4</ele><time>2026-03-27T14:02:27Z</time></trkpt><trkpt lat="44.77074831095823" lon="9.4495940017414"><ele>922.6000000000001</ele><time>2026-03-27T14:02:28Z</time></trkpt><trkpt lat="44.77065223327643" lon="9.449603793497614"><ele>920.8000000000001</ele><time>2026-03-27T14:02:29Z</time></trkpt><trkpt lat="44.77056239653506" lon="9.449598164512167"><ele>919.0</ele><time>2026-03-27T14:02:30Z</time></trkpt><trkpt lat="44.770471095943904" lon="9.449579187495685"><ele>919.0</ele><time>2026-03-27T14:02:31Z</time></trkpt><trkpt lat="44.77037622816571" lon="9.449543801106344"><ele>919.0000000000001</ele><time>2026-03-27T14:02:32Z</time></trkpt><trkpt lat="44.770281871333076" lon="9.449522844779976"><ele>919.0000000000001</ele><time>2026-03-27T14:02:33Z</time></trkpt><trkpt lat="44.770184757562916" lon="9.44954732086483"><ele>919.0</ele><time>2026-03-27T14:02:34Z</time></trkpt><trkpt lat="44.77008235442436" lon="9.449553117147133"><ele>919.0</ele><time>2026-03-27T14:02:35Z</time></trkpt><trkpt lat="44.76997380689734" lon="9.449542046868402"><ele>918.8000000000001</ele><time>2026-03-27T14:02:36Z</time></trkpt><trkpt lat="44.76986508653655" lon="9.449516333819401"><ele>918.6000000000001</ele><time>2026-03-27T14:02:36.999Z</time></trkpt><trkpt lat="44.76976342278578" lon="9.449487505299635"><ele>918.4</ele><time>2026-03-27T14:02:37.999Z</time></trkpt><trkpt lat="44.76967955396296" lon="9.449424447142563"><ele>918.2</ele><time>2026-03-27T14:02:38.999Z</time></trkpt><trkpt lat="44.769615361797506" lon="9.449348820147195"><ele>918.0</ele><time>2026-03-27T14:02:39.999Z</time></trkpt><trkpt lat="44.769556985965906" lon="9.449261121696791"><ele>918.0</ele><time>2026-03-27T14:02:40.999Z</time></trkpt><trkpt lat="44.76951726128725" lon="9.449152637791133"><ele>918.0</ele><time>2026-03-27T14:02:41.999Z</time></trkpt><trkpt lat="44.76948885504906" lon="9.44904405116923"><ele>918.0</ele><time>2026-03-27T14:02:42.999Z</time></trkpt><trkpt lat="44.76946737922409" lon="9.448935044295926"><ele>918.0</ele><time>2026-03-27T14:02:43.999Z</time></trkpt><trkpt lat="44.76942064036191" lon="9.448846245743361"><ele>918.0</ele><time>2026-03-27T14:02:44.999Z</time></trkpt><trkpt lat="44.76935584064936" lon="9.44876910527044"><ele>918.0</ele><time>2026-03-27T14:02:46Z</time></trkpt><trkpt lat="44.76927236298257" lon="9.448694457678068"><ele>917.2</ele><time>2026-03-27T14:02:47Z</time></trkpt><trkpt lat="44.76917272561342" lon="9.448650108458102"><ele>916.4</ele><time>2026-03-27T14:02:48Z</time></trkpt><trkpt lat="44.76907234588563" lon="9.448613947222695"><ele>915.6000000000001</ele><time>2026-03-27T14:02:49Z</time></trkpt><trkpt lat="44.76896667282909" lon="9.448554968851454"><ele>914.8000000000001</ele><time>2026-03-27T14:02:50Z</time></trkpt><trkpt lat="44.768861977277226" lon="9.44847699386509"><ele>914.0</ele><time>2026-03-27T14:02:51Z</time></trkpt><trkpt lat="44.768762285463055" lon="9.448384566254239"><ele>914.0</ele><time>2026-03-27T14:02:52Z</time></trkpt><trkpt lat="44.76866926858135" lon="9.448317898711608"><ele>914.0000000000001</ele><time>2026-03-27T14:02:53Z</time></trkpt><trkpt lat="44.76857005647811" lon="9.448270087183932"><ele>914.0000000000001</ele><time>2026-03-27T14:02:54Z</time></trkpt><trkpt lat="44.76847529256054" lon="9.448200595490537"><ele>914.0</ele><time>2026-03-27T14:02:55Z</time></trkpt><trkpt lat="44.76839025860181" lon="9.448110900351097"><ele>914.0</ele><time>2026-03-27T14:02:56Z</time></trkpt><trkpt lat="44.768309471159995" lon="9.448020960014022"><ele>912.6</ele><time>2026-03-27T14:02:57Z</time></trkpt><trkpt lat="44.7682379880274" lon="9.447929476849035"><ele>911.2</ele><time>2026-03-27T14:02:58Z</time></trkpt><trkpt lat="44.768170894505495" lon="9.44782389033409"><ele>909.8000000000001</ele><time>2026-03-27T14:02:59Z</time></trkpt><trkpt lat="44.76811100362067" lon="9.447705963337402"><ele>908.4000000000001</ele><time>2026-03-27T14:03:00Z</time></trkpt><trkpt lat="44.76806000294565" lon="9.44757858941555"><ele>907.0</ele><time>2026-03-27T14:03:01Z</time></trkpt><trkpt lat="44.76801187187144" lon="9.447445495791097"><ele>907.0</ele><time>2026-03-27T14:03:02Z</time></trkpt><trkpt lat="44.76795488783462" lon="9.447312760906255"><ele>907.0</ele><time>2026-03-27T14:03:03Z</time></trkpt><trkpt lat="44.76789901441209" lon="9.44717659609473"><ele>907.0</ele><time>2026-03-27T14:03:04Z</time></trkpt><trkpt lat="44.767844861908046" lon="9.447046580135895"><ele>907.0</ele><time>2026-03-27T14:03:05Z</time></trkpt><trkpt lat="44.76779367605195" lon="9.446924861505591"><ele>907.0</ele><time>2026-03-27T14:03:06Z</time></trkpt><trkpt lat="44.76775064149392" lon="9.446809015898213"><ele>908.0</ele><time>2026-03-27T14:03:07Z</time></trkpt><trkpt lat="44.76771043108717" lon="9.446692011866553"><ele>909.0</ele><time>2026-03-27T14:03:08Z</time></trkpt><trkpt lat="44.76767461768138" lon="9.446584892222116"><ele>910.0</ele><time>2026-03-27T14:03:09Z</time></trkpt><trkpt lat="44.76763731174109" lon="9.446478594541407"><ele>911.0</ele><time>2026-03-27T14:03:10Z</time></trkpt><trkpt lat="44.76758340658296" lon="9.446381526403618"><ele>912.0</ele><time>2026-03-27T14:03:11Z</time></trkpt><trkpt lat="44.76749824482279" lon="9.446298152641186"><ele>909.0</ele><time>2026-03-27T14:03:12Z</time></trkpt><trkpt lat="44.76740303652519" lon="9.446195596810721"><ele>906.0</ele><time>2026-03-27T14:03:13Z</time></trkpt><trkpt lat="44.76730729882048" lon="9.446114196672484"><ele>903.0</ele><time>2026-03-27T14:03:14Z</time></trkpt><trkpt lat="44.767228280498216" lon="9.446027430664083"><ele>900.0</ele><time>2026-03-27T14:03:15Z</time></trkpt><trkpt lat="44.76716760785202" lon="9.445927642594622"><ele>897.0</ele><time>2026-03-27T14:03:16Z</time></trkpt><trkpt lat="44.767110692444334" lon="9.44580414366018"><ele>897.0</ele><time>2026-03-27T14:03:17Z</time></trkpt><trkpt lat="44.76705491001387" lon="9.445667630902134"><ele>897.0</ele><time>2026-03-27T14:03:18Z</time></trkpt><trkpt lat="44.76697062309814" lon="9.445547481606042"><ele>897.0</ele><time>2026-03-27T14:03:19Z</time></trkpt><trkpt lat="44.766898232754514" lon="9.44541349319185"><ele>897.0</ele><time>2026-03-27T14:03:20Z</time></trkpt><trkpt lat="44.7668405069472" lon="9.445257051960755"><ele>897.4000000000001</ele><time>2026-03-27T14:03:21Z</time></trkpt><trkpt lat="44.7667591939443" lon="9.445125139677545"><ele>897.8000000000001</ele><time>2026-03-27T14:03:22Z</time></trkpt><trkpt lat="44.766679201849215" lon="9.445007330912581"><ele>898.2</ele><time>2026-03-27T14:03:23Z</time></trkpt><trkpt lat="44.76660503488984" lon="9.444899845387745"><ele>898.6</ele><time>2026-03-27T14:03:24Z</time></trkpt><trkpt lat="44.766535695314985" lon="9.444799355868728"><ele>899.0</ele><time>2026-03-27T14:03:25Z</time></trkpt><trkpt lat="44.76647415387463" lon="9.444709411121092"><ele>896.6666666666667</ele><time>2026-03-27T14:03:26Z</time></trkpt><trkpt lat="44.7664257952687" lon="9.444617729688817"><ele>894.3333333333334</ele><time>2026-03-27T14:03:27Z</time></trkpt><trkpt lat="44.76638702759483" lon="9.444509447286233"><ele>892.0</ele><time>2026-03-27T14:03:28Z</time></trkpt><trkpt lat="44.76638499776267" lon="9.444383300667347"><ele>889.6666666666667</ele><time>2026-03-27T14:03:29Z</time></trkpt><trkpt lat="44.76635850309275" lon="9.444281739866236"><ele>887.3333333333334</ele><time>2026-03-27T14:03:30Z</time></trkpt><trkpt lat="44.76631094825396" lon="9.444176960822698"><ele>885.0</ele><time>2026-03-27T14:03:31Z</time></trkpt><trkpt lat="44.76621310014301" lon="9.444105566434208"><ele>885.0</ele><time>2026-03-27T14:03:32Z</time></trkpt><trkpt lat="44.76612143516908" lon="9.44399570646251"><ele>885.0</ele><time>2026-03-27T14:03:33Z</time></trkpt><trkpt lat="44.76601575920626" lon="9.443912355820421"><ele>885.0</ele><time>2026-03-27T14:03:34Z</time></trkpt><trkpt lat="44.76590981202852" lon="9.443836977667434"><ele>885.0</ele><time>2026-03-27T14:03:35Z</time></trkpt><trkpt lat="44.76581081075597" lon="9.443777663538997"><ele>883.6</ele><time>2026-03-27T14:03:36Z</time></trkpt><trkpt lat="44.76570391516993" lon="9.443744582698459"><ele>882.2</ele><time>2026-03-27T14:03:37Z</time></trkpt><trkpt lat="44.76559721181981" lon="9.44372846133721"><ele>880.8</ele><time>2026-03-27T14:03:38Z</time></trkpt><trkpt lat="44.765484313503336" lon="9.443725522707881"><ele>879.4</ele><time>2026-03-27T14:03:39Z</time></trkpt><trkpt lat="44.76536947742358" lon="9.443746398516891"><ele>878.0</ele><time>2026-03-27T14:03:40Z</time></trkpt><trkpt lat="44.76524997976635" lon="9.443770639319371"><ele>875.75</ele><time>2026-03-27T14:03:41Z</time></trkpt><trkpt lat="44.76512780283059" lon="9.443792690219368"><ele>873.5</ele><time>2026-03-27T14:03:42Z</time></trkpt><trkpt lat="44.76500443793888" lon="9.443807402675036"><ele>871.25</ele><time>2026-03-27T14:03:43Z</time></trkpt><trkpt lat="44.76487858081847" lon="9.443819686634228"><ele>869.0</ele><time>2026-03-27T14:03:44Z</time></trkpt><trkpt lat="44.764759436608344" lon="9.44382797149562"><ele>873.6</ele><time>2026-03-27T14:03:45Z</time></trkpt><trkpt lat="44.76464778520558" lon="9.443835228999045"><ele>878.2</ele><time>2026-03-27T14:03:46Z</time></trkpt><trkpt lat="44.76454092520352" lon="9.44384135158078"><ele>882.8000000000001</ele><time>2026-03-27T14:03:47Z</time></trkpt><trkpt lat="44.76443194714861" lon="9.443860660391962"><ele>887.4000000000001</ele><time>2026-03-27T14:03:48Z</time></trkpt><trkpt lat="44.764316491200645" lon="9.44387739054247"><ele>892.0</ele><time>2026-03-27T14:03:49Z</time></trkpt><trkpt lat="44.764200133660516" lon="9.443890334592338"><ele>892.0</ele><time>2026-03-27T14:03:50Z</time></trkpt><trkpt lat="44.76407905893014" lon="9.443914003594049"><ele>892.0</ele><time>2026-03-27T14:03:51Z</time></trkpt><trkpt lat="44.76395573632652" lon="9.44394902349741"><ele>892.0</ele><time>2026-03-27T14:03:52Z</time></trkpt><trkpt lat="44.763833018074365" lon="9.443984320803175"><ele>892.0</ele><time>2026-03-27T14:03:53Z</time></trkpt><trkpt lat="44.763712054826264" lon="9.444023152530628"><ele>892.0</ele><time>2026-03-27T14:03:54Z</time></trkpt><trkpt lat="44.76359224429848" lon="9.444065569110837"><ele>892.0</ele><time>2026-03-27T14:03:55Z</time></trkpt><trkpt lat="44.76348013222594" lon="9.444106275494812"><ele>892.0</ele><time>2026-03-27T14:03:56Z</time></trkpt><trkpt lat="44.763379676245" lon="9.444147156644393"><ele>892.0</ele><time>2026-03-27T14:03:57Z</time></trkpt><trkpt lat="44.763283398902374" lon="9.444191597923414"><ele>892.0</ele><time>2026-03-27T14:03:58Z</time></trkpt><trkpt lat="44.76318990797058" lon="9.444235449260189"><ele>890.6666666666666</ele><time>2026-03-27T14:03:59Z</time></trkpt><trkpt lat="44.76309927016264" lon="9.444273054020126"><ele>889.3333333333333</ele><time>2026-03-27T14:04:00Z</time></trkpt><trkpt lat="44.76301715460592" lon="9.444306571605843"><ele>888.0</ele><time>2026-03-27T14:04:01Z</time></trkpt><trkpt lat="44.76293608675093" lon="9.44431094074656"><ele>886.6666666666667</ele><time>2026-03-27T14:04:02Z</time></trkpt><trkpt lat="44.76285964735756" lon="9.444305581223201"><ele>885.3333333333334</ele><time>2026-03-27T14:04:03Z</time></trkpt><trkpt lat="44.7628108518284" lon="9.444237874941873"><ele>884.0</ele><time>2026-03-27T14:04:04Z</time></trkpt><trkpt lat="44.76279138036037" lon="9.44414958406386"><ele>884.0</ele><time>2026-03-27T14:04:05Z</time></trkpt><trkpt lat="44.76276701567306" lon="9.444049078347064"><ele>884.0000000000001</ele><time>2026-03-27T14:04:06Z</time></trkpt><trkpt lat="44.76274804521829" lon="9.44392749424062"><ele>884.0000000000001</ele><time>2026-03-27T14:04:07Z</time></trkpt><trkpt lat="44.7627306747895" lon="9.44378652373129"><ele>884.0</ele><time>2026-03-27T14:04:08Z</time></trkpt><trkpt lat="44.762724242763326" lon="9.44363676927387"><ele>884.0</ele><time>2026-03-27T14:04:09Z</time></trkpt><trkpt lat="44.762700537809216" lon="9.443515525764616"><ele>883.2</ele><time>2026-03-27T14:04:10Z</time></trkpt><trkpt lat="44.76259673194155" lon="9.443404351537037"><ele>882.4000000000001</ele><time>2026-03-27T14:04:12Z</time></trkpt><trkpt lat="44.762520388578615" lon="9.443429156126186"><ele>881.6</ele><time>2026-03-27T14:04:13Z</time></trkpt><trkpt lat="44.76241792311487" lon="9.44351432036482"><ele>880.8</ele><time>2026-03-27T14:04:15Z</time></trkpt><trkpt lat="44.76238038766717" lon="9.443602074317813"><ele>880.0</ele><time>2026-03-27T14:04:16Z</time></trkpt><trkpt lat="44.76233396971734" lon="9.443697466861469"><ele>881.4999999999999</ele><time>2026-03-27T14:04:17Z</time></trkpt><trkpt lat="44.762270601913656" lon="9.443812523551776"><ele>883.0</ele><time>2026-03-27T14:04:18Z</time></trkpt><trkpt lat="44.76221228778432" lon="9.443915147840002"><ele>884.5</ele><time>2026-03-27T14:04:19Z</time></trkpt><trkpt lat="44.76215183499193" lon="9.4439861185629"><ele>886.0</ele><time>2026-03-27T14:04:20Z</time></trkpt><trkpt lat="44.762101028569454" lon="9.444067239691554"><ele>887.4999999999999</ele><time>2026-03-27T14:04:21Z</time></trkpt><trkpt lat="44.76206719878268" lon="9.444148377546654"><ele>889.0</ele><time>2026-03-27T14:04:22Z</time></trkpt><trkpt lat="44.76198054847493" lon="9.444224931612078"><ele>889.0</ele><time>2026-03-27T14:04:24Z</time></trkpt><trkpt lat="44.7618905487373" lon="9.444193053351274"><ele>889.0000000000001</ele><time>2026-03-27T14:04:26Z</time></trkpt><trkpt lat="44.76188322170261" lon="9.444041129832515"><ele>889.0000000000001</ele><time>2026-03-27T14:04:28Z</time></trkpt><trkpt lat="44.76189103321041" lon="9.443930559724786"><ele>889.0</ele><time>2026-03-27T14:04:29Z</time></trkpt><trkpt lat="44.76187496249838" lon="9.44379341255993"><ele>889.0</ele><time>2026-03-27T14:04:30Z</time></trkpt><trkpt lat="44.761824581417265" lon="9.443652802707609"><ele>886.5</ele><time>2026-03-27T14:04:31Z</time></trkpt><trkpt lat="44.76177356770348" lon="9.443525836117576"><ele>884.0</ele><time>2026-03-27T14:04:32Z</time></trkpt><trkpt lat="44.761699387110156" lon="9.443392901378319"><ele>881.5</ele><time>2026-03-27T14:04:33Z</time></trkpt><trkpt lat="44.76160988883172" lon="9.443255177161658"><ele>879.0</ele><time>2026-03-27T14:04:34Z</time></trkpt><trkpt lat="44.76151870513797" lon="9.44310459779399"><ele>876.25</ele><time>2026-03-27T14:04:35Z</time></trkpt><trkpt lat="44.76145469870417" lon="9.44292504145524"><ele>873.5</ele><time>2026-03-27T14:04:36Z</time></trkpt><trkpt lat="44.7613711205367" lon="9.442773808951568"><ele>870.75</ele><time>2026-03-27T14:04:37Z</time></trkpt><trkpt lat="44.761277070846354" lon="9.44267030585637"><ele>868.0</ele><time>2026-03-27T14:04:38Z</time></trkpt><trkpt lat="44.76121410170256" lon="9.442563810250832"><ele>867.9999999999999</ele><time>2026-03-27T14:04:39Z</time></trkpt><trkpt lat="44.761174602029904" lon="9.442478789146671"><ele>868.0</ele><time>2026-03-27T14:04:40Z</time></trkpt><trkpt lat="44.76109592328398" lon="9.4423647763954"><ele>868.0</ele><time>2026-03-27T14:04:42Z</time></trkpt><trkpt lat="44.76101696519426" lon="9.442381809218851"><ele>868.0</ele><time>2026-03-27T14:04:43Z</time></trkpt><trkpt lat="44.76094564569127" lon="9.442355940603912"><ele>867.9999999999999</ele><time>2026-03-27T14:04:43.999Z</time></trkpt><trkpt lat="44.760883481419235" lon="9.442334390359218"><ele>868.0</ele><time>2026-03-27T14:04:44.999Z</time></trkpt><trkpt lat="44.76083308692171" lon="9.442209194314712"><ele>865.1666666666666</ele><time>2026-03-27T14:04:46.999Z</time></trkpt><trkpt lat="44.76081769483158" lon="9.442087985146204"><ele>862.3333333333333</ele><time>2026-03-27T14:04:48.999Z</time></trkpt><trkpt lat="44.760872934054696" lon="9.442045306917327"><ele>859.5</ele><time>2026-03-27T14:04:49.999Z</time></trkpt><trkpt lat="44.76091320867171" lon="9.441969902417174"><ele>856.6666666666667</ele><time>2026-03-27T14:04:51Z</time></trkpt><trkpt lat="44.76094839545414" lon="9.441872673066136"><ele>853.8333333333334</ele><time>2026-03-27T14:04:52Z</time></trkpt><trkpt lat="44.76099876440667" lon="9.441781428635917"><ele>851.0</ele><time>2026-03-27T14:04:53Z</time></trkpt><trkpt lat="44.76103928100655" lon="9.441696105403272"><ele>851.0</ele><time>2026-03-27T14:04:54Z</time></trkpt><trkpt lat="44.761074447014266" lon="9.441606863770547"><ele>851.0</ele><time>2026-03-27T14:04:55Z</time></trkpt><trkpt lat="44.761046975344705" lon="9.44147857341367"><ele>851.0</ele><time>2026-03-27T14:04:56Z</time></trkpt><trkpt lat="44.761028690109036" lon="9.441344268294866"><ele>851.0</ele><time>2026-03-27T14:04:57Z</time></trkpt><trkpt lat="44.761011682261675" lon="9.441206015588927"><ele>851.0</ele><time>2026-03-27T14:04:58Z</time></trkpt><trkpt lat="44.760994035782076" lon="9.441079642100833"><ele>848.5999999999999</ele><time>2026-03-27T14:04:59Z</time></trkpt><trkpt lat="44.76098372419259" lon="9.44095169823498"><ele>846.2</ele><time>2026-03-27T14:05:00Z</time></trkpt><trkpt lat="44.760995743979606" lon="9.440823047141953"><ele>843.8</ele><time>2026-03-27T14:05:01Z</time></trkpt><trkpt lat="44.76102615005569" lon="9.440702991913682"><ele>841.4000000000001</ele><time>2026-03-27T14:05:02Z</time></trkpt><trkpt lat="44.761071714602224" lon="9.440589077630335"><ele>839.0</ele><time>2026-03-27T14:05:03Z</time></trkpt><trkpt lat="44.761114001044604" lon="9.440475704648133"><ele>838.0000000000001</ele><time>2026-03-27T14:05:04Z</time></trkpt><trkpt lat="44.761150659685136" lon="9.440369400254797"><ele>837.0</ele><time>2026-03-27T14:05:05Z</time></trkpt><trkpt lat="44.76119248606151" lon="9.440260309364712"><ele>836.0</ele><time>2026-03-27T14:05:06Z</time></trkpt><trkpt lat="44.761212660801164" lon="9.44013669231144"><ele>835.0</ele><time>2026-03-27T14:05:07Z</time></trkpt><trkpt lat="44.76122800188895" lon="9.44002377096532"><ele>834.0000000000001</ele><time>2026-03-27T14:05:08Z</time></trkpt><trkpt lat="44.76121484426535" lon="9.43991260128151"><ele>833.0</ele><time>2026-03-27T14:05:09Z</time></trkpt><trkpt lat="44.76116244764221" lon="9.439829228603903"><ele>833.0000000000001</ele><time>2026-03-27T14:05:10Z</time></trkpt><trkpt lat="44.76109196164583" lon="9.439747926296462"><ele>833.0</ele><time>2026-03-27T14:05:11Z</time></trkpt><trkpt lat="44.76102284005272" lon="9.439661807466196"><ele>833.0</ele><time>2026-03-27T14:05:12Z</time></trkpt><trkpt lat="44.76100093256306" lon="9.439549007369871"><ele>833.0</ele><time>2026-03-27T14:05:13Z</time></trkpt><trkpt lat="44.76099805906656" lon="9.439425603558162"><ele>833.0000000000001</ele><time>2026-03-27T14:05:14Z</time></trkpt><trkpt lat="44.761008091666135" lon="9.439303100976948"><ele>833.0</ele><time>2026-03-27T14:05:15Z</time></trkpt><trkpt lat="44.76101430316596" lon="9.439165395452962"><ele>840.2</ele><time>2026-03-27T14:05:16Z</time></trkpt><trkpt lat="44.76102107888915" lon="9.439013452883676"><ele>847.4</ele><time>2026-03-27T14:05:17Z</time></trkpt><trkpt lat="44.76101877893395" lon="9.438851596388412"><ele>854.6000000000001</ele><time>2026-03-27T14:05:18Z</time></trkpt><trkpt lat="44.76102558626305" lon="9.438698153873982"><ele>861.8000000000001</ele><time>2026-03-27T14:05:19Z</time></trkpt><trkpt lat="44.761024739542265" lon="9.438553750295332"><ele>869.0</ele><time>2026-03-27T14:05:20Z</time></trkpt><trkpt lat="44.76101148691321" lon="9.438423950407019"><ele>869.0</ele><time>2026-03-27T14:05:21Z</time></trkpt><trkpt lat="44.7609820457976" lon="9.43829961438043"><ele>869.0000000000001</ele><time>2026-03-27T14:05:22Z</time></trkpt><trkpt lat="44.76095464254843" lon="9.438160840429815"><ele>869.0000000000001</ele><time>2026-03-27T14:05:23Z</time></trkpt><trkpt lat="44.76093151590144" lon="9.438012008325817"><ele>869.0</ele><time>2026-03-27T14:05:24Z</time></trkpt><trkpt lat="44.76090783557912" lon="9.437861161109119"><ele>869.0</ele><time>2026-03-27T14:05:25Z</time></trkpt><trkpt lat="44.76091712596361" lon="9.437709028741358"><ele>869.0</ele><time>2026-03-27T14:05:26Z</time></trkpt><trkpt lat="44.76093200447151" lon="9.437559258023748"><ele>869.0000000000001</ele><time>2026-03-27T14:05:27Z</time></trkpt><trkpt lat="44.76094995623117" lon="9.43741059266452"><ele>869.0000000000001</ele><time>2026-03-27T14:05:28Z</time></trkpt><trkpt lat="44.7609603597358" lon="9.437275033355476"><ele>869.0</ele><time>2026-03-27T14:05:29Z</time></trkpt><trkpt lat="44.76093456990443" lon="9.43714321921428"><ele>869.0</ele><time>2026-03-27T14:05:30Z</time></trkpt><trkpt lat="44.76089991136174" lon="9.437019702082173"><ele>869.75</ele><time>2026-03-27T14:05:31Z</time></trkpt><trkpt lat="44.76083788012465" lon="9.436897725299957"><ele>870.5</ele><time>2026-03-27T14:05:32Z</time></trkpt><trkpt lat="44.76075863014782" lon="9.436768264268483"><ele>871.25</ele><time>2026-03-27T14:05:33Z</time></trkpt><trkpt lat="44.76067671838787" lon="9.436628955782268"><ele>872.0</ele><time>2026-03-27T14:05:34Z</time></trkpt><trkpt lat="44.76059984469671" lon="9.436474743148384"><ele>872.0</ele><time>2026-03-27T14:05:35Z</time></trkpt><trkpt lat="44.760518868230804" lon="9.436325999509654"><ele>872.0</ele><time>2026-03-27T14:05:36Z</time></trkpt><trkpt lat="44.76046345506636" lon="9.436166173713103"><ele>872.0</ele><time>2026-03-27T14:05:37Z</time></trkpt><trkpt lat="44.76039739142215" lon="9.436032743618856"><ele>872.0</ele><time>2026-03-27T14:05:38Z</time></trkpt><trkpt lat="44.760341985797496" lon="9.435895808879016"><ele>872.25</ele><time>2026-03-27T14:05:39Z</time></trkpt><trkpt lat="44.76028324624071" lon="9.435756097153416"><ele>872.5</ele><time>2026-03-27T14:05:40Z</time></trkpt><trkpt lat="44.76021469488952" lon="9.435621166321253"><ele>872.75</ele><time>2026-03-27T14:05:41Z</time></trkpt><trkpt lat="44.76013515417394" lon="9.435497422495486"><ele>873.0</ele><time>2026-03-27T14:05:42Z</time></trkpt><trkpt lat="44.76005893906832" lon="9.435380617282094"><ele>871.4</ele><time>2026-03-27T14:05:43Z</time></trkpt><trkpt lat="44.759983245781804" lon="9.43528403752458"><ele>869.8</ele><time>2026-03-27T14:05:44Z</time></trkpt><trkpt lat="44.75989925602477" lon="9.435215657016668"><ele>868.2</ele><time>2026-03-27T14:05:45Z</time></trkpt><trkpt lat="44.75980275024663" lon="9.435173894704752"><ele>866.6</ele><time>2026-03-27T14:05:46Z</time></trkpt><trkpt lat="44.75968488716361" lon="9.435157653203337"><ele>865.0</ele><time>2026-03-27T14:05:47Z</time></trkpt><trkpt lat="44.75956408778236" lon="9.435149986006564"><ele>865.0</ele><time>2026-03-27T14:05:48Z</time></trkpt><trkpt lat="44.759448265114315" lon="9.435124159046124"><ele>865.0</ele><time>2026-03-27T14:05:49Z</time></trkpt><trkpt lat="44.75934778317472" lon="9.43504306423319"><ele>865.0</ele><time>2026-03-27T14:05:50Z</time></trkpt><trkpt lat="44.759243756850154" lon="9.434973705439377"><ele>865.0</ele><time>2026-03-27T14:05:51Z</time></trkpt><trkpt lat="44.75914003382327" lon="9.434901725650612"><ele>863.6</ele><time>2026-03-27T14:05:52Z</time></trkpt><trkpt lat="44.7590486945552" lon="9.434834366252577"><ele>862.2</ele><time>2026-03-27T14:05:53Z</time></trkpt><trkpt lat="44.75896741574009" lon="9.434767787063993"><ele>860.8</ele><time>2026-03-27T14:05:54Z</time></trkpt><trkpt lat="44.75890009004898" lon="9.434687548351022"><ele>859.4</ele><time>2026-03-27T14:05:55Z</time></trkpt><trkpt lat="44.75885636458347" lon="9.4345833860122"><ele>858.0</ele><time>2026-03-27T14:05:56Z</time></trkpt><trkpt lat="44.75881971093616" lon="9.4344463551103"><ele>856.0</ele><time>2026-03-27T14:05:57Z</time></trkpt><trkpt lat="44.75877867834889" lon="9.434285709191881"><ele>854.0</ele><time>2026-03-27T14:05:58Z</time></trkpt><trkpt lat="44.758732540076736" lon="9.434121082025255"><ele>852.0</ele><time>2026-03-27T14:05:59Z</time></trkpt><trkpt lat="44.75866356304064" lon="9.433976578282865"><ele>850.0</ele><time>2026-03-27T14:06:00Z</time></trkpt><trkpt lat="44.75859786067271" lon="9.433837615399144"><ele>849.0</ele><time>2026-03-27T14:06:01Z</time></trkpt><trkpt lat="44.75850953690787" lon="9.433715369095987"><ele>848.0</ele><time>2026-03-27T14:06:02Z</time></trkpt><trkpt lat="44.758428245497086" lon="9.43357936702585"><ele>847.0</ele><time>2026-03-27T14:06:03Z</time></trkpt><trkpt lat="44.758325324792274" lon="9.433466898011746"><ele>846.0</ele><time>2026-03-27T14:06:04Z</time></trkpt><trkpt lat="44.75823113532089" lon="9.43333514108739"><ele>846.0</ele><time>2026-03-27T14:06:05Z</time></trkpt><trkpt lat="44.75813278817653" lon="9.433213760336802"><ele>846.0</ele><time>2026-03-27T14:06:06Z</time></trkpt><trkpt lat="44.75802871274137" lon="9.433110487792248"><ele>846.0</ele><time>2026-03-27T14:06:07Z</time></trkpt><trkpt lat="44.75792300339722" lon="9.433028790710402"><ele>846.0</ele><time>2026-03-27T14:06:08Z</time></trkpt><trkpt lat="44.75781003662332" lon="9.432976286361368"><ele>847.5</ele><time>2026-03-27T14:06:09Z</time></trkpt><trkpt lat="44.7576928828432" lon="9.432951266799378"><ele>849.0</ele><time>2026-03-27T14:06:10Z</time></trkpt><trkpt lat="44.757571358784475" lon="9.43295377701877"><ele>850.5</ele><time>2026-03-27T14:06:11Z</time></trkpt><trkpt lat="44.75744402645168" lon="9.432972366440325"><ele>852.0</ele><time>2026-03-27T14:06:12Z</time></trkpt><trkpt lat="44.757312962064994" lon="9.43300600000508"><ele>852.0</ele><time>2026-03-27T14:06:13Z</time></trkpt><trkpt lat="44.757191222894136" lon="9.433044015886235"><ele>852.0</ele><time>2026-03-27T14:06:14Z</time></trkpt><trkpt lat="44.757073148797545" lon="9.433070150697969"><ele>852.0</ele><time>2026-03-27T14:06:15Z</time></trkpt><trkpt lat="44.75695781338593" lon="9.433040593991532"><ele>852.0</ele><time>2026-03-27T14:06:16Z</time></trkpt><trkpt lat="44.75684631882365" lon="9.433012078223422"><ele>854.75</ele><time>2026-03-27T14:06:17Z</time></trkpt><trkpt lat="44.75673118074672" lon="9.432965402936643"><ele>857.5</ele><time>2026-03-27T14:06:18Z</time></trkpt><trkpt lat="44.75662495249232" lon="9.432900637456669"><ele>860.25</ele><time>2026-03-27T14:06:19Z</time></trkpt><trkpt lat="44.756521177793815" lon="9.43281598049512"><ele>863.0</ele><time>2026-03-27T14:06:20Z</time></trkpt><trkpt lat="44.756421042277026" lon="9.43270976128002"><ele>863.0</ele><time>2026-03-27T14:06:21Z</time></trkpt><trkpt lat="44.75632552959841" lon="9.432579540239256"><ele>863.0</ele><time>2026-03-27T14:06:22Z</time></trkpt><trkpt lat="44.75622621800768" lon="9.432439180116821"><ele>863.0</ele><time>2026-03-27T14:06:23Z</time></trkpt><trkpt lat="44.756123170121796" lon="9.432282036926658"><ele>863.0</ele><time>2026-03-27T14:06:24Z</time></trkpt><trkpt lat="44.756019976927256" lon="9.432108956342985"><ele>864.75</ele><time>2026-03-27T14:06:25Z</time></trkpt><trkpt lat="44.75591479495393" lon="9.431935720007305"><ele>866.5</ele><time>2026-03-27T14:06:26Z</time></trkpt><trkpt lat="44.755807475403785" lon="9.431793817430291"><ele>868.25</ele><time>2026-03-27T14:06:27Z</time></trkpt><trkpt lat="44.75573602345324" lon="9.431636757028878"><ele>870.0</ele><time>2026-03-27T14:06:28Z</time></trkpt><trkpt lat="44.75565769380152" lon="9.431496814409346"><ele>870.0</ele><time>2026-03-27T14:06:29Z</time></trkpt><trkpt lat="44.75558674528644" lon="9.43135527491029"><ele>870.0</ele><time>2026-03-27T14:06:30Z</time></trkpt><trkpt lat="44.75553005805292" lon="9.431198741125792"><ele>870.0</ele><time>2026-03-27T14:06:31Z</time></trkpt><trkpt lat="44.75547671567325" lon="9.431031200130338"><ele>870.0</ele><time>2026-03-27T14:06:32Z</time></trkpt><trkpt lat="44.75542596552635" lon="9.430868825300463"><ele>869.0</ele><time>2026-03-27T14:06:33Z</time></trkpt><trkpt lat="44.75537544171927" lon="9.430700798502967"><ele>868.0</ele><time>2026-03-27T14:06:34Z</time></trkpt><trkpt lat="44.755323258099686" lon="9.430539312488337"><ele>867.0</ele><time>2026-03-27T14:06:35Z</time></trkpt><trkpt lat="44.75526785969183" lon="9.43039516874603"><ele>866.0</ele><time>2026-03-27T14:06:36Z</time></trkpt><trkpt lat="44.75521363016573" lon="9.430280702018075"><ele>866.4</ele><time>2026-03-27T14:06:37Z</time></trkpt><trkpt lat="44.755144559204304" lon="9.430185469548311"><ele>866.8</ele><time>2026-03-27T14:06:38Z</time></trkpt><trkpt lat="44.75505305234153" lon="9.4301262618276"><ele>867.1999999999999</ele><time>2026-03-27T14:06:39Z</time></trkpt><trkpt lat="44.75495070580891" lon="9.430078758616792"><ele>867.5999999999999</ele><time>2026-03-27T14:06:40Z</time></trkpt><trkpt lat="44.75484537113113" lon="9.430012920872425"><ele>868.0</ele><time>2026-03-27T14:06:41Z</time></trkpt><trkpt lat="44.75473243032228" lon="9.429962053027952"><ele>868.0</ele><time>2026-03-27T14:06:42Z</time></trkpt><trkpt lat="44.75461932238091" lon="9.429913204699933"><ele>868.0</ele><time>2026-03-27T14:06:43Z</time></trkpt><trkpt lat="44.75452166883498" lon="9.42987117731128"><ele>868.0</ele><time>2026-03-27T14:06:44Z</time></trkpt><trkpt lat="44.7544391152586" lon="9.42983236570843"><ele>868.0</ele><time>2026-03-27T14:06:45Z</time></trkpt><trkpt lat="44.75436257555253" lon="9.429792122618244"><ele>868.0</ele><time>2026-03-27T14:06:46Z</time></trkpt><trkpt lat="44.75429676633229" lon="9.429728334941636"><ele>869.0</ele><time>2026-03-27T14:06:47Z</time></trkpt><trkpt lat="44.75423336412706" lon="9.429641593141927"><ele>870.0</ele><time>2026-03-27T14:06:48Z</time></trkpt><trkpt lat="44.75418558651773" lon="9.429522666753973"><ele>871.0</ele><time>2026-03-27T14:06:49Z</time></trkpt><trkpt lat="44.75411882654301" lon="9.429405387257361"><ele>872.0</ele><time>2026-03-27T14:06:50Z</time></trkpt><trkpt lat="44.75406880286341" lon="9.429268708095494"><ele>873.0</ele><time>2026-03-27T14:06:50.999Z</time></trkpt><trkpt lat="44.75403213309921" lon="9.429133060853795"><ele>873.0</ele><time>2026-03-27T14:06:51.999Z</time></trkpt><trkpt lat="44.75397956021357" lon="9.42902718222373"><ele>873.0</ele><time>2026-03-27T14:06:52.999Z</time></trkpt><trkpt lat="44.75390760647271" lon="9.428968576221997"><ele>873.0</ele><time>2026-03-27T14:06:53.999Z</time></trkpt><trkpt lat="44.75383686255516" lon="9.428917442440365"><ele>873.0</ele><time>2026-03-27T14:06:54.999Z</time></trkpt><trkpt lat="44.753752436367535" lon="9.42885817564078"><ele>873.0</ele><time>2026-03-27T14:06:55.999Z</time></trkpt><trkpt lat="44.75365347965856" lon="9.428830808996201"><ele>873.0</ele><time>2026-03-27T14:06:57Z</time></trkpt><trkpt lat="44.753563364887775" lon="9.428809460414204"><ele>873.0</ele><time>2026-03-27T14:06:58Z</time></trkpt><trkpt lat="44.75348289845994" lon="9.428792052521644"><ele>873.0</ele><time>2026-03-27T14:06:59Z</time></trkpt><trkpt lat="44.75338456600748" lon="9.42878671159474"><ele>873.0</ele><time>2026-03-27T14:07:01Z</time></trkpt><trkpt lat="44.75333916285063" lon="9.428723588185182"><ele>873.0</ele><time>2026-03-27T14:07:03Z</time></trkpt><trkpt lat="44.75334539075269" lon="9.428891834829283"><ele>874.0</ele><time>2026-03-27T14:07:07Z</time></trkpt><trkpt lat="44.753293925263485" lon="9.428962289376354"><ele>875.0</ele><time>2026-03-27T14:07:16Z</time></trkpt><trkpt lat="44.75329976352203" lon="9.429152313930214"><ele>876.0</ele><time>2026-03-27T14:07:18Z</time></trkpt><trkpt lat="44.75329496798524" lon="9.42924688530605"><ele>877.0</ele><time>2026-03-27T14:07:19Z</time></trkpt><trkpt lat="44.75328968227766" lon="9.429352902523771"><ele>878.0</ele><time>2026-03-27T14:07:20Z</time></trkpt><trkpt lat="44.753279762091154" lon="9.429479270739144"><ele>879.0</ele><time>2026-03-27T14:07:21Z</time></trkpt><trkpt lat="44.75325892588091" lon="9.429621020641099"><ele>880.2</ele><time>2026-03-27T14:07:22Z</time></trkpt><trkpt lat="44.753221431124636" lon="9.429752589762533"><ele>881.4000000000001</ele><time>2026-03-27T14:07:23Z</time></trkpt><trkpt lat="44.75316643183667" lon="9.429862534130137"><ele>882.6</ele><time>2026-03-27T14:07:24Z</time></trkpt><trkpt lat="44.75309715854896" lon="9.429979078462415"><ele>883.8</ele><time>2026-03-27T14:07:25Z</time></trkpt><trkpt lat="44.75301606915335" lon="9.430097854539392"><ele>885.0</ele><time>2026-03-27T14:07:26Z</time></trkpt><trkpt lat="44.75296990280523" lon="9.430265132564497"><ele>885.0</ele><time>2026-03-27T14:07:27Z</time></trkpt><trkpt lat="44.752902098500364" lon="9.430397740615131"><ele>885.0</ele><time>2026-03-27T14:07:28Z</time></trkpt><trkpt lat="44.75284997101073" lon="9.4305190188057"><ele>885.0</ele><time>2026-03-27T14:07:29Z</time></trkpt><trkpt lat="44.752793999142895" lon="9.430629803956828"><ele>885.0</ele><time>2026-03-27T14:07:30Z</time></trkpt><trkpt lat="44.75272882425764" lon="9.430738753700206"><ele>885.0</ele><time>2026-03-27T14:07:31Z</time></trkpt><trkpt lat="44.75265639064213" lon="9.430860123163733"><ele>888.0</ele><time>2026-03-27T14:07:32Z</time></trkpt><trkpt lat="44.75259565578749" lon="9.431009340655983"><ele>891.0</ele><time>2026-03-27T14:07:33Z</time></trkpt><trkpt lat="44.75253021953247" lon="9.431164369027062"><ele>894.0</ele><time>2026-03-27T14:07:34Z</time></trkpt><trkpt lat="44.75247833131357" lon="9.431324696016807"><ele>897.0</ele><time>2026-03-27T14:07:35Z</time></trkpt><trkpt lat="44.752432762592754" lon="9.431467357844346"><ele>897.0</ele><time>2026-03-27T14:07:36Z</time></trkpt><trkpt lat="44.75239690922401" lon="9.43160339306468"><ele>897.0</ele><time>2026-03-27T14:07:37Z</time></trkpt><trkpt lat="44.75232609374094" lon="9.431721919796315"><ele>897.0</ele><time>2026-03-27T14:07:38Z</time></trkpt><trkpt lat="44.752258785313806" lon="9.431848827301089"><ele>897.0</ele><time>2026-03-27T14:07:39Z</time></trkpt><trkpt lat="44.75219694925714" lon="9.431998620146668"><ele>897.0</ele><time>2026-03-27T14:07:40Z</time></trkpt><trkpt lat="44.75211553551509" lon="9.432134636612874"><ele>897.75</ele><time>2026-03-27T14:07:41Z</time></trkpt><trkpt lat="44.75202908566666" lon="9.432254336034214"><ele>898.5</ele><time>2026-03-27T14:07:42Z</time></trkpt><trkpt lat="44.75193021141074" lon="9.432382198440669"><ele>899.25</ele><time>2026-03-27T14:07:43Z</time></trkpt><trkpt lat="44.751823138623244" lon="9.432507705013217"><ele>900.0</ele><time>2026-03-27T14:07:44Z</time></trkpt><trkpt lat="44.75171500458079" lon="9.43265299362272"><ele>900.0</ele><time>2026-03-27T14:07:45Z</time></trkpt><trkpt lat="44.75157968148573" lon="9.432746896529455"><ele>900.0</ele><time>2026-03-27T14:07:46Z</time></trkpt><trkpt lat="44.75145101100237" lon="9.432852116516074"><ele>900.0</ele><time>2026-03-27T14:07:47Z</time></trkpt><trkpt lat="44.75133318328015" lon="9.43297325107567"><ele>900.0</ele><time>2026-03-27T14:07:48Z</time></trkpt><trkpt lat="44.75121670533964" lon="9.43307572504479"><ele>901.25</ele><time>2026-03-27T14:07:49Z</time></trkpt><trkpt lat="44.75110010637311" lon="9.43316852088958"><ele>902.5</ele><time>2026-03-27T14:07:50Z</time></trkpt><trkpt lat="44.75097204378042" lon="9.433238572395682"><ele>903.75</ele><time>2026-03-27T14:07:51Z</time></trkpt><trkpt lat="44.75083406945659" lon="9.433292720581562"><ele>905.0</ele><time>2026-03-27T14:07:52Z</time></trkpt><trkpt lat="44.750690093271885" lon="9.433343254207479"><ele>905.0</ele><time>2026-03-27T14:07:53Z</time></trkpt><trkpt lat="44.75054599023372" lon="9.433400241786766"><ele>905.0</ele><time>2026-03-27T14:07:54Z</time></trkpt><trkpt lat="44.75040277446561" lon="9.433477154008946"><ele>905.0</ele><time>2026-03-27T14:07:55Z</time></trkpt><trkpt lat="44.750271924843574" lon="9.433568589931618"><ele>905.0</ele><time>2026-03-27T14:07:56Z</time></trkpt><trkpt lat="44.75014389381606" lon="9.43366138383886"><ele>908.25</ele><time>2026-03-27T14:07:57Z</time></trkpt><trkpt lat="44.750015496823444" lon="9.433756826983064"><ele>911.5</ele><time>2026-03-27T14:07:58Z</time></trkpt><trkpt lat="44.74990183443014" lon="9.433868175939557"><ele>914.75</ele><time>2026-03-27T14:07:59Z</time></trkpt><trkpt lat="44.7497925629882" lon="9.433970589828641"><ele>918.0</ele><time>2026-03-27T14:08:00Z</time></trkpt><trkpt lat="44.74968212865099" lon="9.434060496576471"><ele>918.0</ele><time>2026-03-27T14:08:01Z</time></trkpt><trkpt lat="44.74956503051001" lon="9.434114658642788"><ele>918.0</ele><time>2026-03-27T14:08:02Z</time></trkpt><trkpt lat="44.749448462357954" lon="9.434163005514412"><ele>918.0</ele><time>2026-03-27T14:08:03Z</time></trkpt><trkpt lat="44.74933749799265" lon="9.434180972750745"><ele>918.0</ele><time>2026-03-27T14:08:04Z</time></trkpt><trkpt lat="44.74923748832222" lon="9.434215116882992"><ele>917.0</ele><time>2026-03-27T14:08:05Z</time></trkpt><trkpt lat="44.74915257429608" lon="9.434231469939736"><ele>916.0</ele><time>2026-03-27T14:08:06Z</time></trkpt><trkpt lat="44.749074392977505" lon="9.434235932797549"><ele>915.0</ele><time>2026-03-27T14:08:07Z</time></trkpt><trkpt lat="44.74899511926017" lon="9.434240520603907"><ele>914.0</ele><time>2026-03-27T14:08:08Z</time></trkpt><trkpt lat="44.74890276647473" lon="9.434245397317556"><ele>913.0</ele><time>2026-03-27T14:08:09Z</time></trkpt><trkpt lat="44.74881478487162" lon="9.434242543276788"><ele>912.0</ele><time>2026-03-27T14:08:10Z</time></trkpt><trkpt lat="44.74874001732361" lon="9.434223161077204"><ele>912.0</ele><time>2026-03-27T14:08:11Z</time></trkpt><trkpt lat="44.74866297142892" lon="9.434243262339294"><ele>911.9999999999999</ele><time>2026-03-27T14:08:12Z</time></trkpt><trkpt lat="44.74859539597189" lon="9.434264496393851"><ele>912.0</ele><time>2026-03-27T14:08:13Z</time></trkpt><trkpt lat="44.7485423897445" lon="9.434329676225"><ele>912.0</ele><time>2026-03-27T14:08:14Z</time></trkpt><trkpt lat="44.74850186310082" lon="9.434419283498254"><ele>911.9999999999999</ele><time>2026-03-27T14:08:15Z</time></trkpt><trkpt lat="44.74846226627998" lon="9.434499977196799"><ele>912.0</ele><time>2026-03-27T14:08:16Z</time></trkpt><trkpt lat="44.74848596622112" lon="9.434606272301355"><ele>912.0</ele><time>2026-03-27T14:08:17Z</time></trkpt><trkpt lat="44.748524430541515" lon="9.434705414310365"><ele>913.0</ele><time>2026-03-27T14:08:18Z</time></trkpt><trkpt lat="44.74856550264347" lon="9.43481512461508"><ele>914.0</ele><time>2026-03-27T14:08:19Z</time></trkpt><trkpt lat="44.748592930470394" lon="9.434935879733112"><ele>915.0</ele><time>2026-03-27T14:08:20Z</time></trkpt><trkpt lat="44.74860383712891" lon="9.435065666805132"><ele>916.0</ele><time>2026-03-27T14:08:21Z</time></trkpt><trkpt lat="44.74858122702377" lon="9.435177798869653"><ele>917.0</ele><time>2026-03-27T14:08:22Z</time></trkpt><trkpt lat="44.74855340042805" lon="9.435297602810355"><ele>918.0</ele><time>2026-03-27T14:08:23Z</time></trkpt><trkpt lat="44.74846304876852" lon="9.435386690106409"><ele>920.4</ele><time>2026-03-27T14:08:24Z</time></trkpt><trkpt lat="44.748389571494315" lon="9.43551075951454"><ele>922.8</ele><time>2026-03-27T14:08:25Z</time></trkpt><trkpt lat="44.748307212017274" lon="9.435634472582159"><ele>925.2</ele><time>2026-03-27T14:08:26Z</time></trkpt><trkpt lat="44.748242961366174" lon="9.435759555193384"><ele>927.6</ele><time>2026-03-27T14:08:27Z</time></trkpt><trkpt lat="44.74820107471813" lon="9.435888616525272"><ele>930.0</ele><time>2026-03-27T14:08:28Z</time></trkpt><trkpt lat="44.74819113624374" lon="9.436024542784384"><ele>930.0</ele><time>2026-03-27T14:08:29Z</time></trkpt><trkpt lat="44.74820905937845" lon="9.436168367950184"><ele>930.0</ele><time>2026-03-27T14:08:30Z</time></trkpt><trkpt lat="44.748237563441926" lon="9.436314160660523"><ele>930.0</ele><time>2026-03-27T14:08:31Z</time></trkpt><trkpt lat="44.748241283620814" lon="9.436464101346417"><ele>930.0</ele><time>2026-03-27T14:08:32Z</time></trkpt><trkpt lat="44.748206690605556" lon="9.43660152676601"><ele>930.0</ele><time>2026-03-27T14:08:33Z</time></trkpt><trkpt lat="44.74812477539628" lon="9.436713938390154"><ele>932.0</ele><time>2026-03-27T14:08:34Z</time></trkpt><trkpt lat="44.74809866435835" lon="9.436864730744356"><ele>934.0</ele><time>2026-03-27T14:08:35Z</time></trkpt><trkpt lat="44.74808103773588" lon="9.4370196342326"><ele>936.0</ele><time>2026-03-27T14:08:36Z</time></trkpt><trkpt lat="44.748067117834225" lon="9.43715934352908"><ele>938.0</ele><time>2026-03-27T14:08:37Z</time></trkpt><trkpt lat="44.74802838091853" lon="9.437245060184699"><ele>940.0</ele><time>2026-03-27T14:08:38Z</time></trkpt><trkpt lat="44.747968845326895" lon="9.43727981620731"><ele>941.0</ele><time>2026-03-27T14:08:39Z</time></trkpt><trkpt lat="44.74788706637355" lon="9.437257095628379"><ele>942.0</ele><time>2026-03-27T14:08:40Z</time></trkpt><trkpt lat="44.74779787162599" lon="9.437263505188522"><ele>943.0</ele><time>2026-03-27T14:08:41Z</time></trkpt><trkpt lat="44.74769340581107" lon="9.437290868849347"><ele>944.0</ele><time>2026-03-27T14:08:42Z</time></trkpt><trkpt lat="44.747578724266276" lon="9.437313822632163"><ele>945.0</ele><time>2026-03-27T14:08:43Z</time></trkpt><trkpt lat="44.7474660537024" lon="9.437336977657285"><ele>945.25</ele><time>2026-03-27T14:08:44Z</time></trkpt><trkpt lat="44.747350426276384" lon="9.437362372613341"><ele>945.5</ele><time>2026-03-27T14:08:45Z</time></trkpt><trkpt lat="44.747233815573914" lon="9.437418443073696"><ele>945.75</ele><time>2026-03-27T14:08:46Z</time></trkpt><trkpt lat="44.74711874567379" lon="9.437516319051934"><ele>946.0</ele><time>2026-03-27T14:08:47Z</time></trkpt><trkpt lat="44.74700156804269" lon="9.43759408127304"><ele>946.0</ele><time>2026-03-27T14:08:48Z</time></trkpt><trkpt lat="44.7468924376071" lon="9.43764708835958"><ele>946.0</ele><time>2026-03-27T14:08:49Z</time></trkpt><trkpt lat="44.74677364529611" lon="9.437685771771255"><ele>946.0</ele><time>2026-03-27T14:08:50Z</time></trkpt><trkpt lat="44.746652241263945" lon="9.437718491025887"><ele>946.0</ele><time>2026-03-27T14:08:51Z</time></trkpt><trkpt lat="44.746536309842966" lon="9.437776595534478"><ele>944.5999999999999</ele><time>2026-03-27T14:08:52Z</time></trkpt><trkpt lat="44.74642663446695" lon="9.437807261530809"><ele>943.1999999999999</ele><time>2026-03-27T14:08:53Z</time></trkpt><trkpt lat="44.746334286098744" lon="9.437871667948217"><ele>941.8000000000001</ele><time>2026-03-27T14:08:54Z</time></trkpt><trkpt lat="44.746237457993296" lon="9.437961048543478"><ele>940.4000000000001</ele><time>2026-03-27T14:08:55Z</time></trkpt><trkpt lat="44.74616572928885" lon="9.4380469929914"><ele>939.0</ele><time>2026-03-27T14:08:56Z</time></trkpt><trkpt lat="44.7461133984019" lon="9.438121390109746"><ele>945.0</ele><time>2026-03-27T14:08:57Z</time></trkpt><trkpt lat="44.74611112590511" lon="9.438324273067018"><ele>951.0</ele><time>2026-03-27T14:08:58.999Z</time></trkpt><trkpt lat="44.746106641241255" lon="9.438451601891165"><ele>957.0</ele><time>2026-03-27T14:08:59.999Z</time></trkpt><trkpt lat="44.746107094821205" lon="9.438600058900448"><ele>963.0</ele><time>2026-03-27T14:09:00.999Z</time></trkpt><trkpt lat="44.74608654661426" lon="9.438753864587166"><ele>962.25</ele><time>2026-03-27T14:09:01.999Z</time></trkpt><trkpt lat="44.7460516942075" lon="9.438928971177578"><ele>961.5</ele><time>2026-03-27T14:09:03Z</time></trkpt><trkpt lat="44.74603545957027" lon="9.439114196801526"><ele>960.75</ele><time>2026-03-27T14:09:04Z</time></trkpt><trkpt lat="44.74601442345092" lon="9.43927367117322"><ele>960.0</ele><time>2026-03-27T14:09:05Z</time></trkpt><trkpt lat="44.74600519880829" lon="9.439411569823136"><ele>960.0</ele><time>2026-03-27T14:09:06Z</time></trkpt><trkpt lat="44.745978915039096" lon="9.439517076886863"><ele>960.0</ele><time>2026-03-27T14:09:07Z</time></trkpt><trkpt lat="44.74594468991067" lon="9.43961683644108"><ele>960.0</ele><time>2026-03-27T14:09:08Z</time></trkpt><trkpt lat="44.74591432942244" lon="9.439752565522905"><ele>960.0</ele><time>2026-03-27T14:09:09Z</time></trkpt><trkpt lat="44.745891332865" lon="9.439902160607147"><ele>960.0</ele><time>2026-03-27T14:09:10Z</time></trkpt><trkpt lat="44.745872917906254" lon="9.440037647018356"><ele>961.8333333333334</ele><time>2026-03-27T14:09:11Z</time></trkpt><trkpt lat="44.745859696500276" lon="9.44015940551787"><ele>963.6666666666667</ele><time>2026-03-27T14:09:12Z</time></trkpt><trkpt lat="44.74585256495919" lon="9.440283149012808"><ele>965.5</ele><time>2026-03-27T14:09:13Z</time></trkpt><trkpt lat="44.7458415406503" lon="9.440395749811938"><ele>967.3333333333334</ele><time>2026-03-27T14:09:14Z</time></trkpt><trkpt lat="44.74582038777796" lon="9.440493075405236"><ele>969.1666666666667</ele><time>2026-03-27T14:09:15Z</time></trkpt><trkpt lat="44.74577993949121" lon="9.4405702105081"><ele>971.0</ele><time>2026-03-27T14:09:16Z</time></trkpt><trkpt lat="44.74572162832132" lon="9.440634159082201"><ele>973.5000000000001</ele><time>2026-03-27T14:09:17Z</time></trkpt><trkpt lat="44.74564810952413" lon="9.440672390403442"><ele>976.0</ele><time>2026-03-27T14:09:18Z</time></trkpt><trkpt lat="44.74557552976245" lon="9.4407222084666"><ele>978.5</ele><time>2026-03-27T14:09:19Z</time></trkpt><trkpt lat="44.74550636978239" lon="9.4407785901793"><ele>981.0</ele><time>2026-03-27T14:09:20Z</time></trkpt><trkpt lat="44.74543090497801" lon="9.440827477668831"><ele>983.5000000000001</ele><time>2026-03-27T14:09:21Z</time></trkpt><trkpt lat="44.74535170275083" lon="9.440885526730732"><ele>986.0</ele><time>2026-03-27T14:09:22Z</time></trkpt><trkpt lat="44.74527536837433" lon="9.440943619705362"><ele>985.8333333333334</ele><time>2026-03-27T14:09:23Z</time></trkpt><trkpt lat="44.74521150915492" lon="9.440982070958103"><ele>985.6666666666667</ele><time>2026-03-27T14:09:24Z</time></trkpt><trkpt lat="44.74513487144255" lon="9.441005718605155"><ele>985.5</ele><time>2026-03-27T14:09:25Z</time></trkpt><trkpt lat="44.74506855889104" lon="9.441044604005722"><ele>985.3333333333333</ele><time>2026-03-27T14:09:26Z</time></trkpt><trkpt lat="44.74500296978209" lon="9.441101606022048"><ele>985.1666666666666</ele><time>2026-03-27T14:09:27Z</time></trkpt><trkpt lat="44.74496166929163" lon="9.44122144115721"><ele>985.0</ele><time>2026-03-27T14:09:29Z</time></trkpt><trkpt lat="44.74504145358825" lon="9.441340995949075"><ele>988.8</ele><time>2026-03-27T14:09:31Z</time></trkpt><trkpt lat="44.745125555099904" lon="9.441329235341275"><ele>992.6</ele><time>2026-03-27T14:09:32Z</time></trkpt><trkpt lat="44.745247468945834" lon="9.441380265925485"><ele>996.4000000000001</ele><time>2026-03-27T14:09:34Z</time></trkpt><trkpt lat="44.74530144044328" lon="9.441501444752765"><ele>1000.2</ele><time>2026-03-27T14:09:36Z</time></trkpt><trkpt lat="44.74528410285085" lon="9.441610086649781"><ele>1004.0</ele><time>2026-03-27T14:09:37Z</time></trkpt><trkpt lat="44.745239132910555" lon="9.441704368487606"><ele>1004.0</ele><time>2026-03-27T14:09:38Z</time></trkpt><trkpt lat="44.74517458289703" lon="9.441787478415234"><ele>1004.0000000000001</ele><time>2026-03-27T14:09:39Z</time></trkpt><trkpt lat="44.74509770656468" lon="9.441869573090267"><ele>1004.0000000000001</ele><time>2026-03-27T14:09:40Z</time></trkpt><trkpt lat="44.745001659205904" lon="9.441946985585716"><ele>1004.0</ele><time>2026-03-27T14:09:41Z</time></trkpt><trkpt lat="44.74491428587488" lon="9.44200469462235"><ele>1004.0</ele><time>2026-03-27T14:09:42Z</time></trkpt><trkpt lat="44.74482731432447" lon="9.442062136607273"><ele>1004.0000000000001</ele><time>2026-03-27T14:09:43Z</time></trkpt><trkpt lat="44.74476012057664" lon="9.442092908237397"><ele>1004.0</ele><time>2026-03-27T14:09:44Z</time></trkpt><trkpt lat="44.74466980933723" lon="9.442104583195432"><ele>1004.0</ele><time>2026-03-27T14:09:45Z</time></trkpt><trkpt lat="44.74457984127708" lon="9.44209599638986"><ele>1004.0</ele><time>2026-03-27T14:09:46Z</time></trkpt><trkpt lat="44.74449567869114" lon="9.442110119760894"><ele>1004.0000000000001</ele><time>2026-03-27T14:09:47Z</time></trkpt><trkpt lat="44.744430264865265" lon="9.442162135526242"><ele>1004.0</ele><time>2026-03-27T14:09:48Z</time></trkpt><trkpt lat="44.744371970007904" lon="9.442242830197136"><ele>1003.8333333333334</ele><time>2026-03-27T14:09:49Z</time></trkpt><trkpt lat="44.74432344737234" lon="9.442349776354764"><ele>1003.6666666666667</ele><time>2026-03-27T14:09:50Z</time></trkpt><trkpt lat="44.74425008856767" lon="9.442444469904414"><ele>1003.5</ele><time>2026-03-27T14:09:51Z</time></trkpt><trkpt lat="44.744166228915525" lon="9.442517293766043"><ele>1003.3333333333333</ele><time>2026-03-27T14:09:52Z</time></trkpt><trkpt lat="44.74411375779858" lon="9.442614775839084"><ele>1003.1666666666666</ele><time>2026-03-27T14:09:53Z</time></trkpt><trkpt lat="44.74405954061732" lon="9.44267582696114"><ele>1003.0</ele><time>2026-03-27T14:09:54Z</time></trkpt><trkpt lat="44.74405718945103" lon="9.442801174112708"><ele>1002.9999999999999</ele><time>2026-03-27T14:09:55Z</time></trkpt><trkpt lat="44.74409587915832" lon="9.442927525134824"><ele>1003.0</ele><time>2026-03-27T14:09:56Z</time></trkpt><trkpt lat="44.744093512372224" lon="9.44305782511836"><ele>1003.0</ele><time>2026-03-27T14:09:57Z</time></trkpt><trkpt lat="44.74408926655649" lon="9.44317436444517"><ele>1003.0</ele><time>2026-03-27T14:09:58Z</time></trkpt><trkpt lat="44.74406846556444" lon="9.443290498730276"><ele>1002.9999999999999</ele><time>2026-03-27T14:09:59Z</time></trkpt><trkpt lat="44.74403357533418" lon="9.443404059240363"><ele>1003.0</ele><time>2026-03-27T14:10:00Z</time></trkpt><trkpt lat="44.74398147289723" lon="9.443509287360161"><ele>1004.5</ele><time>2026-03-27T14:10:01Z</time></trkpt><trkpt lat="44.74394582749457" lon="9.443647892372947"><ele>1006.0</ele><time>2026-03-27T14:10:02Z</time></trkpt><trkpt lat="44.743912125732706" lon="9.443790450812145"><ele>1007.5</ele><time>2026-03-27T14:10:03Z</time></trkpt><trkpt lat="44.74387534211772" lon="9.443946233738808"><ele>1009.0</ele><time>2026-03-27T14:10:04Z</time></trkpt><trkpt lat="44.74386915500237" lon="9.444122234190976"><ele>1009.0</ele><time>2026-03-27T14:10:05Z</time></trkpt><trkpt lat="44.743873578978416" lon="9.444294431374924"><ele>1009.0000000000001</ele><time>2026-03-27T14:10:06Z</time></trkpt><trkpt lat="44.7438820077388" lon="9.444450358849432"><ele>1009.0000000000001</ele><time>2026-03-27T14:10:07Z</time></trkpt><trkpt lat="44.7438895367706" lon="9.444587387240562"><ele>1009.0</ele><time>2026-03-27T14:10:08Z</time></trkpt><trkpt lat="44.74389532990142" lon="9.444718120579651"><ele>1009.0</ele><time>2026-03-27T14:10:09Z</time></trkpt><trkpt lat="44.74389691174987" lon="9.444856657338503"><ele>1010.2</ele><time>2026-03-27T14:10:10Z</time></trkpt><trkpt lat="44.743907987407056" lon="9.445001931405747"><ele>1011.4000000000001</ele><time>2026-03-27T14:10:11Z</time></trkpt><trkpt lat="44.74389389068541" lon="9.44515431197229"><ele>1012.6</ele><time>2026-03-27T14:10:12Z</time></trkpt><trkpt lat="44.74387533777159" lon="9.4453040263129"><ele>1013.8</ele><time>2026-03-27T14:10:13Z</time></trkpt><trkpt lat="44.74382857510167" lon="9.445440057697892"><ele>1015.0</ele><time>2026-03-27T14:10:14Z</time></trkpt><trkpt lat="44.74378871215717" lon="9.44557733314413"><ele>1018.0</ele><time>2026-03-27T14:10:15Z</time></trkpt><trkpt lat="44.74374645117291" lon="9.44570892894867"><ele>1021.0</ele><time>2026-03-27T14:10:16Z</time></trkpt><trkpt lat="44.743699391476994" lon="9.445834685171503"><ele>1024.0</ele><time>2026-03-27T14:10:17Z</time></trkpt><trkpt lat="44.74366036895098" lon="9.445966008707723"><ele>1027.0</ele><time>2026-03-27T14:10:18Z</time></trkpt><trkpt lat="44.743607101146" lon="9.446087193436574"><ele>1030.0</ele><time>2026-03-27T14:10:19Z</time></trkpt><trkpt lat="44.743556284346035" lon="9.44620872720697"><ele>1026.3333333333333</ele><time>2026-03-27T14:10:20Z</time></trkpt><trkpt lat="44.743497886732996" lon="9.446318146739545"><ele>1022.6666666666666</ele><time>2026-03-27T14:10:21Z</time></trkpt><trkpt lat="44.7434756789149" lon="9.446443533245395"><ele>1019.0</ele><time>2026-03-27T14:10:22Z</time></trkpt><trkpt lat="44.74343522491411" lon="9.446552729187255"><ele>1015.3333333333333</ele><time>2026-03-27T14:10:23Z</time></trkpt><trkpt lat="44.743402322129235" lon="9.446665209202367"><ele>1011.6666666666666</ele><time>2026-03-27T14:10:24Z</time></trkpt><trkpt lat="44.74336045520453" lon="9.446769396719056"><ele>1008.0</ele><time>2026-03-27T14:10:25Z</time></trkpt><trkpt lat="44.74329200357967" lon="9.446863826052251"><ele>1008.0</ele><time>2026-03-27T14:10:26Z</time></trkpt><trkpt lat="44.74320266286027" lon="9.446936743092381"><ele>1008.0</ele><time>2026-03-27T14:10:27Z</time></trkpt><trkpt lat="44.74312518446978" lon="9.447016900667824"><ele>1008.0</ele><time>2026-03-27T14:10:28Z</time></trkpt><trkpt lat="44.743060213685986" lon="9.447123133506583"><ele>1008.0</ele><time>2026-03-27T14:10:29Z</time></trkpt><trkpt lat="44.74301635336723" lon="9.447229121365298"><ele>1008.0</ele><time>2026-03-27T14:10:30Z</time></trkpt><trkpt lat="44.74296747780977" lon="9.447328322014002"><ele>1008.3333333333334</ele><time>2026-03-27T14:10:31Z</time></trkpt><trkpt lat="44.742913745550005" lon="9.447388547738313"><ele>1008.6666666666667</ele><time>2026-03-27T14:10:32Z</time></trkpt><trkpt lat="44.74285374733286" lon="9.447435569978959"><ele>1009.0</ele><time>2026-03-27T14:10:33Z</time></trkpt><trkpt lat="44.742775027816535" lon="9.447409758296669"><ele>1009.3333333333334</ele><time>2026-03-27T14:10:34Z</time></trkpt><trkpt lat="44.7426860061929" lon="9.447391298518774"><ele>1009.6666666666667</ele><time>2026-03-27T14:10:35Z</time></trkpt><trkpt lat="44.74258521552171" lon="9.447392962459302"><ele>1010.0</ele><time>2026-03-27T14:10:36Z</time></trkpt><trkpt lat="44.74248872367476" lon="9.447389126654645"><ele>1010.0</ele><time>2026-03-27T14:10:37Z</time></trkpt><trkpt lat="44.74238639542496" lon="9.447383707980379"><ele>1010.0</ele><time>2026-03-27T14:10:38Z</time></trkpt><trkpt lat="44.742275821623004" lon="9.447384122872052"><ele>1010.0</ele><time>2026-03-27T14:10:39Z</time></trkpt><trkpt lat="44.74215459260379" lon="9.447386425502424"><ele>1010.0</ele><time>2026-03-27T14:10:40Z</time></trkpt><trkpt lat="44.74203980666656" lon="9.447398928234058"><ele>1010.0</ele><time>2026-03-27T14:10:41Z</time></trkpt><trkpt lat="44.74193190216457" lon="9.447395395271737"><ele>1010.0</ele><time>2026-03-27T14:10:42Z</time></trkpt><trkpt lat="44.7418312438341" lon="9.447387084490243"><ele>1010.0</ele><time>2026-03-27T14:10:43Z</time></trkpt><trkpt lat="44.74174090215426" lon="9.447369084583011"><ele>1010.0</ele><time>2026-03-27T14:10:44Z</time></trkpt><trkpt lat="44.74165220422374" lon="9.44736856402077"><ele>1010.0</ele><time>2026-03-27T14:10:45Z</time></trkpt><trkpt lat="44.74156006947097" lon="9.447404525322357"><ele>1010.0</ele><time>2026-03-27T14:10:46Z</time></trkpt><trkpt lat="44.74146625738778" lon="9.447466415163008"><ele>1010.0000000000001</ele><time>2026-03-27T14:10:47Z</time></trkpt><trkpt lat="44.74137794263478" lon="9.44754550229129"><ele>1010.0</ele><time>2026-03-27T14:10:48Z</time></trkpt><trkpt lat="44.74132382554174" lon="9.44763070081863"><ele>1010.0</ele><time>2026-03-27T14:10:49Z</time></trkpt><trkpt lat="44.741294992848935" lon="9.447726154027656"><ele>1010.0</ele><time>2026-03-27T14:10:50Z</time></trkpt><trkpt lat="44.74129008178117" lon="9.447841278354685"><ele>1010.0000000000001</ele><time>2026-03-27T14:10:51Z</time></trkpt><trkpt lat="44.74130747755935" lon="9.447961320121506"><ele>1010.0</ele><time>2026-03-27T14:10:52Z</time></trkpt><trkpt lat="44.74132879033503" lon="9.448087580759765"><ele>1010.8333333333334</ele><time>2026-03-27T14:10:53Z</time></trkpt><trkpt lat="44.741334135223724" lon="9.448202908133007"><ele>1011.6666666666667</ele><time>2026-03-27T14:10:54Z</time></trkpt><trkpt lat="44.741302293980446" lon="9.448299234563418"><ele>1012.5</ele><time>2026-03-27T14:10:55Z</time></trkpt><trkpt lat="44.741269121518116" lon="9.448395202508118"><ele>1013.3333333333333</ele><time>2026-03-27T14:10:56Z</time></trkpt><trkpt lat="44.74118783502913" lon="9.44845291135139"><ele>1014.1666666666666</ele><time>2026-03-27T14:10:57Z</time></trkpt><trkpt lat="44.74111212804419" lon="9.448527238282542"><ele>1015.0</ele><time>2026-03-27T14:10:58Z</time></trkpt><trkpt lat="44.7410264854896" lon="9.448555416940984"><ele>1014.9999999999999</ele><time>2026-03-27T14:10:59Z</time></trkpt><trkpt lat="44.74094525674469" lon="9.448533412768123"><ele>1015.0</ele><time>2026-03-27T14:11:00Z</time></trkpt><trkpt lat="44.7408810480958" lon="9.448443249432978"><ele>1015.0</ele><time>2026-03-27T14:11:01Z</time></trkpt><trkpt lat="44.74081073508979" lon="9.448370682363716"><ele>1015.0</ele><time>2026-03-27T14:11:02Z</time></trkpt><trkpt lat="44.740746569591465" lon="9.448285834004112"><ele>1014.9999999999999</ele><time>2026-03-27T14:11:03Z</time></trkpt><trkpt lat="44.74068035387828" lon="9.448225977915632"><ele>1015.0</ele><time>2026-03-27T14:11:03.999Z</time></trkpt><trkpt lat="44.74059977279939" lon="9.44823773708695"><ele>1014.9999999999999</ele><time>2026-03-27T14:11:04.999Z</time></trkpt><trkpt lat="44.740527208932804" lon="9.44827606227567"><ele>1015.0</ele><time>2026-03-27T14:11:05.999Z</time></trkpt><trkpt lat="44.74046921531671" lon="9.448351060859089"><ele>1015.0</ele><time>2026-03-27T14:11:06.999Z</time></trkpt><trkpt lat="44.74042042688763" lon="9.448451320494787"><ele>1015.0</ele><time>2026-03-27T14:11:07.999Z</time></trkpt><trkpt lat="44.74036550062646" lon="9.448564440198151"><ele>1014.9999999999999</ele><time>2026-03-27T14:11:09Z</time></trkpt><trkpt lat="44.74030285736395" lon="9.44866668381697"><ele>1015.0</ele><time>2026-03-27T14:11:10Z</time></trkpt><trkpt lat="44.740223449413755" lon="9.448742726508279"><ele>1014.0</ele><time>2026-03-27T14:11:11Z</time></trkpt><trkpt lat="44.7401230297093" lon="9.448758736284155"><ele>1013.0</ele><time>2026-03-27T14:11:12Z</time></trkpt><trkpt lat="44.74002396145619" lon="9.448800803490162"><ele>1012.0</ele><time>2026-03-27T14:11:13Z</time></trkpt><trkpt lat="44.73991890633073" lon="9.448834888499826"><ele>1011.0</ele><time>2026-03-27T14:11:14Z</time></trkpt><trkpt lat="44.7398048357748" lon="9.448890311719786"><ele>1010.0</ele><time>2026-03-27T14:11:15Z</time></trkpt><trkpt lat="44.73968942073815" lon="9.448928937119168"><ele>1016.2</ele><time>2026-03-27T14:11:16Z</time></trkpt><trkpt lat="44.73957965978209" lon="9.448972374882937"><ele>1022.4</ele><time>2026-03-27T14:11:17Z</time></trkpt><trkpt lat="44.73947703102831" lon="9.448971980399454"><ele>1028.6</ele><time>2026-03-27T14:11:18Z</time></trkpt><trkpt lat="44.73939132427483" lon="9.448948768185238"><ele>1034.8</ele><time>2026-03-27T14:11:19Z</time></trkpt><trkpt lat="44.73930636274019" lon="9.44894646740244"><ele>1041.0</ele><time>2026-03-27T14:11:20Z</time></trkpt><trkpt lat="44.73922618725692" lon="9.448942944200247"><ele>1041.0</ele><time>2026-03-27T14:11:21Z</time></trkpt><trkpt lat="44.73913692645282" lon="9.44897913157378"><ele>1041.0</ele><time>2026-03-27T14:11:22Z</time></trkpt><trkpt lat="44.73904258116759" lon="9.448985310264979"><ele>1041.0</ele><time>2026-03-27T14:11:23Z</time></trkpt><trkpt lat="44.73895246446257" lon="9.448983091617475"><ele>1041.0</ele><time>2026-03-27T14:11:24Z</time></trkpt><trkpt lat="44.73887176053611" lon="9.44902715881106"><ele>1041.0</ele><time>2026-03-27T14:11:25Z</time></trkpt><trkpt lat="44.738792645998195" lon="9.449110838742545"><ele>1041.0</ele><time>2026-03-27T14:11:26Z</time></trkpt><trkpt lat="44.73871154661674" lon="9.44922266093536"><ele>1041.0</ele><time>2026-03-27T14:11:27Z</time></trkpt><trkpt lat="44.73863694385364" lon="9.449347895377525"><ele>1041.0</ele><time>2026-03-27T14:11:28Z</time></trkpt><trkpt lat="44.73856558292416" lon="9.44949289670545"><ele>1041.0</ele><time>2026-03-27T14:11:29Z</time></trkpt><trkpt lat="44.738486701326764" lon="9.449608448455098"><ele>1040.3999999999999</ele><time>2026-03-27T14:11:30Z</time></trkpt><trkpt lat="44.738409528103695" lon="9.449710353356785"><ele>1039.8</ele><time>2026-03-27T14:11:31Z</time></trkpt><trkpt lat="44.73833132344323" lon="9.449809974623273"><ele>1039.1999999999998</ele><time>2026-03-27T14:11:32Z</time></trkpt><trkpt lat="44.73826077052555" lon="9.449915606796637"><ele>1038.6</ele><time>2026-03-27T14:11:33Z</time></trkpt><trkpt lat="44.7382029227844" lon="9.450021769250696"><ele>1038.0</ele><time>2026-03-27T14:11:34Z</time></trkpt><trkpt lat="44.73816522270691" lon="9.450127949395236"><ele>1038.0</ele><time>2026-03-27T14:11:35Z</time></trkpt><trkpt lat="44.738145397802285" lon="9.450240798209503"><ele>1038.0</ele><time>2026-03-27T14:11:36Z</time></trkpt><trkpt lat="44.738126657372575" lon="9.45034517867148"><ele>1038.0</ele><time>2026-03-27T14:11:37Z</time></trkpt><trkpt lat="44.73808639512296" lon="9.450433459542294"><ele>1038.0</ele><time>2026-03-27T14:11:38Z</time></trkpt><trkpt lat="44.73799620135921" lon="9.450434710902188"><ele>1038.0</ele><time>2026-03-27T14:11:39Z</time></trkpt><trkpt lat="44.737934963905474" lon="9.450486527490527"><ele>1038.0</ele><time>2026-03-27T14:11:40Z</time></trkpt><trkpt lat="44.73787454725698" lon="9.450579414121076"><ele>1034.8</ele><time>2026-03-27T14:11:41Z</time></trkpt><trkpt lat="44.737834912392614" lon="9.450708035580078"><ele>1031.6</ele><time>2026-03-27T14:11:42Z</time></trkpt><trkpt lat="44.73777587127139" lon="9.45081490766341"><ele>1028.4</ele><time>2026-03-27T14:11:43Z</time></trkpt><trkpt lat="44.73773693529519" lon="9.45093681641761"><ele>1025.2</ele><time>2026-03-27T14:11:44Z</time></trkpt><trkpt lat="44.73768752372588" lon="9.451053861977995"><ele>1022.0</ele><time>2026-03-27T14:11:45Z</time></trkpt><trkpt lat="44.7376428901944" lon="9.451153883971351"><ele>1022.0000000000001</ele><time>2026-03-27T14:11:46Z</time></trkpt><trkpt lat="44.73759928342945" lon="9.451258133997161"><ele>1022.0</ele><time>2026-03-27T14:11:47Z</time></trkpt><trkpt lat="44.737553064674735" lon="9.45136078126936"><ele>1022.0</ele><time>2026-03-27T14:11:48Z</time></trkpt><trkpt lat="44.737488960216965" lon="9.451449654214708"><ele>1022.0</ele><time>2026-03-27T14:11:49Z</time></trkpt><trkpt lat="44.7374427592498" lon="9.451561202195371"><ele>1022.0000000000001</ele><time>2026-03-27T14:11:50Z</time></trkpt><trkpt lat="44.737385990422034" lon="9.451658024234073"><ele>1022.0</ele><time>2026-03-27T14:11:51Z</time></trkpt><trkpt lat="44.737326461967314" lon="9.451738745375035"><ele>1022.1666666666667</ele><time>2026-03-27T14:11:52Z</time></trkpt><trkpt lat="44.73727298198952" lon="9.451799940906218"><ele>1022.3333333333334</ele><time>2026-03-27T14:11:53Z</time></trkpt><trkpt lat="44.73715108661378" lon="9.451790492141974"><ele>1022.5</ele><time>2026-03-27T14:11:55Z</time></trkpt><trkpt lat="44.73708132396799" lon="9.451760898954596"><ele>1022.6666666666667</ele><time>2026-03-27T14:11:56Z</time></trkpt><trkpt lat="44.73700128997446" lon="9.451750778930785"><ele>1022.8333333333334</ele><time>2026-03-27T14:11:57Z</time></trkpt><trkpt lat="44.73692693618146" lon="9.451745605435496"><ele>1023.0</ele><time>2026-03-27T14:11:58Z</time></trkpt><trkpt lat="44.73686053247554" lon="9.451785058594004"><ele>1023.0</ele><time>2026-03-27T14:11:59Z</time></trkpt><trkpt lat="44.736813105020545" lon="9.451867793027688"><ele>1023.0</ele><time>2026-03-27T14:12:00Z</time></trkpt><trkpt lat="44.73679460680583" lon="9.451964002819501"><ele>1023.0</ele><time>2026-03-27T14:12:01Z</time></trkpt><trkpt lat="44.73680763760594" lon="9.452068357080476"><ele>1023.0</ele><time>2026-03-27T14:12:02Z</time></trkpt><trkpt lat="44.736833856978755" lon="9.452179950629576"><ele>1023.0</ele><time>2026-03-27T14:12:03Z</time></trkpt><trkpt lat="44.73686571426596" lon="9.452293419748498"><ele>1023.0</ele><time>2026-03-27T14:12:04Z</time></trkpt><trkpt lat="44.736899442591294" lon="9.452414864031194"><ele>1026.0</ele><time>2026-03-27T14:12:05Z</time></trkpt><trkpt lat="44.73692994895865" lon="9.452526437433002"><ele>1029.0</ele><time>2026-03-27T14:12:06Z</time></trkpt><trkpt lat="44.736949041262335" lon="9.452628122856284"><ele>1032.0</ele><time>2026-03-27T14:12:07Z</time></trkpt><trkpt lat="44.73696138155176" lon="9.452729383191818"><ele>1035.0</ele><time>2026-03-27T14:12:08Z</time></trkpt><trkpt lat="44.73695484777913" lon="9.452824077344227"><ele>1038.0</ele><time>2026-03-27T14:12:09Z</time></trkpt><trkpt lat="44.73691583540783" lon="9.452908331456463"><ele>1041.0</ele><time>2026-03-27T14:12:10Z</time></trkpt><trkpt lat="44.7368590056373" lon="9.452984594656423"><ele>1041.0</ele><time>2026-03-27T14:12:11Z</time></trkpt><trkpt lat="44.73681783969938" lon="9.453076502573193"><ele>1041.0</ele><time>2026-03-27T14:12:12Z</time></trkpt><trkpt lat="44.736796313696026" lon="9.453185116809673"><ele>1041.0</ele><time>2026-03-27T14:12:13Z</time></trkpt><trkpt lat="44.736830829130014" lon="9.45330887012687"><ele>1041.0</ele><time>2026-03-27T14:12:14Z</time></trkpt><trkpt lat="44.736873228352394" lon="9.453424364065276"><ele>1041.0</ele><time>2026-03-27T14:12:15Z</time></trkpt><trkpt lat="44.73689462133666" lon="9.453555056925488"><ele>1041.0</ele><time>2026-03-27T14:12:16Z</time></trkpt><trkpt lat="44.73692200000467" lon="9.45367216913343"><ele>1042.8333333333333</ele><time>2026-03-27T14:12:17Z</time></trkpt><trkpt lat="44.736954162646505" lon="9.453771114525892"><ele>1044.6666666666667</ele><time>2026-03-27T14:12:18Z</time></trkpt><trkpt lat="44.737027946644446" lon="9.453850643486533"><ele>1046.5</ele><time>2026-03-27T14:12:19Z</time></trkpt><trkpt lat="44.73709242356805" lon="9.453922547030242"><ele>1048.3333333333335</ele><time>2026-03-27T14:12:20Z</time></trkpt><trkpt lat="44.73715261720306" lon="9.45399579850909"><ele>1050.1666666666667</ele><time>2026-03-27T14:12:21Z</time></trkpt><trkpt lat="44.73717093162036" lon="9.454109273461164"><ele>1052.0</ele><time>2026-03-27T14:12:22Z</time></trkpt><trkpt lat="44.737168577338146" lon="9.454204631746473"><ele>1051.3333333333335</ele><time>2026-03-27T14:12:23Z</time></trkpt><trkpt lat="44.737122571336855" lon="9.45431024369728"><ele>1050.6666666666667</ele><time>2026-03-27T14:12:25Z</time></trkpt><trkpt lat="44.73700799192223" lon="9.45426357000644"><ele>1050.0</ele><time>2026-03-27T14:12:27Z</time></trkpt><trkpt lat="44.73693097702894" lon="9.45426566368506"><ele>1049.3333333333333</ele><time>2026-03-27T14:12:28Z</time></trkpt><trkpt lat="44.73685799726081" lon="9.454287031627402"><ele>1048.6666666666665</ele><time>2026-03-27T14:12:29Z</time></trkpt><trkpt lat="44.73679480633307" lon="9.454347756251966"><ele>1048.0</ele><time>2026-03-27T14:12:30Z</time></trkpt><trkpt lat="44.73675037655382" lon="9.454505616709703"><ele>1048.0</ele><time>2026-03-27T14:12:32Z</time></trkpt><trkpt lat="44.73679320877236" lon="9.454602479744267"><ele>1048.0</ele><time>2026-03-27T14:12:33Z</time></trkpt><trkpt lat="44.73687927527194" lon="9.454645428850128"><ele>1048.0</ele><time>2026-03-27T14:12:34Z</time></trkpt><trkpt lat="44.73697976515155" lon="9.454606473824594"><ele>1048.0</ele><time>2026-03-27T14:12:35Z</time></trkpt><trkpt lat="44.73707422670781" lon="9.454645527677728"><ele>1048.0</ele><time>2026-03-27T14:12:36Z</time></trkpt><trkpt lat="44.73717408257918" lon="9.454672194224399"><ele>1052.4</ele><time>2026-03-27T14:12:37Z</time></trkpt><trkpt lat="44.73726582260104" lon="9.45469360469327"><ele>1056.8</ele><time>2026-03-27T14:12:38Z</time></trkpt><trkpt lat="44.73735478316356" lon="9.45471870734952"><ele>1061.2</ele><time>2026-03-27T14:12:39Z</time></trkpt><trkpt lat="44.73745057683521" lon="9.45471025298981"><ele>1065.6</ele><time>2026-03-27T14:12:40Z</time></trkpt><trkpt lat="44.73754052647411" lon="9.454681751160674"><ele>1070.0</ele><time>2026-03-27T14:12:41Z</time></trkpt><trkpt lat="44.7376202514628" lon="9.454666415670356"><ele>1070.6</ele><time>2026-03-27T14:12:42Z</time></trkpt><trkpt lat="44.73771932452501" lon="9.454746853405071"><ele>1071.2</ele><time>2026-03-27T14:12:44Z</time></trkpt><trkpt lat="44.73781227489655" lon="9.454762950014443"><ele>1071.8</ele><time>2026-03-27T14:12:45Z</time></trkpt><trkpt lat="44.737888266048934" lon="9.4548720493118"><ele>1072.4</ele><time>2026-03-27T14:12:47Z</time></trkpt><trkpt lat="44.73786248800806" lon="9.454992792207966"><ele>1073.0</ele><time>2026-03-27T14:12:49Z</time></trkpt><trkpt lat="44.73779354019889" lon="9.455010531522413"><ele>1072.4</ele><time>2026-03-27T14:12:50Z</time></trkpt><trkpt lat="44.73771338923309" lon="9.455010650881936"><ele>1071.8</ele><time>2026-03-27T14:12:51Z</time></trkpt><trkpt lat="44.73761870259151" lon="9.455048111717803"><ele>1071.2</ele><time>2026-03-27T14:12:52Z</time></trkpt><trkpt lat="44.737509866188034" lon="9.455072521906244"><ele>1070.6</ele><time>2026-03-27T14:12:53Z</time></trkpt><trkpt lat="44.73740883534826" lon="9.455112556297891"><ele>1070.0</ele><time>2026-03-27T14:12:54Z</time></trkpt><trkpt lat="44.73732817888786" lon="9.455123735304047"><ele>1070.0</ele><time>2026-03-27T14:12:55Z</time></trkpt><trkpt lat="44.73726073600235" lon="9.455152175006456"><ele>1070.0</ele><time>2026-03-27T14:12:56Z</time></trkpt><trkpt lat="44.73719877197768" lon="9.455189455017498"><ele>1070.0</ele><time>2026-03-27T14:12:57Z</time></trkpt><trkpt lat="44.73714066459602" lon="9.45524148870399"><ele>1070.0</ele><time>2026-03-27T14:12:58Z</time></trkpt><trkpt lat="44.7370794232388" lon="9.455299993882956"><ele>1070.0</ele><time>2026-03-27T14:12:59Z</time></trkpt><trkpt lat="44.737016334813966" lon="9.455371109869924"><ele>1070.0</ele><time>2026-03-27T14:13:00Z</time></trkpt><trkpt lat="44.736944299744216" lon="9.455439403819767"><ele>1070.0</ele><time>2026-03-27T14:13:01Z</time></trkpt><trkpt lat="44.73686969051277" lon="9.455495654345052"><ele>1069.4</ele><time>2026-03-27T14:13:02Z</time></trkpt><trkpt lat="44.73679157501447" lon="9.455464852914652"><ele>1068.8</ele><time>2026-03-27T14:13:03Z</time></trkpt><trkpt lat="44.73672841871862" lon="9.455393151511565"><ele>1068.2</ele><time>2026-03-27T14:13:04Z</time></trkpt><trkpt lat="44.73663895175519" lon="9.455341001573228"><ele>1067.6</ele><time>2026-03-27T14:13:05Z</time></trkpt><trkpt lat="44.7365555708736" lon="9.455310441956165"><ele>1067.0</ele><time>2026-03-27T14:13:06Z</time></trkpt><trkpt lat="44.73645760406846" lon="9.455370627411448"><ele>1067.0</ele><time>2026-03-27T14:13:07Z</time></trkpt><trkpt lat="44.73635976007578" lon="9.455413563749762"><ele>1067.0</ele><time>2026-03-27T14:13:08Z</time></trkpt><trkpt lat="44.73627452364841" lon="9.455394238522928"><ele>1067.0</ele><time>2026-03-27T14:13:09Z</time></trkpt><trkpt lat="44.73619123001194" lon="9.455351335474825"><ele>1067.0</ele><time>2026-03-27T14:13:10Z</time></trkpt><trkpt lat="44.73609519120352" lon="9.455313352603987"><ele>1067.0</ele><time>2026-03-27T14:13:11Z</time></trkpt><trkpt lat="44.73600506708525" lon="9.455254361329374"><ele>1068.6666666666667</ele><time>2026-03-27T14:13:12Z</time></trkpt><trkpt lat="44.735922142331624" lon="9.455190843925013"><ele>1070.3333333333335</ele><time>2026-03-27T14:13:13Z</time></trkpt><trkpt lat="44.7358572107836" lon="9.455144908492185"><ele>1072.0</ele><time>2026-03-27T14:13:14Z</time></trkpt><trkpt lat="44.73578739947467" lon="9.455124242568772"><ele>1073.6666666666667</ele><time>2026-03-27T14:13:15Z</time></trkpt><trkpt lat="44.73571192392126" lon="9.45515578419323"><ele>1075.3333333333333</ele><time>2026-03-27T14:13:16Z</time></trkpt><trkpt lat="44.7356450133189" lon="9.455234163960187"><ele>1077.0</ele><time>2026-03-27T14:13:17Z</time></trkpt><trkpt lat="44.73557238437415" lon="9.455317789995421"><ele>1077.0</ele><time>2026-03-27T14:13:18Z</time></trkpt><trkpt lat="44.73548006751796" lon="9.45537951527989"><ele>1077.0</ele><time>2026-03-27T14:13:19Z</time></trkpt><trkpt lat="44.735381164450686" lon="9.455445050773132"><ele>1077.0</ele><time>2026-03-27T14:13:20Z</time></trkpt><trkpt lat="44.73529615059507" lon="9.455523578617932"><ele>1077.0</ele><time>2026-03-27T14:13:21Z</time></trkpt><trkpt lat="44.735231562466836" lon="9.455605795795519"><ele>1077.0</ele><time>2026-03-27T14:13:22Z</time></trkpt><trkpt lat="44.73517041330276" lon="9.455706605572338"><ele>1081.75</ele><time>2026-03-27T14:13:23Z</time></trkpt><trkpt lat="44.735109964224584" lon="9.455833165727078"><ele>1086.5</ele><time>2026-03-27T14:13:24Z</time></trkpt><trkpt lat="44.73504229461492" lon="9.455961584365108"><ele>1091.25</ele><time>2026-03-27T14:13:25Z</time></trkpt><trkpt lat="44.7349510389497" lon="9.45607119723179"><ele>1096.0</ele><time>2026-03-27T14:13:26Z</time></trkpt><trkpt lat="44.73487449742553" lon="9.456192071324358"><ele>1095.6</ele><time>2026-03-27T14:13:27Z</time></trkpt><trkpt lat="44.7348067644909" lon="9.456300481078397"><ele>1095.1999999999998</ele><time>2026-03-27T14:13:28Z</time></trkpt><trkpt lat="44.73474054110792" lon="9.456394194209661"><ele>1094.8000000000002</ele><time>2026-03-27T14:13:29Z</time></trkpt><trkpt lat="44.734663323815255" lon="9.45646626898237"><ele>1094.4</ele><time>2026-03-27T14:13:30Z</time></trkpt><trkpt lat="44.734566126431574" lon="9.456516467178476"><ele>1094.0</ele><time>2026-03-27T14:13:31Z</time></trkpt><trkpt lat="44.73446405426279" lon="9.456543324430177"><ele>1094.8</ele><time>2026-03-27T14:13:32Z</time></trkpt><trkpt lat="44.734360236841916" lon="9.456580431681981"><ele>1095.6000000000001</ele><time>2026-03-27T14:13:33Z</time></trkpt><trkpt lat="44.734269660719455" lon="9.456647605732945"><ele>1096.4</ele><time>2026-03-27T14:13:34Z</time></trkpt><trkpt lat="44.73420058539683" lon="9.456725048527472"><ele>1097.2</ele><time>2026-03-27T14:13:35Z</time></trkpt><trkpt lat="44.73415280034396" lon="9.456831307308207"><ele>1098.0</ele><time>2026-03-27T14:13:36Z</time></trkpt><trkpt lat="44.73412176785008" lon="9.456961154729012"><ele>1098.0</ele><time>2026-03-27T14:13:37Z</time></trkpt><trkpt lat="44.734109454848436" lon="9.457106829574858"><ele>1098.0</ele><time>2026-03-27T14:13:38Z</time></trkpt><trkpt lat="44.73409451328992" lon="9.45725394692877"><ele>1098.0</ele><time>2026-03-27T14:13:39Z</time></trkpt><trkpt lat="44.73406476127713" lon="9.457388839922348"><ele>1098.0</ele><time>2026-03-27T14:13:40Z</time></trkpt><trkpt lat="44.73400439775726" lon="9.457497759215329"><ele>1098.0</ele><time>2026-03-27T14:13:41Z</time></trkpt><trkpt lat="44.73395359188549" lon="9.457599162086806"><ele>1098.5</ele><time>2026-03-27T14:13:42Z</time></trkpt><trkpt lat="44.73389542869208" lon="9.457681412342364"><ele>1099.0</ele><time>2026-03-27T14:13:43Z</time></trkpt><trkpt lat="44.73384118651606" lon="9.45776910361301"><ele>1099.5</ele><time>2026-03-27T14:13:44Z</time></trkpt><trkpt lat="44.733784804569055" lon="9.457845834312403"><ele>1100.0</ele><time>2026-03-27T14:13:45Z</time></trkpt><trkpt lat="44.73376609315895" lon="9.457942844097575"><ele>1100.5</ele><time>2026-03-27T14:13:46Z</time></trkpt><trkpt lat="44.733778720892815" lon="9.458052157760918"><ele>1101.0</ele><time>2026-03-27T14:13:47Z</time></trkpt><trkpt lat="44.733820909490454" lon="9.45815437188321"><ele>1101.8333333333333</ele><time>2026-03-27T14:13:48Z</time></trkpt><trkpt lat="44.733884460308005" lon="9.458240217979277"><ele>1102.6666666666667</ele><time>2026-03-27T14:13:49Z</time></trkpt><trkpt lat="44.733937761144354" lon="9.458315851542304"><ele>1103.5</ele><time>2026-03-27T14:13:50Z</time></trkpt><trkpt lat="44.73392203212982" lon="9.458461186732892"><ele>1104.3333333333335</ele><time>2026-03-27T14:13:52Z</time></trkpt><trkpt lat="44.73386237271864" lon="9.458496492489843"><ele>1105.1666666666667</ele><time>2026-03-27T14:13:53Z</time></trkpt><trkpt lat="44.73378527742881" lon="9.458504576071169"><ele>1106.0</ele><time>2026-03-27T14:13:54Z</time></trkpt><trkpt lat="44.7337090862178" lon="9.458465936767041"><ele>1106.0</ele><time>2026-03-27T14:13:55Z</time></trkpt><trkpt lat="44.73365813388385" lon="9.458354440857738"><ele>1106.0</ele><time>2026-03-27T14:13:56Z</time></trkpt><trkpt lat="44.733574055298966" lon="9.458284838465902"><ele>1106.0</ele><time>2026-03-27T14:13:57Z</time></trkpt><trkpt lat="44.73349955397167" lon="9.458190126435245"><ele>1106.0</ele><time>2026-03-27T14:13:58Z</time></trkpt><trkpt lat="44.733426215720726" lon="9.458125198474312"><ele>1106.0</ele><time>2026-03-27T14:13:59Z</time></trkpt><trkpt lat="44.73327504289398" lon="9.458013875452433"><ele>1106.6</ele><time>2026-03-27T14:14:01Z</time></trkpt><trkpt lat="44.733193275737705" lon="9.457973254131591"><ele>1107.1999999999998</ele><time>2026-03-27T14:14:02Z</time></trkpt><trkpt lat="44.73310354665303" lon="9.457967940051368"><ele>1107.8000000000002</ele><time>2026-03-27T14:14:03Z</time></trkpt><trkpt lat="44.733006518949935" lon="9.457968866397543"><ele>1108.4</ele><time>2026-03-27T14:14:04Z</time></trkpt><trkpt lat="44.73291567927673" lon="9.45790892587506"><ele>1109.0</ele><time>2026-03-27T14:14:05Z</time></trkpt><trkpt lat="44.73284644440304" lon="9.457835185873007"><ele>1108.9999999999998</ele><time>2026-03-27T14:14:06Z</time></trkpt><trkpt lat="44.73276698749176" lon="9.457782407733882"><ele>1109.0</ele><time>2026-03-27T14:14:07Z</time></trkpt><trkpt lat="44.732703795113366" lon="9.457733433766032"><ele>1109.0</ele><time>2026-03-27T14:14:08Z</time></trkpt><trkpt lat="44.73264006483683" lon="9.457726685515658"><ele>1109.0</ele><time>2026-03-27T14:14:09Z</time></trkpt><trkpt lat="44.73257254514709" lon="9.457757224797406"><ele>1109.0</ele><time>2026-03-27T14:14:10Z</time></trkpt><trkpt lat="44.73251139270904" lon="9.457810266826337"><ele>1108.9999999999998</ele><time>2026-03-27T14:14:11Z</time></trkpt><trkpt lat="44.73244774436007" lon="9.457867455246914"><ele>1109.0</ele><time>2026-03-27T14:14:12Z</time></trkpt><trkpt lat="44.732383164706" lon="9.457936031818257"><ele>1113.8</ele><time>2026-03-27T14:14:13Z</time></trkpt><trkpt lat="44.732310335130904" lon="9.458017646607102"><ele>1118.6000000000001</ele><time>2026-03-27T14:14:14Z</time></trkpt><trkpt lat="44.732216867652724" lon="9.458047225138406"><ele>1123.4</ele><time>2026-03-27T14:14:15Z</time></trkpt><trkpt lat="44.732135967938504" lon="9.458075945364536"><ele>1128.2</ele><time>2026-03-27T14:14:16Z</time></trkpt><trkpt lat="44.732072187365524" lon="9.458102551714488"><ele>1133.0</ele><time>2026-03-27T14:14:17Z</time></trkpt><trkpt lat="44.73197970173643" lon="9.457986175270738"><ele>1134.4</ele><time>2026-03-27T14:14:19Z</time></trkpt><trkpt lat="44.731955908183586" lon="9.457880282770473"><ele>1135.8</ele><time>2026-03-27T14:14:20Z</time></trkpt><trkpt lat="44.73193898477245" lon="9.457753698773615"><ele>1137.2</ele><time>2026-03-27T14:14:21Z</time></trkpt><trkpt lat="44.731873668983305" lon="9.457645386394333"><ele>1138.6</ele><time>2026-03-27T14:14:23Z</time></trkpt><trkpt lat="44.73175505068916" lon="9.45769212460693"><ele>1140.0</ele><time>2026-03-27T14:14:25Z</time></trkpt><trkpt lat="44.73174959090533" lon="9.457800141385686"><ele>1140.0</ele><time>2026-03-27T14:14:26Z</time></trkpt><trkpt lat="44.73175446610485" lon="9.457901822715536"><ele>1140.0</ele><time>2026-03-27T14:14:27Z</time></trkpt><trkpt lat="44.7317382983562" lon="9.458016265333184"><ele>1140.0</ele><time>2026-03-27T14:14:28Z</time></trkpt><trkpt lat="44.73171554226349" lon="9.458141670945476"><ele>1140.0</ele><time>2026-03-27T14:14:29Z</time></trkpt><trkpt lat="44.73169564165481" lon="9.458281054870485"><ele>1140.0</ele><time>2026-03-27T14:14:30Z</time></trkpt><trkpt lat="44.731687087644985" lon="9.458423975617738"><ele>1140.3333333333333</ele><time>2026-03-27T14:14:31Z</time></trkpt><trkpt lat="44.73171017937589" lon="9.458543611836596"><ele>1140.6666666666667</ele><time>2026-03-27T14:14:32Z</time></trkpt><trkpt lat="44.73171070529142" lon="9.4586879393563"><ele>1141.0</ele><time>2026-03-27T14:14:33Z</time></trkpt><trkpt lat="44.73170423229726" lon="9.458801020203579"><ele>1141.3333333333335</ele><time>2026-03-27T14:14:34Z</time></trkpt><trkpt lat="44.73168345427183" lon="9.458898716734828"><ele>1141.6666666666667</ele><time>2026-03-27T14:14:35Z</time></trkpt><trkpt lat="44.731644165789234" lon="9.458970725707895"><ele>1142.0</ele><time>2026-03-27T14:14:36Z</time></trkpt><trkpt lat="44.73153243383476" lon="9.45899805532736"><ele>1142.1666666666667</ele><time>2026-03-27T14:14:38Z</time></trkpt><trkpt lat="44.73146555242713" lon="9.458958048289727"><ele>1142.3333333333335</ele><time>2026-03-27T14:14:39Z</time></trkpt><trkpt lat="44.73140011522906" lon="9.458918316550537"><ele>1142.5</ele><time>2026-03-27T14:14:40Z</time></trkpt><trkpt lat="44.731321522978696" lon="9.458909368466427"><ele>1142.6666666666667</ele><time>2026-03-27T14:14:41Z</time></trkpt><trkpt lat="44.73123233892507" lon="9.458939914006042"><ele>1142.8333333333333</ele><time>2026-03-27T14:14:42Z</time></trkpt><trkpt lat="44.73115273002744" lon="9.458986473545966"><ele>1143.0</ele><time>2026-03-27T14:14:43Z</time></trkpt><trkpt lat="44.731082494870236" lon="9.459034660937602"><ele>1144.3333333333333</ele><time>2026-03-27T14:14:44Z</time></trkpt><trkpt lat="44.73102603023124" lon="9.459101880176538"><ele>1145.6666666666667</ele><time>2026-03-27T14:14:45Z</time></trkpt><trkpt lat="44.730984563304666" lon="9.459201653266746"><ele>1147.0</ele><time>2026-03-27T14:14:46Z</time></trkpt><trkpt lat="44.73096572281622" lon="9.459315741139662"><ele>1148.3333333333335</ele><time>2026-03-27T14:14:47Z</time></trkpt><trkpt lat="44.730978039037986" lon="9.459433448344406"><ele>1149.6666666666667</ele><time>2026-03-27T14:14:48Z</time></trkpt><trkpt lat="44.73100629218806" lon="9.459552151352113"><ele>1151.0</ele><time>2026-03-27T14:14:49Z</time></trkpt><trkpt lat="44.73103527164789" lon="9.459676407246862"><ele>1149.6</ele><time>2026-03-27T14:14:50Z</time></trkpt><trkpt lat="44.7310582296324" lon="9.459798256979925"><ele>1148.1999999999998</ele><time>2026-03-27T14:14:51Z</time></trkpt><trkpt lat="44.73107782590644" lon="9.459912192587678"><ele>1146.8000000000002</ele><time>2026-03-27T14:14:52Z</time></trkpt><trkpt lat="44.731093292815586" lon="9.460011521233247"><ele>1145.4</ele><time>2026-03-27T14:14:53Z</time></trkpt><trkpt lat="44.73111862847756" lon="9.460171218514343"><ele>1144.0</ele><time>2026-03-27T14:14:55Z</time></trkpt><trkpt lat="44.73114275735164" lon="9.460302361395064"><ele>1144.0</ele><time>2026-03-27T14:14:57Z</time></trkpt><trkpt lat="44.731170804866" lon="9.460393584776666"><ele>1144.0</ele><time>2026-03-27T14:14:59Z</time></trkpt><trkpt lat="44.73119400710316" lon="9.460478102721824"><ele>1144.0</ele><time>2026-03-27T14:15:02Z</time></trkpt><trkpt lat="44.73119898105405" lon="9.460524493667133"><ele>1144.0</ele><time>2026-03-27T14:19:56Z</time></trkpt><trkpt lat="44.73116563017362" lon="9.460615692304533"><ele>1144.0</ele><time>2026-03-27T14:19:58Z</time></trkpt><trkpt lat="44.73121693030015" lon="9.46075910801954"><ele>1144.0</ele><time>2026-03-27T14:20:00Z</time></trkpt><trkpt lat="44.73120156199702" lon="9.460921530496293"><ele>1144.0</ele><time>2026-03-27T14:20:02Z</time></trkpt><trkpt lat="44.731190858199895" lon="9.461023525323354"><ele>1144.0</ele><time>2026-03-27T14:20:03Z</time></trkpt><trkpt lat="44.73118208755313" lon="9.461134229180331"><ele>1144.0</ele><time>2026-03-27T14:20:04Z</time></trkpt><trkpt lat="44.731175902593016" lon="9.461255061609396"><ele>1144.0</ele><time>2026-03-27T14:20:05Z</time></trkpt><trkpt lat="44.731170105784585" lon="9.46137862517965"><ele>1144.0</ele><time>2026-03-27T14:20:06Z</time></trkpt><trkpt lat="44.73116231799082" lon="9.461509650402897"><ele>1144.0</ele><time>2026-03-27T14:20:07Z</time></trkpt><trkpt lat="44.73114793117636" lon="9.461625067544416"><ele>1144.0</ele><time>2026-03-27T14:20:08Z</time></trkpt><trkpt lat="44.73111537126221" lon="9.461726738774036"><ele>1144.0</ele><time>2026-03-27T14:20:09Z</time></trkpt><trkpt lat="44.73107272054547" lon="9.461808929549216"><ele>1144.0</ele><time>2026-03-27T14:20:10Z</time></trkpt><trkpt lat="44.73102063108108" lon="9.461886344564148"><ele>1144.0</ele><time>2026-03-27T14:20:11Z</time></trkpt><trkpt lat="44.730956055204246" lon="9.46195745825576"><ele>1144.0</ele><time>2026-03-27T14:20:12Z</time></trkpt><trkpt lat="44.730887167873504" lon="9.462031865289644"><ele>1144.0</ele><time>2026-03-27T14:20:13Z</time></trkpt><trkpt lat="44.73081472488206" lon="9.46211025479847"><ele>1144.0</ele><time>2026-03-27T14:20:14Z</time></trkpt><trkpt lat="44.73075279875468" lon="9.462194849241154"><ele>1144.0</ele><time>2026-03-27T14:20:15Z</time></trkpt><trkpt lat="44.730720135280876" lon="9.46230420074851"><ele>1144.0</ele><time>2026-03-27T14:20:16Z</time></trkpt><trkpt lat="44.7307035244893" lon="9.46241195838637"><ele>1144.0</ele><time>2026-03-27T14:20:17Z</time></trkpt><trkpt lat="44.73071229327842" lon="9.462527589516474"><ele>1144.0</ele><time>2026-03-27T14:20:18Z</time></trkpt><trkpt lat="44.73075947889429" lon="9.462648579602394"><ele>1144.0</ele><time>2026-03-27T14:20:19Z</time></trkpt><trkpt lat="44.73082954538248" lon="9.462752249497004"><ele>1144.0</ele><time>2026-03-27T14:20:20Z</time></trkpt><trkpt lat="44.73089815222941" lon="9.462852926455087"><ele>1144.0</ele><time>2026-03-27T14:20:21Z</time></trkpt><trkpt lat="44.73097312049682" lon="9.462948731397397"><ele>1144.0</ele><time>2026-03-27T14:20:22Z</time></trkpt><trkpt lat="44.73100595557234" lon="9.463056924321027"><ele>1144.0</ele><time>2026-03-27T14:20:23Z</time></trkpt><trkpt lat="44.73105142756731" lon="9.463147533362994"><ele>1144.0</ele><time>2026-03-27T14:20:24Z</time></trkpt><trkpt lat="44.731058996026384" lon="9.46325825429864"><ele>1144.0</ele><time>2026-03-27T14:20:25Z</time></trkpt><trkpt lat="44.731027019688845" lon="9.463362499429548"><ele>1143.6666666666665</ele><time>2026-03-27T14:20:26Z</time></trkpt><trkpt lat="44.73098101659754" lon="9.463448338360315"><ele>1143.3333333333333</ele><time>2026-03-27T14:20:27Z</time></trkpt><trkpt lat="44.73093330270317" lon="9.463555491305943"><ele>1143.0</ele><time>2026-03-27T14:20:28Z</time></trkpt><trkpt lat="44.73089475482534" lon="9.463679371916099"><ele>1142.6666666666667</ele><time>2026-03-27T14:20:29Z</time></trkpt><trkpt lat="44.7308318121392" lon="9.463775263676123"><ele>1142.3333333333335</ele><time>2026-03-27T14:20:30Z</time></trkpt><trkpt lat="44.73078764104981" lon="9.46389127229648"><ele>1142.0</ele><time>2026-03-27T14:20:30.999Z</time></trkpt><trkpt lat="44.7307610848729" lon="9.464014851293202"><ele>1140.0</ele><time>2026-03-27T14:20:31.999Z</time></trkpt><trkpt lat="44.730745868948034" lon="9.464149507077275"><ele>1138.0</ele><time>2026-03-27T14:20:32.999Z</time></trkpt><trkpt lat="44.73075757240201" lon="9.464301364144967"><ele>1136.0</ele><time>2026-03-27T14:20:33.999Z</time></trkpt><trkpt lat="44.73075894440341" lon="9.464448005962941"><ele>1134.0</ele><time>2026-03-27T14:20:34.999Z</time></trkpt><trkpt lat="44.73075002853731" lon="9.464563017907151"><ele>1132.0</ele><time>2026-03-27T14:20:35.999Z</time></trkpt><trkpt lat="44.73072798606324" lon="9.464683706469938"><ele>1130.3333333333333</ele><time>2026-03-27T14:20:36.999Z</time></trkpt><trkpt lat="44.730685486728156" lon="9.464789303149816"><ele>1128.6666666666665</ele><time>2026-03-27T14:20:37.999Z</time></trkpt><trkpt lat="44.730655914084835" lon="9.464911277423973"><ele>1127.0</ele><time>2026-03-27T14:20:38.999Z</time></trkpt><trkpt lat="44.73063177221614" lon="9.465038292285856"><ele>1125.3333333333333</ele><time>2026-03-27T14:20:39.999Z</time></trkpt><trkpt lat="44.7306140450095" lon="9.465158691612537"><ele>1123.6666666666667</ele><time>2026-03-27T14:20:40.999Z</time></trkpt><trkpt lat="44.73060582007335" lon="9.465278628692966"><ele>1122.0</ele><time>2026-03-27T14:20:41.999Z</time></trkpt><trkpt lat="44.73062277109756" lon="9.465411285158106"><ele>1120.6</ele><time>2026-03-27T14:20:42.999Z</time></trkpt><trkpt lat="44.730663900509896" lon="9.46554413162988"><ele>1119.2</ele><time>2026-03-27T14:20:43.999Z</time></trkpt><trkpt lat="44.73071774733345" lon="9.465675780659826"><ele>1117.8</ele><time>2026-03-27T14:20:44.999Z</time></trkpt><trkpt lat="44.730776642705266" lon="9.465778514346512"><ele>1116.4</ele><time>2026-03-27T14:20:46Z</time></trkpt><trkpt lat="44.73083295833176" lon="9.465864562369804"><ele>1115.0</ele><time>2026-03-27T14:20:47Z</time></trkpt><trkpt lat="44.73086090769544" lon="9.465950224021638"><ele>1115.0</ele><time>2026-03-27T14:20:48Z</time></trkpt><trkpt lat="44.73086665446183" lon="9.466047199192017"><ele>1115.0</ele><time>2026-03-27T14:20:49Z</time></trkpt><trkpt lat="44.73084958082146" lon="9.466151583983493"><ele>1115.0</ele><time>2026-03-27T14:20:50Z</time></trkpt><trkpt lat="44.73082899511415" lon="9.46627739304986"><ele>1115.0</ele><time>2026-03-27T14:20:51Z</time></trkpt><trkpt lat="44.73080445925525" lon="9.46639829920567"><ele>1115.0</ele><time>2026-03-27T14:20:52Z</time></trkpt><trkpt lat="44.7307774591726" lon="9.466504377564995"><ele>1115.0</ele><time>2026-03-27T14:20:53Z</time></trkpt><trkpt lat="44.730754410904325" lon="9.466599743961462"><ele>1113.6666666666667</ele><time>2026-03-27T14:20:54Z</time></trkpt><trkpt lat="44.730695146221045" lon="9.466642490523693"><ele>1112.3333333333335</ele><time>2026-03-27T14:20:55Z</time></trkpt><trkpt lat="44.73061763512814" lon="9.466660438258234"><ele>1111.0</ele><time>2026-03-27T14:20:56Z</time></trkpt><trkpt lat="44.73053467251997" lon="9.466681094341364"><ele>1109.6666666666667</ele><time>2026-03-27T14:20:57Z</time></trkpt><trkpt lat="44.730455579212034" lon="9.466720956795935"><ele>1108.3333333333333</ele><time>2026-03-27T14:20:58Z</time></trkpt><trkpt lat="44.73037491201912" lon="9.466764323153377"><ele>1107.0</ele><time>2026-03-27T14:20:59Z</time></trkpt><trkpt lat="44.73028289111441" lon="9.466757176501734"><ele>1107.1666666666667</ele><time>2026-03-27T14:21:00Z</time></trkpt><trkpt lat="44.73020175794275" lon="9.46673477429364"><ele>1107.3333333333333</ele><time>2026-03-27T14:21:01Z</time></trkpt><trkpt lat="44.73011231145487" lon="9.46673668058477"><ele>1107.5</ele><time>2026-03-27T14:21:02Z</time></trkpt><trkpt lat="44.73002715801947" lon="9.46676381576808"><ele>1107.6666666666665</ele><time>2026-03-27T14:21:03Z</time></trkpt><trkpt lat="44.72994441240999" lon="9.46680742062509"><ele>1107.8333333333333</ele><time>2026-03-27T14:21:04Z</time></trkpt><trkpt lat="44.72986047064129" lon="9.466835056913082"><ele>1108.0</ele><time>2026-03-27T14:21:05Z</time></trkpt><trkpt lat="44.7297877362188" lon="9.466910420029423"><ele>1108.0</ele><time>2026-03-27T14:21:06Z</time></trkpt><trkpt lat="44.72973359931173" lon="9.467028334674325"><ele>1108.0</ele><time>2026-03-27T14:21:07Z</time></trkpt><trkpt lat="44.7297259683155" lon="9.467152443884888"><ele>1108.0</ele><time>2026-03-27T14:21:08Z</time></trkpt><trkpt lat="44.729703690793045" lon="9.467257905294272"><ele>1108.0</ele><time>2026-03-27T14:21:09Z</time></trkpt><trkpt lat="44.72961552615947" lon="9.467365124453673"><ele>1108.0</ele><time>2026-03-27T14:21:11Z</time></trkpt><trkpt lat="44.72953919351202" lon="9.467354102390697"><ele>1106.8333333333333</ele><time>2026-03-27T14:21:12Z</time></trkpt><trkpt lat="44.729473681791504" lon="9.467298857486602"><ele>1105.6666666666665</ele><time>2026-03-27T14:21:13Z</time></trkpt><trkpt lat="44.72941632404946" lon="9.467211141508779"><ele>1104.5</ele><time>2026-03-27T14:21:14Z</time></trkpt><trkpt lat="44.729391451077234" lon="9.467098511661064"><ele>1103.3333333333333</ele><time>2026-03-27T14:21:15Z</time></trkpt><trkpt lat="44.72933705679517" lon="9.46701700834516"><ele>1102.1666666666667</ele><time>2026-03-27T14:21:16Z</time></trkpt><trkpt lat="44.7292824883816" lon="9.46693148951586"><ele>1101.0</ele><time>2026-03-27T14:21:17Z</time></trkpt><trkpt lat="44.72919888915415" lon="9.466936751535373"><ele>1101.0</ele><time>2026-03-27T14:21:18Z</time></trkpt><trkpt lat="44.72912117330958" lon="9.467009067954422"><ele>1101.0</ele><time>2026-03-27T14:21:19Z</time></trkpt><trkpt lat="44.729039767132335" lon="9.467053619899739"><ele>1101.0</ele><time>2026-03-27T14:21:20Z</time></trkpt><trkpt lat="44.72895763617165" lon="9.467105367474442"><ele>1101.0</ele><time>2026-03-27T14:21:21Z</time></trkpt><trkpt lat="44.72886772605653" lon="9.467129596317601"><ele>1101.0</ele><time>2026-03-27T14:21:22Z</time></trkpt><trkpt lat="44.72878449799444" lon="9.467164062371317"><ele>1101.0</ele><time>2026-03-27T14:21:23Z</time></trkpt><trkpt lat="44.728687128879464" lon="9.467193935009783"><ele>1098.8333333333333</ele><time>2026-03-27T14:21:24Z</time></trkpt><trkpt lat="44.72860375123505" lon="9.467217365252473"><ele>1096.6666666666667</ele><time>2026-03-27T14:21:25Z</time></trkpt><trkpt lat="44.728528783341865" lon="9.467250219109243"><ele>1094.5</ele><time>2026-03-27T14:21:26Z</time></trkpt><trkpt lat="44.72847883025393" lon="9.467334820855624"><ele>1092.3333333333335</ele><time>2026-03-27T14:21:27Z</time></trkpt><trkpt lat="44.72848561564317" lon="9.46749205615984"><ele>1090.1666666666667</ele><time>2026-03-27T14:21:28Z</time></trkpt><trkpt lat="44.728495836492975" lon="9.467618856182293"><ele>1088.0</ele><time>2026-03-27T14:21:29Z</time></trkpt><trkpt lat="44.72848069020897" lon="9.467749900424979"><ele>1086.8</ele><time>2026-03-27T14:21:30Z</time></trkpt><trkpt lat="44.72842500673884" lon="9.467867402094074"><ele>1085.6</ele><time>2026-03-27T14:21:31Z</time></trkpt><trkpt lat="44.72838063676942" lon="9.468005869805783"><ele>1084.4</ele><time>2026-03-27T14:21:32Z</time></trkpt><trkpt lat="44.72836514319709" lon="9.468151289228011"><ele>1083.2</ele><time>2026-03-27T14:21:33Z</time></trkpt><trkpt lat="44.72834288834517" lon="9.468278128709166"><ele>1082.0</ele><time>2026-03-27T14:21:34Z</time></trkpt><trkpt lat="44.72830535765434" lon="9.468402694668141"><ele>1079.8</ele><time>2026-03-27T14:21:35Z</time></trkpt><trkpt lat="44.72830036162864" lon="9.468534181275347"><ele>1077.6</ele><time>2026-03-27T14:21:36Z</time></trkpt><trkpt lat="44.72837147391596" lon="9.468668115478463"><ele>1075.3999999999999</ele><time>2026-03-27T14:21:37Z</time></trkpt><trkpt lat="44.72841891418648" lon="9.468800374797787"><ele>1073.2</ele><time>2026-03-27T14:21:38Z</time></trkpt><trkpt lat="44.728458970398705" lon="9.468940810806346"><ele>1071.0</ele><time>2026-03-27T14:21:39Z</time></trkpt><trkpt lat="44.72845912130029" lon="9.469095658552458"><ele>1069.2</ele><time>2026-03-27T14:21:40Z</time></trkpt><trkpt lat="44.72847564619287" lon="9.469242533769823"><ele>1067.3999999999999</ele><time>2026-03-27T14:21:41Z</time></trkpt><trkpt lat="44.72849211442444" lon="9.469388905532707"><ele>1065.6</ele><time>2026-03-27T14:21:42Z</time></trkpt><trkpt lat="44.72850971293323" lon="9.469530993903666"><ele>1063.8</ele><time>2026-03-27T14:21:43Z</time></trkpt><trkpt lat="44.72852702840376" lon="9.469667580026908"><ele>1062.0</ele><time>2026-03-27T14:21:44Z</time></trkpt><trkpt lat="44.728544268742986" lon="9.469800314012472"><ele>1060.8333333333333</ele><time>2026-03-27T14:21:45Z</time></trkpt><trkpt lat="44.72856120396946" lon="9.469925831202088"><ele>1059.6666666666667</ele><time>2026-03-27T14:21:46Z</time></trkpt><trkpt lat="44.72857610850138" lon="9.470049912353641"><ele>1058.5</ele><time>2026-03-27T14:21:47Z</time></trkpt><trkpt lat="44.72857502252544" lon="9.47016994235012"><ele>1057.3333333333335</ele><time>2026-03-27T14:21:48Z</time></trkpt><trkpt lat="44.72857958912774" lon="9.470296361235018"><ele>1056.1666666666667</ele><time>2026-03-27T14:21:49Z</time></trkpt><trkpt lat="44.72854848351113" lon="9.47041563701974"><ele>1055.0</ele><time>2026-03-27T14:21:50Z</time></trkpt><trkpt lat="44.72854455160032" lon="9.470536160162371"><ele>1054.2</ele><time>2026-03-27T14:21:51Z</time></trkpt><trkpt lat="44.72850994501536" lon="9.470660548637518"><ele>1053.4</ele><time>2026-03-27T14:21:52Z</time></trkpt><trkpt lat="44.72852081919844" lon="9.470801405506007"><ele>1052.6</ele><time>2026-03-27T14:21:53Z</time></trkpt><trkpt lat="44.72855037020189" lon="9.47093869766771"><ele>1051.8</ele><time>2026-03-27T14:21:54Z</time></trkpt><trkpt lat="44.72860165252092" lon="9.471068584842635"><ele>1051.0</ele><time>2026-03-27T14:21:55Z</time></trkpt><trkpt lat="44.72867312863805" lon="9.471192591200255"><ele>1049.3999999999999</ele><time>2026-03-27T14:21:56Z</time></trkpt><trkpt lat="44.72874631214632" lon="9.471306705622967"><ele>1047.8</ele><time>2026-03-27T14:21:57Z</time></trkpt><trkpt lat="44.72882017062989" lon="9.471409854641598"><ele>1046.1999999999998</ele><time>2026-03-27T14:21:58Z</time></trkpt><trkpt lat="44.72888779577865" lon="9.471511454116348"><ele>1044.6</ele><time>2026-03-27T14:21:59Z</time></trkpt><trkpt lat="44.72895264847303" lon="9.471614701613571"><ele>1043.0</ele><time>2026-03-27T14:22:00Z</time></trkpt><trkpt lat="44.72901101613177" lon="9.471719626104731"><ele>1043.0</ele><time>2026-03-27T14:22:01Z</time></trkpt><trkpt lat="44.72906019697053" lon="9.471830894569088"><ele>1043.0</ele><time>2026-03-27T14:22:02Z</time></trkpt><trkpt lat="44.72908851878789" lon="9.471959232397367"><ele>1043.0</ele><time>2026-03-27T14:22:03Z</time></trkpt><trkpt lat="44.72908955316909" lon="9.472097111603532"><ele>1043.0</ele><time>2026-03-27T14:22:04Z</time></trkpt><trkpt lat="44.729085737215414" lon="9.472237229822738"><ele>1043.0</ele><time>2026-03-27T14:22:05Z</time></trkpt><trkpt lat="44.72908780940823" lon="9.472384141935349"><ele>1040.75</ele><time>2026-03-27T14:22:06Z</time></trkpt><trkpt lat="44.72909613871892" lon="9.472536579226716"><ele>1038.5</ele><time>2026-03-27T14:22:07Z</time></trkpt><trkpt lat="44.72911026210773" lon="9.472690122619264"><ele>1036.25</ele><time>2026-03-27T14:22:08Z</time></trkpt><trkpt lat="44.72913038546856" lon="9.47284899199232"><ele>1034.0</ele><time>2026-03-27T14:22:09Z</time></trkpt><trkpt lat="44.729148396821174" lon="9.473013269963284"><ele>1032.0</ele><time>2026-03-27T14:22:10Z</time></trkpt><trkpt lat="44.72917323578479" lon="9.47317516608982"><ele>1030.0</ele><time>2026-03-27T14:22:11Z</time></trkpt><trkpt lat="44.72921090177824" lon="9.473333245676756"><ele>1028.0</ele><time>2026-03-27T14:22:12Z</time></trkpt><trkpt lat="44.729262658174285" lon="9.473487725546681"><ele>1026.0</ele><time>2026-03-27T14:22:13Z</time></trkpt><trkpt lat="44.729323057750356" lon="9.473645256652677"><ele>1025.5</ele><time>2026-03-27T14:22:14Z</time></trkpt><trkpt lat="44.7293835178947" lon="9.47380100275847"><ele>1025.0</ele><time>2026-03-27T14:22:15Z</time></trkpt><trkpt lat="44.7294409988638" lon="9.47394827908955"><ele>1024.5</ele><time>2026-03-27T14:22:16Z</time></trkpt><trkpt lat="44.72949625063089" lon="9.47409166558129"><ele>1024.0</ele><time>2026-03-27T14:22:17Z</time></trkpt><trkpt lat="44.7295476892938" lon="9.474227210898821"><ele>1024.0</ele><time>2026-03-27T14:22:18Z</time></trkpt><trkpt lat="44.72959782846079" lon="9.474344266082179"><ele>1024.0</ele><time>2026-03-27T14:22:19Z</time></trkpt><trkpt lat="44.72965847852989" lon="9.474443937389763"><ele>1024.0</ele><time>2026-03-27T14:22:20Z</time></trkpt><trkpt lat="44.729737723667" lon="9.474506688874332"><ele>1024.0</ele><time>2026-03-27T14:22:21Z</time></trkpt><trkpt lat="44.72983556434293" lon="9.474548377602636"><ele>1024.0</ele><time>2026-03-27T14:22:22Z</time></trkpt><trkpt lat="44.729942920987575" lon="9.474578172946392"><ele>1021.8000000000001</ele><time>2026-03-27T14:22:23Z</time></trkpt><trkpt lat="44.73003946500033" lon="9.474623687378505"><ele>1019.6000000000001</ele><time>2026-03-27T14:22:24Z</time></trkpt><trkpt lat="44.73012110829804" lon="9.47470512258401"><ele>1017.4</ele><time>2026-03-27T14:22:25Z</time></trkpt><trkpt lat="44.730190575109205" lon="9.474827159752342"><ele>1015.2</ele><time>2026-03-27T14:22:26Z</time></trkpt><trkpt lat="44.73026436909057" lon="9.474953993291928"><ele>1013.0</ele><time>2026-03-27T14:22:27Z</time></trkpt><trkpt lat="44.73033172550307" lon="9.475099023751449"><ele>1012.0</ele><time>2026-03-27T14:22:28Z</time></trkpt><trkpt lat="44.730396395910674" lon="9.47525333438078"><ele>1011.0</ele><time>2026-03-27T14:22:29Z</time></trkpt><trkpt lat="44.730462936424075" lon="9.475414602928968"><ele>1010.0</ele><time>2026-03-27T14:22:30Z</time></trkpt><trkpt lat="44.73053236243943" lon="9.4755751471101"><ele>1009.0</ele><time>2026-03-27T14:22:31Z</time></trkpt><trkpt lat="44.73060867821431" lon="9.475736764512613"><ele>1007.75</ele><time>2026-03-27T14:22:32Z</time></trkpt><trkpt lat="44.73068145740214" lon="9.475900144479727"><ele>1006.5</ele><time>2026-03-27T14:22:33Z</time></trkpt><trkpt lat="44.73074889165438" lon="9.476062620407149"><ele>1005.25</ele><time>2026-03-27T14:22:34Z</time></trkpt><trkpt lat="44.73081788483639" lon="9.476223826442075"><ele>1004.0</ele><time>2026-03-27T14:22:34.999Z</time></trkpt><trkpt lat="44.73088737776071" lon="9.476381454139801"><ele>1003.75</ele><time>2026-03-27T14:22:35.999Z</time></trkpt><trkpt lat="44.730960162850636" lon="9.476532793617809"><ele>1003.5</ele><time>2026-03-27T14:22:36.999Z</time></trkpt><trkpt lat="44.73103796913904" lon="9.476682771914577"><ele>1003.25</ele><time>2026-03-27T14:22:37.999Z</time></trkpt><trkpt lat="44.7311226571688" lon="9.476833377417428"><ele>1003.0</ele><time>2026-03-27T14:22:38.999Z</time></trkpt><trkpt lat="44.73121735906495" lon="9.476987151806416"><ele>1003.0</ele><time>2026-03-27T14:22:39.999Z</time></trkpt><trkpt lat="44.73131881643406" lon="9.477143487697047"><ele>1003.0</ele><time>2026-03-27T14:22:40.999Z</time></trkpt><trkpt lat="44.731416325167054" lon="9.4773071030627"><ele>1003.0</ele><time>2026-03-27T14:22:41.999Z</time></trkpt><trkpt lat="44.731501043251185" lon="9.47747736857653"><ele>1003.0</ele><time>2026-03-27T14:22:42.999Z</time></trkpt><trkpt lat="44.731566965621376" lon="9.47766043340535"><ele>1003.0</ele><time>2026-03-27T14:22:43.999Z</time></trkpt><trkpt lat="44.73161246073432" lon="9.477853493337491"><ele>1003.0</ele><time>2026-03-27T14:22:44.999Z</time></trkpt><trkpt lat="44.73163986654689" lon="9.478049795324443"><ele>1003.0</ele><time>2026-03-27T14:22:45.999Z</time></trkpt><trkpt lat="44.73166670426996" lon="9.478234250364448"><ele>1001.8</ele><time>2026-03-27T14:22:46.999Z</time></trkpt><trkpt lat="44.73169782479949" lon="9.478399321057696"><ele>1000.5999999999999</ele><time>2026-03-27T14:22:47.999Z</time></trkpt><trkpt lat="44.73174515795498" lon="9.478512378080316"><ele>999.4000000000001</ele><time>2026-03-27T14:22:48.999Z</time></trkpt><trkpt lat="44.731815728961415" lon="9.478581375238207"><ele>998.2</ele><time>2026-03-27T14:22:49.999Z</time></trkpt><trkpt lat="44.731918052001504" lon="9.478618309398522"><ele>997.0</ele><time>2026-03-27T14:22:50.999Z</time></trkpt><trkpt lat="44.73204691675819" lon="9.478646927181819"><ele>996.25</ele><time>2026-03-27T14:22:52Z</time></trkpt><trkpt lat="44.73218103248465" lon="9.478670234127037"><ele>995.5</ele><time>2026-03-27T14:22:53Z</time></trkpt><trkpt lat="44.732232405907126" lon="9.478771720277607"><ele>994.75</ele><time>2026-03-27T14:22:54Z</time></trkpt><trkpt lat="44.73233939786081" lon="9.478845715153572"><ele>994.0</ele><time>2026-03-27T14:22:55Z</time></trkpt><trkpt lat="44.732429041285634" lon="9.478955701657888"><ele>991.5</ele><time>2026-03-27T14:22:56Z</time></trkpt><trkpt lat="44.73250385261801" lon="9.479103565857853"><ele>989.0</ele><time>2026-03-27T14:22:57Z</time></trkpt><trkpt lat="44.73255917832845" lon="9.479292388986215"><ele>986.5</ele><time>2026-03-27T14:22:58Z</time></trkpt><trkpt lat="44.73260295405181" lon="9.479516073558697"><ele>984.0</ele><time>2026-03-27T14:22:59Z</time></trkpt><trkpt lat="44.73265332282861" lon="9.47974861058667"><ele>981.3333333333333</ele><time>2026-03-27T14:23:00Z</time></trkpt><trkpt lat="44.732712136921414" lon="9.479973521338456"><ele>978.6666666666666</ele><time>2026-03-27T14:23:01Z</time></trkpt><trkpt lat="44.73277009561145" lon="9.480211014122094"><ele>976.0</ele><time>2026-03-27T14:23:02Z</time></trkpt><trkpt lat="44.732815094472485" lon="9.480454987508567"><ele>974.0</ele><time>2026-03-27T14:23:03Z</time></trkpt><trkpt lat="44.732842991769836" lon="9.4807012455843"><ele>972.0</ele><time>2026-03-27T14:23:04Z</time></trkpt><trkpt lat="44.73287225271391" lon="9.480953019802522"><ele>970.0</ele><time>2026-03-27T14:23:05Z</time></trkpt><trkpt lat="44.732899955354064" lon="9.481206059074523"><ele>971.3333333333333</ele><time>2026-03-27T14:23:06Z</time></trkpt><trkpt lat="44.73292865602888" lon="9.48145129324344"><ele>972.6666666666667</ele><time>2026-03-27T14:23:07Z</time></trkpt><trkpt lat="44.732961075774654" lon="9.481693194703166"><ele>974.0</ele><time>2026-03-27T14:23:08Z</time></trkpt><trkpt lat="44.732993825699644" lon="9.481916972569302"><ele>975.25</ele><time>2026-03-27T14:23:09Z</time></trkpt><trkpt lat="44.73302113767094" lon="9.48211737419085"><ele>976.5</ele><time>2026-03-27T14:23:10Z</time></trkpt><trkpt lat="44.73304638533781" lon="9.482308024549603"><ele>977.75</ele><time>2026-03-27T14:23:11Z</time></trkpt><trkpt lat="44.73307941939526" lon="9.48249580350748"><ele>979.0</ele><time>2026-03-27T14:23:12Z</time></trkpt><trkpt lat="44.733124789807256" lon="9.482686293995597"><ele>979.0</ele><time>2026-03-27T14:23:13Z</time></trkpt><trkpt lat="44.73318328991402" lon="9.4828603711302"><ele>979.0</ele><time>2026-03-27T14:23:14Z</time></trkpt><trkpt lat="44.73325002056564" lon="9.48302383659984"><ele>979.0</ele><time>2026-03-27T14:23:15Z</time></trkpt><trkpt lat="44.733314125118575" lon="9.483165114616318"><ele>979.0</ele><time>2026-03-27T14:23:16Z</time></trkpt><trkpt lat="44.733382404107985" lon="9.483278636617342"><ele>979.0</ele><time>2026-03-27T14:23:17Z</time></trkpt><trkpt lat="44.73346697566138" lon="9.48336566907343"><ele>979.0</ele><time>2026-03-27T14:23:18Z</time></trkpt><trkpt lat="44.73357908708576" lon="9.483442700178445"><ele>979.0</ele><time>2026-03-27T14:23:19Z</time></trkpt><trkpt lat="44.73370682678687" lon="9.4834979338861"><ele>979.0</ele><time>2026-03-27T14:23:20Z</time></trkpt><trkpt lat="44.733850658151894" lon="9.483538499847823"><ele>979.0</ele><time>2026-03-27T14:23:21Z</time></trkpt><trkpt lat="44.733999627307014" lon="9.48358810445181"><ele>979.0</ele><time>2026-03-27T14:23:22Z</time></trkpt><trkpt lat="44.73414902087104" lon="9.48365817276508"><ele>979.0</ele><time>2026-03-27T14:23:23Z</time></trkpt><trkpt lat="44.73429511781608" lon="9.483780683014169"><ele>976.3333333333333</ele><time>2026-03-27T14:23:24Z</time></trkpt><trkpt lat="44.734415614489286" lon="9.483930914248196"><ele>973.6666666666667</ele><time>2026-03-27T14:23:25Z</time></trkpt><trkpt lat="44.73452732420447" lon="9.48408939831747"><ele>971.0</ele><time>2026-03-27T14:23:26Z</time></trkpt><trkpt lat="44.73462125929396" lon="9.484261724933663"><ele>971.0</ele><time>2026-03-27T14:23:27Z</time></trkpt><trkpt lat="44.7346973836877" lon="9.484428030309747"><ele>971.0</ele><time>2026-03-27T14:23:28Z</time></trkpt><trkpt lat="44.734764049072275" lon="9.484579287564019"><ele>971.0</ele><time>2026-03-27T14:23:29Z</time></trkpt><trkpt lat="44.73484250396956" lon="9.484712588125584"><ele>971.0</ele><time>2026-03-27T14:23:30Z</time></trkpt><trkpt lat="44.73494168768908" lon="9.484838105492408"><ele>971.5</ele><time>2026-03-27T14:23:31Z</time></trkpt><trkpt lat="44.73505167879687" lon="9.48495521355961"><ele>972.0</ele><time>2026-03-27T14:23:32Z</time></trkpt><trkpt lat="44.73517146051314" lon="9.48506139202089"><ele>972.5</ele><time>2026-03-27T14:23:33Z</time></trkpt><trkpt lat="44.735299502601" lon="9.485151727976875"><ele>973.0</ele><time>2026-03-27T14:23:34Z</time></trkpt><trkpt lat="44.73543070445664" lon="9.485226847816833"><ele>972.0</ele><time>2026-03-27T14:23:35Z</time></trkpt><trkpt lat="44.735557990247266" lon="9.48528096477354"><ele>971.0</ele><time>2026-03-27T14:23:36Z</time></trkpt><trkpt lat="44.73567664779347" lon="9.485326534880425"><ele>970.0</ele><time>2026-03-27T14:23:37Z</time></trkpt><trkpt lat="44.73578262694826" lon="9.485369948473334"><ele>969.0</ele><time>2026-03-27T14:23:38Z</time></trkpt><trkpt lat="44.735862152374985" lon="9.485424368456897"><ele>969.8000000000001</ele><time>2026-03-27T14:23:39Z</time></trkpt><trkpt lat="44.73591639428893" lon="9.485505180696482"><ele>970.6000000000001</ele><time>2026-03-27T14:23:40Z</time></trkpt><trkpt lat="44.735950619995656" lon="9.485626732053378"><ele>971.4</ele><time>2026-03-27T14:23:41Z</time></trkpt><trkpt lat="44.73595086672799" lon="9.485774673435174"><ele>972.2</ele><time>2026-03-27T14:23:42Z</time></trkpt><trkpt lat="44.73593939144901" lon="9.485929919884462"><ele>973.0</ele><time>2026-03-27T14:23:43Z</time></trkpt><trkpt lat="44.73594722466663" lon="9.486079159259758"><ele>973.0</ele><time>2026-03-27T14:23:44Z</time></trkpt><trkpt lat="44.735970534218794" lon="9.486210720711435"><ele>973.0</ele><time>2026-03-27T14:23:45Z</time></trkpt><trkpt lat="44.736011779977524" lon="9.486321268401305"><ele>973.0</ele><time>2026-03-27T14:23:46Z</time></trkpt><trkpt lat="44.736077465577786" lon="9.486394465348035"><ele>973.0</ele><time>2026-03-27T14:23:47Z</time></trkpt><trkpt lat="44.73616611774013" lon="9.486420537211075"><ele>973.0</ele><time>2026-03-27T14:23:48Z</time></trkpt><trkpt lat="44.73626541624522" lon="9.486419191409356"><ele>972.5</ele><time>2026-03-27T14:23:49Z</time></trkpt><trkpt lat="44.73637336972479" lon="9.486398553879463"><ele>972.0</ele><time>2026-03-27T14:23:50Z</time></trkpt><trkpt lat="44.73649077006839" lon="9.486384732662577"><ele>971.5</ele><time>2026-03-27T14:23:51Z</time></trkpt><trkpt lat="44.73660726777826" lon="9.486377680812376"><ele>971.0</ele><time>2026-03-27T14:23:52Z</time></trkpt><trkpt lat="44.73671464958625" lon="9.486375750721121"><ele>971.0000000000001</ele><time>2026-03-27T14:23:53Z</time></trkpt><trkpt lat="44.736802095964705" lon="9.486375783558502"><ele>971.0</ele><time>2026-03-27T14:23:54Z</time></trkpt><trkpt lat="44.736877951745036" lon="9.486393993223992"><ele>971.0</ele><time>2026-03-27T14:23:55Z</time></trkpt><trkpt lat="44.73694262080857" lon="9.486441178428178"><ele>971.0</ele><time>2026-03-27T14:23:56Z</time></trkpt><trkpt lat="44.73699894596478" lon="9.486529559663337"><ele>971.0000000000001</ele><time>2026-03-27T14:23:57Z</time></trkpt><trkpt lat="44.73705421484599" lon="9.486651960508519"><ele>971.0</ele><time>2026-03-27T14:23:58Z</time></trkpt><trkpt lat="44.73711818743138" lon="9.48678925615555"><ele>966.75</ele><time>2026-03-27T14:23:59Z</time></trkpt><trkpt lat="44.7371855915205" lon="9.48692565946787"><ele>962.5</ele><time>2026-03-27T14:24:00Z</time></trkpt><trkpt lat="44.737264168321545" lon="9.48707140834499"><ele>958.25</ele><time>2026-03-27T14:24:01Z</time></trkpt><trkpt lat="44.73734591980183" lon="9.487228808224106"><ele>954.0</ele><time>2026-03-27T14:24:02Z</time></trkpt><trkpt lat="44.73742915670093" lon="9.48738400848036"><ele>954.0</ele><time>2026-03-27T14:24:03Z</time></trkpt><trkpt lat="44.73750730760932" lon="9.48754471705264"><ele>954.0</ele><time>2026-03-27T14:24:04Z</time></trkpt><trkpt lat="44.73757481574372" lon="9.487710431371994"><ele>954.0</ele><time>2026-03-27T14:24:05Z</time></trkpt><trkpt lat="44.737631496353785" lon="9.487877802025075"><ele>954.0</ele><time>2026-03-27T14:24:06Z</time></trkpt><trkpt lat="44.73767909284445" lon="9.488040202188277"><ele>950.0</ele><time>2026-03-27T14:24:07Z</time></trkpt><trkpt lat="44.73772205141512" lon="9.48819953033038"><ele>946.0</ele><time>2026-03-27T14:24:08Z</time></trkpt><trkpt lat="44.73776185834279" lon="9.488354306332468"><ele>942.0</ele><time>2026-03-27T14:24:09Z</time></trkpt><trkpt lat="44.73778771036866" lon="9.488509394544149"><ele>938.0</ele><time>2026-03-27T14:24:10Z</time></trkpt><trkpt lat="44.73779231820596" lon="9.488656553441405"><ele>937.4</ele><time>2026-03-27T14:24:11Z</time></trkpt><trkpt lat="44.737779158516226" lon="9.488793484403217"><ele>936.8</ele><time>2026-03-27T14:24:12Z</time></trkpt><trkpt lat="44.73776610338506" lon="9.48892325081181"><ele>936.2</ele><time>2026-03-27T14:24:13Z</time></trkpt><trkpt lat="44.737775219773724" lon="9.489048116712052"><ele>935.6</ele><time>2026-03-27T14:24:14Z</time></trkpt><trkpt lat="44.737801014264406" lon="9.489173613818142"><ele>935.0</ele><time>2026-03-27T14:24:15Z</time></trkpt><trkpt lat="44.7378373292665" lon="9.489302254836765"><ele>935.0000000000001</ele><time>2026-03-27T14:24:16Z</time></trkpt><trkpt lat="44.73787494574596" lon="9.489428323060821"><ele>935.0</ele><time>2026-03-27T14:24:17Z</time></trkpt><trkpt lat="44.73791950583504" lon="9.48954600419476"><ele>935.0</ele><time>2026-03-27T14:24:18Z</time></trkpt><trkpt lat="44.73797426394733" lon="9.489656184090471"><ele>935.0</ele><time>2026-03-27T14:24:19Z</time></trkpt><trkpt lat="44.73802416915781" lon="9.489752618892544"><ele>935.0000000000001</ele><time>2026-03-27T14:24:20Z</time></trkpt><trkpt lat="44.738057072264375" lon="9.489850221905693"><ele>935.0</ele><time>2026-03-27T14:24:21Z</time></trkpt><trkpt lat="44.738075090866204" lon="9.489945984565486"><ele>935.0000000000001</ele><time>2026-03-27T14:24:22Z</time></trkpt><trkpt lat="44.73808132833567" lon="9.490051620259072"><ele>935.0</ele><time>2026-03-27T14:24:23Z</time></trkpt><trkpt lat="44.7380932729442" lon="9.490157820599734"><ele>935.0</ele><time>2026-03-27T14:24:24Z</time></trkpt><trkpt lat="44.73810054336849" lon="9.49027390889309"><ele>935.0</ele><time>2026-03-27T14:24:25Z</time></trkpt><trkpt lat="44.73810739101265" lon="9.490394726834811"><ele>935.0000000000001</ele><time>2026-03-27T14:24:26Z</time></trkpt><trkpt lat="44.73811183067226" lon="9.490518326492639"><ele>935.0</ele><time>2026-03-27T14:24:27Z</time></trkpt><trkpt lat="44.738119127842886" lon="9.490638343396311"><ele>935.0000000000001</ele><time>2026-03-27T14:24:28Z</time></trkpt><trkpt lat="44.73812683284568" lon="9.49076116971764"><ele>935.0</ele><time>2026-03-27T14:24:29Z</time></trkpt><trkpt lat="44.738135036965666" lon="9.490884510060752"><ele>935.0</ele><time>2026-03-27T14:24:30Z</time></trkpt><trkpt lat="44.73815228956238" lon="9.491007397708225"><ele>935.0</ele><time>2026-03-27T14:24:31Z</time></trkpt><trkpt lat="44.73818129937948" lon="9.49112659652367"><ele>935.0000000000001</ele><time>2026-03-27T14:24:32Z</time></trkpt><trkpt lat="44.738215773355144" lon="9.49123416902416"><ele>935.0</ele><time>2026-03-27T14:24:33Z</time></trkpt><trkpt lat="44.73825385829716" lon="9.49133625965075"><ele>935.0</ele><time>2026-03-27T14:24:34Z</time></trkpt><trkpt lat="44.738292648469574" lon="9.491436005746984"><ele>935.0</ele><time>2026-03-27T14:24:35Z</time></trkpt><trkpt lat="44.73833566513641" lon="9.491530330390667"><ele>935.0</ele><time>2026-03-27T14:24:36Z</time></trkpt><trkpt lat="44.73838239922947" lon="9.491610539978126"><ele>935.0</ele><time>2026-03-27T14:24:37Z</time></trkpt><trkpt lat="44.73849981805989" lon="9.491720614043693"><ele>935.0</ele><time>2026-03-27T14:24:39Z</time></trkpt><trkpt lat="44.73858441655229" lon="9.49177340754578"><ele>934.0</ele><time>2026-03-27T14:24:40Z</time></trkpt><trkpt lat="44.73867003249102" lon="9.491831531060472"><ele>933.0</ele><time>2026-03-27T14:24:41Z</time></trkpt><trkpt lat="44.73875236387677" lon="9.491906297892571"><ele>932.0</ele><time>2026-03-27T14:24:42Z</time></trkpt><trkpt lat="44.73882668535731" lon="9.49199973181959"><ele>931.0</ele><time>2026-03-27T14:24:43Z</time></trkpt><trkpt lat="44.738901329447934" lon="9.492092821992726"><ele>930.0</ele><time>2026-03-27T14:24:44Z</time></trkpt><trkpt lat="44.738972084884715" lon="9.492186584620153"><ele>929.2</ele><time>2026-03-27T14:24:45Z</time></trkpt><trkpt lat="44.739043232297014" lon="9.492277114930967"><ele>928.4</ele><time>2026-03-27T14:24:46Z</time></trkpt><trkpt lat="44.73911489607832" lon="9.492363347516049"><ele>927.5999999999999</ele><time>2026-03-27T14:24:47Z</time></trkpt><trkpt lat="44.73918224335858" lon="9.492446422512986"><ele>926.8</ele><time>2026-03-27T14:24:48Z</time></trkpt><trkpt lat="44.73924906210813" lon="9.49252879470545"><ele>926.0</ele><time>2026-03-27T14:24:49Z</time></trkpt><trkpt lat="44.739302668074316" lon="9.492619470117607"><ele>926.0000000000001</ele><time>2026-03-27T14:24:50Z</time></trkpt><trkpt lat="44.73934560930566" lon="9.492713635162646"><ele>926.0</ele><time>2026-03-27T14:24:51Z</time></trkpt><trkpt lat="44.7393631777067" lon="9.49282719813512"><ele>926.0</ele><time>2026-03-27T14:24:52Z</time></trkpt><trkpt lat="44.73936642206791" lon="9.492943353313475"><ele>926.0</ele><time>2026-03-27T14:24:53Z</time></trkpt><trkpt lat="44.73935856313934" lon="9.493063376427928"><ele>926.0000000000001</ele><time>2026-03-27T14:24:54Z</time></trkpt><trkpt lat="44.739341422431686" lon="9.493189693036763"><ele>926.0</ele><time>2026-03-27T14:24:55Z</time></trkpt><trkpt lat="44.739319787956795" lon="9.493310890016517"><ele>925.1666666666667</ele><time>2026-03-27T14:24:56Z</time></trkpt><trkpt lat="44.73929187094818" lon="9.493421007988395"><ele>924.3333333333334</ele><time>2026-03-27T14:24:57Z</time></trkpt><trkpt lat="44.73924496837908" lon="9.493511096162981"><ele>923.5</ele><time>2026-03-27T14:24:58Z</time></trkpt><trkpt lat="44.73918283556443" lon="9.493579980326698"><ele>922.6666666666667</ele><time>2026-03-27T14:24:59Z</time></trkpt><trkpt lat="44.73909287593214" lon="9.493596458070284"><ele>921.8333333333334</ele><time>2026-03-27T14:25:00Z</time></trkpt><trkpt lat="44.73900746606258" lon="9.493590808545493"><ele>921.0</ele><time>2026-03-27T14:25:01Z</time></trkpt><trkpt lat="44.738922125787205" lon="9.493573794220632"><ele>921.0</ele><time>2026-03-27T14:25:02Z</time></trkpt><trkpt lat="44.7388349886794" lon="9.493548902199334"><ele>920.9999999999999</ele><time>2026-03-27T14:25:03Z</time></trkpt><trkpt lat="44.73874334470728" lon="9.493575936079422"><ele>920.9999999999999</ele><time>2026-03-27T14:25:04Z</time></trkpt><trkpt lat="44.73865368368138" lon="9.493650023764282"><ele>921.0</ele><time>2026-03-27T14:25:05Z</time></trkpt><trkpt lat="44.73858326009282" lon="9.493740613977874"><ele>921.0</ele><time>2026-03-27T14:25:06Z</time></trkpt><trkpt lat="44.73851156314037" lon="9.493809367795029"><ele>920.5</ele><time>2026-03-27T14:25:07Z</time></trkpt><trkpt lat="44.73843202969439" lon="9.493848341279842"><ele>920.0</ele><time>2026-03-27T14:25:08Z</time></trkpt><trkpt lat="44.73835329213784" lon="9.493835457273383"><ele>919.5</ele><time>2026-03-27T14:25:09Z</time></trkpt><trkpt lat="44.738287494555074" lon="9.49377899970854"><ele>919.0</ele><time>2026-03-27T14:25:10Z</time></trkpt><trkpt lat="44.73823432669677" lon="9.493679250551748"><ele>918.5</ele><time>2026-03-27T14:25:11Z</time></trkpt><trkpt lat="44.738189794057355" lon="9.493561523193218"><ele>918.0</ele><time>2026-03-27T14:25:12Z</time></trkpt><trkpt lat="44.738145173944396" lon="9.493430853632443"><ele>918.0</ele><time>2026-03-27T14:25:13Z</time></trkpt><trkpt lat="44.73807240386843" lon="9.4933104067117"><ele>918.0</ele><time>2026-03-27T14:25:14Z</time></trkpt><trkpt lat="44.73797490541237" lon="9.493214048886085"><ele>918.0</ele><time>2026-03-27T14:25:15Z</time></trkpt><trkpt lat="44.737871444844245" lon="9.493137017566136"><ele>918.0</ele><time>2026-03-27T14:25:16Z</time></trkpt><trkpt lat="44.73776599668264" lon="9.493052216358707"><ele>917.0</ele><time>2026-03-27T14:25:17Z</time></trkpt><trkpt lat="44.737656550360875" lon="9.492963635218416"><ele>916.0</ele><time>2026-03-27T14:25:18Z</time></trkpt><trkpt lat="44.73754742086926" lon="9.492873751041849"><ele>915.0</ele><time>2026-03-27T14:25:19Z</time></trkpt><trkpt lat="44.737438602224074" lon="9.492787836287064"><ele>914.0</ele><time>2026-03-27T14:25:20Z</time></trkpt><trkpt lat="44.73733952937084" lon="9.492701898376344"><ele>914.0</ele><time>2026-03-27T14:25:21Z</time></trkpt><trkpt lat="44.73724514004835" lon="9.492617451952984"><ele>914.0000000000001</ele><time>2026-03-27T14:25:22Z</time></trkpt><trkpt lat="44.73715348775631" lon="9.492538110955016"><ele>914.0000000000001</ele><time>2026-03-27T14:25:23Z</time></trkpt><trkpt lat="44.73706943647048" lon="9.492464034759376"><ele>914.0</ele><time>2026-03-27T14:25:24Z</time></trkpt><trkpt lat="44.73698667388323" lon="9.492390038735373"><ele>914.0</ele><time>2026-03-27T14:25:25Z</time></trkpt><trkpt lat="44.736910800574314" lon="9.492317297206256"><ele>913.857142857143</ele><time>2026-03-27T14:25:26Z</time></trkpt><trkpt lat="44.736849137879496" lon="9.492240666353545"><ele>913.7142857142858</ele><time>2026-03-27T14:25:27Z</time></trkpt><trkpt lat="44.73679092568159" lon="9.492158661502495"><ele>913.5714285714286</ele><time>2026-03-27T14:25:28Z</time></trkpt><trkpt lat="44.736729952037265" lon="9.49209240042451"><ele>913.4285714285714</ele><time>2026-03-27T14:25:29Z</time></trkpt><trkpt lat="44.736665855155415" lon="9.49204817304594"><ele>913.2857142857142</ele><time>2026-03-27T14:25:30Z</time></trkpt><trkpt lat="44.736595225996524" lon="9.492034126172575"><ele>913.142857142857</ele><time>2026-03-27T14:25:31Z</time></trkpt><trkpt lat="44.73653425874902" lon="9.492058174764853"><ele>912.9999999999999</ele><time>2026-03-27T14:25:32Z</time></trkpt><trkpt lat="44.73647041061623" lon="9.492200392566748"><ele>911.142857142857</ele><time>2026-03-27T14:25:34Z</time></trkpt><trkpt lat="44.73645808958576" lon="9.492295826237672"><ele>909.2857142857142</ele><time>2026-03-27T14:25:35Z</time></trkpt><trkpt lat="44.73642616247133" lon="9.492378882392615"><ele>907.4285714285714</ele><time>2026-03-27T14:25:36Z</time></trkpt><trkpt lat="44.736396469953334" lon="9.492467693293202"><ele>905.5714285714286</ele><time>2026-03-27T14:25:37Z</time></trkpt><trkpt lat="44.73638551536356" lon="9.492556182441824"><ele>903.7142857142858</ele><time>2026-03-27T14:25:38Z</time></trkpt><trkpt lat="44.736416269867505" lon="9.492636989244168"><ele>901.857142857143</ele><time>2026-03-27T14:25:39Z</time></trkpt><trkpt lat="44.736473757358404" lon="9.4926956095578"><ele>900.0000000000001</ele><time>2026-03-27T14:25:40Z</time></trkpt><trkpt lat="44.73653240636608" lon="9.49273980030756"><ele>900.0000000000001</ele><time>2026-03-27T14:25:41Z</time></trkpt><trkpt lat="44.73659341671975" lon="9.492790844115627"><ele>900.0</ele><time>2026-03-27T14:25:42Z</time></trkpt><trkpt lat="44.73666150984511" lon="9.492845983244765"><ele>900.0000000000001</ele><time>2026-03-27T14:25:43Z</time></trkpt><trkpt lat="44.73671877423595" lon="9.492904474369341"><ele>900.0000000000001</ele><time>2026-03-27T14:25:44Z</time></trkpt><trkpt lat="44.736769438074205" lon="9.49297213578733"><ele>900.0</ele><time>2026-03-27T14:25:45Z</time></trkpt><trkpt lat="44.7368158489364" lon="9.493045196487428"><ele>900.0000000000001</ele><time>2026-03-27T14:25:46Z</time></trkpt><trkpt lat="44.7368511320754" lon="9.493125187291868"><ele>900.0000000000001</ele><time>2026-03-27T14:25:47Z</time></trkpt><trkpt lat="44.73686625998484" lon="9.493225343170915"><ele>899.5</ele><time>2026-03-27T14:25:48Z</time></trkpt><trkpt lat="44.73686671188713" lon="9.493334399730179"><ele>899.0</ele><time>2026-03-27T14:25:49Z</time></trkpt><trkpt lat="44.73686463472844" lon="9.493445748685168"><ele>898.5</ele><time>2026-03-27T14:25:50Z</time></trkpt><trkpt lat="44.736865064011084" lon="9.493546760238845"><ele>898.0</ele><time>2026-03-27T14:25:51Z</time></trkpt><trkpt lat="44.73688786644378" lon="9.493648231635676"><ele>897.5</ele><time>2026-03-27T14:25:52Z</time></trkpt><trkpt lat="44.736925545269685" lon="9.493743214388727"><ele>897.0</ele><time>2026-03-27T14:25:53Z</time></trkpt><trkpt lat="44.736960293196745" lon="9.493849750813295"><ele>897.0</ele><time>2026-03-27T14:25:54Z</time></trkpt><trkpt lat="44.73697990957036" lon="9.493975251505573"><ele>897.0</ele><time>2026-03-27T14:25:55Z</time></trkpt><trkpt lat="44.736987548307965" lon="9.49410682732162"><ele>897.0</ele><time>2026-03-27T14:25:56Z</time></trkpt><trkpt lat="44.73699310808388" lon="9.494236152226495"><ele>897.0</ele><time>2026-03-27T14:25:57Z</time></trkpt><trkpt lat="44.73697296676867" lon="9.494365873832386"><ele>897.0</ele><time>2026-03-27T14:25:58Z</time></trkpt><trkpt lat="44.736972551200665" lon="9.494493976132176"><ele>894.8</ele><time>2026-03-27T14:25:59Z</time></trkpt><trkpt lat="44.73697550926437" lon="9.494625653959085"><ele>892.6</ele><time>2026-03-27T14:26:00Z</time></trkpt><trkpt lat="44.736992558234455" lon="9.49476205101736"><ele>890.3999999999999</ele><time>2026-03-27T14:26:01Z</time></trkpt><trkpt lat="44.73701680121335" lon="9.494894046813224"><ele>888.1999999999999</ele><time>2026-03-27T14:26:02Z</time></trkpt><trkpt lat="44.737040394213" lon="9.495023073173623"><ele>886.0</ele><time>2026-03-27T14:26:03Z</time></trkpt><trkpt lat="44.73706193738659" lon="9.495147111273553"><ele>885.9999999999999</ele><time>2026-03-27T14:26:04Z</time></trkpt><trkpt lat="44.73709244850385" lon="9.495269703482782"><ele>886.0</ele><time>2026-03-27T14:26:05Z</time></trkpt><trkpt lat="44.73712707165214" lon="9.495386888970518"><ele>886.0</ele><time>2026-03-27T14:26:06Z</time></trkpt><trkpt lat="44.73716905519289" lon="9.495478707405429"><ele>886.0</ele><time>2026-03-27T14:26:07Z</time></trkpt><trkpt lat="44.73722431082122" lon="9.49554098678407"><ele>885.9999999999999</ele><time>2026-03-27T14:26:08Z</time></trkpt><trkpt lat="44.737298561643826" lon="9.495587601790461"><ele>886.0</ele><time>2026-03-27T14:26:09Z</time></trkpt><trkpt lat="44.737387837564086" lon="9.495619268226218"><ele>884.0</ele><time>2026-03-27T14:26:10Z</time></trkpt><trkpt lat="44.737487216660796" lon="9.495630106329827"><ele>881.9999999999999</ele><time>2026-03-27T14:26:11Z</time></trkpt><trkpt lat="44.73758600023449" lon="9.495633529316589"><ele>879.9999999999999</ele><time>2026-03-27T14:26:12Z</time></trkpt><trkpt lat="44.737677494974506" lon="9.495636128658798"><ele>878.0</ele><time>2026-03-27T14:26:13Z</time></trkpt><trkpt lat="44.737756823580476" lon="9.495662782749422"><ele>876.0</ele><time>2026-03-27T14:26:14Z</time></trkpt><trkpt lat="44.73783749596696" lon="9.495722862798326"><ele>876.0</ele><time>2026-03-27T14:26:15Z</time></trkpt><trkpt lat="44.73791910952174" lon="9.49579813804609"><ele>875.9999999999999</ele><time>2026-03-27T14:26:16Z</time></trkpt><trkpt lat="44.73800688919655" lon="9.495869749383488"><ele>875.9999999999999</ele><time>2026-03-27T14:26:17Z</time></trkpt><trkpt lat="44.738094454642216" lon="9.495938850269631"><ele>876.0</ele><time>2026-03-27T14:26:18Z</time></trkpt><trkpt lat="44.738178217733896" lon="9.49601454684212"><ele>876.0</ele><time>2026-03-27T14:26:19Z</time></trkpt><trkpt lat="44.73826151270894" lon="9.496097494913476"><ele>876.0</ele><time>2026-03-27T14:26:20Z</time></trkpt><trkpt lat="44.73834346871576" lon="9.496178757809739"><ele>875.9999999999999</ele><time>2026-03-27T14:26:21Z</time></trkpt><trkpt lat="44.7384367732689" lon="9.496242532348008"><ele>875.9999999999999</ele><time>2026-03-27T14:26:22Z</time></trkpt><trkpt lat="44.73852994035062" lon="9.496295746875491"><ele>876.0</ele><time>2026-03-27T14:26:23Z</time></trkpt><trkpt lat="44.73862816584241" lon="9.49634993260311"><ele>876.0</ele><time>2026-03-27T14:26:24Z</time></trkpt><trkpt lat="44.73871744435439" lon="9.496402841606313"><ele>873.5999999999999</ele><time>2026-03-27T14:26:25Z</time></trkpt><trkpt lat="44.73881260869353" lon="9.496437126058346"><ele>871.1999999999999</ele><time>2026-03-27T14:26:26Z</time></trkpt><trkpt lat="44.738908930823506" lon="9.496476434801826"><ele>868.8000000000001</ele><time>2026-03-27T14:26:27Z</time></trkpt><trkpt lat="44.73900178667243" lon="9.496505239777946"><ele>866.4000000000001</ele><time>2026-03-27T14:26:28Z</time></trkpt><trkpt lat="44.73909074067115" lon="9.496532430826452"><ele>864.0</ele><time>2026-03-27T14:26:29Z</time></trkpt><trkpt lat="44.73917811771197" lon="9.496571314170621"><ele>864.0</ele><time>2026-03-27T14:26:30Z</time></trkpt><trkpt lat="44.73925624416642" lon="9.496647499616019"><ele>864.0000000000001</ele><time>2026-03-27T14:26:31Z</time></trkpt><trkpt lat="44.73931250735661" lon="9.496765377070917"><ele>864.0000000000001</ele><time>2026-03-27T14:26:32Z</time></trkpt><trkpt lat="44.73936082848474" lon="9.496890161095283"><ele>864.0</ele><time>2026-03-27T14:26:33Z</time></trkpt><trkpt lat="44.739414925190616" lon="9.497021509817857"><ele>864.0</ele><time>2026-03-27T14:26:34Z</time></trkpt><trkpt lat="44.73948816332793" lon="9.497140606427182"><ele>863.0</ele><time>2026-03-27T14:26:35Z</time></trkpt><trkpt lat="44.73954669296441" lon="9.497288923805735"><ele>862.0</ele><time>2026-03-27T14:26:36Z</time></trkpt><trkpt lat="44.73960298903453" lon="9.497440036663795"><ele>861.0</ele><time>2026-03-27T14:26:37Z</time></trkpt><trkpt lat="44.73964802566739" lon="9.497599744003136"><ele>860.0</ele><time>2026-03-27T14:26:38Z</time></trkpt><trkpt lat="44.7396926455709" lon="9.49776788626747"><ele>857.0</ele><time>2026-03-27T14:26:39Z</time></trkpt><trkpt lat="44.73971970065456" lon="9.497945026006649"><ele>854.0</ele><time>2026-03-27T14:26:40Z</time></trkpt><trkpt lat="44.739764318440216" lon="9.498115682110445"><ele>851.0</ele><time>2026-03-27T14:26:41Z</time></trkpt><trkpt lat="44.73981530474466" lon="9.498282622851804"><ele>848.0</ele><time>2026-03-27T14:26:42Z</time></trkpt><trkpt lat="44.73987164805317" lon="9.498436355745914"><ele>848.0</ele><time>2026-03-27T14:26:43Z</time></trkpt><trkpt lat="44.73992845895012" lon="9.498583884392774"><ele>848.0</ele><time>2026-03-27T14:26:44Z</time></trkpt><trkpt lat="44.73998223357141" lon="9.498727796137382"><ele>848.0</ele><time>2026-03-27T14:26:45Z</time></trkpt><trkpt lat="44.74003671279974" lon="9.498857154925556"><ele>848.0</ele><time>2026-03-27T14:26:46Z</time></trkpt><trkpt lat="44.74008857148708" lon="9.498961115130342"><ele>848.0</ele><time>2026-03-27T14:26:47Z</time></trkpt><trkpt lat="44.74017452970586" lon="9.499046491458076"><ele>843.0</ele><time>2026-03-27T14:26:49Z</time></trkpt><trkpt lat="44.740255294128666" lon="9.498987067332838"><ele>838.0</ele><time>2026-03-27T14:26:51Z</time></trkpt><trkpt lat="44.740319121751554" lon="9.49887826064317"><ele>833.0</ele><time>2026-03-27T14:26:53Z</time></trkpt><trkpt lat="44.74036602519665" lon="9.498703568138962"><ele>828.0</ele><time>2026-03-27T14:26:55Z</time></trkpt><trkpt lat="44.740387916424915" lon="9.49860371604901"><ele>823.0</ele><time>2026-03-27T14:26:56Z</time></trkpt><trkpt lat="44.74039998169775" lon="9.49848862205838"><ele>822.9999999999999</ele><time>2026-03-27T14:26:57Z</time></trkpt><trkpt lat="44.74041211178245" lon="9.498374233456484"><ele>823.0</ele><time>2026-03-27T14:26:58Z</time></trkpt><trkpt lat="44.7404279208929" lon="9.498263477800466"><ele>823.0</ele><time>2026-03-27T14:26:59Z</time></trkpt><trkpt lat="44.74045736355381" lon="9.498156829988151"><ele>823.0</ele><time>2026-03-27T14:27:00Z</time></trkpt><trkpt lat="44.74049908381755" lon="9.498051315213631"><ele>822.9999999999999</ele><time>2026-03-27T14:27:01Z</time></trkpt><trkpt lat="44.740550642301145" lon="9.497949654770041"><ele>823.0</ele><time>2026-03-27T14:27:02Z</time></trkpt><trkpt lat="44.74059614081024" lon="9.497840507233333"><ele>824.8333333333333</ele><time>2026-03-27T14:27:03.001Z</time></trkpt><trkpt lat="44.74064113275116" lon="9.497732128714297"><ele>826.6666666666666</ele><time>2026-03-27T14:27:04.001Z</time></trkpt><trkpt lat="44.740678221888864" lon="9.497627089168596"><ele>828.5</ele><time>2026-03-27T14:27:05.001Z</time></trkpt><trkpt lat="44.74071187687368" lon="9.49751003203584"><ele>830.3333333333333</ele><time>2026-03-27T14:27:06.001Z</time></trkpt><trkpt lat="44.740733792521034" lon="9.497379221080605"><ele>832.1666666666666</ele><time>2026-03-27T14:27:07.001Z</time></trkpt><trkpt lat="44.740745521334965" lon="9.497256585648492"><ele>834.0</ele><time>2026-03-27T14:27:08.001Z</time></trkpt><trkpt lat="44.74077042271618" lon="9.49714552595586"><ele>836.0</ele><time>2026-03-27T14:27:09.001Z</time></trkpt><trkpt lat="44.74081430904386" lon="9.497039245041119"><ele>838.0</ele><time>2026-03-27T14:27:10.001Z</time></trkpt><trkpt lat="44.74086780526506" lon="9.496928402660489"><ele>840.0</ele><time>2026-03-27T14:27:11.001Z</time></trkpt><trkpt lat="44.74093075300866" lon="9.496832140194428"><ele>842.0</ele><time>2026-03-27T14:27:12.001Z</time></trkpt><trkpt lat="44.74101110163455" lon="9.496758818707825"><ele>844.0</ele><time>2026-03-27T14:27:13.001Z</time></trkpt><trkpt lat="44.741089308519214" lon="9.496685413023252"><ele>836.6</ele><time>2026-03-27T14:27:14.001Z</time></trkpt><trkpt lat="44.74116911244505" lon="9.49660007949042"><ele>829.2</ele><time>2026-03-27T14:27:15.001Z</time></trkpt><trkpt lat="44.74124697521898" lon="9.49651813372381"><ele>821.8000000000001</ele><time>2026-03-27T14:27:16.001Z</time></trkpt><trkpt lat="44.74131935004534" lon="9.496439401784738"><ele>814.4000000000001</ele><time>2026-03-27T14:27:17Z</time></trkpt><trkpt lat="44.74139588331537" lon="9.496363009270512"><ele>807.0</ele><time>2026-03-27T14:27:18Z</time></trkpt><trkpt lat="44.74147642570314" lon="9.496287174254508"><ele>812.2</ele><time>2026-03-27T14:27:19Z</time></trkpt><trkpt lat="44.74156134476516" lon="9.496207119184195"><ele>817.4000000000001</ele><time>2026-03-27T14:27:20Z</time></trkpt><trkpt lat="44.74163933078092" lon="9.496115628198199"><ele>822.5999999999999</ele><time>2026-03-27T14:27:21Z</time></trkpt><trkpt lat="44.741708924981474" lon="9.49600733946411"><ele>827.8</ele><time>2026-03-27T14:27:22Z</time></trkpt><trkpt lat="44.74177847949875" lon="9.49589868390233"><ele>833.0</ele><time>2026-03-27T14:27:23Z</time></trkpt><trkpt lat="44.741850003807244" lon="9.495802939364879"><ele>829.8333333333334</ele><time>2026-03-27T14:27:24Z</time></trkpt><trkpt lat="44.74191935497644" lon="9.495726029221663"><ele>826.6666666666667</ele><time>2026-03-27T14:27:25Z</time></trkpt><trkpt lat="44.742003513655916" lon="9.49567105045266"><ele>823.5</ele><time>2026-03-27T14:27:26Z</time></trkpt><trkpt lat="44.74207979838031" lon="9.495629068426403"><ele>820.3333333333333</ele><time>2026-03-27T14:27:27Z</time></trkpt><trkpt lat="44.74215197411893" lon="9.495616383086276"><ele>817.1666666666666</ele><time>2026-03-27T14:27:28Z</time></trkpt><trkpt lat="44.7422256867956" lon="9.49562380100625"><ele>814.0</ele><time>2026-03-27T14:27:29Z</time></trkpt><trkpt lat="44.74230541560341" lon="9.49565278868503"><ele>813.9999999999999</ele><time>2026-03-27T14:27:30Z</time></trkpt><trkpt lat="44.74237978371972" lon="9.495684644851972"><ele>814.0</ele><time>2026-03-27T14:27:31Z</time></trkpt><trkpt lat="44.74246244964963" lon="9.495726422534755"><ele>814.0</ele><time>2026-03-27T14:27:32Z</time></trkpt><trkpt lat="44.74253625005225" lon="9.495763677160143"><ele>814.0</ele><time>2026-03-27T14:27:33Z</time></trkpt><trkpt lat="44.74260756581554" lon="9.495781063511012"><ele>813.9999999999999</ele><time>2026-03-27T14:27:34Z</time></trkpt><trkpt lat="44.74268612386913" lon="9.495755572814236"><ele>814.0</ele><time>2026-03-27T14:27:35Z</time></trkpt><trkpt lat="44.742766168331926" lon="9.495702527016874"><ele>810.8000000000001</ele><time>2026-03-27T14:27:36Z</time></trkpt><trkpt lat="44.74285359680068" lon="9.495624379187056"><ele>807.6</ele><time>2026-03-27T14:27:37Z</time></trkpt><trkpt lat="44.74295134399826" lon="9.495557512867533"><ele>804.4</ele><time>2026-03-27T14:27:38Z</time></trkpt><trkpt lat="44.743052138423884" lon="9.495501518545927"><ele>801.2</ele><time>2026-03-27T14:27:39Z</time></trkpt><trkpt lat="44.74315346322142" lon="9.495457397866144"><ele>798.0</ele><time>2026-03-27T14:27:40Z</time></trkpt><trkpt lat="44.74325189690159" lon="9.495424958308579"><ele>798.0</ele><time>2026-03-27T14:27:41Z</time></trkpt><trkpt lat="44.743342851380085" lon="9.495403950219682"><ele>798.0</ele><time>2026-03-27T14:27:42Z</time></trkpt><trkpt lat="44.743432715745975" lon="9.495381401937037"><ele>798.0</ele><time>2026-03-27T14:27:43Z</time></trkpt><trkpt lat="44.743518006761896" lon="9.495357469962682"><ele>798.0</ele><time>2026-03-27T14:27:44Z</time></trkpt><trkpt lat="44.74360978990853" lon="9.495325033709685"><ele>798.0</ele><time>2026-03-27T14:27:45Z</time></trkpt><trkpt lat="44.74370184386783" lon="9.49528501638061"><ele>798.0</ele><time>2026-03-27T14:27:46Z</time></trkpt><trkpt lat="44.74378733522259" lon="9.495234946196248"><ele>798.0</ele><time>2026-03-27T14:27:47Z</time></trkpt><trkpt lat="44.74387000321433" lon="9.495179942611458"><ele>798.0</ele><time>2026-03-27T14:27:48Z</time></trkpt><trkpt lat="44.743947641547784" lon="9.495118025988036"><ele>798.0</ele><time>2026-03-27T14:27:49Z</time></trkpt><trkpt lat="44.74401721759126" lon="9.495048414592777"><ele>798.0</ele><time>2026-03-27T14:27:50Z</time></trkpt><trkpt lat="44.74407538122827" lon="9.494966736000984"><ele>798.0</ele><time>2026-03-27T14:27:51Z</time></trkpt><trkpt lat="44.74410895804458" lon="9.49487247765396"><ele>798.0</ele><time>2026-03-27T14:27:52Z</time></trkpt><trkpt lat="44.744118160467366" lon="9.494767913334538"><ele>798.0</ele><time>2026-03-27T14:27:53Z</time></trkpt><trkpt lat="44.74410815765762" lon="9.494654261696189"><ele>798.0</ele><time>2026-03-27T14:27:54Z</time></trkpt><trkpt lat="44.74408717908832" lon="9.494537991497575"><ele>798.0</ele><time>2026-03-27T14:27:55Z</time></trkpt><trkpt lat="44.74407610679157" lon="9.49440692553071"><ele>798.0</ele><time>2026-03-27T14:27:56Z</time></trkpt><trkpt lat="44.74407408982992" lon="9.494271504330086"><ele>798.0</ele><time>2026-03-27T14:27:57Z</time></trkpt><trkpt lat="44.744082575275954" lon="9.494138516547496"><ele>797.8</ele><time>2026-03-27T14:27:58Z</time></trkpt><trkpt lat="44.7440932616812" lon="9.494014118295983"><ele>797.5999999999999</ele><time>2026-03-27T14:27:59Z</time></trkpt><trkpt lat="44.74410402878248" lon="9.493921539353012"><ele>797.4000000000001</ele><time>2026-03-27T14:28:00Z</time></trkpt><trkpt lat="44.74411138704423" lon="9.493781432879558"><ele>797.2</ele><time>2026-03-27T14:28:02Z</time></trkpt><trkpt lat="44.74418887001516" lon="9.493752982456344"><ele>797.0</ele><time>2026-03-27T14:28:04Z</time></trkpt><trkpt lat="44.74424749372183" lon="9.493895480885067"><ele>797.0</ele><time>2026-03-27T14:28:06Z</time></trkpt><trkpt lat="44.74425310907291" lon="9.494085920150772"><ele>797.0</ele><time>2026-03-27T14:28:08Z</time></trkpt><trkpt lat="44.74426076643087" lon="9.494200141563676"><ele>797.0</ele><time>2026-03-27T14:28:09Z</time></trkpt><trkpt lat="44.74428158646316" lon="9.494317978081384"><ele>797.0</ele><time>2026-03-27T14:28:10Z</time></trkpt><trkpt lat="44.744315396065375" lon="9.494423687388885"><ele>797.0</ele><time>2026-03-27T14:28:11Z</time></trkpt><trkpt lat="44.74436651243844" lon="9.494520816344453"><ele>792.6666666666667</ele><time>2026-03-27T14:28:12Z</time></trkpt><trkpt lat="44.7444262910131" lon="9.494610917591132"><ele>788.3333333333334</ele><time>2026-03-27T14:28:13Z</time></trkpt><trkpt lat="44.74448634410332" lon="9.49470007458959"><ele>784.0</ele><time>2026-03-27T14:28:14Z</time></trkpt><trkpt lat="44.74454809935419" lon="9.49479059228706"><ele>779.6666666666667</ele><time>2026-03-27T14:28:15Z</time></trkpt><trkpt lat="44.744603759587896" lon="9.494888739192652"><ele>775.3333333333334</ele><time>2026-03-27T14:28:16Z</time></trkpt><trkpt lat="44.74465978512128" lon="9.494984907339003"><ele>771.0</ele><time>2026-03-27T14:28:17Z</time></trkpt><trkpt lat="44.74471809358082" lon="9.495080255357246"><ele>771.0</ele><time>2026-03-27T14:28:18Z</time></trkpt><trkpt lat="44.74477110187275" lon="9.495171228189582"><ele>771.0</ele><time>2026-03-27T14:28:19Z</time></trkpt><trkpt lat="44.74481481907263" lon="9.495258642895221"><ele>771.0</ele><time>2026-03-27T14:28:20Z</time></trkpt><trkpt lat="44.744865170704365" lon="9.495332697200611"><ele>771.0</ele><time>2026-03-27T14:28:21Z</time></trkpt><trkpt lat="44.744927623008735" lon="9.495377021145423"><ele>771.0</ele><time>2026-03-27T14:28:22Z</time></trkpt><trkpt lat="44.7450037191847" lon="9.495384869982644"><ele>771.0</ele><time>2026-03-27T14:28:23Z</time></trkpt><trkpt lat="44.74508493472937" lon="9.495364353489142"><ele>771.0</ele><time>2026-03-27T14:28:24Z</time></trkpt><trkpt lat="44.745165980700996" lon="9.49533417057422"><ele>771.0</ele><time>2026-03-27T14:28:25Z</time></trkpt><trkpt lat="44.74525105567634" lon="9.495331227780635"><ele>771.0</ele><time>2026-03-27T14:28:26Z</time></trkpt><trkpt lat="44.74533369542266" lon="9.495362661317738"><ele>771.0</ele><time>2026-03-27T14:28:27Z</time></trkpt><trkpt lat="44.74540863908868" lon="9.495407360724062"><ele>771.0</ele><time>2026-03-27T14:28:28Z</time></trkpt><trkpt lat="44.74547568436764" lon="9.495469377814693"><ele>771.0</ele><time>2026-03-27T14:28:29Z</time></trkpt><trkpt lat="44.745529697332664" lon="9.49555586020961"><ele>767.0</ele><time>2026-03-27T14:28:30Z</time></trkpt><trkpt lat="44.74557068634786" lon="9.495660202479623"><ele>763.0</ele><time>2026-03-27T14:28:31Z</time></trkpt><trkpt lat="44.74559526342918" lon="9.495760259531608"><ele>759.0</ele><time>2026-03-27T14:28:32Z</time></trkpt><trkpt lat="44.7455993608546" lon="9.495864534753666"><ele>755.0</ele><time>2026-03-27T14:28:33Z</time></trkpt><trkpt lat="44.74558444772878" lon="9.495962012819746"><ele>751.0</ele><time>2026-03-27T14:28:34Z</time></trkpt><trkpt lat="44.74554730414109" lon="9.496048748051084"><ele>747.0</ele><time>2026-03-27T14:28:35Z</time></trkpt><trkpt lat="44.745489933386914" lon="9.496113417291372"><ele>747.0</ele><time>2026-03-27T14:28:36Z</time></trkpt><trkpt lat="44.7454130029159" lon="9.49614386694401"><ele>747.0</ele><time>2026-03-27T14:28:37Z</time></trkpt><trkpt lat="44.745326535617174" lon="9.49615389675604"><ele>747.0</ele><time>2026-03-27T14:28:38Z</time></trkpt><trkpt lat="44.74522849864563" lon="9.496132267185404"><ele>747.0</ele><time>2026-03-27T14:28:39Z</time></trkpt><trkpt lat="44.745126506345905" lon="9.496109658379106"><ele>747.0</ele><time>2026-03-27T14:28:40Z</time></trkpt><trkpt lat="44.74502708881302" lon="9.496097740169478"><ele>746.8</ele><time>2026-03-27T14:28:41Z</time></trkpt><trkpt lat="44.74493038727855" lon="9.496103008425631"><ele>746.6</ele><time>2026-03-27T14:28:42Z</time></trkpt><trkpt lat="44.74484178925021" lon="9.496141881964263"><ele>746.4</ele><time>2026-03-27T14:28:43Z</time></trkpt><trkpt lat="44.744775630193324" lon="9.496232934903023"><ele>746.1999999999999</ele><time>2026-03-27T14:28:44Z</time></trkpt><trkpt lat="44.744733153760386" lon="9.496344343371025"><ele>746.0</ele><time>2026-03-27T14:28:45Z</time></trkpt><trkpt lat="44.7447154822112" lon="9.496474915002096"><ele>746.0</ele><time>2026-03-27T14:28:46Z</time></trkpt><trkpt lat="44.744694106354544" lon="9.49660155974845"><ele>746.0</ele><time>2026-03-27T14:28:47Z</time></trkpt><trkpt lat="44.7446625344412" lon="9.496715697676512"><ele>746.0</ele><time>2026-03-27T14:28:48Z</time></trkpt><trkpt lat="44.74463409302458" lon="9.496822584915035"><ele>746.0</ele><time>2026-03-27T14:28:49Z</time></trkpt><trkpt lat="44.74461876373715" lon="9.496919187903957"><ele>746.0</ele><time>2026-03-27T14:28:50Z</time></trkpt><trkpt lat="44.74464385523495" lon="9.49707405074678"><ele>746.0</ele><time>2026-03-27T14:28:52Z</time></trkpt><trkpt lat="44.74469639057722" lon="9.497123074814077"><ele>746.0</ele><time>2026-03-27T14:28:53Z</time></trkpt><trkpt lat="44.74476323937125" lon="9.49712727264029"><ele>746.0</ele><time>2026-03-27T14:28:54Z</time></trkpt><trkpt lat="44.74483461972505" lon="9.497087351076644"><ele>746.0</ele><time>2026-03-27T14:28:55Z</time></trkpt><trkpt lat="44.74490437433552" lon="9.49702294987589"><ele>746.0</ele><time>2026-03-27T14:28:56Z</time></trkpt><trkpt lat="44.7449846973605" lon="9.496959589152263"><ele>746.0</ele><time>2026-03-27T14:28:57Z</time></trkpt><trkpt lat="44.74507197461328" lon="9.496903104033148"><ele>746.0</ele><time>2026-03-27T14:28:58Z</time></trkpt><trkpt lat="44.74516143176835" lon="9.496846968647661"><ele>742.8</ele><time>2026-03-27T14:28:59Z</time></trkpt><trkpt lat="44.745251617230494" lon="9.496796003249129"><ele>739.5999999999999</ele><time>2026-03-27T14:29:00Z</time></trkpt><trkpt lat="44.74534644554892" lon="9.496761879739996"><ele>736.4</ele><time>2026-03-27T14:29:01Z</time></trkpt><trkpt lat="44.74544335680383" lon="9.496745620404026"><ele>733.2</ele><time>2026-03-27T14:29:02Z</time></trkpt><trkpt lat="44.74553353484748" lon="9.496735031444901"><ele>730.0</ele><time>2026-03-27T14:29:03Z</time></trkpt><trkpt lat="44.745622058303674" lon="9.49671806774932"><ele>730.0</ele><time>2026-03-27T14:29:04Z</time></trkpt><trkpt lat="44.74571053187061" lon="9.496695638511213"><ele>730.0</ele><time>2026-03-27T14:29:05Z</time></trkpt><trkpt lat="44.745802334379775" lon="9.496671952253855"><ele>730.0</ele><time>2026-03-27T14:29:06Z</time></trkpt><trkpt lat="44.74589522853708" lon="9.496635987465462"><ele>730.0</ele><time>2026-03-27T14:29:07Z</time></trkpt><trkpt lat="44.74598720471852" lon="9.496580863163498"><ele>730.0</ele><time>2026-03-27T14:29:08Z</time></trkpt><trkpt lat="44.746075982419896" lon="9.496524374711926"><ele>727.1666666666667</ele><time>2026-03-27T14:29:09Z</time></trkpt><trkpt lat="44.74615881961404" lon="9.496467253962326"><ele>724.3333333333334</ele><time>2026-03-27T14:29:10Z</time></trkpt><trkpt lat="44.746236676378714" lon="9.496409897454138"><ele>721.5</ele><time>2026-03-27T14:29:11Z</time></trkpt><trkpt lat="44.74630744307325" lon="9.496343600993356"><ele>718.6666666666666</ele><time>2026-03-27T14:29:12Z</time></trkpt><trkpt lat="44.74636934349096" lon="9.496272014862537"><ele>715.8333333333333</ele><time>2026-03-27T14:29:13Z</time></trkpt><trkpt lat="44.74642457810846" lon="9.496186254154292"><ele>713.0</ele><time>2026-03-27T14:29:14Z</time></trkpt><trkpt lat="44.74648235583552" lon="9.496095563946835"><ele>713.0</ele><time>2026-03-27T14:29:15Z</time></trkpt><trkpt lat="44.74654816134557" lon="9.496010464573038"><ele>713.0</ele><time>2026-03-27T14:29:16Z</time></trkpt><trkpt lat="44.746611985638026" lon="9.49592799287713"><ele>713.0</ele><time>2026-03-27T14:29:17Z</time></trkpt><trkpt lat="44.74667598081243" lon="9.495850561436923"><ele>713.0</ele><time>2026-03-27T14:29:18Z</time></trkpt><trkpt lat="44.746743979657936" lon="9.495789496145518"><ele>713.0</ele><time>2026-03-27T14:29:19Z</time></trkpt><trkpt lat="44.74679414046882" lon="9.495709448912798"><ele>713.0</ele><time>2026-03-27T14:29:20Z</time></trkpt><trkpt lat="44.74681873386438" lon="9.495619363611217"><ele>713.0</ele><time>2026-03-27T14:29:21Z</time></trkpt><trkpt lat="44.7468166052799" lon="9.495513486175291"><ele>713.0</ele><time>2026-03-27T14:29:22Z</time></trkpt><trkpt lat="44.74679030067479" lon="9.495409587698084"><ele>713.0</ele><time>2026-03-27T14:29:23Z</time></trkpt><trkpt lat="44.74675102774747" lon="9.49530545701127"><ele>713.0</ele><time>2026-03-27T14:29:24Z</time></trkpt><trkpt lat="44.746701332434185" lon="9.49519686315317"><ele>713.0</ele><time>2026-03-27T14:29:25Z</time></trkpt><trkpt lat="44.74664611099182" lon="9.49509251939968"><ele>713.0</ele><time>2026-03-27T14:29:26Z</time></trkpt><trkpt lat="44.74660501053243" lon="9.494980187647176"><ele>711.1666666666666</ele><time>2026-03-27T14:29:27Z</time></trkpt><trkpt lat="44.746554149058944" lon="9.494879172852052"><ele>709.3333333333333</ele><time>2026-03-27T14:29:28Z</time></trkpt><trkpt lat="44.746503982871715" lon="9.494779841137316"><ele>707.5</ele><time>2026-03-27T14:29:29Z</time></trkpt><trkpt lat="44.74645338357887" lon="9.494679652384452"><ele>705.6666666666666</ele><time>2026-03-27T14:29:30Z</time></trkpt><trkpt lat="44.74641437819577" lon="9.494561424367047"><ele>703.8333333333334</ele><time>2026-03-27T14:29:31Z</time></trkpt><trkpt lat="44.746390608009335" lon="9.494443276186395"><ele>702.0</ele><time>2026-03-27T14:29:32Z</time></trkpt><trkpt lat="44.746374975386935" lon="9.494316655610005"><ele>697.6</ele><time>2026-03-27T14:29:33Z</time></trkpt><trkpt lat="44.74635329380944" lon="9.494183146782838"><ele>693.2</ele><time>2026-03-27T14:29:34Z</time></trkpt><trkpt lat="44.74631100147191" lon="9.494065205059988"><ele>688.8</ele><time>2026-03-27T14:29:35Z</time></trkpt><trkpt lat="44.746254802229615" lon="9.493958598702168"><ele>684.4</ele><time>2026-03-27T14:29:36Z</time></trkpt><trkpt lat="44.74619654438047" lon="9.493856987196724"><ele>680.0</ele><time>2026-03-27T14:29:37Z</time></trkpt><trkpt lat="44.74613847958433" lon="9.49375820439584"><ele>683.8</ele><time>2026-03-27T14:29:38Z</time></trkpt><trkpt lat="44.74606955588037" lon="9.49366718513378"><ele>687.6</ele><time>2026-03-27T14:29:39Z</time></trkpt><trkpt lat="44.746015321943666" lon="9.493554356234572"><ele>691.4000000000001</ele><time>2026-03-27T14:29:40Z</time></trkpt><trkpt lat="44.74596861448233" lon="9.493434015753403"><ele>695.2</ele><time>2026-03-27T14:29:41Z</time></trkpt><trkpt lat="44.74593101769283" lon="9.493305237419618"><ele>699.0</ele><time>2026-03-27T14:29:42Z</time></trkpt><trkpt lat="44.745917741630294" lon="9.493166051757902"><ele>699.0</ele><time>2026-03-27T14:29:43Z</time></trkpt><trkpt lat="44.74589883972132" lon="9.493030741518512"><ele>699.0</ele><time>2026-03-27T14:29:44Z</time></trkpt><trkpt lat="44.7458764098525" lon="9.492898126816002"><ele>699.0</ele><time>2026-03-27T14:29:45Z</time></trkpt><trkpt lat="44.74589305863215" lon="9.492768554438735"><ele>699.0</ele><time>2026-03-27T14:29:46Z</time></trkpt><trkpt lat="44.74590699651629" lon="9.492652524675508"><ele>699.0</ele><time>2026-03-27T14:29:47Z</time></trkpt><trkpt lat="44.74592933144641" lon="9.492534387607252"><ele>696.0</ele><time>2026-03-27T14:29:48Z</time></trkpt><trkpt lat="44.745929011573814" lon="9.492418626235366"><ele>693.0</ele><time>2026-03-27T14:29:49Z</time></trkpt><trkpt lat="44.745923512088524" lon="9.492314829425688"><ele>690.0</ele><time>2026-03-27T14:29:50Z</time></trkpt><trkpt lat="44.74588546559152" lon="9.49219838956784"><ele>687.0</ele><time>2026-03-27T14:29:51Z</time></trkpt><trkpt lat="44.74582644044569" lon="9.4920606852067"><ele>684.0</ele><time>2026-03-27T14:29:52Z</time></trkpt><trkpt lat="44.74578831199008" lon="9.491902142726582"><ele>681.2</ele><time>2026-03-27T14:29:53Z</time></trkpt><trkpt lat="44.74575801017701" lon="9.491750165629808"><ele>678.4000000000001</ele><time>2026-03-27T14:29:54Z</time></trkpt><trkpt lat="44.74575141547695" lon="9.49160548852097"><ele>675.6</ele><time>2026-03-27T14:29:55Z</time></trkpt><trkpt lat="44.745748039338466" lon="9.491465415680478"><ele>672.8</ele><time>2026-03-27T14:29:56Z</time></trkpt><trkpt lat="44.745735594964565" lon="9.491326846607425"><ele>670.0</ele><time>2026-03-27T14:29:57Z</time></trkpt><trkpt lat="44.74574191039271" lon="9.491177081209916"><ele>668.6</ele><time>2026-03-27T14:29:58Z</time></trkpt><trkpt lat="44.745749306655966" lon="9.491031563354111"><ele>667.2</ele><time>2026-03-27T14:29:59Z</time></trkpt><trkpt lat="44.74575387542658" lon="9.49089862777206"><ele>665.8</ele><time>2026-03-27T14:30:00Z</time></trkpt><trkpt lat="44.745743423372154" lon="9.49077433061935"><ele>664.4</ele><time>2026-03-27T14:30:01Z</time></trkpt><trkpt lat="44.745711044770474" lon="9.49063566319689"><ele>663.0</ele><time>2026-03-27T14:30:02Z</time></trkpt><trkpt lat="44.74566500870066" lon="9.490492991929438"><ele>662.2</ele><time>2026-03-27T14:30:03Z</time></trkpt><trkpt lat="44.74564168413022" lon="9.490343194535786"><ele>661.4</ele><time>2026-03-27T14:30:04Z</time></trkpt><trkpt lat="44.74561284866464" lon="9.49020412463616"><ele>660.6</ele><time>2026-03-27T14:30:05Z</time></trkpt><trkpt lat="44.7455719833847" lon="9.490076164237482"><ele>659.8000000000001</ele><time>2026-03-27T14:30:06Z</time></trkpt><trkpt lat="44.74555475385017" lon="9.489947869458225"><ele>659.0</ele><time>2026-03-27T14:30:07Z</time></trkpt><trkpt lat="44.74552409698033" lon="9.489839677299933"><ele>659.0</ele><time>2026-03-27T14:30:08Z</time></trkpt><trkpt lat="44.745491609887196" lon="9.489746324315435"><ele>659.0</ele><time>2026-03-27T14:30:09Z</time></trkpt><trkpt lat="44.7455067524704" lon="9.489651738386446"><ele>659.0</ele><time>2026-03-27T14:30:10Z</time></trkpt><trkpt lat="44.745562909832636" lon="9.489589217071392"><ele>659.0</ele><time>2026-03-27T14:30:11Z</time></trkpt><trkpt lat="44.745638233231034" lon="9.489596022229836"><ele>659.0</ele><time>2026-03-27T14:30:12Z</time></trkpt><trkpt lat="44.74578310272496" lon="9.489629305554358"><ele>659.0</ele><time>2026-03-27T14:30:14Z</time></trkpt><trkpt lat="44.74586124738489" lon="9.489692463359997"><ele>659.0</ele><time>2026-03-27T14:30:15Z</time></trkpt><trkpt lat="44.745950045507996" lon="9.489764271191119"><ele>659.0</ele><time>2026-03-27T14:30:16Z</time></trkpt><trkpt lat="44.746037715912045" lon="9.489870393205962"><ele>659.0</ele><time>2026-03-27T14:30:17Z</time></trkpt><trkpt lat="44.74614790071581" lon="9.489939558597422"><ele>659.0</ele><time>2026-03-27T14:30:18Z</time></trkpt><trkpt lat="44.74627148155708" lon="9.489983537224774"><ele>663.25</ele><time>2026-03-27T14:30:19Z</time></trkpt><trkpt lat="44.74637531407074" lon="9.490060838209011"><ele>667.5</ele><time>2026-03-27T14:30:20Z</time></trkpt><trkpt lat="44.74646923711709" lon="9.49018136326715"><ele>671.75</ele><time>2026-03-27T14:30:21Z</time></trkpt><trkpt lat="44.74658868930847" lon="9.49027346657986"><ele>676.0</ele><time>2026-03-27T14:30:22Z</time></trkpt><trkpt lat="44.7467000359531" lon="9.490380841529452"><ele>672.5</ele><time>2026-03-27T14:30:23Z</time></trkpt><trkpt lat="44.746823655456986" lon="9.490461605708665"><ele>669.0</ele><time>2026-03-27T14:30:24Z</time></trkpt><trkpt lat="44.74693638437385" lon="9.490548096149933"><ele>665.5</ele><time>2026-03-27T14:30:25Z</time></trkpt><trkpt lat="44.74703068572435" lon="9.49062661442575"><ele>662.0</ele><time>2026-03-27T14:30:26Z</time></trkpt><trkpt lat="44.747115365194546" lon="9.490699865584777"><ele>662.0</ele><time>2026-03-27T14:30:27Z</time></trkpt><trkpt lat="44.747195094234485" lon="9.490757659520705"><ele>662.0</ele><time>2026-03-27T14:30:28Z</time></trkpt><trkpt lat="44.747263577595405" lon="9.490763425288044"><ele>662.0</ele><time>2026-03-27T14:30:29Z</time></trkpt><trkpt lat="44.74736576885753" lon="9.490763920011537"><ele>662.0</ele><time>2026-03-27T14:30:30Z</time></trkpt><trkpt lat="44.74746240197326" lon="9.490710277822851"><ele>662.0</ele><time>2026-03-27T14:30:31Z</time></trkpt><trkpt lat="44.74758032185148" lon="9.490702832508813"><ele>662.0</ele><time>2026-03-27T14:30:32Z</time></trkpt><trkpt lat="44.74770817408499" lon="9.490768290804874"><ele>662.0</ele><time>2026-03-27T14:30:33Z</time></trkpt><trkpt lat="44.74784033350415" lon="9.490821744148198"><ele>662.0</ele><time>2026-03-27T14:30:34Z</time></trkpt><trkpt lat="44.74797565913379" lon="9.490855278643597"><ele>662.0</ele><time>2026-03-27T14:30:35Z</time></trkpt><trkpt lat="44.74810673435793" lon="9.49089862053226"><ele>664.75</ele><time>2026-03-27T14:30:36Z</time></trkpt><trkpt lat="44.748237710640474" lon="9.490926106770734"><ele>667.5</ele><time>2026-03-27T14:30:37Z</time></trkpt><trkpt lat="44.748374747984805" lon="9.49094577755432"><ele>670.25</ele><time>2026-03-27T14:30:38Z</time></trkpt><trkpt lat="44.74850408951377" lon="9.490966560498906"><ele>673.0</ele><time>2026-03-27T14:30:39Z</time></trkpt><trkpt lat="44.74862448179396" lon="9.491003392171507"><ele>670.75</ele><time>2026-03-27T14:30:40Z</time></trkpt><trkpt lat="44.74873166065822" lon="9.491064764973851"><ele>668.5</ele><time>2026-03-27T14:30:41Z</time></trkpt><trkpt lat="44.74882594404584" lon="9.491171396155478"><ele>666.25</ele><time>2026-03-27T14:30:42Z</time></trkpt><trkpt lat="44.74893713886312" lon="9.49123442925781"><ele>664.0</ele><time>2026-03-27T14:30:43Z</time></trkpt><trkpt lat="44.74904336671839" lon="9.491318300572024"><ele>664.0</ele><time>2026-03-27T14:30:44Z</time></trkpt><trkpt lat="44.74914622621843" lon="9.491409153091169"><ele>664.0</ele><time>2026-03-27T14:30:45Z</time></trkpt><trkpt lat="44.749237237737084" lon="9.491491741022106"><ele>664.0</ele><time>2026-03-27T14:30:46Z</time></trkpt><trkpt lat="44.74932016724285" lon="9.491555798747829"><ele>664.0</ele><time>2026-03-27T14:30:47Z</time></trkpt><trkpt lat="44.749399231883615" lon="9.491599081845823"><ele>664.0</ele><time>2026-03-27T14:30:48Z</time></trkpt><trkpt lat="44.74947825779584" lon="9.491618071203282"><ele>666.2</ele><time>2026-03-27T14:30:49Z</time></trkpt><trkpt lat="44.74956680811766" lon="9.49162339379724"><ele>668.4000000000001</ele><time>2026-03-27T14:30:50Z</time></trkpt><trkpt lat="44.74967052585997" lon="9.491593675469561"><ele>670.6</ele><time>2026-03-27T14:30:51Z</time></trkpt><trkpt lat="44.74978574130012" lon="9.491560976283223"><ele>672.8</ele><time>2026-03-27T14:30:52Z</time></trkpt><trkpt lat="44.74990115359876" lon="9.491532946680962"><ele>675.0</ele><time>2026-03-27T14:30:53Z</time></trkpt><trkpt lat="44.750029391726365" lon="9.491516106444756"><ele>675.0</ele><time>2026-03-27T14:30:54Z</time></trkpt><trkpt lat="44.75016461277454" lon="9.49151235062678"><ele>675.0</ele><time>2026-03-27T14:30:55Z</time></trkpt><trkpt lat="44.750302665247155" lon="9.491506819684172"><ele>675.0</ele><time>2026-03-27T14:30:56Z</time></trkpt><trkpt lat="44.750433032350735" lon="9.49151384295829"><ele>675.0</ele><time>2026-03-27T14:30:57Z</time></trkpt><trkpt lat="44.75055055376455" lon="9.491525404041344"><ele>673.8</ele><time>2026-03-27T14:30:58Z</time></trkpt><trkpt lat="44.75066140368313" lon="9.491551127197386"><ele>672.6</ele><time>2026-03-27T14:30:59Z</time></trkpt><trkpt lat="44.75077026679085" lon="9.491562149726196"><ele>671.4000000000001</ele><time>2026-03-27T14:31:00Z</time></trkpt><trkpt lat="44.75087459791349" lon="9.491546298715924"><ele>670.2</ele><time>2026-03-27T14:31:01Z</time></trkpt><trkpt lat="44.750964903768384" lon="9.491508601735857"><ele>669.0</ele><time>2026-03-27T14:31:02Z</time></trkpt><trkpt lat="44.75103769842402" lon="9.491439404253388"><ele>669.6666666666666</ele><time>2026-03-27T14:31:03Z</time></trkpt><trkpt lat="44.751098541744646" lon="9.491334347498464"><ele>670.3333333333334</ele><time>2026-03-27T14:31:04Z</time></trkpt><trkpt lat="44.75113682862731" lon="9.49122897979739"><ele>671.0</ele><time>2026-03-27T14:31:05Z</time></trkpt><trkpt lat="44.751167417606815" lon="9.491113343197837"><ele>671.6666666666667</ele><time>2026-03-27T14:31:06Z</time></trkpt><trkpt lat="44.75121146596286" lon="9.491030873790281"><ele>672.3333333333334</ele><time>2026-03-27T14:31:07Z</time></trkpt><trkpt lat="44.75129363070596" lon="9.490935823893905"><ele>673.0</ele><time>2026-03-27T14:31:09Z</time></trkpt><trkpt lat="44.7513548106765" lon="9.490987546734278"><ele>673.0</ele><time>2026-03-27T14:31:10Z</time></trkpt><trkpt lat="44.751398762813224" lon="9.491060302416916"><ele>673.0</ele><time>2026-03-27T14:31:11Z</time></trkpt><trkpt lat="44.751436858373125" lon="9.49114356627345"><ele>673.0</ele><time>2026-03-27T14:31:12Z</time></trkpt><trkpt lat="44.751468494004754" lon="9.491269080668726"><ele>673.0</ele><time>2026-03-27T14:31:13Z</time></trkpt><trkpt lat="44.751512885239514" lon="9.491353745665194"><ele>673.0</ele><time>2026-03-27T14:31:14Z</time></trkpt><trkpt lat="44.75157701358989" lon="9.491431612475573"><ele>673.0</ele><time>2026-03-27T14:31:15Z</time></trkpt><trkpt lat="44.75163297597578" lon="9.491558243382885"><ele>673.0</ele><time>2026-03-27T14:31:16Z</time></trkpt><trkpt lat="44.751697114369385" lon="9.49164628730644"><ele>673.0</ele><time>2026-03-27T14:31:17Z</time></trkpt><trkpt lat="44.75178150418651" lon="9.491708513591293"><ele>673.0</ele><time>2026-03-27T14:31:18Z</time></trkpt><trkpt lat="44.751863002530875" lon="9.491771882684054"><ele>673.0</ele><time>2026-03-27T14:31:19Z</time></trkpt><trkpt lat="44.75194999824215" lon="9.491811913499689"><ele>673.0</ele><time>2026-03-27T14:31:20Z</time></trkpt><trkpt lat="44.752044822954446" lon="9.491855927696761"><ele>675.0</ele><time>2026-03-27T14:31:21Z</time></trkpt><trkpt lat="44.752150745227695" lon="9.491863828526759"><ele>677.0</ele><time>2026-03-27T14:31:22Z</time></trkpt><trkpt lat="44.75225721633819" lon="9.491853961073222"><ele>679.0</ele><time>2026-03-27T14:31:23Z</time></trkpt><trkpt lat="44.752349146432145" lon="9.491795232212587"><ele>681.0</ele><time>2026-03-27T14:31:24Z</time></trkpt><trkpt lat="44.752429562737305" lon="9.49178444118338"><ele>683.0</ele><time>2026-03-27T14:31:25Z</time></trkpt><trkpt lat="44.75253565520204" lon="9.49180283632035"><ele>683.0</ele><time>2026-03-27T14:31:27Z</time></trkpt><trkpt lat="44.752600557474146" lon="9.49188257530552"><ele>683.0</ele><time>2026-03-27T14:31:29Z</time></trkpt><trkpt lat="44.752573720825254" lon="9.49219351095937"><ele>683.0</ele><time>2026-03-27T14:31:31Z</time></trkpt><trkpt lat="44.75255138277845" lon="9.492305878998588"><ele>683.0</ele><time>2026-03-27T14:31:32Z</time></trkpt><trkpt lat="44.75252841601311" lon="9.492415086268672"><ele>683.0</ele><time>2026-03-27T14:31:33Z</time></trkpt><trkpt lat="44.75248865363374" lon="9.492529445015235"><ele>683.0</ele><time>2026-03-27T14:31:34Z</time></trkpt><trkpt lat="44.75243178112622" lon="9.492640290074815"><ele>683.0</ele><time>2026-03-27T14:31:35Z</time></trkpt><trkpt lat="44.75237222578524" lon="9.492736848982682"><ele>683.0</ele><time>2026-03-27T14:31:36Z</time></trkpt><trkpt lat="44.752303676790646" lon="9.492818572142792"><ele>683.0</ele><time>2026-03-27T14:31:37Z</time></trkpt><trkpt lat="44.75222607816518" lon="9.492896393490392"><ele>683.2857142857143</ele><time>2026-03-27T14:31:38Z</time></trkpt><trkpt lat="44.75216053073159" lon="9.492948941720003"><ele>683.5714285714286</ele><time>2026-03-27T14:31:39Z</time></trkpt><trkpt lat="44.752100723842055" lon="9.493014305850393"><ele>683.8571428571429</ele><time>2026-03-27T14:31:40Z</time></trkpt><trkpt lat="44.7520368565027" lon="9.493073521334217"><ele>684.1428571428571</ele><time>2026-03-27T14:31:41Z</time></trkpt><trkpt lat="44.75199749003083" lon="9.493160248579686"><ele>684.4285714285714</ele><time>2026-03-27T14:31:42Z</time></trkpt><trkpt lat="44.751994183170105" lon="9.49326607304304"><ele>684.7142857142857</ele><time>2026-03-27T14:31:43Z</time></trkpt><trkpt lat="44.75195743660765" lon="9.49335114040955"><ele>685.0</ele><time>2026-03-27T14:31:44Z</time></trkpt><trkpt lat="44.75194597838773" lon="9.493448185189024"><ele>685.0</ele><time>2026-03-27T14:31:45Z</time></trkpt><trkpt lat="44.75187746519044" lon="9.493498641293415"><ele>685.0</ele><time>2026-03-27T14:31:46Z</time></trkpt><trkpt lat="44.7518323884907" lon="9.493570577546862"><ele>685.0</ele><time>2026-03-27T14:31:47Z</time></trkpt><trkpt lat="44.75176628284927" lon="9.493674375172374"><ele>685.0</ele><time>2026-03-27T14:31:49Z</time></trkpt><trkpt lat="44.75172882075818" lon="9.493757063880244"><ele>685.0</ele><time>2026-03-27T14:31:51Z</time></trkpt><trkpt lat="44.75178982759922" lon="9.493910647533308"><ele>685.0</ele><time>2026-03-27T14:31:53Z</time></trkpt><trkpt lat="44.751860269176326" lon="9.493937217769187"><ele>683.1666666666667</ele><time>2026-03-27T14:31:54Z</time></trkpt><trkpt lat="44.75197357286268" lon="9.494040551059383"><ele>681.3333333333334</ele><time>2026-03-27T14:31:56Z</time></trkpt><trkpt lat="44.75204082680717" lon="9.494098760399408"><ele>679.5</ele><time>2026-03-27T14:31:57Z</time></trkpt><trkpt lat="44.7521088669382" lon="9.494153206859087"><ele>677.6666666666666</ele><time>2026-03-27T14:31:58Z</time></trkpt><trkpt lat="44.75217139605262" lon="9.494208819884468"><ele>675.8333333333333</ele><time>2026-03-27T14:31:59Z</time></trkpt><trkpt lat="44.752228665499786" lon="9.494263318035165"><ele>674.0</ele><time>2026-03-27T14:32:00Z</time></trkpt><trkpt lat="44.75227790775858" lon="9.494326321096041"><ele>674.0000000000001</ele><time>2026-03-27T14:32:01Z</time></trkpt><trkpt lat="44.752326849080916" lon="9.494391700756594"><ele>674.0</ele><time>2026-03-27T14:32:02Z</time></trkpt><trkpt lat="44.75236709648648" lon="9.494466823082762"><ele>674.0</ele><time>2026-03-27T14:32:03Z</time></trkpt><trkpt lat="44.752407485321086" lon="9.494543139465394"><ele>674.0</ele><time>2026-03-27T14:32:04Z</time></trkpt><trkpt lat="44.752455699751245" lon="9.494632638969962"><ele>674.0</ele><time>2026-03-27T14:32:05Z</time></trkpt><trkpt lat="44.75249579896802" lon="9.494732022766495"><ele>674.0000000000001</ele><time>2026-03-27T14:32:06Z</time></trkpt><trkpt lat="44.752520243636916" lon="9.494846604070885"><ele>674.0</ele><time>2026-03-27T14:32:07Z</time></trkpt><trkpt lat="44.752528355309465" lon="9.494963105255398"><ele>672.8333333333333</ele><time>2026-03-27T14:32:08Z</time></trkpt><trkpt lat="44.75253447751967" lon="9.495087953960601"><ele>671.6666666666666</ele><time>2026-03-27T14:32:09Z</time></trkpt><trkpt lat="44.752537266600065" lon="9.495212424434056"><ele>670.5</ele><time>2026-03-27T14:32:10Z</time></trkpt><trkpt lat="44.752548836707035" lon="9.49534129846161"><ele>669.3333333333334</ele><time>2026-03-27T14:32:11Z</time></trkpt><trkpt lat="44.75257707946619" lon="9.495453857039431"><ele>668.1666666666667</ele><time>2026-03-27T14:32:12Z</time></trkpt><trkpt lat="44.752603912764" lon="9.495581448385352"><ele>667.0</ele><time>2026-03-27T14:32:13Z</time></trkpt><trkpt lat="44.75263794580969" lon="9.4956928188723"><ele>666.4000000000001</ele><time>2026-03-27T14:32:14Z</time></trkpt><trkpt lat="44.75269567719175" lon="9.495781721935742"><ele>665.8000000000001</ele><time>2026-03-27T14:32:15Z</time></trkpt><trkpt lat="44.75277083141269" lon="9.495865237065187"><ele>665.2</ele><time>2026-03-27T14:32:16Z</time></trkpt><trkpt lat="44.75284413161792" lon="9.495930090422252"><ele>664.6</ele><time>2026-03-27T14:32:17Z</time></trkpt><trkpt lat="44.75292291073058" lon="9.495989883408804"><ele>664.0</ele><time>2026-03-27T14:32:18Z</time></trkpt><trkpt lat="44.753008638983744" lon="9.496054692077728"><ele>664.0</ele><time>2026-03-27T14:32:19Z</time></trkpt><trkpt lat="44.75307467204783" lon="9.496149702564567"><ele>664.0</ele><time>2026-03-27T14:32:20Z</time></trkpt><trkpt lat="44.753125225920066" lon="9.496271817448195"><ele>664.0</ele><time>2026-03-27T14:32:21Z</time></trkpt><trkpt lat="44.75315326121571" lon="9.496414539564418"><ele>664.0</ele><time>2026-03-27T14:32:22Z</time></trkpt><trkpt lat="44.75317097820424" lon="9.496562760592418"><ele>664.0</ele><time>2026-03-27T14:32:23Z</time></trkpt><trkpt lat="44.75318786311469" lon="9.496714418788356"><ele>662.4000000000001</ele><time>2026-03-27T14:32:24Z</time></trkpt><trkpt lat="44.753189719950626" lon="9.496865235797234"><ele>660.8</ele><time>2026-03-27T14:32:25Z</time></trkpt><trkpt lat="44.75318825251574" lon="9.497013562679653"><ele>659.2</ele><time>2026-03-27T14:32:26Z</time></trkpt><trkpt lat="44.75319101028978" lon="9.49715139394897"><ele>657.5999999999999</ele><time>2026-03-27T14:32:27Z</time></trkpt><trkpt lat="44.75321086272065" lon="9.497275612726273"><ele>656.0</ele><time>2026-03-27T14:32:28Z</time></trkpt><trkpt lat="44.75325805412622" lon="9.497384378709517"><ele>657.0</ele><time>2026-03-27T14:32:29Z</time></trkpt><trkpt lat="44.75333482788295" lon="9.497473307064656"><ele>658.0</ele><time>2026-03-27T14:32:30Z</time></trkpt><trkpt lat="44.75343573644435" lon="9.49753424992313"><ele>659.0</ele><time>2026-03-27T14:32:31Z</time></trkpt><trkpt lat="44.75353854666743" lon="9.497587578363303"><ele>660.0</ele><time>2026-03-27T14:32:32Z</time></trkpt><trkpt lat="44.75362415588349" lon="9.497667257198813"><ele>661.0</ele><time>2026-03-27T14:32:33Z</time></trkpt><trkpt lat="44.7536891103617" lon="9.497795942446018"><ele>659.25</ele><time>2026-03-27T14:32:34Z</time></trkpt><trkpt lat="44.75374486909748" lon="9.497931884114882"><ele>657.5</ele><time>2026-03-27T14:32:35Z</time></trkpt><trkpt lat="44.75381325823831" lon="9.498058593290908"><ele>655.75</ele><time>2026-03-27T14:32:36Z</time></trkpt><trkpt lat="44.753882538745216" lon="9.498183429194574"><ele>654.0</ele><time>2026-03-27T14:32:37Z</time></trkpt><trkpt lat="44.753938518472324" lon="9.498327056105401"><ele>654.0</ele><time>2026-03-27T14:32:38Z</time></trkpt><trkpt lat="44.753997204209725" lon="9.498472806420837"><ele>654.0</ele><time>2026-03-27T14:32:39Z</time></trkpt><trkpt lat="44.75406144569813" lon="9.498606937619035"><ele>654.0</ele><time>2026-03-27T14:32:40Z</time></trkpt><trkpt lat="44.754136914638934" lon="9.49871103407599"><ele>654.0</ele><time>2026-03-27T14:32:41Z</time></trkpt><trkpt lat="44.75421298198464" lon="9.49880424347717"><ele>654.0</ele><time>2026-03-27T14:32:42Z</time></trkpt><trkpt lat="44.75429427495035" lon="9.498876365020044"><ele>651.0</ele><time>2026-03-27T14:32:43Z</time></trkpt><trkpt lat="44.75438158516226" lon="9.498927459303097"><ele>648.0</ele><time>2026-03-27T14:32:44Z</time></trkpt><trkpt lat="44.75447269630559" lon="9.498942654043141"><ele>645.0</ele><time>2026-03-27T14:32:45Z</time></trkpt><trkpt lat="44.754565554842586" lon="9.498928149517921"><ele>642.0</ele><time>2026-03-27T14:32:46Z</time></trkpt><trkpt lat="44.75465870081778" lon="9.498871398516062"><ele>639.0</ele><time>2026-03-27T14:32:47Z</time></trkpt><trkpt lat="44.75475907113185" lon="9.498793676133245"><ele>639.0</ele><time>2026-03-27T14:32:48Z</time></trkpt><trkpt lat="44.75485054713051" lon="9.49875916007296"><ele>639.0</ele><time>2026-03-27T14:32:49Z</time></trkpt><trkpt lat="44.75495492082877" lon="9.498765836065497"><ele>639.0</ele><time>2026-03-27T14:32:50Z</time></trkpt><trkpt lat="44.755068482077135" lon="9.498815792558286"><ele>639.0</ele><time>2026-03-27T14:32:51Z</time></trkpt><trkpt lat="44.75521362317802" lon="9.498882282722931"><ele>638.0</ele><time>2026-03-27T14:32:52Z</time></trkpt><trkpt lat="44.7553552341169" lon="9.498919003996049"><ele>637.0</ele><time>2026-03-27T14:32:53Z</time></trkpt><trkpt lat="44.75548095106755" lon="9.498925372651659"><ele>636.0</ele><time>2026-03-27T14:32:54Z</time></trkpt><trkpt lat="44.75558292196908" lon="9.498941536707235"><ele>635.0</ele><time>2026-03-27T14:32:55Z</time></trkpt><trkpt lat="44.75567899679567" lon="9.49895276951008"><ele>635.0</ele><time>2026-03-27T14:32:56Z</time></trkpt><trkpt lat="44.755763158716434" lon="9.498932094445836"><ele>635.0</ele><time>2026-03-27T14:32:57Z</time></trkpt><trkpt lat="44.755848565036935" lon="9.498886362500015"><ele>635.0</ele><time>2026-03-27T14:32:58Z</time></trkpt><trkpt lat="44.755940299455084" lon="9.49881583137917"><ele>635.0</ele><time>2026-03-27T14:32:59Z</time></trkpt><trkpt lat="44.75603679932304" lon="9.498745316969284"><ele>635.0</ele><time>2026-03-27T14:33:00Z</time></trkpt><trkpt lat="44.75613633700269" lon="9.498733723268067"><ele>640.2</ele><time>2026-03-27T14:33:01Z</time></trkpt><trkpt lat="44.75623803366096" lon="9.49873767153182"><ele>645.4</ele><time>2026-03-27T14:33:02Z</time></trkpt><trkpt lat="44.75633686900554" lon="9.498737428046992"><ele>650.5999999999999</ele><time>2026-03-27T14:33:03Z</time></trkpt><trkpt lat="44.75643264934628" lon="9.498733088459485"><ele>655.8</ele><time>2026-03-27T14:33:04Z</time></trkpt><trkpt lat="44.75651718852339" lon="9.498715787921187"><ele>661.0</ele><time>2026-03-27T14:33:05Z</time></trkpt><trkpt lat="44.75659627663827" lon="9.498671276030182"><ele>661.0</ele><time>2026-03-27T14:33:06Z</time></trkpt><trkpt lat="44.7566639546995" lon="9.498596272515837"><ele>661.0</ele><time>2026-03-27T14:33:07Z</time></trkpt><trkpt lat="44.75673871388807" lon="9.498500235732688"><ele>661.0</ele><time>2026-03-27T14:33:08Z</time></trkpt><trkpt lat="44.75681232821292" lon="9.498420401070309"><ele>661.0</ele><time>2026-03-27T14:33:09Z</time></trkpt><trkpt lat="44.7568797188618" lon="9.498363489690629"><ele>661.0</ele><time>2026-03-27T14:33:10Z</time></trkpt><trkpt lat="44.75694851851487" lon="9.498340880694647"><ele>661.0</ele><time>2026-03-27T14:33:11Z</time></trkpt><trkpt lat="44.7570183989133" lon="9.498362773777803"><ele>661.6666666666667</ele><time>2026-03-27T14:33:12Z</time></trkpt><trkpt lat="44.757084046958916" lon="9.49841885110373"><ele>662.3333333333334</ele><time>2026-03-27T14:33:13Z</time></trkpt><trkpt lat="44.75714434053693" lon="9.498508507591488"><ele>663.0</ele><time>2026-03-27T14:33:14Z</time></trkpt><trkpt lat="44.757205173194244" lon="9.498609063909814"><ele>663.6666666666666</ele><time>2026-03-27T14:33:15Z</time></trkpt><trkpt lat="44.75726782170422" lon="9.498706876557518"><ele>664.3333333333333</ele><time>2026-03-27T14:33:16Z</time></trkpt><trkpt lat="44.75733708646542" lon="9.498795012883148"><ele>665.0</ele><time>2026-03-27T14:33:17Z</time></trkpt><trkpt lat="44.75740494923226" lon="9.498875411122523"><ele>658.0</ele><time>2026-03-27T14:33:18Z</time></trkpt><trkpt lat="44.75750314652622" lon="9.498926495958116"><ele>651.0</ele><time>2026-03-27T14:33:19Z</time></trkpt><trkpt lat="44.75760673950266" lon="9.49895663712461"><ele>644.0</ele><time>2026-03-27T14:33:20Z</time></trkpt><trkpt lat="44.75771163981529" lon="9.498988226571615"><ele>637.0</ele><time>2026-03-27T14:33:21.001Z</time></trkpt><trkpt lat="44.757820653843126" lon="9.499016390989867"><ele>630.0</ele><time>2026-03-27T14:33:22.001Z</time></trkpt><trkpt lat="44.75792737701256" lon="9.499049601310137"><ele>630.0</ele><time>2026-03-27T14:33:23.001Z</time></trkpt><trkpt lat="44.75804055679627" lon="9.499066062454204"><ele>630.0</ele><time>2026-03-27T14:33:24.001Z</time></trkpt><trkpt lat="44.7581532303484" lon="9.499003025437574"><ele>630.0</ele><time>2026-03-27T14:33:25.001Z</time></trkpt><trkpt lat="44.758266699098634" lon="9.498955806762"><ele>630.0</ele><time>2026-03-27T14:33:26.001Z</time></trkpt><trkpt lat="44.758384430173656" lon="9.498987819084553"><ele>630.0</ele><time>2026-03-27T14:33:27.001Z</time></trkpt><trkpt lat="44.75849410258638" lon="9.49899275237172"><ele>630.0</ele><time>2026-03-27T14:33:28.001Z</time></trkpt><trkpt lat="44.758602032593615" lon="9.498989912988431"><ele>630.0</ele><time>2026-03-27T14:33:29Z</time></trkpt><trkpt lat="44.75869692716045" lon="9.4989997554587"><ele>630.0</ele><time>2026-03-27T14:33:30.001Z</time></trkpt><trkpt lat="44.75879145795481" lon="9.499006294518605"><ele>630.0</ele><time>2026-03-27T14:33:31.001Z</time></trkpt><trkpt lat="44.75888869193064" lon="9.49900832202032"><ele>629.8</ele><time>2026-03-27T14:33:32Z</time></trkpt><trkpt lat="44.75898816544203" lon="9.499008090873675"><ele>629.6</ele><time>2026-03-27T14:33:33Z</time></trkpt><trkpt lat="44.75909349008554" lon="9.498991046328776"><ele>629.4</ele><time>2026-03-27T14:33:34Z</time></trkpt><trkpt lat="44.75920133744977" lon="9.498958711397156"><ele>629.2</ele><time>2026-03-27T14:33:35Z</time></trkpt><trkpt lat="44.75931003524985" lon="9.498919115537475"><ele>629.0</ele><time>2026-03-27T14:33:36Z</time></trkpt><trkpt lat="44.75940369154035" lon="9.498847673133868"><ele>626.0</ele><time>2026-03-27T14:33:37Z</time></trkpt><trkpt lat="44.7594898997915" lon="9.49878773776955"><ele>623.0</ele><time>2026-03-27T14:33:38Z</time></trkpt><trkpt lat="44.759583064340305" lon="9.498754757848651"><ele>620.0</ele><time>2026-03-27T14:33:39Z</time></trkpt><trkpt lat="44.75968045374282" lon="9.498753834981835"><ele>617.0</ele><time>2026-03-27T14:33:40Z</time></trkpt><trkpt lat="44.75978324955432" lon="9.498761283523482"><ele>614.0</ele><time>2026-03-27T14:33:41Z</time></trkpt><trkpt lat="44.75988809366258" lon="9.49877229736425"><ele>615.5</ele><time>2026-03-27T14:33:42Z</time></trkpt><trkpt lat="44.75999110048422" lon="9.498745311489511"><ele>617.0</ele><time>2026-03-27T14:33:43Z</time></trkpt><trkpt lat="44.76007348652536" lon="9.498682181729125"><ele>618.5</ele><time>2026-03-27T14:33:44Z</time></trkpt><trkpt lat="44.76014985723307" lon="9.498680643420828"><ele>620.0</ele><time>2026-03-27T14:33:45Z</time></trkpt><trkpt lat="44.76021564587277" lon="9.498715803165732"><ele>621.5</ele><time>2026-03-27T14:33:46Z</time></trkpt><trkpt lat="44.76023263221183" lon="9.498825261032206"><ele>623.0</ele><time>2026-03-27T14:33:47Z</time></trkpt><trkpt lat="44.76026570384353" lon="9.498909036277682"><ele>623.0</ele><time>2026-03-27T14:33:48Z</time></trkpt><trkpt lat="44.76032123745991" lon="9.498993852193916"><ele>623.0</ele><time>2026-03-27T14:33:49Z</time></trkpt><trkpt lat="44.76041844650565" lon="9.499021746309012"><ele>623.0</ele><time>2026-03-27T14:33:50Z</time></trkpt><trkpt lat="44.76052840323092" lon="9.499040629393908"><ele>623.0</ele><time>2026-03-27T14:33:51Z</time></trkpt><trkpt lat="44.760628062474645" lon="9.499061723368165"><ele>623.0</ele><time>2026-03-27T14:33:52Z</time></trkpt><trkpt lat="44.760716551238964" lon="9.499109084923683"><ele>623.0</ele><time>2026-03-27T14:33:53Z</time></trkpt><trkpt lat="44.76078520481382" lon="9.499188912896669"><ele>623.0</ele><time>2026-03-27T14:33:54Z</time></trkpt><trkpt lat="44.76084979113399" lon="9.499265637494384"><ele>623.0</ele><time>2026-03-27T14:33:55Z</time></trkpt><trkpt lat="44.7609282228916" lon="9.49930240416204"><ele>623.0</ele><time>2026-03-27T14:33:56Z</time></trkpt><trkpt lat="44.761020241413746" lon="9.499297497991565"><ele>623.0</ele><time>2026-03-27T14:33:57Z</time></trkpt><trkpt lat="44.761107931984505" lon="9.499256442185265"><ele>623.0</ele><time>2026-03-27T14:33:58Z</time></trkpt><trkpt lat="44.76118592040405" lon="9.499192329342446"><ele>622.0</ele><time>2026-03-27T14:33:59Z</time></trkpt><trkpt lat="44.76125863202105" lon="9.499104846517058"><ele>621.0</ele><time>2026-03-27T14:34:00Z</time></trkpt><trkpt lat="44.76131813025057" lon="9.499012085336402"><ele>620.0</ele><time>2026-03-27T14:34:01Z</time></trkpt><trkpt lat="44.76136775109824" lon="9.498935088803334"><ele>619.0</ele><time>2026-03-27T14:34:02Z</time></trkpt><trkpt lat="44.76142796599049" lon="9.498884602126658"><ele>618.0</ele><time>2026-03-27T14:34:03Z</time></trkpt><trkpt lat="44.76150233991921" lon="9.498871433133749"><ele>617.0</ele><time>2026-03-27T14:34:04Z</time></trkpt><trkpt lat="44.76157868088891" lon="9.498885903039202"><ele>617.0</ele><time>2026-03-27T14:34:05Z</time></trkpt><trkpt lat="44.761641239604344" lon="9.498936039288115"><ele>617.0</ele><time>2026-03-27T14:34:06Z</time></trkpt><trkpt lat="44.76163939755175" lon="9.499072195366589"><ele>617.0</ele><time>2026-03-27T14:34:07Z</time></trkpt><trkpt lat="44.761697404302744" lon="9.499165774668343"><ele>617.0</ele><time>2026-03-27T14:34:08Z</time></trkpt><trkpt lat="44.76176142369654" lon="9.49928165601899"><ele>617.0</ele><time>2026-03-27T14:34:09Z</time></trkpt><trkpt lat="44.76181257191529" lon="9.499397774796655"><ele>617.0</ele><time>2026-03-27T14:34:10Z</time></trkpt><trkpt lat="44.7618600378674" lon="9.49951522425532"><ele>617.0</ele><time>2026-03-27T14:34:11Z</time></trkpt><trkpt lat="44.761922216092586" lon="9.499606803201976"><ele>617.0</ele><time>2026-03-27T14:34:12Z</time></trkpt><trkpt lat="44.761959154474084" lon="9.499691324324118"><ele>617.0</ele><time>2026-03-27T14:34:13Z</time></trkpt><trkpt lat="44.762028274170056" lon="9.499733693597792"><ele>617.0</ele><time>2026-03-27T14:34:14Z</time></trkpt><trkpt lat="44.76212207910959" lon="9.499742166529309"><ele>617.0</ele><time>2026-03-27T14:34:15Z</time></trkpt><trkpt lat="44.762227179324945" lon="9.49973458149642"><ele>610.5</ele><time>2026-03-27T14:34:16Z</time></trkpt><trkpt lat="44.76233922853065" lon="9.4997292079868"><ele>604.0</ele><time>2026-03-27T14:34:17Z</time></trkpt><trkpt lat="44.76245868804704" lon="9.499729101217067"><ele>597.5</ele><time>2026-03-27T14:34:18Z</time></trkpt><trkpt lat="44.76257131087615" lon="9.499752849966486"><ele>591.0</ele><time>2026-03-27T14:34:19Z</time></trkpt><trkpt lat="44.76268755646092" lon="9.499734442623035"><ele>593.2</ele><time>2026-03-27T14:34:20Z</time></trkpt><trkpt lat="44.762803256119746" lon="9.499701820962253"><ele>595.4000000000001</ele><time>2026-03-27T14:34:21Z</time></trkpt><trkpt lat="44.762907783960266" lon="9.499671194009586"><ele>597.6</ele><time>2026-03-27T14:34:22Z</time></trkpt><trkpt lat="44.763007751640906" lon="9.499648084403763"><ele>599.8000000000001</ele><time>2026-03-27T14:34:23Z</time></trkpt><trkpt lat="44.76309642213582" lon="9.4996417343711"><ele>602.0</ele><time>2026-03-27T14:34:24Z</time></trkpt><trkpt lat="44.76317420788951" lon="9.499652956484741"><ele>602.0</ele><time>2026-03-27T14:34:25Z</time></trkpt><trkpt lat="44.76323495943449" lon="9.49970637729841"><ele>602.0</ele><time>2026-03-27T14:34:26Z</time></trkpt><trkpt lat="44.76327579880093" lon="9.499795666823204"><ele>602.0</ele><time>2026-03-27T14:34:27Z</time></trkpt><trkpt lat="44.76330544098917" lon="9.49989948726975"><ele>602.0</ele><time>2026-03-27T14:34:28Z</time></trkpt><trkpt lat="44.76332785319629" lon="9.500024259581844"><ele>602.0</ele><time>2026-03-27T14:34:29Z</time></trkpt><trkpt lat="44.76333999884134" lon="9.500151216439974"><ele>602.0</ele><time>2026-03-27T14:34:30Z</time></trkpt><trkpt lat="44.763358308342575" lon="9.500265486298007"><ele>602.0</ele><time>2026-03-27T14:34:31Z</time></trkpt><trkpt lat="44.76336438617395" lon="9.500376982477585"><ele>602.0</ele><time>2026-03-27T14:34:32Z</time></trkpt><trkpt lat="44.76336400436263" lon="9.500487046692209"><ele>602.0</ele><time>2026-03-27T14:34:33Z</time></trkpt><trkpt lat="44.76341096388443" lon="9.50057956129013"><ele>602.0</ele><time>2026-03-27T14:34:34Z</time></trkpt><trkpt lat="44.76345718332843" lon="9.50065457275747"><ele>602.0</ele><time>2026-03-27T14:34:35Z</time></trkpt><trkpt lat="44.763501908558425" lon="9.500728264889588"><ele>602.0</ele><time>2026-03-27T14:34:36Z</time></trkpt><trkpt lat="44.763535913784985" lon="9.50082359878435"><ele>601.1666666666666</ele><time>2026-03-27T14:34:37Z</time></trkpt><trkpt lat="44.76356289066965" lon="9.500924979361386"><ele>600.3333333333333</ele><time>2026-03-27T14:34:38Z</time></trkpt><trkpt lat="44.76359496682576" lon="9.501022773053501"><ele>599.5</ele><time>2026-03-27T14:34:39Z</time></trkpt><trkpt lat="44.76363804683418" lon="9.501092912777185"><ele>598.6666666666666</ele><time>2026-03-27T14:34:40Z</time></trkpt><trkpt lat="44.763704345015775" lon="9.501117972283607"><ele>597.8333333333334</ele><time>2026-03-27T14:34:41Z</time></trkpt><trkpt lat="44.76378425231124" lon="9.501090360616088"><ele>597.0</ele><time>2026-03-27T14:34:42Z</time></trkpt><trkpt lat="44.763862867964136" lon="9.501025268229709"><ele>597.0</ele><time>2026-03-27T14:34:43Z</time></trkpt><trkpt lat="44.76394571764751" lon="9.500954692624376"><ele>597.0</ele><time>2026-03-27T14:34:44Z</time></trkpt><trkpt lat="44.76402877148747" lon="9.500881747087453"><ele>597.0</ele><time>2026-03-27T14:34:45Z</time></trkpt><trkpt lat="44.76411328041216" lon="9.50082645476472"><ele>597.0</ele><time>2026-03-27T14:34:46Z</time></trkpt><trkpt lat="44.76418430486933" lon="9.50075805646161"><ele>597.0</ele><time>2026-03-27T14:34:47Z</time></trkpt><trkpt lat="44.76425369809289" lon="9.500710903826523"><ele>597.0</ele><time>2026-03-27T14:34:48Z</time></trkpt><trkpt lat="44.764320982045874" lon="9.500676603648039"><ele>597.0</ele><time>2026-03-27T14:34:49Z</time></trkpt><trkpt lat="44.764389662011055" lon="9.50074999993824"><ele>597.0</ele><time>2026-03-27T14:34:50Z</time></trkpt><trkpt lat="44.7644302116737" lon="9.500856369618985"><ele>597.0</ele><time>2026-03-27T14:34:51Z</time></trkpt><trkpt lat="44.76447053872255" lon="9.500969948085578"><ele>597.0</ele><time>2026-03-27T14:34:52Z</time></trkpt><trkpt lat="44.76451161732346" lon="9.5010988474917"><ele>597.0</ele><time>2026-03-27T14:34:53Z</time></trkpt><trkpt lat="44.76455297244903" lon="9.501224734041351"><ele>595.6666666666666</ele><time>2026-03-27T14:34:54Z</time></trkpt><trkpt lat="44.76459667177351" lon="9.501329166416868"><ele>594.3333333333334</ele><time>2026-03-27T14:34:55Z</time></trkpt><trkpt lat="44.7646344153731" lon="9.501439811339633"><ele>593.0</ele><time>2026-03-27T14:34:56Z</time></trkpt><trkpt lat="44.76467645123498" lon="9.501546787201084"><ele>591.6666666666667</ele><time>2026-03-27T14:34:57Z</time></trkpt><trkpt lat="44.764712102810265" lon="9.501658763852799"><ele>590.3333333333334</ele><time>2026-03-27T14:34:58Z</time></trkpt><trkpt lat="44.764801177296064" lon="9.50171664056636"><ele>589.0</ele><time>2026-03-27T14:34:59Z</time></trkpt><trkpt lat="44.76487270176889" lon="9.50179549899617"><ele>589.0</ele><time>2026-03-27T14:35:00Z</time></trkpt><trkpt lat="44.76497182647721" lon="9.501790285250241"><ele>589.0</ele><time>2026-03-27T14:35:01Z</time></trkpt><trkpt lat="44.76505925963927" lon="9.501849916384725"><ele>589.0</ele><time>2026-03-27T14:35:02Z</time></trkpt><trkpt lat="44.76511494902048" lon="9.501976099103885"><ele>589.0</ele><time>2026-03-27T14:35:03Z</time></trkpt><trkpt lat="44.76513342536252" lon="9.502109664623985"><ele>589.0</ele><time>2026-03-27T14:35:04Z</time></trkpt><trkpt lat="44.765202050052764" lon="9.502212590853162"><ele>585.2</ele><time>2026-03-27T14:35:05Z</time></trkpt><trkpt lat="44.765286037163364" lon="9.502284260706118"><ele>581.4</ele><time>2026-03-27T14:35:06Z</time></trkpt><trkpt lat="44.76536720935816" lon="9.502361301928396"><ele>577.6</ele><time>2026-03-27T14:35:07Z</time></trkpt><trkpt lat="44.765458624484374" lon="9.50242217795406"><ele>573.8</ele><time>2026-03-27T14:35:08Z</time></trkpt><trkpt lat="44.76555576808687" lon="9.502473000490719"><ele>570.0</ele><time>2026-03-27T14:35:09Z</time></trkpt><trkpt lat="44.765653678639225" lon="9.502517082819809"><ele>570.0</ele><time>2026-03-27T14:35:10Z</time></trkpt><trkpt lat="44.765752674893044" lon="9.502553812828278"><ele>570.0</ele><time>2026-03-27T14:35:11Z</time></trkpt><trkpt lat="44.76585667408873" lon="9.50257912330622"><ele>570.0</ele><time>2026-03-27T14:35:12Z</time></trkpt><trkpt lat="44.765951996422416" lon="9.502612332692564"><ele>570.0</ele><time>2026-03-27T14:35:13Z</time></trkpt><trkpt lat="44.76604901316063" lon="9.50262719290594"><ele>570.0</ele><time>2026-03-27T14:35:14Z</time></trkpt><trkpt lat="44.766146760759575" lon="9.50264926855217"><ele>568.4</ele><time>2026-03-27T14:35:15Z</time></trkpt><trkpt lat="44.7662288417573" lon="9.502692064626286"><ele>566.8</ele><time>2026-03-27T14:35:16Z</time></trkpt><trkpt lat="44.766311657832915" lon="9.50277567781025"><ele>565.2</ele><time>2026-03-27T14:35:17Z</time></trkpt><trkpt lat="44.76639138454746" lon="9.50286061846179"><ele>563.6</ele><time>2026-03-27T14:35:18Z</time></trkpt><trkpt lat="44.766460636357316" lon="9.502963012732483"><ele>562.0</ele><time>2026-03-27T14:35:19Z</time></trkpt><trkpt lat="44.76652511849244" lon="9.50308025794595"><ele>562.0</ele><time>2026-03-27T14:35:20Z</time></trkpt><trkpt lat="44.766574688187895" lon="9.503206450432147"><ele>562.0</ele><time>2026-03-27T14:35:21Z</time></trkpt><trkpt lat="44.76663586610873" lon="9.503337088223903"><ele>562.0</ele><time>2026-03-27T14:35:22Z</time></trkpt><trkpt lat="44.766709944123996" lon="9.503438226709891"><ele>562.0</ele><time>2026-03-27T14:35:23Z</time></trkpt><trkpt lat="44.76678441376407" lon="9.503535568432511"><ele>562.0</ele><time>2026-03-27T14:35:24Z</time></trkpt><trkpt lat="44.76683704218716" lon="9.50367124774025"><ele>558.0</ele><time>2026-03-27T14:35:25Z</time></trkpt><trkpt lat="44.766904057482215" lon="9.503776568044458"><ele>554.0</ele><time>2026-03-27T14:35:26Z</time></trkpt><trkpt lat="44.76699358427993" lon="9.5038344238178"><ele>550.0</ele><time>2026-03-27T14:35:27Z</time></trkpt><trkpt lat="44.76708795880733" lon="9.503883990963882"><ele>546.0</ele><time>2026-03-27T14:35:28Z</time></trkpt><trkpt lat="44.767198449386136" lon="9.50391339361021"><ele>542.0</ele><time>2026-03-27T14:35:29Z</time></trkpt><trkpt lat="44.76731956248013" lon="9.5039267965511"><ele>542.0</ele><time>2026-03-27T14:35:30Z</time></trkpt><trkpt lat="44.76744695137371" lon="9.503941272646818"><ele>542.0</ele><time>2026-03-27T14:35:31Z</time></trkpt><trkpt lat="44.767580983664644" lon="9.503944105784734"><ele>542.0</ele><time>2026-03-27T14:35:32Z</time></trkpt><trkpt lat="44.767720855486395" lon="9.503938265333858"><ele>542.0</ele><time>2026-03-27T14:35:33Z</time></trkpt><trkpt lat="44.76785945366997" lon="9.503933340510718"><ele>543.5</ele><time>2026-03-27T14:35:34Z</time></trkpt><trkpt lat="44.76799189193648" lon="9.503923081113543"><ele>545.0</ele><time>2026-03-27T14:35:35Z</time></trkpt><trkpt lat="44.768117473988134" lon="9.503917885881666"><ele>546.5</ele><time>2026-03-27T14:35:36Z</time></trkpt><trkpt lat="44.76823561433263" lon="9.503965585040193"><ele>548.0</ele><time>2026-03-27T14:35:37Z</time></trkpt><trkpt lat="44.768347327502205" lon="9.504016296092143"><ele>548.0</ele><time>2026-03-27T14:35:38Z</time></trkpt><trkpt lat="44.76846096587935" lon="9.504079594736272"><ele>548.0</ele><time>2026-03-27T14:35:39Z</time></trkpt><trkpt lat="44.7685640540207" lon="9.504147740092828"><ele>548.0</ele><time>2026-03-27T14:35:40Z</time></trkpt><trkpt lat="44.76865163343679" lon="9.504232350021534"><ele>548.0</ele><time>2026-03-27T14:35:41Z</time></trkpt><trkpt lat="44.768736755344854" lon="9.504328511821655"><ele>547.1999999999999</ele><time>2026-03-27T14:35:42Z</time></trkpt><trkpt lat="44.768820559714676" lon="9.504411511889279"><ele>546.4</ele><time>2026-03-27T14:35:43Z</time></trkpt><trkpt lat="44.76891712917698" lon="9.504456041798136"><ele>545.5999999999999</ele><time>2026-03-27T14:35:44Z</time></trkpt><trkpt lat="44.76901041009042" lon="9.504491159262697"><ele>544.8</ele><time>2026-03-27T14:35:45Z</time></trkpt><trkpt lat="44.76911853563604" lon="9.504495539576299"><ele>544.0</ele><time>2026-03-27T14:35:46Z</time></trkpt><trkpt lat="44.76922898373841" lon="9.504481095565259"><ele>544.0</ele><time>2026-03-27T14:35:47Z</time></trkpt><trkpt lat="44.76934282040317" lon="9.504442288358796"><ele>544.0</ele><time>2026-03-27T14:35:48Z</time></trkpt><trkpt lat="44.76946080383386" lon="9.504385317080969"><ele>544.0</ele><time>2026-03-27T14:35:49Z</time></trkpt><trkpt lat="44.7695790125027" lon="9.5043048294848"><ele>544.0</ele><time>2026-03-27T14:35:50Z</time></trkpt><trkpt lat="44.76968263520248" lon="9.504192428398758"><ele>541.0</ele><time>2026-03-27T14:35:51Z</time></trkpt><trkpt lat="44.76976864297464" lon="9.504092393758926"><ele>538.0</ele><time>2026-03-27T14:35:52Z</time></trkpt><trkpt lat="44.76983111924264" lon="9.503974025447267"><ele>535.0</ele><time>2026-03-27T14:35:53Z</time></trkpt><trkpt lat="44.76987316480718" lon="9.503841877675187"><ele>532.0</ele><time>2026-03-27T14:35:54Z</time></trkpt><trkpt lat="44.769894951482804" lon="9.503686582257915"><ele>529.0</ele><time>2026-03-27T14:35:55Z</time></trkpt><trkpt lat="44.7698942252144" lon="9.503524657081124"><ele>529.0</ele><time>2026-03-27T14:35:56Z</time></trkpt><trkpt lat="44.769887858582834" lon="9.503372926129753"><ele>529.0</ele><time>2026-03-27T14:35:57Z</time></trkpt><trkpt lat="44.76989213998864" lon="9.50321962814783"><ele>529.0</ele><time>2026-03-27T14:35:58Z</time></trkpt><trkpt lat="44.76990941500043" lon="9.50306523049473"><ele>529.0</ele><time>2026-03-27T14:35:59Z</time></trkpt><trkpt lat="44.76994269421803" lon="9.502906933153733"><ele>529.0</ele><time>2026-03-27T14:36:00Z</time></trkpt><trkpt lat="44.76998782190147" lon="9.502757146566061"><ele>527.3333333333334</ele><time>2026-03-27T14:36:01Z</time></trkpt><trkpt lat="44.769994765378044" lon="9.50260541637474"><ele>525.6666666666667</ele><time>2026-03-27T14:36:02Z</time></trkpt><trkpt lat="44.77003532921244" lon="9.502480384490543"><ele>524.0</ele><time>2026-03-27T14:36:03Z</time></trkpt><trkpt lat="44.77006631952281" lon="9.502379351934016"><ele>522.3333333333334</ele><time>2026-03-27T14:36:04Z</time></trkpt><trkpt lat="44.77010931160898" lon="9.502296698243713"><ele>520.6666666666666</ele><time>2026-03-27T14:36:05Z</time></trkpt><trkpt lat="44.770191430701686" lon="9.50226525381145"><ele>519.0</ele><time>2026-03-27T14:36:06Z</time></trkpt><trkpt lat="44.77027601216408" lon="9.502316226326922"><ele>519.0</ele><time>2026-03-27T14:36:07Z</time></trkpt><trkpt lat="44.77037528588551" lon="9.502372872954032"><ele>519.0</ele><time>2026-03-27T14:36:08Z</time></trkpt><trkpt lat="44.77048352495178" lon="9.502428971264777"><ele>519.0</ele><time>2026-03-27T14:36:09Z</time></trkpt><trkpt lat="44.77058003782672" lon="9.50249312621925"><ele>519.0</ele><time>2026-03-27T14:36:10Z</time></trkpt><trkpt lat="44.77067380637825" lon="9.502549945651905"><ele>519.0</ele><time>2026-03-27T14:36:11Z</time></trkpt><trkpt lat="44.77076437234236" lon="9.502589403806171"><ele>519.0</ele><time>2026-03-27T14:36:12Z</time></trkpt><trkpt lat="44.77086427673707" lon="9.502585434103723"><ele>519.0</ele><time>2026-03-27T14:36:13Z</time></trkpt><trkpt lat="44.770973529926295" lon="9.502543819579945"><ele>519.0</ele><time>2026-03-27T14:36:14Z</time></trkpt><trkpt lat="44.77108716363532" lon="9.502480628288803"><ele>519.0</ele><time>2026-03-27T14:36:15Z</time></trkpt><trkpt lat="44.77119494301284" lon="9.50246014517753"><ele>519.0</ele><time>2026-03-27T14:36:16Z</time></trkpt><trkpt lat="44.771302045853695" lon="9.502454695645284"><ele>518.4</ele><time>2026-03-27T14:36:17Z</time></trkpt><trkpt lat="44.77139791004594" lon="9.502509348973069"><ele>517.8</ele><time>2026-03-27T14:36:18Z</time></trkpt><trkpt lat="44.77148639344252" lon="9.50257945643817"><ele>517.2</ele><time>2026-03-27T14:36:19Z</time></trkpt><trkpt lat="44.77157726769713" lon="9.502666049442631"><ele>516.6</ele><time>2026-03-27T14:36:20Z</time></trkpt><trkpt lat="44.77167133491064" lon="9.502751036225067"><ele>516.0</ele><time>2026-03-27T14:36:21Z</time></trkpt><trkpt lat="44.77176449914423" lon="9.502829303209369"><ele>516.0</ele><time>2026-03-27T14:36:22Z</time></trkpt><trkpt lat="44.77185287228225" lon="9.502896808100834"><ele>516.0</ele><time>2026-03-27T14:36:23Z</time></trkpt><trkpt lat="44.77194593558717" lon="9.502934776033372"><ele>516.0</ele><time>2026-03-27T14:36:24Z</time></trkpt><trkpt lat="44.772045081818" lon="9.50292810172474"><ele>516.0</ele><time>2026-03-27T14:36:25Z</time></trkpt><trkpt lat="44.77214808053942" lon="9.502869573845569"><ele>516.0</ele><time>2026-03-27T14:36:26Z</time></trkpt><trkpt lat="44.772247439029066" lon="9.502794658445715"><ele>513.8</ele><time>2026-03-27T14:36:27Z</time></trkpt><trkpt lat="44.772341493539315" lon="9.502723441054714"><ele>511.6</ele><time>2026-03-27T14:36:28Z</time></trkpt><trkpt lat="44.77244221897943" lon="9.502667437887935"><ele>509.4</ele><time>2026-03-27T14:36:29Z</time></trkpt><trkpt lat="44.77253822142556" lon="9.502610414622156"><ele>507.2</ele><time>2026-03-27T14:36:30Z</time></trkpt><trkpt lat="44.772638853345285" lon="9.5025772950336"><ele>505.0</ele><time>2026-03-27T14:36:31Z</time></trkpt><trkpt lat="44.772740465848884" lon="9.502505080855153"><ele>504.2</ele><time>2026-03-27T14:36:32Z</time></trkpt><trkpt lat="44.77284917493781" lon="9.502485062897678"><ele>503.4</ele><time>2026-03-27T14:36:33Z</time></trkpt><trkpt lat="44.772955776542034" lon="9.502424715792214"><ele>502.6</ele><time>2026-03-27T14:36:34Z</time></trkpt><trkpt lat="44.773061702471594" lon="9.502404001445509"><ele>501.8</ele><time>2026-03-27T14:36:35Z</time></trkpt><trkpt lat="44.773170247724444" lon="9.502407757958212"><ele>501.0</ele><time>2026-03-27T14:36:36Z</time></trkpt><trkpt lat="44.77327462706532" lon="9.502433586041937"><ele>501.0</ele><time>2026-03-27T14:36:37Z</time></trkpt><trkpt lat="44.77336458570366" lon="9.50251390065486"><ele>501.0</ele><time>2026-03-27T14:36:38Z</time></trkpt><trkpt lat="44.77344931771066" lon="9.502592274527734"><ele>501.0</ele><time>2026-03-27T14:36:39Z</time></trkpt><trkpt lat="44.77351752560941" lon="9.50268995506032"><ele>501.0</ele><time>2026-03-27T14:36:40Z</time></trkpt><trkpt lat="44.77357471534321" lon="9.502806140008675"><ele>501.0</ele><time>2026-03-27T14:36:41Z</time></trkpt><trkpt lat="44.77363385277077" lon="9.502921394896163"><ele>501.0</ele><time>2026-03-27T14:36:42Z</time></trkpt><trkpt lat="44.77369234656977" lon="9.503041817500447"><ele>501.0</ele><time>2026-03-27T14:36:43Z</time></trkpt><trkpt lat="44.773748351787134" lon="9.503170036352463"><ele>501.0</ele><time>2026-03-27T14:36:44Z</time></trkpt><trkpt lat="44.77379214393832" lon="9.503306077907617"><ele>501.0</ele><time>2026-03-27T14:36:45Z</time></trkpt><trkpt lat="44.7738417028495" lon="9.50344648821784"><ele>501.0</ele><time>2026-03-27T14:36:46Z</time></trkpt><trkpt lat="44.773873987223354" lon="9.503588299289467"><ele>501.0</ele><time>2026-03-27T14:36:47Z</time></trkpt><trkpt lat="44.773923007416705" lon="9.503715090012678"><ele>501.0</ele><time>2026-03-27T14:36:48Z</time></trkpt><trkpt lat="44.77399205619268" lon="9.503820173521017"><ele>501.0</ele><time>2026-03-27T14:36:49Z</time></trkpt><trkpt lat="44.77407579972046" lon="9.503907599152932"><ele>501.0</ele><time>2026-03-27T14:36:50Z</time></trkpt><trkpt lat="44.77415460178665" lon="9.503970084147216"><ele>501.0</ele><time>2026-03-27T14:36:51Z</time></trkpt><trkpt lat="44.774233370079756" lon="9.504011258725994"><ele>495.8</ele><time>2026-03-27T14:36:52Z</time></trkpt><trkpt lat="44.77431991335465" lon="9.504004924775463"><ele>490.6</ele><time>2026-03-27T14:36:53Z</time></trkpt><trkpt lat="44.774414114425795" lon="9.503972973602407"><ele>485.4</ele><time>2026-03-27T14:36:54Z</time></trkpt><trkpt lat="44.774515869844954" lon="9.50395392780525"><ele>480.2</ele><time>2026-03-27T14:36:55Z</time></trkpt><trkpt lat="44.7746029659306" lon="9.504024266601373"><ele>475.0</ele><time>2026-03-27T14:36:56Z</time></trkpt><trkpt lat="44.774687091314966" lon="9.504093379618787"><ele>475.0</ele><time>2026-03-27T14:36:57Z</time></trkpt><trkpt lat="44.77477034678852" lon="9.504162731172448"><ele>475.0</ele><time>2026-03-27T14:36:58Z</time></trkpt><trkpt lat="44.774860109668275" lon="9.504216999401638"><ele>475.0</ele><time>2026-03-27T14:36:59Z</time></trkpt><trkpt lat="44.77494243654419" lon="9.504275925502805"><ele>475.0</ele><time>2026-03-27T14:37:00Z</time></trkpt><trkpt lat="44.77503312489873" lon="9.504319911792221"><ele>475.0</ele><time>2026-03-27T14:37:01Z</time></trkpt><trkpt lat="44.77513446668388" lon="9.504332142613267"><ele>475.25</ele><time>2026-03-27T14:37:02Z</time></trkpt><trkpt lat="44.77524294521587" lon="9.504319658574953"><ele>475.5</ele><time>2026-03-27T14:37:03Z</time></trkpt><trkpt lat="44.77535425528587" lon="9.504293127640667"><ele>475.75</ele><time>2026-03-27T14:37:04Z</time></trkpt><trkpt lat="44.77546927880472" lon="9.504267260467415"><ele>476.0</ele><time>2026-03-27T14:37:05Z</time></trkpt><trkpt lat="44.775583300973" lon="9.504297324446169"><ele>476.0</ele><time>2026-03-27T14:37:06Z</time></trkpt><trkpt lat="44.77569626968467" lon="9.504357534622772"><ele>476.0</ele><time>2026-03-27T14:37:07Z</time></trkpt><trkpt lat="44.775823505931974" lon="9.504425696043464"><ele>476.0</ele><time>2026-03-27T14:37:08Z</time></trkpt><trkpt lat="44.77596797643733" lon="9.504483608821223"><ele>476.0</ele><time>2026-03-27T14:37:09Z</time></trkpt><trkpt lat="44.776108222891324" lon="9.504547743601801"><ele>469.5</ele><time>2026-03-27T14:37:10Z</time></trkpt><trkpt lat="44.7762357689334" lon="9.504598918862126"><ele>463.0</ele><time>2026-03-27T14:37:11Z</time></trkpt><trkpt lat="44.77635347503775" lon="9.504648956043798"><ele>456.5</ele><time>2026-03-27T14:37:12Z</time></trkpt><trkpt lat="44.776471924680436" lon="9.504686327536316"><ele>450.0</ele><time>2026-03-27T14:37:13Z</time></trkpt><trkpt lat="44.77659419507505" lon="9.504711388850533"><ele>450.0</ele><time>2026-03-27T14:37:14Z</time></trkpt><trkpt lat="44.77670613639061" lon="9.5047505479343"><ele>450.0</ele><time>2026-03-27T14:37:15Z</time></trkpt><trkpt lat="44.7768115389554" lon="9.504744902577944"><ele>450.0</ele><time>2026-03-27T14:37:16Z</time></trkpt><trkpt lat="44.77689300851517" lon="9.504758817089007"><ele>450.0</ele><time>2026-03-27T14:37:17Z</time></trkpt><trkpt lat="44.77695884088735" lon="9.504728187035349"><ele>450.0</ele><time>2026-03-27T14:37:18Z</time></trkpt><trkpt lat="44.77702085096854" lon="9.50468659445598"><ele>450.0</ele><time>2026-03-27T14:37:19Z</time></trkpt><trkpt lat="44.77704120039432" lon="9.504553766046888"><ele>451.5</ele><time>2026-03-27T14:37:20Z</time></trkpt><trkpt lat="44.77705835321997" lon="9.504440551782478"><ele>453.0</ele><time>2026-03-27T14:37:21Z</time></trkpt><trkpt lat="44.7771002722765" lon="9.504359031729908"><ele>454.5</ele><time>2026-03-27T14:37:22Z</time></trkpt><trkpt lat="44.777176957040794" lon="9.504315672270545"><ele>456.0</ele><time>2026-03-27T14:37:23Z</time></trkpt><trkpt lat="44.77725496183954" lon="9.504316767534327"><ele>457.5</ele><time>2026-03-27T14:37:24Z</time></trkpt><trkpt lat="44.77731882462257" lon="9.504362114603127"><ele>459.0</ele><time>2026-03-27T14:37:25Z</time></trkpt><trkpt lat="44.777366349428725" lon="9.50443783916827"><ele>459.0</ele><time>2026-03-27T14:37:26Z</time></trkpt><trkpt lat="44.77740837639375" lon="9.504529416932197"><ele>459.0</ele><time>2026-03-27T14:37:27Z</time></trkpt><trkpt lat="44.77745646230039" lon="9.504608594862836"><ele>459.0</ele><time>2026-03-27T14:37:28Z</time></trkpt><trkpt lat="44.777518971193565" lon="9.504669270500676"><ele>459.0</ele><time>2026-03-27T14:37:29Z</time></trkpt><trkpt lat="44.77759152704834" lon="9.50470132098507"><ele>459.0</ele><time>2026-03-27T14:37:30Z</time></trkpt><trkpt lat="44.77767585482597" lon="9.504685709008585"><ele>459.0</ele><time>2026-03-27T14:37:31Z</time></trkpt><trkpt lat="44.77776720065606" lon="9.504624903691397"><ele>457.79999999999995</ele><time>2026-03-27T14:37:32Z</time></trkpt><trkpt lat="44.777851641374575" lon="9.50453386545657"><ele>456.59999999999997</ele><time>2026-03-27T14:37:33Z</time></trkpt><trkpt lat="44.77793900055076" lon="9.504452088402584"><ele>455.4</ele><time>2026-03-27T14:37:34Z</time></trkpt><trkpt lat="44.77803729772181" lon="9.504399171080259"><ele>454.2</ele><time>2026-03-27T14:37:35Z</time></trkpt><trkpt lat="44.77812792874819" lon="9.504345351671478"><ele>453.0</ele><time>2026-03-27T14:37:36Z</time></trkpt><trkpt lat="44.77820467240249" lon="9.504282721651526"><ele>453.0</ele><time>2026-03-27T14:37:37Z</time></trkpt><trkpt lat="44.77834049536724" lon="9.504410255591269"><ele>452.99999999999994</ele><time>2026-03-27T14:37:38Z</time></trkpt><trkpt lat="44.77843290630936" lon="9.504420749738347"><ele>452.99999999999994</ele><time>2026-03-27T14:37:39Z</time></trkpt><trkpt lat="44.778522655731855" lon="9.504424419583454"><ele>453.0</ele><time>2026-03-27T14:37:40Z</time></trkpt><trkpt lat="44.77861436327797" lon="9.504433210388523"><ele>453.0</ele><time>2026-03-27T14:37:41Z</time></trkpt><trkpt lat="44.77870579965072" lon="9.504469531060376"><ele>453.0</ele><time>2026-03-27T14:37:42Z</time></trkpt><trkpt lat="44.77878777435338" lon="9.504536492478339"><ele>452.99999999999994</ele><time>2026-03-27T14:37:43Z</time></trkpt><trkpt lat="44.77885822634017" lon="9.504634216384881"><ele>452.99999999999994</ele><time>2026-03-27T14:37:44Z</time></trkpt><trkpt lat="44.77892959848511" lon="9.504739743759606"><ele>453.0</ele><time>2026-03-27T14:37:45Z</time></trkpt><trkpt lat="44.77900679431743" lon="9.504823726746375"><ele>453.0</ele><time>2026-03-27T14:37:46Z</time></trkpt><trkpt lat="44.779080900689856" lon="9.504901428232413"><ele>449.0</ele><time>2026-03-27T14:37:47Z</time></trkpt><trkpt lat="44.779163020999405" lon="9.5049781409589"><ele>444.99999999999994</ele><time>2026-03-27T14:37:48Z</time></trkpt><trkpt lat="44.77924363333622" lon="9.505054031650204"><ele>440.99999999999994</ele><time>2026-03-27T14:37:49Z</time></trkpt><trkpt lat="44.779327500871325" lon="9.505127005672172"><ele>437.0</ele><time>2026-03-27T14:37:50Z</time></trkpt><trkpt lat="44.77940920405448" lon="9.505196628168497"><ele>433.0</ele><time>2026-03-27T14:37:51Z</time></trkpt><trkpt lat="44.77949406563848" lon="9.505262490845663"><ele>432.59999999999997</ele><time>2026-03-27T14:37:52Z</time></trkpt><trkpt lat="44.779577033845044" lon="9.5053359122782"><ele>432.19999999999993</ele><time>2026-03-27T14:37:53Z</time></trkpt><trkpt lat="44.779664437410716" lon="9.50540408160133"><ele>431.8</ele><time>2026-03-27T14:37:54Z</time></trkpt><trkpt lat="44.77975074899738" lon="9.5054771095093"><ele>431.4</ele><time>2026-03-27T14:37:55Z</time></trkpt><trkpt lat="44.77984324891853" lon="9.505527442855076"><ele>431.0</ele><time>2026-03-27T14:37:56Z</time></trkpt><trkpt lat="44.77993536424253" lon="9.505563524949372"><ele>427.99999999999994</ele><time>2026-03-27T14:37:57Z</time></trkpt><trkpt lat="44.780024792938725" lon="9.50558432859441"><ele>425.0</ele><time>2026-03-27T14:37:58Z</time></trkpt><trkpt lat="44.78011428242026" lon="9.505586557755713"><ele>422.0</ele><time>2026-03-27T14:37:59Z</time></trkpt><trkpt lat="44.78020046961801" lon="9.5055738220728"><ele>419.0</ele><time>2026-03-27T14:38:00Z</time></trkpt><trkpt lat="44.7802741506737" lon="9.505539150702088"><ele>415.99999999999994</ele><time>2026-03-27T14:38:01Z</time></trkpt><trkpt lat="44.78034862463248" lon="9.50548394559704"><ele>413.0</ele><time>2026-03-27T14:38:02Z</time></trkpt><trkpt lat="44.78041120472791" lon="9.505419896700735"><ele>414.3333333333333</ele><time>2026-03-27T14:38:03Z</time></trkpt><trkpt lat="44.780458156524766" lon="9.505329941092686"><ele>415.66666666666663</ele><time>2026-03-27T14:38:04Z</time></trkpt><trkpt lat="44.78049996025829" lon="9.505244943759923"><ele>417.0</ele><time>2026-03-27T14:38:05Z</time></trkpt><trkpt lat="44.78055369927715" lon="9.505177885916154"><ele>418.33333333333337</ele><time>2026-03-27T14:38:06Z</time></trkpt><trkpt lat="44.78068271500498" lon="9.505154581928052"><ele>419.6666666666667</ele><time>2026-03-27T14:38:08Z</time></trkpt><trkpt lat="44.78075929333624" lon="9.505199147122488"><ele>421.0</ele><time>2026-03-27T14:38:09Z</time></trkpt><trkpt lat="44.78083622760675" lon="9.505258764264605"><ele>421.0</ele><time>2026-03-27T14:38:10Z</time></trkpt><trkpt lat="44.780920305445115" lon="9.505324639625893"><ele>421.0</ele><time>2026-03-27T14:38:11Z</time></trkpt><trkpt lat="44.78101710892962" lon="9.50538119081055"><ele>421.0</ele><time>2026-03-27T14:38:12Z</time></trkpt><trkpt lat="44.781109253052506" lon="9.50543382316106"><ele>421.0</ele><time>2026-03-27T14:38:13Z</time></trkpt><trkpt lat="44.781192441168436" lon="9.505486274320715"><ele>421.0</ele><time>2026-03-27T14:38:14Z</time></trkpt><trkpt lat="44.781262304292625" lon="9.505557572863907"><ele>419.00000000000006</ele><time>2026-03-27T14:38:15Z</time></trkpt><trkpt lat="44.78130263450527" lon="9.505651124401457"><ele>417.0</ele><time>2026-03-27T14:38:16Z</time></trkpt><trkpt lat="44.781321363332275" lon="9.505754380660193"><ele>415.0</ele><time>2026-03-27T14:38:17Z</time></trkpt><trkpt lat="44.78133032737235" lon="9.505872302472728"><ele>413.0</ele><time>2026-03-27T14:38:18Z</time></trkpt><trkpt lat="44.78131851503465" lon="9.50598366138595"><ele>411.00000000000006</ele><time>2026-03-27T14:38:19Z</time></trkpt><trkpt lat="44.78129181477891" lon="9.50609144036638"><ele>409.0</ele><time>2026-03-27T14:38:20Z</time></trkpt><trkpt lat="44.78123949668943" lon="9.506167141080438"><ele>409.00000000000006</ele><time>2026-03-27T14:38:21Z</time></trkpt><trkpt lat="44.78116192087996" lon="9.506208308676156"><ele>409.0</ele><time>2026-03-27T14:38:22Z</time></trkpt><trkpt lat="44.78108156016724" lon="9.506248646863327"><ele>409.0</ele><time>2026-03-27T14:38:23Z</time></trkpt><trkpt lat="44.78101028624622" lon="9.50631679073745"><ele>409.0</ele><time>2026-03-27T14:38:24Z</time></trkpt><trkpt lat="44.780942930640634" lon="9.50640702785981"><ele>409.00000000000006</ele><time>2026-03-27T14:38:25Z</time></trkpt><trkpt lat="44.78091227891108" lon="9.506502309318197"><ele>409.0</ele><time>2026-03-27T14:38:26Z</time></trkpt><trkpt lat="44.78088612647669" lon="9.506612878179393"><ele>407.2</ele><time>2026-03-27T14:38:27Z</time></trkpt><trkpt lat="44.7808495397382" lon="9.506707530812113"><ele>405.4</ele><time>2026-03-27T14:38:28Z</time></trkpt><trkpt lat="44.780800152953006" lon="9.506776122805777"><ele>403.6</ele><time>2026-03-27T14:38:29Z</time></trkpt><trkpt lat="44.78066760975435" lon="9.506789942193688"><ele>401.8</ele><time>2026-03-27T14:38:31Z</time></trkpt><trkpt lat="44.780577845698325" lon="9.506769384340158"><ele>400.0</ele><time>2026-03-27T14:38:32Z</time></trkpt><trkpt lat="44.780477042613285" lon="9.506741223344958"><ele>400.0</ele><time>2026-03-27T14:38:33Z</time></trkpt><trkpt lat="44.78037415554169" lon="9.506711814524648"><ele>400.0</ele><time>2026-03-27T14:38:34Z</time></trkpt><trkpt lat="44.78026979416402" lon="9.506709489013666"><ele>400.0</ele><time>2026-03-27T14:38:35Z</time></trkpt><trkpt lat="44.78017339795969" lon="9.506704848329868"><ele>400.0</ele><time>2026-03-27T14:38:36Z</time></trkpt><trkpt lat="44.78008809395709" lon="9.506693871956461"><ele>400.0</ele><time>2026-03-27T14:38:37Z</time></trkpt><trkpt lat="44.78001069495391" lon="9.506666532538903"><ele>400.33333333333337</ele><time>2026-03-27T14:38:38Z</time></trkpt><trkpt lat="44.779937499454164" lon="9.506613583615176"><ele>400.6666666666667</ele><time>2026-03-27T14:38:39Z</time></trkpt><trkpt lat="44.77986998908947" lon="9.506567286428922"><ele>401.0</ele><time>2026-03-27T14:38:40Z</time></trkpt><trkpt lat="44.77979999869758" lon="9.506551243653444"><ele>401.33333333333337</ele><time>2026-03-27T14:38:41Z</time></trkpt><trkpt lat="44.77973113990765" lon="9.506576010650313"><ele>401.6666666666667</ele><time>2026-03-27T14:38:42Z</time></trkpt><trkpt lat="44.77968764329867" lon="9.506657206481037"><ele>402.0</ele><time>2026-03-27T14:38:43Z</time></trkpt><trkpt lat="44.77967693848532" lon="9.506769231896707"><ele>402.0</ele><time>2026-03-27T14:38:44Z</time></trkpt><trkpt lat="44.779706898052424" lon="9.506887615920279"><ele>402.0</ele><time>2026-03-27T14:38:45Z</time></trkpt><trkpt lat="44.77976741275519" lon="9.506960178226233"><ele>402.0</ele><time>2026-03-27T14:38:46Z</time></trkpt><trkpt lat="44.77983967509069" lon="9.507006038008866"><ele>402.0</ele><time>2026-03-27T14:38:47Z</time></trkpt><trkpt lat="44.77992703581033" lon="9.507021966202391"><ele>402.0</ele><time>2026-03-27T14:38:48Z</time></trkpt><trkpt lat="44.7800212838568" lon="9.507054889198908"><ele>402.0</ele><time>2026-03-27T14:38:49Z</time></trkpt><trkpt lat="44.78013439058523" lon="9.507090600588207"><ele>398.8</ele><time>2026-03-27T14:38:50Z</time></trkpt><trkpt lat="44.780242364605535" lon="9.507137951353634"><ele>395.6</ele><time>2026-03-27T14:38:51Z</time></trkpt><trkpt lat="44.780348232515884" lon="9.507199409538794"><ele>392.40000000000003</ele><time>2026-03-27T14:38:52Z</time></trkpt><trkpt lat="44.78044398740867" lon="9.50726569759001"><ele>389.20000000000005</ele><time>2026-03-27T14:38:53Z</time></trkpt><trkpt lat="44.78052934871291" lon="9.50732724794307"><ele>386.0</ele><time>2026-03-27T14:38:54Z</time></trkpt><trkpt lat="44.780615637144734" lon="9.5073841071961"><ele>386.0</ele><time>2026-03-27T14:38:55Z</time></trkpt><trkpt lat="44.78070676558787" lon="9.507435290744903"><ele>386.0</ele><time>2026-03-27T14:38:56Z</time></trkpt><trkpt lat="44.780806836776854" lon="9.507464239638244"><ele>386.0</ele><time>2026-03-27T14:38:57Z</time></trkpt><trkpt lat="44.78090538155184" lon="9.507495403136307"><ele>386.0</ele><time>2026-03-27T14:38:58Z</time></trkpt><trkpt lat="44.781003561524095" lon="9.507501937674615"><ele>386.0</ele><time>2026-03-27T14:38:59Z</time></trkpt><trkpt lat="44.7811006024849" lon="9.507482579960596"><ele>385.3333333333333</ele><time>2026-03-27T14:39:00Z</time></trkpt><trkpt lat="44.78118632374108" lon="9.507479981048098"><ele>384.66666666666663</ele><time>2026-03-27T14:39:01Z</time></trkpt><trkpt lat="44.781251262303584" lon="9.50749531039719"><ele>384.0</ele><time>2026-03-27T14:39:02Z</time></trkpt><trkpt lat="44.78129872919523" lon="9.507624966244547"><ele>383.3333333333333</ele><time>2026-03-27T14:39:04Z</time></trkpt><trkpt lat="44.78126826608973" lon="9.507716463900037"><ele>382.66666666666663</ele><time>2026-03-27T14:39:05Z</time></trkpt><trkpt lat="44.78121061124686" lon="9.507776023909372"><ele>382.0</ele><time>2026-03-27T14:39:06Z</time></trkpt><trkpt lat="44.781135200758285" lon="9.50779935235983"><ele>382.0</ele><time>2026-03-27T14:39:07Z</time></trkpt><trkpt lat="44.7810409717239" lon="9.507806445978177"><ele>382.0</ele><time>2026-03-27T14:39:08Z</time></trkpt><trkpt lat="44.78093371622753" lon="9.507808898069747"><ele>382.0</ele><time>2026-03-27T14:39:09Z</time></trkpt><trkpt lat="44.78081394757287" lon="9.507812687450057"><ele>382.0</ele><time>2026-03-27T14:39:10Z</time></trkpt><trkpt lat="44.78069768101193" lon="9.50781925357695"><ele>382.0</ele><time>2026-03-27T14:39:11Z</time></trkpt><trkpt lat="44.78058937566872" lon="9.507830484616198"><ele>382.66666666666663</ele><time>2026-03-27T14:39:12Z</time></trkpt><trkpt lat="44.780487205210854" lon="9.507834870581728"><ele>383.3333333333333</ele><time>2026-03-27T14:39:13Z</time></trkpt><trkpt lat="44.78040035830051" lon="9.507842054863017"><ele>384.0</ele><time>2026-03-27T14:39:14Z</time></trkpt><trkpt lat="44.780326806355305" lon="9.507866211616502"><ele>384.66666666666663</ele><time>2026-03-27T14:39:15Z</time></trkpt><trkpt lat="44.780273277439576" lon="9.50793134245301"><ele>385.3333333333333</ele><time>2026-03-27T14:39:16Z</time></trkpt><trkpt lat="44.78025537703278" lon="9.508029042657647"><ele>386.0</ele><time>2026-03-27T14:39:17Z</time></trkpt><trkpt lat="44.78026426081799" lon="9.508126519785014"><ele>382.8</ele><time>2026-03-27T14:39:18Z</time></trkpt><trkpt lat="44.780318071624514" lon="9.50820465946868"><ele>379.6</ele><time>2026-03-27T14:39:19Z</time></trkpt><trkpt lat="44.780390679629534" lon="9.508267059947562"><ele>376.4</ele><time>2026-03-27T14:39:20Z</time></trkpt><trkpt lat="44.78048230067572" lon="9.508300192223432"><ele>373.2</ele><time>2026-03-27T14:39:21Z</time></trkpt><trkpt lat="44.7805839988122" lon="9.508312846398127"><ele>370.0</ele><time>2026-03-27T14:39:22Z</time></trkpt><trkpt lat="44.78069174064824" lon="9.508315589354455"><ele>370.0</ele><time>2026-03-27T14:39:23Z</time></trkpt><trkpt lat="44.78080634047087" lon="9.508302868618554"><ele>370.0</ele><time>2026-03-27T14:39:24Z</time></trkpt><trkpt lat="44.78091318208617" lon="9.508273877205811"><ele>370.0</ele><time>2026-03-27T14:39:25Z</time></trkpt><trkpt lat="44.78100565078485" lon="9.50823701541834"><ele>370.0</ele><time>2026-03-27T14:39:26Z</time></trkpt><trkpt lat="44.78109141852459" lon="9.50819704557467"><ele>370.0</ele><time>2026-03-27T14:39:27Z</time></trkpt><trkpt lat="44.78116819422831" lon="9.508178148927795"><ele>369.16666666666663</ele><time>2026-03-27T14:39:28Z</time></trkpt><trkpt lat="44.78127549581507" lon="9.508234980493675"><ele>368.3333333333333</ele><time>2026-03-27T14:39:30Z</time></trkpt><trkpt lat="44.78129476412829" lon="9.508321797934839"><ele>367.5</ele><time>2026-03-27T14:39:31Z</time></trkpt><trkpt lat="44.78128068960496" lon="9.508414331457065"><ele>366.6666666666667</ele><time>2026-03-27T14:39:32Z</time></trkpt><trkpt lat="44.7812400605368" lon="9.508491888345281"><ele>365.83333333333337</ele><time>2026-03-27T14:39:33Z</time></trkpt><trkpt lat="44.78117050095954" lon="9.508565566437008"><ele>365.0</ele><time>2026-03-27T14:39:34Z</time></trkpt><trkpt lat="44.781093032361795" lon="9.508635280695312"><ele>366.25</ele><time>2026-03-27T14:39:35Z</time></trkpt><trkpt lat="44.78100400592742" lon="9.508710523394916"><ele>367.5</ele><time>2026-03-27T14:39:36Z</time></trkpt><trkpt lat="44.780901063536696" lon="9.508782529690487"><ele>368.75</ele><time>2026-03-27T14:39:37Z</time></trkpt><trkpt lat="44.78079454317123" lon="9.508856139438848"><ele>370.0</ele><time>2026-03-27T14:39:38.001Z</time></trkpt><trkpt lat="44.78069240810743" lon="9.508926836052227"><ele>367.0</ele><time>2026-03-27T14:39:39.001Z</time></trkpt><trkpt lat="44.78060056909745" lon="9.50899459347423"><ele>364.0</ele><time>2026-03-27T14:39:40.001Z</time></trkpt><trkpt lat="44.78051678818698" lon="9.50905755642463"><ele>361.0</ele><time>2026-03-27T14:39:41.001Z</time></trkpt><trkpt lat="44.780438869054315" lon="9.509116224169507"><ele>358.0</ele><time>2026-03-27T14:39:42Z</time></trkpt><trkpt lat="44.78036290596748" lon="9.509167248570831"><ele>355.0</ele><time>2026-03-27T14:39:43Z</time></trkpt><trkpt lat="44.78028355817034" lon="9.509201723668694"><ele>355.0</ele><time>2026-03-27T14:39:44Z</time></trkpt><trkpt lat="44.78019555815109" lon="9.509216524119124"><ele>355.0</ele><time>2026-03-27T14:39:45Z</time></trkpt><trkpt lat="44.78009862647936" lon="9.509211526257724"><ele>355.0</ele><time>2026-03-27T14:39:46Z</time></trkpt><trkpt lat="44.77999644680858" lon="9.50918353982833"><ele>355.0</ele><time>2026-03-27T14:39:47Z</time></trkpt><trkpt lat="44.77989139964102" lon="9.509154472835307"><ele>355.0</ele><time>2026-03-27T14:39:48Z</time></trkpt><trkpt lat="44.779787135409066" lon="9.50912452890381"><ele>354.75</ele><time>2026-03-27T14:39:49Z</time></trkpt><trkpt lat="44.77967192469517" lon="9.509095102161965"><ele>354.5</ele><time>2026-03-27T14:39:50Z</time></trkpt><trkpt lat="44.77954742653827" lon="9.509069903017986"><ele>354.25</ele><time>2026-03-27T14:39:51Z</time></trkpt><trkpt lat="44.779417091222896" lon="9.509042085007533"><ele>354.0</ele><time>2026-03-27T14:39:52Z</time></trkpt><trkpt lat="44.779280400450695" lon="9.50901348969336"><ele>352.0</ele><time>2026-03-27T14:39:53Z</time></trkpt><trkpt lat="44.77914358088053" lon="9.508979210182325"><ele>350.0</ele><time>2026-03-27T14:39:54Z</time></trkpt><trkpt lat="44.77901120514887" lon="9.50894168363821"><ele>348.0</ele><time>2026-03-27T14:39:55Z</time></trkpt><trkpt lat="44.77888818333858" lon="9.508909699740663"><ele>346.0</ele><time>2026-03-27T14:39:56Z</time></trkpt><trkpt lat="44.778772706427475" lon="9.508881449709564"><ele>346.0</ele><time>2026-03-27T14:39:57Z</time></trkpt><trkpt lat="44.77866663969975" lon="9.508855381787429"><ele>346.0</ele><time>2026-03-27T14:39:58Z</time></trkpt><trkpt lat="44.77857472699975" lon="9.508833634746864"><ele>346.0</ele><time>2026-03-27T14:39:59Z</time></trkpt><trkpt lat="44.77848960412088" lon="9.508808332667044"><ele>346.0</ele><time>2026-03-27T14:40:00Z</time></trkpt><trkpt lat="44.77841368379299" lon="9.508792608851893"><ele>346.0</ele><time>2026-03-27T14:40:01Z</time></trkpt><trkpt lat="44.77834170944208" lon="9.508798305624214"><ele>346.0</ele><time>2026-03-27T14:40:02Z</time></trkpt><trkpt lat="44.77828820760317" lon="9.508855560884067"><ele>345.8333333333333</ele><time>2026-03-27T14:40:03Z</time></trkpt><trkpt lat="44.778223172126545" lon="9.508961102343765"><ele>345.66666666666663</ele><time>2026-03-27T14:40:05Z</time></trkpt><trkpt lat="44.77822656906165" lon="9.509059251254698"><ele>345.5</ele><time>2026-03-27T14:40:08Z</time></trkpt><trkpt lat="44.77830311392813" lon="9.509144538189664"><ele>345.3333333333333</ele><time>2026-03-27T14:40:11Z</time></trkpt><trkpt lat="44.778366528767734" lon="9.509168884140239"><ele>345.1666666666667</ele><time>2026-03-27T14:40:12Z</time></trkpt><trkpt lat="44.77843406317145" lon="9.509188951811224"><ele>345.0</ele><time>2026-03-27T14:40:13Z</time></trkpt><trkpt lat="44.77850668204206" lon="9.509205114300364"><ele>345.2</ele><time>2026-03-27T14:40:14Z</time></trkpt><trkpt lat="44.77860461243917" lon="9.50921715017715"><ele>345.4</ele><time>2026-03-27T14:40:15Z</time></trkpt><trkpt lat="44.77870432539942" lon="9.509229211872686"><ele>345.6</ele><time>2026-03-27T14:40:16Z</time></trkpt><trkpt lat="44.77881173977642" lon="9.509240208614614"><ele>345.8</ele><time>2026-03-27T14:40:17Z</time></trkpt><trkpt lat="44.77892301104166" lon="9.509266970917771"><ele>346.0</ele><time>2026-03-27T14:40:18Z</time></trkpt><trkpt lat="44.779034783699736" lon="9.509312303199547"><ele>346.0</ele><time>2026-03-27T14:40:19Z</time></trkpt><trkpt lat="44.77914788183504" lon="9.509381737427047"><ele>346.0</ele><time>2026-03-27T14:40:20Z</time></trkpt><trkpt lat="44.77926032906285" lon="9.50948080114991"><ele>346.0</ele><time>2026-03-27T14:40:21Z</time></trkpt><trkpt lat="44.77936517711091" lon="9.509586628600607"><ele>346.0</ele><time>2026-03-27T14:40:22Z</time></trkpt><trkpt lat="44.77947335436103" lon="9.509707337433978"><ele>345.0</ele><time>2026-03-27T14:40:23Z</time></trkpt><trkpt lat="44.77958850644609" lon="9.509839288073554"><ele>344.0</ele><time>2026-03-27T14:40:24Z</time></trkpt><trkpt lat="44.779698155423475" lon="9.50997499045452"><ele>343.0</ele><time>2026-03-27T14:40:25Z</time></trkpt><trkpt lat="44.77981126023918" lon="9.510116338774896"><ele>342.0</ele><time>2026-03-27T14:40:26Z</time></trkpt><trkpt lat="44.779917763176925" lon="9.510240298547219"><ele>342.0</ele><time>2026-03-27T14:40:27Z</time></trkpt><trkpt lat="44.78001074641716" lon="9.51034655443788"><ele>342.0</ele><time>2026-03-27T14:40:28Z</time></trkpt><trkpt lat="44.780099166639054" lon="9.51043890296193"><ele>342.0</ele><time>2026-03-27T14:40:29Z</time></trkpt><trkpt lat="44.78019066713401" lon="9.510522972955062"><ele>342.0</ele><time>2026-03-27T14:40:30Z</time></trkpt><trkpt lat="44.78029951011979" lon="9.510554626891665"><ele>340.0</ele><time>2026-03-27T14:40:31Z</time></trkpt><trkpt lat="44.780420254420385" lon="9.510562329122822"><ele>338.0</ele><time>2026-03-27T14:40:32Z</time></trkpt><trkpt lat="44.78055308218087" lon="9.510553774898714"><ele>336.0</ele><time>2026-03-27T14:40:33Z</time></trkpt><trkpt lat="44.78069564062274" lon="9.510558797999979"><ele>334.0</ele><time>2026-03-27T14:40:34Z</time></trkpt><trkpt lat="44.780837835208" lon="9.510557873134935"><ele>334.0</ele><time>2026-03-27T14:40:35Z</time></trkpt><trkpt lat="44.78097836890814" lon="9.51054121472684"><ele>334.0</ele><time>2026-03-27T14:40:36Z</time></trkpt><trkpt lat="44.78110751680546" lon="9.510523243646068"><ele>334.0</ele><time>2026-03-27T14:40:37Z</time></trkpt><trkpt lat="44.78123105563437" lon="9.510503480081148"><ele>334.0</ele><time>2026-03-27T14:40:38Z</time></trkpt><trkpt lat="44.78135060220102" lon="9.510491149624045"><ele>332.75</ele><time>2026-03-27T14:40:39Z</time></trkpt><trkpt lat="44.78147052999835" lon="9.510496508725613"><ele>331.5</ele><time>2026-03-27T14:40:40Z</time></trkpt><trkpt lat="44.78159369033618" lon="9.510527902659312"><ele>330.25</ele><time>2026-03-27T14:40:41Z</time></trkpt><trkpt lat="44.78171560627878" lon="9.5105749531504"><ele>329.0</ele><time>2026-03-27T14:40:42Z</time></trkpt><trkpt lat="44.781827637686376" lon="9.510626388847998"><ele>328.4</ele><time>2026-03-27T14:40:43Z</time></trkpt><trkpt lat="44.78193290239415" lon="9.51066220492887"><ele>327.79999999999995</ele><time>2026-03-27T14:40:44Z</time></trkpt><trkpt lat="44.782040238875375" lon="9.51067193297456"><ele>327.20000000000005</ele><time>2026-03-27T14:40:45Z</time></trkpt><trkpt lat="44.7821519869816" lon="9.510647104020986"><ele>326.6</ele><time>2026-03-27T14:40:46Z</time></trkpt><trkpt lat="44.7822529233704" lon="9.51057450830827"><ele>326.0</ele><time>2026-03-27T14:40:47Z</time></trkpt><trkpt lat="44.78233758598859" lon="9.510468677929872"><ele>326.75</ele><time>2026-03-27T14:40:48Z</time></trkpt><trkpt lat="44.78241087752919" lon="9.510337125797651"><ele>327.5</ele><time>2026-03-27T14:40:49Z</time></trkpt><trkpt lat="44.78247959470023" lon="9.510188155546624"><ele>328.25</ele><time>2026-03-27T14:40:50Z</time></trkpt><trkpt lat="44.78254733356937" lon="9.510037811845487"><ele>329.0</ele><time>2026-03-27T14:40:51Z</time></trkpt><trkpt lat="44.78261819435586" lon="9.50990615919882"><ele>328.4</ele><time>2026-03-27T14:40:52Z</time></trkpt><trkpt lat="44.78269122013303" lon="9.509800324652954"><ele>327.79999999999995</ele><time>2026-03-27T14:40:53Z</time></trkpt><trkpt lat="44.78277542336034" lon="9.509720236409914"><ele>327.20000000000005</ele><time>2026-03-27T14:40:54Z</time></trkpt><trkpt lat="44.78287390277485" lon="9.509679819420228"><ele>326.6</ele><time>2026-03-27T14:40:55Z</time></trkpt><trkpt lat="44.78297454724262" lon="9.509672646946342"><ele>326.0</ele><time>2026-03-27T14:40:56Z</time></trkpt><trkpt lat="44.783066753335476" lon="9.509720187318417"><ele>326.0</ele><time>2026-03-27T14:40:57Z</time></trkpt><trkpt lat="44.78315173379797" lon="9.509805741021054"><ele>326.0</ele><time>2026-03-27T14:40:58Z</time></trkpt><trkpt lat="44.78323498660487" lon="9.509940871708796"><ele>326.0</ele><time>2026-03-27T14:40:59Z</time></trkpt><trkpt lat="44.783321445988825" lon="9.510081194208862"><ele>326.0</ele><time>2026-03-27T14:41:00Z</time></trkpt><trkpt lat="44.78340762561284" lon="9.510235997448826"><ele>326.0</ele><time>2026-03-27T14:41:01Z</time></trkpt><trkpt lat="44.78348774079432" lon="9.51040044428104"><ele>326.0</ele><time>2026-03-27T14:41:02Z</time></trkpt><trkpt lat="44.783555583684546" lon="9.510571432430297"><ele>326.0</ele><time>2026-03-27T14:41:03Z</time></trkpt><trkpt lat="44.783614970672225" lon="9.510734321105327"><ele>326.0</ele><time>2026-03-27T14:41:04Z</time></trkpt><trkpt lat="44.783675062651824" lon="9.510881241596632"><ele>325.0</ele><time>2026-03-27T14:41:05Z</time></trkpt><trkpt lat="44.78373757865911" lon="9.511008058272374"><ele>324.0</ele><time>2026-03-27T14:41:06Z</time></trkpt><trkpt lat="44.78381247615411" lon="9.511109505666134"><ele>323.0</ele><time>2026-03-27T14:41:07Z</time></trkpt><trkpt lat="44.78390513403855" lon="9.511182705736557"><ele>322.0</ele><time>2026-03-27T14:41:08Z</time></trkpt><trkpt lat="44.78401735758206" lon="9.511233842689908"><ele>321.0</ele><time>2026-03-27T14:41:09Z</time></trkpt><trkpt lat="44.784142286995326" lon="9.511264816138528"><ele>320.75</ele><time>2026-03-27T14:41:10Z</time></trkpt><trkpt lat="44.78427936672806" lon="9.51128129974132"><ele>320.5</ele><time>2026-03-27T14:41:11Z</time></trkpt><trkpt lat="44.78441884164264" lon="9.511292467662429"><ele>320.25</ele><time>2026-03-27T14:41:12Z</time></trkpt><trkpt lat="44.78454482066095" lon="9.511294647002366"><ele>320.0</ele><time>2026-03-27T14:41:13Z</time></trkpt><trkpt lat="44.78466756676999" lon="9.511277791439696"><ele>320.25</ele><time>2026-03-27T14:41:14Z</time></trkpt><trkpt lat="44.78478011789488" lon="9.511217121525915"><ele>320.5</ele><time>2026-03-27T14:41:15Z</time></trkpt><trkpt lat="44.78490422503765" lon="9.511154529876253"><ele>320.75</ele><time>2026-03-27T14:41:16Z</time></trkpt><trkpt lat="44.78503127049265" lon="9.511094750766908"><ele>321.0</ele><time>2026-03-27T14:41:17Z</time></trkpt><trkpt lat="44.785164944404514" lon="9.511037844841084"><ele>318.75</ele><time>2026-03-27T14:41:18Z</time></trkpt><trkpt lat="44.785296034334415" lon="9.510978851048874"><ele>316.5</ele><time>2026-03-27T14:41:19Z</time></trkpt><trkpt lat="44.78542220094341" lon="9.510926119857867"><ele>314.25</ele><time>2026-03-27T14:41:20Z</time></trkpt><trkpt lat="44.785552377052866" lon="9.510886728031071"><ele>312.0</ele><time>2026-03-27T14:41:21Z</time></trkpt><trkpt lat="44.78568364525847" lon="9.51085560704473"><ele>312.0</ele><time>2026-03-27T14:41:22Z</time></trkpt><trkpt lat="44.78581652795888" lon="9.510828666014929"><ele>312.0</ele><time>2026-03-27T14:41:23Z</time></trkpt><trkpt lat="44.78594952321986" lon="9.510804504573096"><ele>312.0</ele><time>2026-03-27T14:41:24Z</time></trkpt><trkpt lat="44.78608386512238" lon="9.510790281985457"><ele>312.0</ele><time>2026-03-27T14:41:25Z</time></trkpt><trkpt lat="44.78622199793182" lon="9.510788760688824"><ele>312.25</ele><time>2026-03-27T14:41:26Z</time></trkpt><trkpt lat="44.78636089549923" lon="9.510793612481908"><ele>312.5</ele><time>2026-03-27T14:41:27Z</time></trkpt><trkpt lat="44.7865002695107" lon="9.510809406723162"><ele>312.75</ele><time>2026-03-27T14:41:28Z</time></trkpt><trkpt lat="44.78663889258595" lon="9.510835213821688"><ele>313.0</ele><time>2026-03-27T14:41:29Z</time></trkpt><trkpt lat="44.78677444245044" lon="9.51087800012883"><ele>312.0</ele><time>2026-03-27T14:41:30Z</time></trkpt><trkpt lat="44.78690420251459" lon="9.510941839584751"><ele>311.0</ele><time>2026-03-27T14:41:31Z</time></trkpt><trkpt lat="44.78701949774587" lon="9.51102215626199"><ele>310.0</ele><time>2026-03-27T14:41:32Z</time></trkpt><trkpt lat="44.78711489899204" lon="9.511127927998114"><ele>309.0</ele><time>2026-03-27T14:41:33Z</time></trkpt><trkpt lat="44.787205610757695" lon="9.51124199547743"><ele>309.0</ele><time>2026-03-27T14:41:34Z</time></trkpt><trkpt lat="44.787273397571894" lon="9.511378240835947"><ele>309.0</ele><time>2026-03-27T14:41:35Z</time></trkpt><trkpt lat="44.787325012890975" lon="9.511541328507095"><ele>309.0</ele><time>2026-03-27T14:41:36Z</time></trkpt><trkpt lat="44.7873665174007" lon="9.511712691881648"><ele>309.0</ele><time>2026-03-27T14:41:37Z</time></trkpt><trkpt lat="44.78742743765508" lon="9.511879590225378"><ele>309.0</ele><time>2026-03-27T14:41:38Z</time></trkpt><trkpt lat="44.78750387854913" lon="9.512033351023057"><ele>309.0</ele><time>2026-03-27T14:41:39Z</time></trkpt><trkpt lat="44.78759083243353" lon="9.51216374096711"><ele>309.0</ele><time>2026-03-27T14:41:40Z</time></trkpt><trkpt lat="44.78769636868084" lon="9.51226216676742"><ele>309.0</ele><time>2026-03-27T14:41:41Z</time></trkpt><trkpt lat="44.787812724554996" lon="9.512313771721749"><ele>307.25</ele><time>2026-03-27T14:41:42Z</time></trkpt><trkpt lat="44.7879283566851" lon="9.512317037928145"><ele>305.5</ele><time>2026-03-27T14:41:43Z</time></trkpt><trkpt lat="44.78804495545724" lon="9.51227054303357"><ele>303.75</ele><time>2026-03-27T14:41:44.001Z</time></trkpt><trkpt lat="44.78816671675665" lon="9.512191674954627"><ele>302.0</ele><time>2026-03-27T14:41:45.001Z</time></trkpt><trkpt lat="44.78829741970418" lon="9.51212076093221"><ele>305.5</ele><time>2026-03-27T14:41:46.001Z</time></trkpt><trkpt lat="44.78843684068621" lon="9.51204632587965"><ele>309.0</ele><time>2026-03-27T14:41:47.001Z</time></trkpt><trkpt lat="44.78857550747249" lon="9.511978467643619"><ele>312.5</ele><time>2026-03-27T14:41:48.001Z</time></trkpt><trkpt lat="44.78872159383523" lon="9.511914975149834"><ele>316.0</ele><time>2026-03-27T14:41:49.001Z</time></trkpt><trkpt lat="44.78886772369925" lon="9.511901397714231"><ele>316.75</ele><time>2026-03-27T14:41:50.001Z</time></trkpt><trkpt lat="44.78901765908595" lon="9.51191235865343"><ele>317.5</ele><time>2026-03-27T14:41:51.001Z</time></trkpt><trkpt lat="44.78916429680771" lon="9.511944942464654"><ele>318.25</ele><time>2026-03-27T14:41:52.001Z</time></trkpt><trkpt lat="44.78929765195191" lon="9.512024328895956"><ele>319.0</ele><time>2026-03-27T14:41:53.001Z</time></trkpt><trkpt lat="44.78943717453058" lon="9.512113441148209"><ele>314.5</ele><time>2026-03-27T14:41:54.001Z</time></trkpt><trkpt lat="44.78955696207433" lon="9.512193328563042"><ele>310.0</ele><time>2026-03-27T14:41:55.001Z</time></trkpt><trkpt lat="44.7896823876538" lon="9.51230806580742"><ele>305.5</ele><time>2026-03-27T14:41:56.001Z</time></trkpt><trkpt lat="44.78979528873385" lon="9.51244302486822"><ele>301.0</ele><time>2026-03-27T14:41:57.001Z</time></trkpt><trkpt lat="44.789909260647505" lon="9.512576671946489"><ele>301.0</ele><time>2026-03-27T14:41:58.001Z</time></trkpt><trkpt lat="44.79004456863489" lon="9.512680572454249"><ele>301.0</ele><time>2026-03-27T14:41:59.001Z</time></trkpt><trkpt lat="44.79018444673816" lon="9.512755809783036"><ele>301.0</ele><time>2026-03-27T14:42:00.001Z</time></trkpt><trkpt lat="44.790343367330934" lon="9.51281779961555"><ele>301.66666666666663</ele><time>2026-03-27T14:42:01.001Z</time></trkpt><trkpt lat="44.790501031525864" lon="9.512878559638173"><ele>302.3333333333333</ele><time>2026-03-27T14:42:02.001Z</time></trkpt><trkpt lat="44.790651095973956" lon="9.512938117770181"><ele>303.0</ele><time>2026-03-27T14:42:03.001Z</time></trkpt><trkpt lat="44.79079246929037" lon="9.512997544166476"><ele>301.75</ele><time>2026-03-27T14:42:04.001Z</time></trkpt><trkpt lat="44.790930777337145" lon="9.513053462711923"><ele>300.5</ele><time>2026-03-27T14:42:05Z</time></trkpt><trkpt lat="44.79106854920258" lon="9.513129886001453"><ele>299.25</ele><time>2026-03-27T14:42:06Z</time></trkpt><trkpt lat="44.7912033510911" lon="9.513234282321365"><ele>298.0</ele><time>2026-03-27T14:42:07Z</time></trkpt><trkpt lat="44.79133676947043" lon="9.513359524236206"><ele>298.0</ele><time>2026-03-27T14:42:08Z</time></trkpt><trkpt lat="44.791468135204546" lon="9.513501121703847"><ele>298.0</ele><time>2026-03-27T14:42:09Z</time></trkpt><trkpt lat="44.79159640264837" lon="9.513648245289417"><ele>298.0</ele><time>2026-03-27T14:42:10Z</time></trkpt><trkpt lat="44.79172279845964" lon="9.513787123768484"><ele>296.25</ele><time>2026-03-27T14:42:11Z</time></trkpt><trkpt lat="44.79184279060822" lon="9.513906784608421"><ele>294.5</ele><time>2026-03-27T14:42:12Z</time></trkpt><trkpt lat="44.79195259864848" lon="9.514019562715223"><ele>292.75</ele><time>2026-03-27T14:42:13Z</time></trkpt><trkpt lat="44.79206307605991" lon="9.514125093471776"><ele>291.0</ele><time>2026-03-27T14:42:14Z</time></trkpt><trkpt lat="44.792177779841836" lon="9.514197283743217"><ele>291.0</ele><time>2026-03-27T14:42:15Z</time></trkpt><trkpt lat="44.79230296098949" lon="9.514234781342928"><ele>291.0</ele><time>2026-03-27T14:42:16Z</time></trkpt><trkpt lat="44.79244332856348" lon="9.514239153065999"><ele>291.0</ele><time>2026-03-27T14:42:17Z</time></trkpt><trkpt lat="44.792587162425804" lon="9.514249074729669"><ele>291.0</ele><time>2026-03-27T14:42:18Z</time></trkpt><trkpt lat="44.79272370539563" lon="9.51427351319228"><ele>292.0</ele><time>2026-03-27T14:42:19Z</time></trkpt><trkpt lat="44.79285508531802" lon="9.514310755398908"><ele>293.0</ele><time>2026-03-27T14:42:20Z</time></trkpt><trkpt lat="44.792980164729066" lon="9.514347936826972"><ele>294.0</ele><time>2026-03-27T14:42:21Z</time></trkpt><trkpt lat="44.79311070664848" lon="9.514397762810088"><ele>295.0</ele><time>2026-03-27T14:42:22Z</time></trkpt><trkpt lat="44.79323581516451" lon="9.514440555546317"><ele>295.0</ele><time>2026-03-27T14:42:23Z</time></trkpt><trkpt lat="44.793364021896544" lon="9.514492609214889"><ele>295.0</ele><time>2026-03-27T14:42:24Z</time></trkpt><trkpt lat="44.79349577766779" lon="9.514546566029397"><ele>295.0</ele><time>2026-03-27T14:42:25Z</time></trkpt><trkpt lat="44.79362356099321" lon="9.514607336308801"><ele>295.0</ele><time>2026-03-27T14:42:26Z</time></trkpt><trkpt lat="44.793744336713296" lon="9.514674379138548"><ele>292.5</ele><time>2026-03-27T14:42:27Z</time></trkpt><trkpt lat="44.79387124580765" lon="9.514748791501809"><ele>290.0</ele><time>2026-03-27T14:42:28Z</time></trkpt><trkpt lat="44.793998804783115" lon="9.514832805667742"><ele>287.5</ele><time>2026-03-27T14:42:29Z</time></trkpt><trkpt lat="44.79411816880257" lon="9.514924075597806"><ele>285.0</ele><time>2026-03-27T14:42:30Z</time></trkpt><trkpt lat="44.79423300925023" lon="9.515021154219381"><ele>283.25</ele><time>2026-03-27T14:42:31Z</time></trkpt><trkpt lat="44.794342015650024" lon="9.515122496037929"><ele>281.5</ele><time>2026-03-27T14:42:32Z</time></trkpt><trkpt lat="44.79445001486524" lon="9.515217277449459"><ele>279.75</ele><time>2026-03-27T14:42:33Z</time></trkpt><trkpt lat="44.794542141042214" lon="9.515313582882493"><ele>278.0</ele><time>2026-03-27T14:42:34Z</time></trkpt><trkpt lat="44.79464079334043" lon="9.51540827915277"><ele>278.0</ele><time>2026-03-27T14:42:35Z</time></trkpt><trkpt lat="44.794730972507985" lon="9.515506406174069"><ele>278.0</ele><time>2026-03-27T14:42:36Z</time></trkpt><trkpt lat="44.794822333477605" lon="9.515588896491673"><ele>278.0</ele><time>2026-03-27T14:42:37Z</time></trkpt><trkpt lat="44.79491781767572" lon="9.515654521741553"><ele>278.0</ele><time>2026-03-27T14:42:38Z</time></trkpt><trkpt lat="44.79501690678539" lon="9.515695832617004"><ele>278.0</ele><time>2026-03-27T14:42:39Z</time></trkpt><trkpt lat="44.795126651949936" lon="9.51570158526942"><ele>277.5</ele><time>2026-03-27T14:42:40Z</time></trkpt><trkpt lat="44.79523825270172" lon="9.515667968065353"><ele>277.0</ele><time>2026-03-27T14:42:41Z</time></trkpt><trkpt lat="44.795342972286235" lon="9.515581682086552"><ele>276.5</ele><time>2026-03-27T14:42:42Z</time></trkpt><trkpt lat="44.79543954612812" lon="9.515461119676871"><ele>276.0</ele><time>2026-03-27T14:42:43Z</time></trkpt><trkpt lat="44.79552462065966" lon="9.515295726082677"><ele>276.0</ele><time>2026-03-27T14:42:44Z</time></trkpt><trkpt lat="44.79560977907778" lon="9.515129775870856"><ele>276.0</ele><time>2026-03-27T14:42:45Z</time></trkpt><trkpt lat="44.79570250310334" lon="9.514991967964976"><ele>276.0</ele><time>2026-03-27T14:42:46Z</time></trkpt><trkpt lat="44.79581467896632" lon="9.514877712809296"><ele>276.0</ele><time>2026-03-27T14:42:47Z</time></trkpt><trkpt lat="44.79594396256261" lon="9.514788713815449"><ele>277.6666666666667</ele><time>2026-03-27T14:42:48Z</time></trkpt><trkpt lat="44.796089704155065" lon="9.514717833931917"><ele>279.33333333333337</ele><time>2026-03-27T14:42:49Z</time></trkpt><trkpt lat="44.79625287078708" lon="9.51464124876358"><ele>281.0</ele><time>2026-03-27T14:42:50Z</time></trkpt><trkpt lat="44.79640867766085" lon="9.514570017989037"><ele>281.0</ele><time>2026-03-27T14:42:51Z</time></trkpt><trkpt lat="44.79656847466085" lon="9.514491992800249"><ele>281.0</ele><time>2026-03-27T14:42:52Z</time></trkpt><trkpt lat="44.79673989545408" lon="9.514406589786814"><ele>281.0</ele><time>2026-03-27T14:42:53Z</time></trkpt><trkpt lat="44.796917001701914" lon="9.51431209210418"><ele>277.6666666666667</ele><time>2026-03-27T14:42:54Z</time></trkpt><trkpt lat="44.79709668521989" lon="9.514212731746875"><ele>274.3333333333333</ele><time>2026-03-27T14:42:55Z</time></trkpt><trkpt lat="44.7972847397797" lon="9.514108902915485"><ele>271.0</ele><time>2026-03-27T14:42:56Z</time></trkpt><trkpt lat="44.79747988588138" lon="9.51400958791257"><ele>268.3333333333333</ele><time>2026-03-27T14:42:57Z</time></trkpt><trkpt lat="44.79767762459169" lon="9.513918313420058"><ele>265.6666666666667</ele><time>2026-03-27T14:42:58Z</time></trkpt><trkpt lat="44.7978559805391" lon="9.513837375650604"><ele>263.0</ele><time>2026-03-27T14:42:59Z</time></trkpt><trkpt lat="44.798022288784516" lon="9.513762370899668"><ele>268.33333333333337</ele><time>2026-03-27T14:43:00Z</time></trkpt><trkpt lat="44.79818093744774" lon="9.513687857915965"><ele>273.6666666666667</ele><time>2026-03-27T14:43:01Z</time></trkpt><trkpt lat="44.798332724917884" lon="9.513614431504049"><ele>279.0</ele><time>2026-03-27T14:43:02Z</time></trkpt><trkpt lat="44.79848022810321" lon="9.513535368115564"><ele>275.75</ele><time>2026-03-27T14:43:03Z</time></trkpt><trkpt lat="44.79862414573181" lon="9.513456009591653"><ele>272.5</ele><time>2026-03-27T14:43:04Z</time></trkpt><trkpt lat="44.79875909287621" lon="9.513378038326362"><ele>269.25</ele><time>2026-03-27T14:43:05Z</time></trkpt><trkpt lat="44.798888651499155" lon="9.51329824237152"><ele>266.0</ele><time>2026-03-27T14:43:06Z</time></trkpt><trkpt lat="44.79901876796723" lon="9.513217751717983"><ele>266.0</ele><time>2026-03-27T14:43:07Z</time></trkpt><trkpt lat="44.79914413807659" lon="9.513141183791431"><ele>266.0</ele><time>2026-03-27T14:43:08Z</time></trkpt><trkpt lat="44.799266119611396" lon="9.513070418447631"><ele>266.0</ele><time>2026-03-27T14:43:09Z</time></trkpt><trkpt lat="44.79937754867407" lon="9.513002539505683"><ele>266.0</ele><time>2026-03-27T14:43:10Z</time></trkpt><trkpt lat="44.799482444895744" lon="9.512935718919364"><ele>266.40000000000003</ele><time>2026-03-27T14:43:11Z</time></trkpt><trkpt lat="44.799580651100754" lon="9.51287155952578"><ele>266.8</ele><time>2026-03-27T14:43:12Z</time></trkpt><trkpt lat="44.7996724512542" lon="9.512809146524493"><ele>267.20000000000005</ele><time>2026-03-27T14:43:13Z</time></trkpt><trkpt lat="44.7997668125744" lon="9.512742506044594"><ele>267.6</ele><time>2026-03-27T14:43:14Z</time></trkpt><trkpt lat="44.799867988820864" lon="9.512667742767341"><ele>268.0</ele><time>2026-03-27T14:43:15Z</time></trkpt><trkpt lat="44.79997415662652" lon="9.51257628168176"><ele>268.0</ele><time>2026-03-27T14:43:16Z</time></trkpt><trkpt lat="44.80009292270383" lon="9.512502689316166"><ele>268.0</ele><time>2026-03-27T14:43:16.999Z</time></trkpt><trkpt lat="44.800194103115004" lon="9.512419798185222"><ele>268.0</ele><time>2026-03-27T14:43:17.999Z</time></trkpt><trkpt lat="44.80027972156839" lon="9.512321626397295"><ele>268.0</ele><time>2026-03-27T14:43:18.999Z</time></trkpt><trkpt lat="44.80034987704092" lon="9.51219047780423"><ele>266.0</ele><time>2026-03-27T14:43:19.999Z</time></trkpt><trkpt lat="44.80041633160114" lon="9.512035989950958"><ele>264.0</ele><time>2026-03-27T14:43:20.999Z</time></trkpt><trkpt lat="44.80047691059892" lon="9.511862752723326"><ele>262.0</ele><time>2026-03-27T14:43:21.999Z</time></trkpt><trkpt lat="44.800538876492034" lon="9.51168362350763"><ele>260.0</ele><time>2026-03-27T14:43:22.999Z</time></trkpt><trkpt lat="44.800609485916894" lon="9.511494019292027"><ele>260.0</ele><time>2026-03-27T14:43:23.999Z</time></trkpt><trkpt lat="44.80068097497758" lon="9.511299380456368"><ele>260.0</ele><time>2026-03-27T14:43:24.999Z</time></trkpt><trkpt lat="44.80075686549481" lon="9.511109926254894"><ele>260.0</ele><time>2026-03-27T14:43:25.999Z</time></trkpt><trkpt lat="44.80082942192243" lon="9.510933335390714"><ele>261.5</ele><time>2026-03-27T14:43:26.999Z</time></trkpt><trkpt lat="44.800903584238924" lon="9.510767187047373"><ele>263.0</ele><time>2026-03-27T14:43:27.999Z</time></trkpt><trkpt lat="44.80098279168722" lon="9.510612604003963"><ele>264.5</ele><time>2026-03-27T14:43:28.999Z</time></trkpt><trkpt lat="44.801081373790694" lon="9.510473906186403"><ele>266.0</ele><time>2026-03-27T14:43:29.999Z</time></trkpt><trkpt lat="44.801209977198916" lon="9.510362692549597"><ele>266.0</ele><time>2026-03-27T14:43:30.999Z</time></trkpt><trkpt lat="44.80134206570761" lon="9.5102459166609"><ele>266.0</ele><time>2026-03-27T14:43:31.999Z</time></trkpt><trkpt lat="44.801459021894786" lon="9.510095256627238"><ele>266.0</ele><time>2026-03-27T14:43:32.999Z</time></trkpt><trkpt lat="44.80157236615808" lon="9.509923617434604"><ele>266.0</ele><time>2026-03-27T14:43:33.999Z</time></trkpt><trkpt lat="44.80168310044541" lon="9.509750497428948"><ele>266.0</ele><time>2026-03-27T14:43:34.999Z</time></trkpt><trkpt lat="44.80179241757604" lon="9.509589037310347"><ele>266.0</ele><time>2026-03-27T14:43:35.999Z</time></trkpt><trkpt lat="44.80190129067121" lon="9.509431589925363"><ele>266.33333333333337</ele><time>2026-03-27T14:43:36.999Z</time></trkpt><trkpt lat="44.80201294832092" lon="9.509272551475618"><ele>266.6666666666667</ele><time>2026-03-27T14:43:37.999Z</time></trkpt><trkpt lat="44.80212749337201" lon="9.509121037726063"><ele>267.0</ele><time>2026-03-27T14:43:38.999Z</time></trkpt><trkpt lat="44.802237825934064" lon="9.508989881661872"><ele>267.0</ele><time>2026-03-27T14:43:39.999Z</time></trkpt><trkpt lat="44.80234861080634" lon="9.50887957329268"><ele>267.0</ele><time>2026-03-27T14:43:40.999Z</time></trkpt><trkpt lat="44.80248392931206" lon="9.508805331557058"><ele>267.0</ele><time>2026-03-27T14:43:41.999Z</time></trkpt><trkpt lat="44.80263372850836" lon="9.508760898698865"><ele>267.0</ele><time>2026-03-27T14:43:42.999Z</time></trkpt><trkpt lat="44.80278084690853" lon="9.508759056170113"><ele>268.0</ele><time>2026-03-27T14:43:43.999Z</time></trkpt><trkpt lat="44.80291127722168" lon="9.508758464180634"><ele>269.0</ele><time>2026-03-27T14:43:44.999Z</time></trkpt><trkpt lat="44.80303923321442" lon="9.508721099970263"><ele>270.0</ele><time>2026-03-27T14:43:45.999Z</time></trkpt><trkpt lat="44.80316859117901" lon="9.50864125357295"><ele>271.0</ele><time>2026-03-27T14:43:46.999Z</time></trkpt><trkpt lat="44.80328354968343" lon="9.508538741555983"><ele>271.0</ele><time>2026-03-27T14:43:47.999Z</time></trkpt><trkpt lat="44.80339287988106" lon="9.508448297237528"><ele>271.0</ele><time>2026-03-27T14:43:48.999Z</time></trkpt><trkpt lat="44.80352402886738" lon="9.508406015196785"><ele>271.0</ele><time>2026-03-27T14:43:50Z</time></trkpt><trkpt lat="44.80367286335018" lon="9.508398634760933"><ele>271.0</ele><time>2026-03-27T14:43:51Z</time></trkpt><trkpt lat="44.803824924108575" lon="9.508382637159842"><ele>270.0</ele><time>2026-03-27T14:43:52Z</time></trkpt><trkpt lat="44.803975530064434" lon="9.508354185754637"><ele>269.0</ele><time>2026-03-27T14:43:53Z</time></trkpt><trkpt lat="44.80411948594693" lon="9.508321575085715"><ele>268.0</ele><time>2026-03-27T14:43:54Z</time></trkpt><trkpt lat="44.80425562470444" lon="9.5083016447696"><ele>267.0</ele><time>2026-03-27T14:43:55Z</time></trkpt><trkpt lat="44.80438384096837" lon="9.508317580342599"><ele>267.0</ele><time>2026-03-27T14:43:56Z</time></trkpt><trkpt lat="44.80450892832469" lon="9.508384165761614"><ele>267.0</ele><time>2026-03-27T14:43:57Z</time></trkpt><trkpt lat="44.8046298106454" lon="9.508493424501456"><ele>267.0</ele><time>2026-03-27T14:43:58Z</time></trkpt><trkpt lat="44.8047448994138" lon="9.508613076588365"><ele>267.0</ele><time>2026-03-27T14:43:59Z</time></trkpt><trkpt lat="44.80485795026961" lon="9.508703709547792"><ele>268.0</ele><time>2026-03-27T14:44:00Z</time></trkpt><trkpt lat="44.80497022202277" lon="9.508753102619426"><ele>269.0</ele><time>2026-03-27T14:44:01Z</time></trkpt><trkpt lat="44.805093147938614" lon="9.50877020826083"><ele>270.0</ele><time>2026-03-27T14:44:02Z</time></trkpt><trkpt lat="44.80522719396083" lon="9.50875174545439"><ele>271.0</ele><time>2026-03-27T14:44:03Z</time></trkpt><trkpt lat="44.805367233709475" lon="9.508711593686336"><ele>271.0</ele><time>2026-03-27T14:44:04Z</time></trkpt><trkpt lat="44.805511783571674" lon="9.508685768412255"><ele>271.0</ele><time>2026-03-27T14:44:05Z</time></trkpt><trkpt lat="44.80565565102128" lon="9.5086851047329"><ele>271.0</ele><time>2026-03-27T14:44:06Z</time></trkpt><trkpt lat="44.8057991064383" lon="9.508692375289895"><ele>271.0</ele><time>2026-03-27T14:44:07Z</time></trkpt><trkpt lat="44.805943208782516" lon="9.508671723379871"><ele>269.66666666666663</ele><time>2026-03-27T14:44:08Z</time></trkpt><trkpt lat="44.80609208521521" lon="9.508611145636259"><ele>268.3333333333333</ele><time>2026-03-27T14:44:09Z</time></trkpt><trkpt lat="44.806244106927664" lon="9.508537125314843"><ele>267.0</ele><time>2026-03-27T14:44:09.999Z</time></trkpt><trkpt lat="44.806398155364754" lon="9.508481806933126"><ele>267.0</ele><time>2026-03-27T14:44:10.999Z</time></trkpt><trkpt lat="44.80654399715689" lon="9.508455446277804"><ele>267.0</ele><time>2026-03-27T14:44:11.999Z</time></trkpt><trkpt lat="44.80667852470449" lon="9.508429763971721"><ele>267.0</ele><time>2026-03-27T14:44:12.999Z</time></trkpt><trkpt lat="44.80680363151615" lon="9.508418984302718"><ele>267.0</ele><time>2026-03-27T14:44:13.999Z</time></trkpt><trkpt lat="44.80691916599802" lon="9.50842557729405"><ele>267.5</ele><time>2026-03-27T14:44:14.999Z</time></trkpt><trkpt lat="44.80702979960212" lon="9.508455200334158"><ele>268.0</ele><time>2026-03-27T14:44:15.999Z</time></trkpt><trkpt lat="44.80713556089678" lon="9.508522129236658"><ele>268.5</ele><time>2026-03-27T14:44:16.999Z</time></trkpt><trkpt lat="44.80723781149543" lon="9.508618010840962"><ele>269.0</ele><time>2026-03-27T14:44:17.999Z</time></trkpt><trkpt lat="44.80734816350487" lon="9.508686256853936"><ele>269.0</ele><time>2026-03-27T14:44:18.999Z</time></trkpt><trkpt lat="44.807470544825094" lon="9.508715145799638"><ele>269.0</ele><time>2026-03-27T14:44:19.999Z</time></trkpt><trkpt lat="44.80758959489609" lon="9.508720783784266"><ele>269.0</ele><time>2026-03-27T14:44:20.999Z</time></trkpt><trkpt lat="44.80770021148141" lon="9.508706025039974"><ele>269.0</ele><time>2026-03-27T14:44:21.999Z</time></trkpt><trkpt lat="44.80780515032702" lon="9.508637760680898"><ele>267.5</ele><time>2026-03-27T14:44:22.999Z</time></trkpt><trkpt lat="44.80790532216377" lon="9.50854702748574"><ele>266.0</ele><time>2026-03-27T14:44:23.999Z</time></trkpt><trkpt lat="44.80798883206327" lon="9.508460349580245"><ele>264.5</ele><time>2026-03-27T14:44:24.999Z</time></trkpt><trkpt lat="44.80810166047791" lon="9.508405013236665"><ele>263.0</ele><time>2026-03-27T14:44:25.999Z</time></trkpt><trkpt lat="44.808226308466246" lon="9.508380563499388"><ele>263.0</ele><time>2026-03-27T14:44:26.999Z</time></trkpt><trkpt lat="44.808358631886826" lon="9.50837870743668"><ele>263.0</ele><time>2026-03-27T14:44:27.999Z</time></trkpt><trkpt lat="44.80849034421618" lon="9.508376392552321"><ele>263.0</ele><time>2026-03-27T14:44:28.999Z</time></trkpt><trkpt lat="44.808611632905425" lon="9.508342578410836"><ele>263.0</ele><time>2026-03-27T14:44:29.999Z</time></trkpt><trkpt lat="44.80872539783301" lon="9.508304381928061"><ele>261.0</ele><time>2026-03-27T14:44:30.999Z</time></trkpt><trkpt lat="44.808839930056365" lon="9.508282324464753"><ele>259.0</ele><time>2026-03-27T14:44:31.999Z</time></trkpt><trkpt lat="44.80895585960387" lon="9.50831772008554"><ele>257.0</ele><time>2026-03-27T14:44:32.999Z</time></trkpt><trkpt lat="44.80906778827327" lon="9.508392268499051"><ele>255.0</ele><time>2026-03-27T14:44:33.999Z</time></trkpt><trkpt lat="44.809182156972774" lon="9.508441738814799"><ele>255.0</ele><time>2026-03-27T14:44:34.999Z</time></trkpt><trkpt lat="44.809310886475586" lon="9.508443655472876"><ele>255.0</ele><time>2026-03-27T14:44:35.999Z</time></trkpt><trkpt lat="44.80945724605845" lon="9.508409156687252"><ele>255.0</ele><time>2026-03-27T14:44:36.999Z</time></trkpt><trkpt lat="44.80961552648998" lon="9.508375131971462"><ele>255.0</ele><time>2026-03-27T14:44:37.999Z</time></trkpt><trkpt lat="44.809787981107306" lon="9.508344968856346"><ele>252.33333333333331</ele><time>2026-03-27T14:44:38.999Z</time></trkpt><trkpt lat="44.809960192673415" lon="9.508314500118308"><ele>249.66666666666666</ele><time>2026-03-27T14:44:39.999Z</time></trkpt><trkpt lat="44.810134705505554" lon="9.508255103978213"><ele>247.0</ele><time>2026-03-27T14:44:40.999Z</time></trkpt><trkpt lat="44.81029048997719" lon="9.508184079538363"><ele>250.0</ele><time>2026-03-27T14:44:41.999Z</time></trkpt><trkpt lat="44.81042910449109" lon="9.508107732055656"><ele>253.0</ele><time>2026-03-27T14:44:42.999Z</time></trkpt><trkpt lat="44.81057003904643" lon="9.508028310279593"><ele>256.0</ele><time>2026-03-27T14:44:43.999Z</time></trkpt><trkpt lat="44.810706978424534" lon="9.507948521482989"><ele>259.0</ele><time>2026-03-27T14:44:44.999Z</time></trkpt><trkpt lat="44.810836294328276" lon="9.507855454137497"><ele>259.0</ele><time>2026-03-27T14:44:45.999Z</time></trkpt><trkpt lat="44.81096092727675" lon="9.507732605312441"><ele>259.0</ele><time>2026-03-27T14:44:46.999Z</time></trkpt><trkpt lat="44.811084156894424" lon="9.507599588709665"><ele>259.0</ele><time>2026-03-27T14:44:47.999Z</time></trkpt><trkpt lat="44.81120182329261" lon="9.50746915947235"><ele>260.5</ele><time>2026-03-27T14:44:48.999Z</time></trkpt><trkpt lat="44.811321511543134" lon="9.507342435531609"><ele>262.0</ele><time>2026-03-27T14:44:49.999Z</time></trkpt><trkpt lat="44.81143808207652" lon="9.507226712782792"><ele>263.5</ele><time>2026-03-27T14:44:50.999Z</time></trkpt><trkpt lat="44.81154641087842" lon="9.50712229900222"><ele>265.0</ele><time>2026-03-27T14:44:51.999Z</time></trkpt><trkpt lat="44.811654914265404" lon="9.507029660848625"><ele>265.0</ele><time>2026-03-27T14:44:52.999Z</time></trkpt><trkpt lat="44.81176982066305" lon="9.506967546136062"><ele>265.0</ele><time>2026-03-27T14:44:53.999Z</time></trkpt><trkpt lat="44.81189795100855" lon="9.506949153003177"><ele>265.0</ele><time>2026-03-27T14:44:54.999Z</time></trkpt><trkpt lat="44.812029047708286" lon="9.506959647669108"><ele>265.0</ele><time>2026-03-27T14:44:55.999Z</time></trkpt><trkpt lat="44.81214259836894" lon="9.507009382875621"><ele>256.0</ele><time>2026-03-27T14:44:56.999Z</time></trkpt><trkpt lat="44.81224718102983" lon="9.507083135487084"><ele>247.0</ele><time>2026-03-27T14:44:57.999Z</time></trkpt><trkpt lat="44.81234790213731" lon="9.50713349915668"><ele>238.0</ele><time>2026-03-27T14:44:58.999Z</time></trkpt><trkpt lat="44.81245311088312" lon="9.50714590976493"><ele>229.0</ele><time>2026-03-27T14:44:59.999Z</time></trkpt><trkpt lat="44.812570742367726" lon="9.507104415705545"><ele>230.25</ele><time>2026-03-27T14:45:00.999Z</time></trkpt><trkpt lat="44.812681363008636" lon="9.507038328787749"><ele>231.5</ele><time>2026-03-27T14:45:01.999Z</time></trkpt><trkpt lat="44.812793057551204" lon="9.50691964526235"><ele>232.75</ele><time>2026-03-27T14:45:02.999Z</time></trkpt><trkpt lat="44.812914408598466" lon="9.506806521045656"><ele>234.0</ele><time>2026-03-27T14:45:03.999Z</time></trkpt><trkpt lat="44.81305809175926" lon="9.506712158210618"><ele>234.0</ele><time>2026-03-27T14:45:04.999Z</time></trkpt><trkpt lat="44.81320177820776" lon="9.506642052081158"><ele>234.0</ele><time>2026-03-27T14:45:05.999Z</time></trkpt><trkpt lat="44.81333894670707" lon="9.506566155785649"><ele>234.0</ele><time>2026-03-27T14:45:06.999Z</time></trkpt><trkpt lat="44.81346856570655" lon="9.506477028685042"><ele>234.0</ele><time>2026-03-27T14:45:07.999Z</time></trkpt><trkpt lat="44.81358542313933" lon="9.50636232706158"><ele>232.75</ele><time>2026-03-27T14:45:08.999Z</time></trkpt><trkpt lat="44.81368932967479" lon="9.506237011438623"><ele>231.5</ele><time>2026-03-27T14:45:09.999Z</time></trkpt><trkpt lat="44.81378746090689" lon="9.506124207477288"><ele>230.25</ele><time>2026-03-27T14:45:10.999Z</time></trkpt><trkpt lat="44.813895197242246" lon="9.5060475952354"><ele>229.0</ele><time>2026-03-27T14:45:11.999Z</time></trkpt><trkpt lat="44.81402150538505" lon="9.5060278162308"><ele>229.0</ele><time>2026-03-27T14:45:12.999Z</time></trkpt><trkpt lat="44.81414833684368" lon="9.50602222257018"><ele>229.0</ele><time>2026-03-27T14:45:13.999Z</time></trkpt><trkpt lat="44.814270470646434" lon="9.505997897269218"><ele>229.0</ele><time>2026-03-27T14:45:14.999Z</time></trkpt><trkpt lat="44.814383484871065" lon="9.505943013265677"><ele>229.0</ele><time>2026-03-27T14:45:15.999Z</time></trkpt><trkpt lat="44.81447713669553" lon="9.505840876168422"><ele>228.25</ele><time>2026-03-27T14:45:16.999Z</time></trkpt><trkpt lat="44.81455478050163" lon="9.505712588508345"><ele>227.5</ele><time>2026-03-27T14:45:17.999Z</time></trkpt><trkpt lat="44.814683173233036" lon="9.505636936673394"><ele>226.75</ele><time>2026-03-27T14:45:18.999Z</time></trkpt><trkpt lat="44.81468584830896" lon="9.50537245907427"><ele>226.0</ele><time>2026-03-27T14:45:19.999Z</time></trkpt><trkpt lat="44.814748506317706" lon="9.50517764021242"><ele>226.0</ele><time>2026-03-27T14:45:20.999Z</time></trkpt><trkpt lat="44.81481187979924" lon="9.504982457615961"><ele>226.0</ele><time>2026-03-27T14:45:21.999Z</time></trkpt><trkpt lat="44.81487063480298" lon="9.504801157399863"><ele>226.0</ele><time>2026-03-27T14:45:22.999Z</time></trkpt><trkpt lat="44.81492555851811" lon="9.504634610890824"><ele>226.0</ele><time>2026-03-27T14:45:23.999Z</time></trkpt><trkpt lat="44.81498439944294" lon="9.504481488471388"><ele>224.5</ele><time>2026-03-27T14:45:24.999Z</time></trkpt><trkpt lat="44.81505518276207" lon="9.504336720636841"><ele>223.0</ele><time>2026-03-27T14:45:25.999Z</time></trkpt><trkpt lat="44.81513510319854" lon="9.504208917574179"><ele>221.5</ele><time>2026-03-27T14:45:26.999Z</time></trkpt><trkpt lat="44.81523642076296" lon="9.504110045310226"><ele>220.0</ele><time>2026-03-27T14:45:27.999Z</time></trkpt><trkpt lat="44.815346617371155" lon="9.50404419209701"><ele>220.0</ele><time>2026-03-27T14:45:28.999Z</time></trkpt><trkpt lat="44.815470378325955" lon="9.504046134699715"><ele>220.0</ele><time>2026-03-27T14:45:29.999Z</time></trkpt><trkpt lat="44.81559042100733" lon="9.504058079526924"><ele>220.0</ele><time>2026-03-27T14:45:30.999Z</time></trkpt><trkpt lat="44.815719714622695" lon="9.504071328132303"><ele>220.0</ele><time>2026-03-27T14:45:31.999Z</time></trkpt><trkpt lat="44.815848489070305" lon="9.504114735660915"><ele>220.0</ele><time>2026-03-27T14:45:32.999Z</time></trkpt><trkpt lat="44.81598232874957" lon="9.504147849851279"><ele>220.0</ele><time>2026-03-27T14:45:33.999Z</time></trkpt><trkpt lat="44.81611641644568" lon="9.504183313771602"><ele>220.0</ele><time>2026-03-27T14:45:34.999Z</time></trkpt><trkpt lat="44.81624937291806" lon="9.504223701473807"><ele>220.0</ele><time>2026-03-27T14:45:35.999Z</time></trkpt><trkpt lat="44.8163810969168" lon="9.504251953788096"><ele>219.0</ele><time>2026-03-27T14:45:36.999Z</time></trkpt><trkpt lat="44.81651761283275" lon="9.504252451479093"><ele>218.0</ele><time>2026-03-27T14:45:37.999Z</time></trkpt><trkpt lat="44.81665229661149" lon="9.504232117194965"><ele>217.0</ele><time>2026-03-27T14:45:38.999Z</time></trkpt><trkpt lat="44.81678437306547" lon="9.504182856690996"><ele>216.0</ele><time>2026-03-27T14:45:39.999Z</time></trkpt><trkpt lat="44.816897160500105" lon="9.504119184104818"><ele>215.75</ele><time>2026-03-27T14:45:40.999Z</time></trkpt><trkpt lat="44.816995772752676" lon="9.504044906823717"><ele>215.5</ele><time>2026-03-27T14:45:41.999Z</time></trkpt><trkpt lat="44.81707592690613" lon="9.503933747718275"><ele>215.25</ele><time>2026-03-27T14:45:42.999Z</time></trkpt><trkpt lat="44.81715311218701" lon="9.503805146144654"><ele>215.0</ele><time>2026-03-27T14:45:43.999Z</time></trkpt><trkpt lat="44.81723694459933" lon="9.503680850402716"><ele>215.0</ele><time>2026-03-27T14:45:44.999Z</time></trkpt><trkpt lat="44.8173330301171" lon="9.503572827288194"><ele>215.0</ele><time>2026-03-27T14:45:45.999Z</time></trkpt><trkpt lat="44.81744020182693" lon="9.503474251551765"><ele>215.0</ele><time>2026-03-27T14:45:46.999Z</time></trkpt><trkpt lat="44.817557026901696" lon="9.503384254726944"><ele>215.0</ele><time>2026-03-27T14:45:47.999Z</time></trkpt><trkpt lat="44.8176756227317" lon="9.503288873082264"><ele>214.5</ele><time>2026-03-27T14:45:48.999Z</time></trkpt><trkpt lat="44.81778790339529" lon="9.503185219507788"><ele>214.0</ele><time>2026-03-27T14:45:49.999Z</time></trkpt><trkpt lat="44.81788093042003" lon="9.503074567042871"><ele>213.5</ele><time>2026-03-27T14:45:50.999Z</time></trkpt><trkpt lat="44.817960909715595" lon="9.50296114256255"><ele>213.0</ele><time>2026-03-27T14:45:51.999Z</time></trkpt><trkpt lat="44.81804480946481" lon="9.502869563607344"><ele>213.0</ele><time>2026-03-27T14:45:52.999Z</time></trkpt><trkpt lat="44.81813676919692" lon="9.502800046264248"><ele>213.0</ele><time>2026-03-27T14:45:53.999Z</time></trkpt><trkpt lat="44.81823988145842" lon="9.502742551580269"><ele>213.0</ele><time>2026-03-27T14:45:54.999Z</time></trkpt><trkpt lat="44.818339991256494" lon="9.502703987386447"><ele>213.0</ele><time>2026-03-27T14:45:56Z</time></trkpt><trkpt lat="44.81843456945232" lon="9.502662010118387"><ele>213.0</ele><time>2026-03-27T14:45:57Z</time></trkpt><trkpt lat="44.81853107144586" lon="9.502621143383477"><ele>212.0</ele><time>2026-03-27T14:45:58Z</time></trkpt><trkpt lat="44.81862906967502" lon="9.502573882474799"><ele>211.0</ele><time>2026-03-27T14:45:59Z</time></trkpt><trkpt lat="44.81872809599853" lon="9.502530169678838"><ele>210.0</ele><time>2026-03-27T14:46:00Z</time></trkpt><trkpt lat="44.818818645564576" lon="9.502489238354386"><ele>209.0</ele><time>2026-03-27T14:46:01Z</time></trkpt><trkpt lat="44.81890164598447" lon="9.502446728633371"><ele>208.0</ele><time>2026-03-27T14:46:02Z</time></trkpt><trkpt lat="44.81897749526558" lon="9.502410127413324"><ele>207.99999999999997</ele><time>2026-03-27T14:46:03Z</time></trkpt><trkpt lat="44.81904523992553" lon="9.502377485380908"><ele>208.0</ele><time>2026-03-27T14:46:04Z</time></trkpt><trkpt lat="44.81910023253667" lon="9.50232772261965"><ele>208.0</ele><time>2026-03-27T14:46:05Z</time></trkpt><trkpt lat="44.81919491432903" lon="9.502265661190908"><ele>208.0</ele><time>2026-03-27T14:46:07Z</time></trkpt><trkpt lat="44.819271290039595" lon="9.502211587015012"><ele>207.99999999999997</ele><time>2026-03-27T14:46:09Z</time></trkpt><trkpt lat="44.81933724840312" lon="9.502171751143381"><ele>208.0</ele><time>2026-03-27T14:46:11Z</time></trkpt><trkpt lat="44.819399745394634" lon="9.502145393584827"><ele>205.0</ele><time>2026-03-27T14:46:13Z</time></trkpt><trkpt lat="44.81946640551165" lon="9.502126818839855"><ele>205.0</ele><time>2026-03-27T14:46:15Z</time></trkpt><trkpt lat="44.819532253040244" lon="9.502118864995955"><ele>205.0</ele><time>2026-03-27T14:46:17.999Z</time></trkpt></trkseg></trk></gpx>